<?xml version="1.0" encoding="UTF-8" standalone="no" ?>
<gpx xmlns="http://www.topografix.com/GPX/1/1" xmlns:xsi="http://www.w3.org/2001/XMLSchema-instance" xsi:schemaLocation="http://www.topografix.com/GPX/1/1 http://www.topografix.com/GPX/1/1/gpx.xsd" version="1.1" creator="VisuGPX - https://www.visugpx.com">
  <metadata>
    <name>le Hohwald</name>
    <desc><![CDATA[Trace AlpineQuest 21/05/2020 08:29:48]]></desc>
  </metadata>
  <trk>
    <name><![CDATA[le Hohwald_1]]></name>
    <trkseg>
      <trkpt lat="48.40439" lon="7.33129">
        <ele>622.05401611328</ele>
        <time>2020-05-21T06:29:48Z</time>
      </trkpt>
      <trkpt lat="48.40445" lon="7.33134">
        <ele>583.05401611328</ele>
        <time>2020-05-21T06:29:59Z</time>
      </trkpt>
      <trkpt lat="48.4045" lon="7.33142">
        <ele>583.05401611328</ele>
        <time>2020-05-21T06:30:05Z</time>
      </trkpt>
      <trkpt lat="48.40456" lon="7.33149">
        <ele>585.05401611328</ele>
        <time>2020-05-21T06:30:11Z</time>
      </trkpt>
      <trkpt lat="48.40456" lon="7.33159">
        <ele>586.05401611328</ele>
        <time>2020-05-21T06:30:16Z</time>
      </trkpt>
      <trkpt lat="48.40453" lon="7.33171">
        <ele>585.05401611328</ele>
        <time>2020-05-21T06:30:22Z</time>
      </trkpt>
      <trkpt lat="48.40456" lon="7.33179">
        <ele>586.05401611328</ele>
        <time>2020-05-21T06:30:27Z</time>
      </trkpt>
      <trkpt lat="48.40455" lon="7.33189">
        <ele>586.05401611328</ele>
        <time>2020-05-21T06:30:34Z</time>
      </trkpt>
      <trkpt lat="48.40459" lon="7.33197">
        <ele>587.05401611328</ele>
        <time>2020-05-21T06:30:39Z</time>
      </trkpt>
      <trkpt lat="48.40462" lon="7.33206">
        <ele>591.05401611328</ele>
        <time>2020-05-21T06:30:48Z</time>
      </trkpt>
      <trkpt lat="48.40469" lon="7.33211">
        <ele>590.05401611328</ele>
        <time>2020-05-21T06:30:54Z</time>
      </trkpt>
      <trkpt lat="48.40475" lon="7.33217">
        <ele>589.05401611328</ele>
        <time>2020-05-21T06:30:59Z</time>
      </trkpt>
      <trkpt lat="48.40471" lon="7.33226">
        <ele>589.05401611328</ele>
        <time>2020-05-21T06:31:05Z</time>
      </trkpt>
      <trkpt lat="48.40474" lon="7.33237">
        <ele>587.05401611328</ele>
        <time>2020-05-21T06:31:12Z</time>
      </trkpt>
      <trkpt lat="48.40478" lon="7.33246">
        <ele>587.05401611328</ele>
        <time>2020-05-21T06:31:19Z</time>
      </trkpt>
      <trkpt lat="48.40483" lon="7.33254">
        <ele>591.05401611328</ele>
        <time>2020-05-21T06:31:28Z</time>
      </trkpt>
      <trkpt lat="48.40485" lon="7.33264">
        <ele>591.05401611328</ele>
        <time>2020-05-21T06:31:34Z</time>
      </trkpt>
      <trkpt lat="48.40488" lon="7.33273">
        <ele>594.05401611328</ele>
        <time>2020-05-21T06:31:41Z</time>
      </trkpt>
      <trkpt lat="48.40493" lon="7.3328">
        <ele>595.05401611328</ele>
        <time>2020-05-21T06:31:55Z</time>
      </trkpt>
      <trkpt lat="48.40501" lon="7.3329">
        <ele>595.05401611328</ele>
        <time>2020-05-21T06:32:00Z</time>
      </trkpt>
      <trkpt lat="48.40506" lon="7.333">
        <ele>596.05401611328</ele>
        <time>2020-05-21T06:32:05Z</time>
      </trkpt>
      <trkpt lat="48.40517" lon="7.33306">
        <ele>596.05401611328</ele>
        <time>2020-05-21T06:32:10Z</time>
      </trkpt>
      <trkpt lat="48.40522" lon="7.33312">
        <ele>595.05401611328</ele>
        <time>2020-05-21T06:32:17Z</time>
      </trkpt>
      <trkpt lat="48.40529" lon="7.33315">
        <ele>599.05401611328</ele>
        <time>2020-05-21T06:32:23Z</time>
      </trkpt>
      <trkpt lat="48.40536" lon="7.33316">
        <ele>602.05401611328</ele>
        <time>2020-05-21T06:32:28Z</time>
      </trkpt>
      <trkpt lat="48.40543" lon="7.33315">
        <ele>603.05401611328</ele>
        <time>2020-05-21T06:32:33Z</time>
      </trkpt>
      <trkpt lat="48.4055" lon="7.33319">
        <ele>603.05401611328</ele>
        <time>2020-05-21T06:32:38Z</time>
      </trkpt>
      <trkpt lat="48.40555" lon="7.33326">
        <ele>604.05401611328</ele>
        <time>2020-05-21T06:32:44Z</time>
      </trkpt>
      <trkpt lat="48.4056" lon="7.33332">
        <ele>610.05401611328</ele>
        <time>2020-05-21T06:32:51Z</time>
      </trkpt>
      <trkpt lat="48.40565" lon="7.3334">
        <ele>612.05401611328</ele>
        <time>2020-05-21T06:32:57Z</time>
      </trkpt>
      <trkpt lat="48.40571" lon="7.33348">
        <ele>609.05401611328</ele>
        <time>2020-05-21T06:33:03Z</time>
      </trkpt>
      <trkpt lat="48.40574" lon="7.33357">
        <ele>610.05401611328</ele>
        <time>2020-05-21T06:33:09Z</time>
      </trkpt>
      <trkpt lat="48.40577" lon="7.33366">
        <ele>612.05401611328</ele>
        <time>2020-05-21T06:33:15Z</time>
      </trkpt>
      <trkpt lat="48.40583" lon="7.33374">
        <ele>614.05401611328</ele>
        <time>2020-05-21T06:33:20Z</time>
      </trkpt>
      <trkpt lat="48.40586" lon="7.33383">
        <ele>613.05401611328</ele>
        <time>2020-05-21T06:33:27Z</time>
      </trkpt>
      <trkpt lat="48.4059" lon="7.33392">
        <ele>612.05401611328</ele>
        <time>2020-05-21T06:33:34Z</time>
      </trkpt>
      <trkpt lat="48.40595" lon="7.33398">
        <ele>611.05401611328</ele>
        <time>2020-05-21T06:33:39Z</time>
      </trkpt>
      <trkpt lat="48.40599" lon="7.33407">
        <ele>610.05401611328</ele>
        <time>2020-05-21T06:33:44Z</time>
      </trkpt>
      <trkpt lat="48.40602" lon="7.33417">
        <ele>612.05401611328</ele>
        <time>2020-05-21T06:33:51Z</time>
      </trkpt>
      <trkpt lat="48.40606" lon="7.33427">
        <ele>613.05401611328</ele>
        <time>2020-05-21T06:33:57Z</time>
      </trkpt>
      <trkpt lat="48.4061" lon="7.33435">
        <ele>614.05401611328</ele>
        <time>2020-05-21T06:34:05Z</time>
      </trkpt>
      <trkpt lat="48.40613" lon="7.33444">
        <ele>616.05401611328</ele>
        <time>2020-05-21T06:34:10Z</time>
      </trkpt>
      <trkpt lat="48.40617" lon="7.33452">
        <ele>614.05401611328</ele>
        <time>2020-05-21T06:34:17Z</time>
      </trkpt>
      <trkpt lat="48.40621" lon="7.33462">
        <ele>614.05401611328</ele>
        <time>2020-05-21T06:34:22Z</time>
      </trkpt>
      <trkpt lat="48.40625" lon="7.33472">
        <ele>618.05401611328</ele>
        <time>2020-05-21T06:34:29Z</time>
      </trkpt>
      <trkpt lat="48.40628" lon="7.33482">
        <ele>619.05401611328</ele>
        <time>2020-05-21T06:34:37Z</time>
      </trkpt>
      <trkpt lat="48.40629" lon="7.33492">
        <ele>622.05401611328</ele>
        <time>2020-05-21T06:34:42Z</time>
      </trkpt>
      <trkpt lat="48.40633" lon="7.335">
        <ele>621.05401611328</ele>
        <time>2020-05-21T06:34:47Z</time>
      </trkpt>
      <trkpt lat="48.40635" lon="7.33511">
        <ele>622.05401611328</ele>
        <time>2020-05-21T06:34:53Z</time>
      </trkpt>
      <trkpt lat="48.40638" lon="7.33521">
        <ele>617.05401611328</ele>
        <time>2020-05-21T06:35:00Z</time>
      </trkpt>
      <trkpt lat="48.40638" lon="7.33532">
        <ele>617.05401611328</ele>
        <time>2020-05-21T06:35:05Z</time>
      </trkpt>
      <trkpt lat="48.40639" lon="7.33542">
        <ele>617.05401611328</ele>
        <time>2020-05-21T06:35:11Z</time>
      </trkpt>
      <trkpt lat="48.40639" lon="7.33552">
        <ele>620.05401611328</ele>
        <time>2020-05-21T06:35:18Z</time>
      </trkpt>
      <trkpt lat="48.40641" lon="7.33562">
        <ele>624.05401611328</ele>
        <time>2020-05-21T06:35:24Z</time>
      </trkpt>
      <trkpt lat="48.40644" lon="7.33572">
        <ele>623.05401611328</ele>
        <time>2020-05-21T06:35:30Z</time>
      </trkpt>
      <trkpt lat="48.40645" lon="7.33582">
        <ele>629.05401611328</ele>
        <time>2020-05-21T06:35:36Z</time>
      </trkpt>
      <trkpt lat="48.40648" lon="7.33592">
        <ele>634.05401611328</ele>
        <time>2020-05-21T06:35:42Z</time>
      </trkpt>
      <trkpt lat="48.40651" lon="7.33602">
        <ele>631.05401611328</ele>
        <time>2020-05-21T06:35:48Z</time>
      </trkpt>
      <trkpt lat="48.40655" lon="7.33611">
        <ele>628.05401611328</ele>
        <time>2020-05-21T06:35:55Z</time>
      </trkpt>
      <trkpt lat="48.40658" lon="7.33621">
        <ele>626.05401611328</ele>
        <time>2020-05-21T06:36:01Z</time>
      </trkpt>
      <trkpt lat="48.40659" lon="7.33632">
        <ele>630.05401611328</ele>
        <time>2020-05-21T06:36:07Z</time>
      </trkpt>
      <trkpt lat="48.40658" lon="7.33643">
        <ele>634.05401611328</ele>
        <time>2020-05-21T06:36:13Z</time>
      </trkpt>
      <trkpt lat="48.40661" lon="7.33652">
        <ele>634.05401611328</ele>
        <time>2020-05-21T06:36:18Z</time>
      </trkpt>
      <trkpt lat="48.40666" lon="7.3366">
        <ele>636.05401611328</ele>
        <time>2020-05-21T06:36:25Z</time>
      </trkpt>
      <trkpt lat="48.4067" lon="7.33667">
        <ele>636.05401611328</ele>
        <time>2020-05-21T06:36:31Z</time>
      </trkpt>
      <trkpt lat="48.40673" lon="7.33678">
        <ele>636.05401611328</ele>
        <time>2020-05-21T06:36:36Z</time>
      </trkpt>
      <trkpt lat="48.40675" lon="7.33687">
        <ele>637.05401611328</ele>
        <time>2020-05-21T06:36:42Z</time>
      </trkpt>
      <trkpt lat="48.40674" lon="7.33698">
        <ele>639.05401611328</ele>
        <time>2020-05-21T06:36:48Z</time>
      </trkpt>
      <trkpt lat="48.40676" lon="7.33708">
        <ele>639.05401611328</ele>
        <time>2020-05-21T06:36:54Z</time>
      </trkpt>
      <trkpt lat="48.40679" lon="7.33717">
        <ele>641.05401611328</ele>
        <time>2020-05-21T06:37:01Z</time>
      </trkpt>
      <trkpt lat="48.40682" lon="7.33728">
        <ele>644.05401611328</ele>
        <time>2020-05-21T06:37:07Z</time>
      </trkpt>
      <trkpt lat="48.40687" lon="7.33736">
        <ele>645.05401611328</ele>
        <time>2020-05-21T06:37:12Z</time>
      </trkpt>
      <trkpt lat="48.40691" lon="7.33744">
        <ele>648.05401611328</ele>
        <time>2020-05-21T06:37:19Z</time>
      </trkpt>
      <trkpt lat="48.40698" lon="7.33747">
        <ele>646.05401611328</ele>
        <time>2020-05-21T06:37:26Z</time>
      </trkpt>
      <trkpt lat="48.40704" lon="7.33752">
        <ele>645.05401611328</ele>
        <time>2020-05-21T06:37:32Z</time>
      </trkpt>
      <trkpt lat="48.4071" lon="7.3376">
        <ele>647.05401611328</ele>
        <time>2020-05-21T06:37:37Z</time>
      </trkpt>
      <trkpt lat="48.40716" lon="7.33767">
        <ele>650.05401611328</ele>
        <time>2020-05-21T06:37:47Z</time>
      </trkpt>
      <trkpt lat="48.40721" lon="7.33773">
        <ele>650.05401611328</ele>
        <time>2020-05-21T06:37:54Z</time>
      </trkpt>
      <trkpt lat="48.40727" lon="7.33779">
        <ele>654.05401611328</ele>
        <time>2020-05-21T06:38:00Z</time>
      </trkpt>
      <trkpt lat="48.40733" lon="7.33783">
        <ele>656.05401611328</ele>
        <time>2020-05-21T06:38:07Z</time>
      </trkpt>
      <trkpt lat="48.40742" lon="7.33784">
        <ele>655.05401611328</ele>
        <time>2020-05-21T06:38:14Z</time>
      </trkpt>
      <trkpt lat="48.4075" lon="7.33785">
        <ele>655.05401611328</ele>
        <time>2020-05-21T06:38:21Z</time>
      </trkpt>
      <trkpt lat="48.40757" lon="7.33783">
        <ele>654.05401611328</ele>
        <time>2020-05-21T06:38:28Z</time>
      </trkpt>
      <trkpt lat="48.40764" lon="7.3378">
        <ele>656.05401611328</ele>
        <time>2020-05-21T06:38:34Z</time>
      </trkpt>
      <trkpt lat="48.40771" lon="7.33776">
        <ele>659.05401611328</ele>
        <time>2020-05-21T06:38:40Z</time>
      </trkpt>
      <trkpt lat="48.40778" lon="7.33771">
        <ele>657.05401611328</ele>
        <time>2020-05-21T06:38:45Z</time>
      </trkpt>
      <trkpt lat="48.40784" lon="7.33775">
        <ele>656.05401611328</ele>
        <time>2020-05-21T06:38:55Z</time>
      </trkpt>
      <trkpt lat="48.40791" lon="7.33781">
        <ele>657.05401611328</ele>
        <time>2020-05-21T06:39:01Z</time>
      </trkpt>
      <trkpt lat="48.40798" lon="7.33786">
        <ele>654.05401611328</ele>
        <time>2020-05-21T06:39:07Z</time>
      </trkpt>
      <trkpt lat="48.40802" lon="7.33789">
        <ele>655.05401611328</ele>
        <time>2020-05-21T06:39:11Z</time>
      </trkpt>
      <trkpt lat="48.40807" lon="7.33797">
        <ele>658.05401611328</ele>
        <time>2020-05-21T06:39:18Z</time>
      </trkpt>
      <trkpt lat="48.40812" lon="7.33803">
        <ele>660.05401611328</ele>
        <time>2020-05-21T06:39:23Z</time>
      </trkpt>
      <trkpt lat="48.40817" lon="7.33809">
        <ele>659.05401611328</ele>
        <time>2020-05-21T06:39:29Z</time>
      </trkpt>
      <trkpt lat="48.40822" lon="7.33817">
        <ele>659.05401611328</ele>
        <time>2020-05-21T06:39:36Z</time>
      </trkpt>
      <trkpt lat="48.40825" lon="7.33826">
        <ele>659.05401611328</ele>
        <time>2020-05-21T06:39:42Z</time>
      </trkpt>
      <trkpt lat="48.40828" lon="7.33834">
        <ele>659.05401611328</ele>
        <time>2020-05-21T06:39:49Z</time>
      </trkpt>
      <trkpt lat="48.40835" lon="7.33839">
        <ele>658.05401611328</ele>
        <time>2020-05-21T06:39:55Z</time>
      </trkpt>
      <trkpt lat="48.40842" lon="7.33841">
        <ele>660.05401611328</ele>
        <time>2020-05-21T06:40:01Z</time>
      </trkpt>
      <trkpt lat="48.40848" lon="7.33848">
        <ele>661.05401611328</ele>
        <time>2020-05-21T06:40:06Z</time>
      </trkpt>
      <trkpt lat="48.40851" lon="7.33856">
        <ele>660.05401611328</ele>
        <time>2020-05-21T06:40:13Z</time>
      </trkpt>
      <trkpt lat="48.40858" lon="7.33857">
        <ele>661.05401611328</ele>
        <time>2020-05-21T06:40:20Z</time>
      </trkpt>
      <trkpt lat="48.40867" lon="7.33859">
        <ele>660.05401611328</ele>
        <time>2020-05-21T06:40:25Z</time>
      </trkpt>
      <trkpt lat="48.40874" lon="7.33867">
        <ele>660.05401611328</ele>
        <time>2020-05-21T06:40:31Z</time>
      </trkpt>
      <trkpt lat="48.40879" lon="7.33874">
        <ele>665.05401611328</ele>
        <time>2020-05-21T06:40:36Z</time>
      </trkpt>
      <trkpt lat="48.40885" lon="7.33879">
        <ele>667.05401611328</ele>
        <time>2020-05-21T06:40:43Z</time>
      </trkpt>
      <trkpt lat="48.40888" lon="7.33888">
        <ele>669.05401611328</ele>
        <time>2020-05-21T06:40:49Z</time>
      </trkpt>
      <trkpt lat="48.40893" lon="7.33895">
        <ele>666.05401611328</ele>
        <time>2020-05-21T06:40:56Z</time>
      </trkpt>
      <trkpt lat="48.40897" lon="7.33905">
        <ele>665.05401611328</ele>
        <time>2020-05-21T06:41:03Z</time>
      </trkpt>
      <trkpt lat="48.40903" lon="7.3391">
        <ele>664.05401611328</ele>
        <time>2020-05-21T06:41:09Z</time>
      </trkpt>
      <trkpt lat="48.40909" lon="7.33917">
        <ele>665.05401611328</ele>
        <time>2020-05-21T06:41:16Z</time>
      </trkpt>
      <trkpt lat="48.40911" lon="7.33927">
        <ele>666.05401611328</ele>
        <time>2020-05-21T06:41:21Z</time>
      </trkpt>
      <trkpt lat="48.40913" lon="7.33937">
        <ele>666.05401611328</ele>
        <time>2020-05-21T06:41:27Z</time>
      </trkpt>
      <trkpt lat="48.40917" lon="7.33946">
        <ele>667.05401611328</ele>
        <time>2020-05-21T06:41:34Z</time>
      </trkpt>
      <trkpt lat="48.4092" lon="7.33955">
        <ele>667.05401611328</ele>
        <time>2020-05-21T06:41:41Z</time>
      </trkpt>
      <trkpt lat="48.40925" lon="7.33962">
        <ele>671.05401611328</ele>
        <time>2020-05-21T06:41:48Z</time>
      </trkpt>
      <trkpt lat="48.40929" lon="7.3397">
        <ele>672.05401611328</ele>
        <time>2020-05-21T06:41:56Z</time>
      </trkpt>
      <trkpt lat="48.40934" lon="7.33977">
        <ele>672.05401611328</ele>
        <time>2020-05-21T06:42:03Z</time>
      </trkpt>
      <trkpt lat="48.40939" lon="7.33983">
        <ele>669.05401611328</ele>
        <time>2020-05-21T06:42:09Z</time>
      </trkpt>
      <trkpt lat="48.40945" lon="7.33989">
        <ele>671.05401611328</ele>
        <time>2020-05-21T06:42:15Z</time>
      </trkpt>
      <trkpt lat="48.40951" lon="7.33991">
        <ele>670.05401611328</ele>
        <time>2020-05-21T06:42:20Z</time>
      </trkpt>
      <trkpt lat="48.40958" lon="7.33991">
        <ele>670.05401611328</ele>
        <time>2020-05-21T06:42:26Z</time>
      </trkpt>
      <trkpt lat="48.40965" lon="7.33989">
        <ele>671.05401611328</ele>
        <time>2020-05-21T06:42:31Z</time>
      </trkpt>
      <trkpt lat="48.40972" lon="7.33986">
        <ele>671.05401611328</ele>
        <time>2020-05-21T06:42:36Z</time>
      </trkpt>
      <trkpt lat="48.40979" lon="7.33982">
        <ele>674.05499267578</ele>
        <time>2020-05-21T06:42:41Z</time>
      </trkpt>
      <trkpt lat="48.40987" lon="7.33981">
        <ele>673.05499267578</ele>
        <time>2020-05-21T06:42:47Z</time>
      </trkpt>
      <trkpt lat="48.40994" lon="7.33978">
        <ele>674.05499267578</ele>
        <time>2020-05-21T06:42:52Z</time>
      </trkpt>
      <trkpt lat="48.41001" lon="7.33975">
        <ele>675.05499267578</ele>
        <time>2020-05-21T06:42:58Z</time>
      </trkpt>
      <trkpt lat="48.41007" lon="7.33968">
        <ele>673.05499267578</ele>
        <time>2020-05-21T06:43:06Z</time>
      </trkpt>
      <trkpt lat="48.41013" lon="7.33963">
        <ele>683.05499267578</ele>
        <time>2020-05-21T06:43:52Z</time>
      </trkpt>
      <trkpt lat="48.41018" lon="7.33956">
        <ele>679.05499267578</ele>
        <time>2020-05-21T06:44:05Z</time>
      </trkpt>
      <trkpt lat="48.41024" lon="7.3395">
        <ele>677.05499267578</ele>
        <time>2020-05-21T06:44:12Z</time>
      </trkpt>
      <trkpt lat="48.4103" lon="7.33942">
        <ele>674.05499267578</ele>
        <time>2020-05-21T06:44:18Z</time>
      </trkpt>
      <trkpt lat="48.41034" lon="7.33934">
        <ele>674.05499267578</ele>
        <time>2020-05-21T06:44:26Z</time>
      </trkpt>
      <trkpt lat="48.41038" lon="7.33923">
        <ele>680.05499267578</ele>
        <time>2020-05-21T06:44:34Z</time>
      </trkpt>
      <trkpt lat="48.41044" lon="7.33918">
        <ele>683.05499267578</ele>
        <time>2020-05-21T06:44:39Z</time>
      </trkpt>
      <trkpt lat="48.4105" lon="7.33917">
        <ele>685.05499267578</ele>
        <time>2020-05-21T06:44:57Z</time>
      </trkpt>
      <trkpt lat="48.41058" lon="7.33915">
        <ele>685.05499267578</ele>
        <time>2020-05-21T06:45:03Z</time>
      </trkpt>
      <trkpt lat="48.41066" lon="7.33912">
        <ele>686.05499267578</ele>
        <time>2020-05-21T06:45:11Z</time>
      </trkpt>
      <trkpt lat="48.41075" lon="7.33911">
        <ele>687.05499267578</ele>
        <time>2020-05-21T06:45:16Z</time>
      </trkpt>
      <trkpt lat="48.41082" lon="7.33915">
        <ele>688.05499267578</ele>
        <time>2020-05-21T06:45:24Z</time>
      </trkpt>
      <trkpt lat="48.41088" lon="7.33917">
        <ele>690.05499267578</ele>
        <time>2020-05-21T06:45:29Z</time>
      </trkpt>
      <trkpt lat="48.41096" lon="7.33916">
        <ele>690.05499267578</ele>
        <time>2020-05-21T06:45:35Z</time>
      </trkpt>
      <trkpt lat="48.41103" lon="7.33917">
        <ele>691.05499267578</ele>
        <time>2020-05-21T06:45:45Z</time>
      </trkpt>
      <trkpt lat="48.4111" lon="7.33918">
        <ele>693.05499267578</ele>
        <time>2020-05-21T06:45:52Z</time>
      </trkpt>
      <trkpt lat="48.41116" lon="7.33921">
        <ele>696.05499267578</ele>
        <time>2020-05-21T06:46:00Z</time>
      </trkpt>
      <trkpt lat="48.41124" lon="7.33918">
        <ele>695.05499267578</ele>
        <time>2020-05-21T06:46:05Z</time>
      </trkpt>
      <trkpt lat="48.41131" lon="7.33916">
        <ele>690.05499267578</ele>
        <time>2020-05-21T06:46:11Z</time>
      </trkpt>
      <trkpt lat="48.41138" lon="7.33916">
        <ele>693.05499267578</ele>
        <time>2020-05-21T06:46:21Z</time>
      </trkpt>
      <trkpt lat="48.41145" lon="7.33917">
        <ele>695.05499267578</ele>
        <time>2020-05-21T06:46:28Z</time>
      </trkpt>
      <trkpt lat="48.41152" lon="7.33919">
        <ele>702.05499267578</ele>
        <time>2020-05-21T06:46:36Z</time>
      </trkpt>
      <trkpt lat="48.41159" lon="7.33922">
        <ele>704.05499267578</ele>
        <time>2020-05-21T06:46:42Z</time>
      </trkpt>
      <trkpt lat="48.41166" lon="7.33925">
        <ele>703.05499267578</ele>
        <time>2020-05-21T06:46:47Z</time>
      </trkpt>
      <trkpt lat="48.41174" lon="7.33926">
        <ele>702.05499267578</ele>
        <time>2020-05-21T06:46:54Z</time>
      </trkpt>
      <trkpt lat="48.41179" lon="7.33934">
        <ele>701.05499267578</ele>
        <time>2020-05-21T06:47:06Z</time>
      </trkpt>
      <trkpt lat="48.41187" lon="7.33935">
        <ele>702.05499267578</ele>
        <time>2020-05-21T06:47:17Z</time>
      </trkpt>
      <trkpt lat="48.41195" lon="7.33937">
        <ele>700.05499267578</ele>
        <time>2020-05-21T06:47:22Z</time>
      </trkpt>
      <trkpt lat="48.41201" lon="7.3394">
        <ele>704.05499267578</ele>
        <time>2020-05-21T06:47:27Z</time>
      </trkpt>
      <trkpt lat="48.41208" lon="7.3394">
        <ele>708.05499267578</ele>
        <time>2020-05-21T06:47:32Z</time>
      </trkpt>
      <trkpt lat="48.41216" lon="7.33937">
        <ele>707.05499267578</ele>
        <time>2020-05-21T06:47:37Z</time>
      </trkpt>
      <trkpt lat="48.41224" lon="7.33936">
        <ele>707.05499267578</ele>
        <time>2020-05-21T06:47:42Z</time>
      </trkpt>
      <trkpt lat="48.41231" lon="7.33933">
        <ele>709.05499267578</ele>
        <time>2020-05-21T06:47:49Z</time>
      </trkpt>
      <trkpt lat="48.41238" lon="7.33932">
        <ele>710.05499267578</ele>
        <time>2020-05-21T06:47:56Z</time>
      </trkpt>
      <trkpt lat="48.41246" lon="7.33928">
        <ele>708.05499267578</ele>
        <time>2020-05-21T06:48:01Z</time>
      </trkpt>
      <trkpt lat="48.41253" lon="7.33926">
        <ele>708.05499267578</ele>
        <time>2020-05-21T06:48:06Z</time>
      </trkpt>
      <trkpt lat="48.4126" lon="7.33928">
        <ele>710.05499267578</ele>
        <time>2020-05-21T06:48:12Z</time>
      </trkpt>
      <trkpt lat="48.41267" lon="7.33928">
        <ele>711.05499267578</ele>
        <time>2020-05-21T06:48:18Z</time>
      </trkpt>
      <trkpt lat="48.41274" lon="7.33928">
        <ele>711.05499267578</ele>
        <time>2020-05-21T06:48:26Z</time>
      </trkpt>
      <trkpt lat="48.41281" lon="7.33925">
        <ele>708.05499267578</ele>
        <time>2020-05-21T06:48:32Z</time>
      </trkpt>
      <trkpt lat="48.41288" lon="7.33924">
        <ele>707.05499267578</ele>
        <time>2020-05-21T06:48:39Z</time>
      </trkpt>
      <trkpt lat="48.41295" lon="7.33923">
        <ele>708.05499267578</ele>
        <time>2020-05-21T06:48:44Z</time>
      </trkpt>
      <trkpt lat="48.41302" lon="7.33924">
        <ele>710.05499267578</ele>
        <time>2020-05-21T06:48:50Z</time>
      </trkpt>
      <trkpt lat="48.4131" lon="7.33923">
        <ele>713.05499267578</ele>
        <time>2020-05-21T06:48:57Z</time>
      </trkpt>
      <trkpt lat="48.41317" lon="7.3392">
        <ele>714.05499267578</ele>
        <time>2020-05-21T06:49:02Z</time>
      </trkpt>
      <trkpt lat="48.41323" lon="7.33927">
        <ele>718.05499267578</ele>
        <time>2020-05-21T06:49:13Z</time>
      </trkpt>
      <trkpt lat="48.4133" lon="7.3393">
        <ele>719.05499267578</ele>
        <time>2020-05-21T06:49:18Z</time>
      </trkpt>
      <trkpt lat="48.41338" lon="7.33931">
        <ele>718.05499267578</ele>
        <time>2020-05-21T06:49:23Z</time>
      </trkpt>
      <trkpt lat="48.41346" lon="7.33934">
        <ele>717.05499267578</ele>
        <time>2020-05-21T06:49:28Z</time>
      </trkpt>
      <trkpt lat="48.41353" lon="7.33933">
        <ele>715.05499267578</ele>
        <time>2020-05-21T06:49:33Z</time>
      </trkpt>
      <trkpt lat="48.41361" lon="7.33933">
        <ele>715.05499267578</ele>
        <time>2020-05-21T06:49:38Z</time>
      </trkpt>
      <trkpt lat="48.4137" lon="7.33932">
        <ele>718.05499267578</ele>
        <time>2020-05-21T06:49:44Z</time>
      </trkpt>
      <trkpt lat="48.41376" lon="7.33937">
        <ele>718.05499267578</ele>
        <time>2020-05-21T06:49:54Z</time>
      </trkpt>
      <trkpt lat="48.41382" lon="7.33937">
        <ele>721.05499267578</ele>
        <time>2020-05-21T06:50:01Z</time>
      </trkpt>
      <trkpt lat="48.41392" lon="7.33937">
        <ele>719.05499267578</ele>
        <time>2020-05-21T06:50:06Z</time>
      </trkpt>
      <trkpt lat="48.414" lon="7.33939">
        <ele>722.05499267578</ele>
        <time>2020-05-21T06:50:11Z</time>
      </trkpt>
      <trkpt lat="48.41409" lon="7.33942">
        <ele>721.05499267578</ele>
        <time>2020-05-21T06:50:16Z</time>
      </trkpt>
      <trkpt lat="48.41415" lon="7.33944">
        <ele>717.05499267578</ele>
        <time>2020-05-21T06:50:22Z</time>
      </trkpt>
      <trkpt lat="48.41424" lon="7.33945">
        <ele>714.05499267578</ele>
        <time>2020-05-21T06:50:27Z</time>
      </trkpt>
      <trkpt lat="48.41431" lon="7.33949">
        <ele>716.05499267578</ele>
        <time>2020-05-21T06:50:32Z</time>
      </trkpt>
      <trkpt lat="48.41439" lon="7.33946">
        <ele>717.05499267578</ele>
        <time>2020-05-21T06:50:37Z</time>
      </trkpt>
      <trkpt lat="48.41447" lon="7.33951">
        <ele>715.05499267578</ele>
        <time>2020-05-21T06:50:42Z</time>
      </trkpt>
      <trkpt lat="48.41453" lon="7.33957">
        <ele>718.05499267578</ele>
        <time>2020-05-21T06:50:48Z</time>
      </trkpt>
      <trkpt lat="48.41458" lon="7.33964">
        <ele>722.05499267578</ele>
        <time>2020-05-21T06:50:57Z</time>
      </trkpt>
      <trkpt lat="48.41465" lon="7.33966">
        <ele>724.05499267578</ele>
        <time>2020-05-21T06:51:05Z</time>
      </trkpt>
      <trkpt lat="48.41472" lon="7.33969">
        <ele>724.05499267578</ele>
        <time>2020-05-21T06:51:13Z</time>
      </trkpt>
      <trkpt lat="48.41479" lon="7.33972">
        <ele>723.05499267578</ele>
        <time>2020-05-21T06:51:18Z</time>
      </trkpt>
      <trkpt lat="48.41485" lon="7.33981">
        <ele>723.05499267578</ele>
        <time>2020-05-21T06:51:23Z</time>
      </trkpt>
      <trkpt lat="48.41488" lon="7.33992">
        <ele>726.05499267578</ele>
        <time>2020-05-21T06:51:29Z</time>
      </trkpt>
      <trkpt lat="48.41493" lon="7.34002">
        <ele>728.05499267578</ele>
        <time>2020-05-21T06:51:34Z</time>
      </trkpt>
      <trkpt lat="48.41499" lon="7.34009">
        <ele>730.05499267578</ele>
        <time>2020-05-21T06:51:39Z</time>
      </trkpt>
      <trkpt lat="48.41506" lon="7.34006">
        <ele>725.05499267578</ele>
        <time>2020-05-21T06:51:44Z</time>
      </trkpt>
      <trkpt lat="48.41512" lon="7.33998">
        <ele>726.05499267578</ele>
        <time>2020-05-21T06:51:49Z</time>
      </trkpt>
      <trkpt lat="48.41516" lon="7.33989">
        <ele>727.05499267578</ele>
        <time>2020-05-21T06:51:54Z</time>
      </trkpt>
      <trkpt lat="48.41522" lon="7.3398">
        <ele>725.05499267578</ele>
        <time>2020-05-21T06:51:59Z</time>
      </trkpt>
      <trkpt lat="48.41528" lon="7.33975">
        <ele>726.05499267578</ele>
        <time>2020-05-21T06:52:05Z</time>
      </trkpt>
      <trkpt lat="48.41534" lon="7.3397">
        <ele>727.05499267578</ele>
        <time>2020-05-21T06:52:11Z</time>
      </trkpt>
      <trkpt lat="48.41543" lon="7.33963">
        <ele>727.05499267578</ele>
        <time>2020-05-21T06:52:18Z</time>
      </trkpt>
      <trkpt lat="48.41551" lon="7.33957">
        <ele>727.05499267578</ele>
        <time>2020-05-21T06:52:23Z</time>
      </trkpt>
      <trkpt lat="48.41557" lon="7.33944">
        <ele>728.05499267578</ele>
        <time>2020-05-21T06:52:28Z</time>
      </trkpt>
      <trkpt lat="48.41565" lon="7.33938">
        <ele>727.05499267578</ele>
        <time>2020-05-21T06:52:33Z</time>
      </trkpt>
      <trkpt lat="48.41571" lon="7.33932">
        <ele>728.05499267578</ele>
        <time>2020-05-21T06:52:38Z</time>
      </trkpt>
      <trkpt lat="48.41578" lon="7.33931">
        <ele>529.05499267578</ele>
        <time>2020-05-21T06:52:43Z</time>
      </trkpt>
      <trkpt lat="48.41585" lon="7.33932">
        <ele>671.05499267578</ele>
        <time>2020-05-21T06:52:50Z</time>
      </trkpt>
      <trkpt lat="48.41594" lon="7.33942">
        <ele>694.05499267578</ele>
        <time>2020-05-21T06:52:55Z</time>
      </trkpt>
      <trkpt lat="48.41601" lon="7.33943">
        <ele>704.05499267578</ele>
        <time>2020-05-21T06:53:00Z</time>
      </trkpt>
      <trkpt lat="48.41608" lon="7.33947">
        <ele>709.05499267578</ele>
        <time>2020-05-21T06:53:08Z</time>
      </trkpt>
      <trkpt lat="48.41615" lon="7.33951">
        <ele>712.05499267578</ele>
        <time>2020-05-21T06:53:14Z</time>
      </trkpt>
      <trkpt lat="48.41621" lon="7.33955">
        <ele>714.05499267578</ele>
        <time>2020-05-21T06:53:19Z</time>
      </trkpt>
      <trkpt lat="48.41628" lon="7.33959">
        <ele>715.05499267578</ele>
        <time>2020-05-21T06:53:25Z</time>
      </trkpt>
      <trkpt lat="48.41634" lon="7.33962">
        <ele>714.05499267578</ele>
        <time>2020-05-21T06:53:30Z</time>
      </trkpt>
      <trkpt lat="48.41637" lon="7.33974">
        <ele>713.05499267578</ele>
        <time>2020-05-21T06:53:35Z</time>
      </trkpt>
      <trkpt lat="48.41641" lon="7.33984">
        <ele>713.05499267578</ele>
        <time>2020-05-21T06:53:40Z</time>
      </trkpt>
      <trkpt lat="48.41645" lon="7.33993">
        <ele>714.05499267578</ele>
        <time>2020-05-21T06:53:47Z</time>
      </trkpt>
      <trkpt lat="48.41642" lon="7.34003">
        <ele>716.05499267578</ele>
        <time>2020-05-21T06:53:53Z</time>
      </trkpt>
      <trkpt lat="48.41639" lon="7.34012">
        <ele>715.05499267578</ele>
        <time>2020-05-21T06:54:00Z</time>
      </trkpt>
      <trkpt lat="48.41635" lon="7.3402">
        <ele>722.05499267578</ele>
        <time>2020-05-21T06:54:06Z</time>
      </trkpt>
      <trkpt lat="48.41629" lon="7.34028">
        <ele>729.05499267578</ele>
        <time>2020-05-21T06:54:12Z</time>
      </trkpt>
      <trkpt lat="48.41627" lon="7.3404">
        <ele>732.05499267578</ele>
        <time>2020-05-21T06:54:17Z</time>
      </trkpt>
      <trkpt lat="48.41623" lon="7.34049">
        <ele>732.05499267578</ele>
        <time>2020-05-21T06:54:25Z</time>
      </trkpt>
      <trkpt lat="48.4162" lon="7.34057">
        <ele>731.05499267578</ele>
        <time>2020-05-21T06:54:31Z</time>
      </trkpt>
      <trkpt lat="48.41615" lon="7.34064">
        <ele>732.05499267578</ele>
        <time>2020-05-21T06:54:37Z</time>
      </trkpt>
      <trkpt lat="48.41608" lon="7.34073">
        <ele>735.05499267578</ele>
        <time>2020-05-21T06:54:45Z</time>
      </trkpt>
      <trkpt lat="48.41605" lon="7.34084">
        <ele>737.05499267578</ele>
        <time>2020-05-21T06:54:51Z</time>
      </trkpt>
      <trkpt lat="48.41604" lon="7.34094">
        <ele>735.05499267578</ele>
        <time>2020-05-21T06:54:56Z</time>
      </trkpt>
      <trkpt lat="48.41601" lon="7.34106">
        <ele>737.05499267578</ele>
        <time>2020-05-21T06:55:01Z</time>
      </trkpt>
      <trkpt lat="48.41599" lon="7.34116">
        <ele>736.05499267578</ele>
        <time>2020-05-21T06:55:07Z</time>
      </trkpt>
      <trkpt lat="48.41597" lon="7.34127">
        <ele>763.05499267578</ele>
        <time>2020-05-21T06:55:12Z</time>
      </trkpt>
      <trkpt lat="48.41594" lon="7.34138">
        <ele>741.05499267578</ele>
        <time>2020-05-21T06:55:19Z</time>
      </trkpt>
      <trkpt lat="48.41592" lon="7.34147">
        <ele>738.05499267578</ele>
        <time>2020-05-21T06:55:24Z</time>
      </trkpt>
      <trkpt lat="48.41589" lon="7.3416">
        <ele>736.05499267578</ele>
        <time>2020-05-21T06:55:29Z</time>
      </trkpt>
      <trkpt lat="48.41588" lon="7.3417">
        <ele>737.05499267578</ele>
        <time>2020-05-21T06:55:35Z</time>
      </trkpt>
      <trkpt lat="48.41587" lon="7.34179">
        <ele>737.05499267578</ele>
        <time>2020-05-21T06:55:40Z</time>
      </trkpt>
      <trkpt lat="48.41585" lon="7.34189">
        <ele>738.05499267578</ele>
        <time>2020-05-21T06:55:45Z</time>
      </trkpt>
      <trkpt lat="48.41583" lon="7.34203">
        <ele>740.05499267578</ele>
        <time>2020-05-21T06:55:50Z</time>
      </trkpt>
      <trkpt lat="48.4158" lon="7.34214">
        <ele>742.05499267578</ele>
        <time>2020-05-21T06:55:56Z</time>
      </trkpt>
      <trkpt lat="48.41577" lon="7.34224">
        <ele>742.05499267578</ele>
        <time>2020-05-21T06:56:01Z</time>
      </trkpt>
      <trkpt lat="48.41573" lon="7.34233">
        <ele>743.05499267578</ele>
        <time>2020-05-21T06:56:06Z</time>
      </trkpt>
      <trkpt lat="48.41571" lon="7.34243">
        <ele>742.05499267578</ele>
        <time>2020-05-21T06:56:12Z</time>
      </trkpt>
      <trkpt lat="48.41568" lon="7.34254">
        <ele>742.05499267578</ele>
        <time>2020-05-21T06:56:18Z</time>
      </trkpt>
      <trkpt lat="48.41568" lon="7.34265">
        <ele>741.05499267578</ele>
        <time>2020-05-21T06:56:23Z</time>
      </trkpt>
      <trkpt lat="48.41567" lon="7.34274">
        <ele>741.05499267578</ele>
        <time>2020-05-21T06:56:29Z</time>
      </trkpt>
      <trkpt lat="48.41565" lon="7.34285">
        <ele>742.05499267578</ele>
        <time>2020-05-21T06:56:34Z</time>
      </trkpt>
      <trkpt lat="48.4156" lon="7.34293">
        <ele>742.05499267578</ele>
        <time>2020-05-21T06:56:40Z</time>
      </trkpt>
      <trkpt lat="48.41558" lon="7.34305">
        <ele>742.05499267578</ele>
        <time>2020-05-21T06:56:46Z</time>
      </trkpt>
      <trkpt lat="48.41556" lon="7.34315">
        <ele>745.05499267578</ele>
        <time>2020-05-21T06:56:52Z</time>
      </trkpt>
      <trkpt lat="48.41554" lon="7.34326">
        <ele>745.05499267578</ele>
        <time>2020-05-21T06:56:59Z</time>
      </trkpt>
      <trkpt lat="48.4155" lon="7.34338">
        <ele>749.05499267578</ele>
        <time>2020-05-21T06:57:05Z</time>
      </trkpt>
      <trkpt lat="48.41545" lon="7.34348">
        <ele>751.05499267578</ele>
        <time>2020-05-21T06:57:10Z</time>
      </trkpt>
      <trkpt lat="48.41541" lon="7.34355">
        <ele>755.05499267578</ele>
        <time>2020-05-21T06:57:15Z</time>
      </trkpt>
      <trkpt lat="48.41536" lon="7.34364">
        <ele>754.05499267578</ele>
        <time>2020-05-21T06:57:20Z</time>
      </trkpt>
      <trkpt lat="48.4153" lon="7.3437">
        <ele>758.05499267578</ele>
        <time>2020-05-21T06:57:26Z</time>
      </trkpt>
      <trkpt lat="48.4153" lon="7.34383">
        <ele>759.05499267578</ele>
        <time>2020-05-21T06:57:31Z</time>
      </trkpt>
      <trkpt lat="48.41526" lon="7.34393">
        <ele>758.05499267578</ele>
        <time>2020-05-21T06:57:38Z</time>
      </trkpt>
      <trkpt lat="48.41522" lon="7.34401">
        <ele>760.05499267578</ele>
        <time>2020-05-21T06:57:43Z</time>
      </trkpt>
      <trkpt lat="48.41521" lon="7.34413">
        <ele>760.05499267578</ele>
        <time>2020-05-21T06:57:48Z</time>
      </trkpt>
      <trkpt lat="48.41516" lon="7.3442">
        <ele>756.05499267578</ele>
        <time>2020-05-21T06:57:56Z</time>
      </trkpt>
      <trkpt lat="48.41513" lon="7.34431">
        <ele>757.05499267578</ele>
        <time>2020-05-21T06:58:04Z</time>
      </trkpt>
      <trkpt lat="48.41511" lon="7.3444">
        <ele>755.05499267578</ele>
        <time>2020-05-21T06:58:10Z</time>
      </trkpt>
      <trkpt lat="48.41507" lon="7.34449">
        <ele>756.05499267578</ele>
        <time>2020-05-21T06:58:17Z</time>
      </trkpt>
      <trkpt lat="48.41501" lon="7.34452">
        <ele>758.05499267578</ele>
        <time>2020-05-21T06:58:24Z</time>
      </trkpt>
      <trkpt lat="48.41494" lon="7.34454">
        <ele>760.05499267578</ele>
        <time>2020-05-21T06:58:32Z</time>
      </trkpt>
      <trkpt lat="48.41487" lon="7.3446">
        <ele>764.05499267578</ele>
        <time>2020-05-21T06:58:39Z</time>
      </trkpt>
      <trkpt lat="48.41481" lon="7.34464">
        <ele>765.05499267578</ele>
        <time>2020-05-21T06:58:44Z</time>
      </trkpt>
      <trkpt lat="48.41475" lon="7.34471">
        <ele>766.05499267578</ele>
        <time>2020-05-21T06:58:52Z</time>
      </trkpt>
      <trkpt lat="48.41469" lon="7.34474">
        <ele>767.05499267578</ele>
        <time>2020-05-21T06:58:58Z</time>
      </trkpt>
      <trkpt lat="48.4146" lon="7.34483">
        <ele>765.05499267578</ele>
        <time>2020-05-21T06:59:03Z</time>
      </trkpt>
      <trkpt lat="48.41454" lon="7.34487">
        <ele>764.05499267578</ele>
        <time>2020-05-21T06:59:09Z</time>
      </trkpt>
      <trkpt lat="48.41448" lon="7.34491">
        <ele>764.05499267578</ele>
        <time>2020-05-21T06:59:15Z</time>
      </trkpt>
      <trkpt lat="48.41443" lon="7.34499">
        <ele>763.05499267578</ele>
        <time>2020-05-21T06:59:21Z</time>
      </trkpt>
      <trkpt lat="48.41436" lon="7.34506">
        <ele>764.05499267578</ele>
        <time>2020-05-21T06:59:27Z</time>
      </trkpt>
      <trkpt lat="48.41433" lon="7.34516">
        <ele>763.05499267578</ele>
        <time>2020-05-21T06:59:35Z</time>
      </trkpt>
      <trkpt lat="48.41432" lon="7.34529">
        <ele>762.05499267578</ele>
        <time>2020-05-21T06:59:40Z</time>
      </trkpt>
      <trkpt lat="48.41432" lon="7.3454">
        <ele>761.05499267578</ele>
        <time>2020-05-21T06:59:46Z</time>
      </trkpt>
      <trkpt lat="48.41428" lon="7.3455">
        <ele>765.05499267578</ele>
        <time>2020-05-21T06:59:51Z</time>
      </trkpt>
      <trkpt lat="48.41424" lon="7.34561">
        <ele>766.05499267578</ele>
        <time>2020-05-21T06:59:58Z</time>
      </trkpt>
      <trkpt lat="48.4142" lon="7.34571">
        <ele>770.05499267578</ele>
        <time>2020-05-21T07:00:04Z</time>
      </trkpt>
      <trkpt lat="48.41418" lon="7.3458">
        <ele>772.05499267578</ele>
        <time>2020-05-21T07:00:09Z</time>
      </trkpt>
      <trkpt lat="48.41417" lon="7.3459">
        <ele>769.05499267578</ele>
        <time>2020-05-21T07:00:17Z</time>
      </trkpt>
      <trkpt lat="48.41415" lon="7.34599">
        <ele>769.05499267578</ele>
        <time>2020-05-21T07:00:24Z</time>
      </trkpt>
      <trkpt lat="48.41416" lon="7.3461">
        <ele>773.05499267578</ele>
        <time>2020-05-21T07:00:31Z</time>
      </trkpt>
      <trkpt lat="48.41416" lon="7.34621">
        <ele>773.05499267578</ele>
        <time>2020-05-21T07:00:39Z</time>
      </trkpt>
      <trkpt lat="48.41414" lon="7.34631">
        <ele>775.05499267578</ele>
        <time>2020-05-21T07:00:45Z</time>
      </trkpt>
      <trkpt lat="48.41414" lon="7.34642">
        <ele>775.05499267578</ele>
        <time>2020-05-21T07:00:51Z</time>
      </trkpt>
      <trkpt lat="48.41414" lon="7.34653">
        <ele>776.05499267578</ele>
        <time>2020-05-21T07:00:58Z</time>
      </trkpt>
      <trkpt lat="48.41412" lon="7.34663">
        <ele>779.05499267578</ele>
        <time>2020-05-21T07:01:07Z</time>
      </trkpt>
      <trkpt lat="48.41411" lon="7.34673">
        <ele>780.05499267578</ele>
        <time>2020-05-21T07:01:13Z</time>
      </trkpt>
      <trkpt lat="48.41413" lon="7.34683">
        <ele>781.05499267578</ele>
        <time>2020-05-21T07:01:19Z</time>
      </trkpt>
      <trkpt lat="48.41411" lon="7.34694">
        <ele>785.05499267578</ele>
        <time>2020-05-21T07:01:24Z</time>
      </trkpt>
      <trkpt lat="48.41412" lon="7.34705">
        <ele>785.05499267578</ele>
        <time>2020-05-21T07:01:31Z</time>
      </trkpt>
      <trkpt lat="48.41411" lon="7.34715">
        <ele>783.05499267578</ele>
        <time>2020-05-21T07:01:42Z</time>
      </trkpt>
      <trkpt lat="48.41412" lon="7.34727">
        <ele>781.05499267578</ele>
        <time>2020-05-21T07:01:47Z</time>
      </trkpt>
      <trkpt lat="48.41414" lon="7.34737">
        <ele>781.05499267578</ele>
        <time>2020-05-21T07:01:53Z</time>
      </trkpt>
      <trkpt lat="48.41414" lon="7.34747">
        <ele>781.05499267578</ele>
        <time>2020-05-21T07:01:58Z</time>
      </trkpt>
      <trkpt lat="48.41416" lon="7.34759">
        <ele>782.05499267578</ele>
        <time>2020-05-21T07:02:04Z</time>
      </trkpt>
      <trkpt lat="48.41418" lon="7.34771">
        <ele>779.05499267578</ele>
        <time>2020-05-21T07:02:12Z</time>
      </trkpt>
      <trkpt lat="48.41419" lon="7.34781">
        <ele>782.05499267578</ele>
        <time>2020-05-21T07:02:17Z</time>
      </trkpt>
      <trkpt lat="48.41425" lon="7.34785">
        <ele>778.05499267578</ele>
        <time>2020-05-21T07:02:24Z</time>
      </trkpt>
      <trkpt lat="48.41423" lon="7.34795">
        <ele>780.05499267578</ele>
        <time>2020-05-21T07:02:29Z</time>
      </trkpt>
      <trkpt lat="48.41421" lon="7.34805">
        <ele>781.05499267578</ele>
        <time>2020-05-21T07:02:36Z</time>
      </trkpt>
      <trkpt lat="48.41419" lon="7.34815">
        <ele>783.05499267578</ele>
        <time>2020-05-21T07:02:41Z</time>
      </trkpt>
      <trkpt lat="48.41416" lon="7.34825">
        <ele>783.05499267578</ele>
        <time>2020-05-21T07:02:47Z</time>
      </trkpt>
      <trkpt lat="48.41414" lon="7.34835">
        <ele>784.05499267578</ele>
        <time>2020-05-21T07:02:55Z</time>
      </trkpt>
      <trkpt lat="48.41416" lon="7.34846">
        <ele>786.05499267578</ele>
        <time>2020-05-21T07:03:03Z</time>
      </trkpt>
      <trkpt lat="48.41416" lon="7.34857">
        <ele>785.05499267578</ele>
        <time>2020-05-21T07:03:09Z</time>
      </trkpt>
      <trkpt lat="48.41419" lon="7.34867">
        <ele>786.05499267578</ele>
        <time>2020-05-21T07:03:15Z</time>
      </trkpt>
      <trkpt lat="48.41425" lon="7.34872">
        <ele>788.05499267578</ele>
        <time>2020-05-21T07:03:20Z</time>
      </trkpt>
      <trkpt lat="48.41433" lon="7.34873">
        <ele>789.05499267578</ele>
        <time>2020-05-21T07:03:26Z</time>
      </trkpt>
      <trkpt lat="48.41438" lon="7.34868">
        <ele>788.05499267578</ele>
        <time>2020-05-21T07:03:33Z</time>
      </trkpt>
      <trkpt lat="48.41441" lon="7.34859">
        <ele>787.05499267578</ele>
        <time>2020-05-21T07:03:42Z</time>
      </trkpt>
      <trkpt lat="48.41445" lon="7.34848">
        <ele>787.05499267578</ele>
        <time>2020-05-21T07:03:48Z</time>
      </trkpt>
      <trkpt lat="48.41447" lon="7.34837">
        <ele>787.05499267578</ele>
        <time>2020-05-21T07:03:54Z</time>
      </trkpt>
      <trkpt lat="48.41451" lon="7.34828">
        <ele>788.05499267578</ele>
        <time>2020-05-21T07:04:00Z</time>
      </trkpt>
      <trkpt lat="48.41458" lon="7.34821">
        <ele>789.05499267578</ele>
        <time>2020-05-21T07:04:06Z</time>
      </trkpt>
      <trkpt lat="48.41463" lon="7.34814">
        <ele>788.05499267578</ele>
        <time>2020-05-21T07:04:12Z</time>
      </trkpt>
      <trkpt lat="48.41469" lon="7.34808">
        <ele>788.05499267578</ele>
        <time>2020-05-21T07:04:17Z</time>
      </trkpt>
      <trkpt lat="48.41475" lon="7.34802">
        <ele>789.05499267578</ele>
        <time>2020-05-21T07:04:23Z</time>
      </trkpt>
      <trkpt lat="48.41481" lon="7.34797">
        <ele>794.05499267578</ele>
        <time>2020-05-21T07:04:39Z</time>
      </trkpt>
      <trkpt lat="48.41484" lon="7.34808">
        <ele>791.05499267578</ele>
        <time>2020-05-21T07:04:44Z</time>
      </trkpt>
      <trkpt lat="48.41487" lon="7.34817">
        <ele>791.05499267578</ele>
        <time>2020-05-21T07:04:50Z</time>
      </trkpt>
      <trkpt lat="48.41486" lon="7.3483">
        <ele>792.05499267578</ele>
        <time>2020-05-21T07:04:58Z</time>
      </trkpt>
      <trkpt lat="48.41493" lon="7.34824">
        <ele>792.05499267578</ele>
        <time>2020-05-21T07:05:03Z</time>
      </trkpt>
      <trkpt lat="48.41493" lon="7.34836">
        <ele>795.05499267578</ele>
        <time>2020-05-21T07:05:10Z</time>
      </trkpt>
      <trkpt lat="48.41494" lon="7.34847">
        <ele>794.05499267578</ele>
        <time>2020-05-21T07:05:15Z</time>
      </trkpt>
      <trkpt lat="48.41497" lon="7.34858">
        <ele>793.05499267578</ele>
        <time>2020-05-21T07:05:23Z</time>
      </trkpt>
      <trkpt lat="48.41498" lon="7.34868">
        <ele>793.05499267578</ele>
        <time>2020-05-21T07:05:29Z</time>
      </trkpt>
      <trkpt lat="48.41494" lon="7.34886">
        <ele>795.05499267578</ele>
        <time>2020-05-21T07:05:34Z</time>
      </trkpt>
      <trkpt lat="48.41493" lon="7.34899">
        <ele>796.05499267578</ele>
        <time>2020-05-21T07:05:39Z</time>
      </trkpt>
      <trkpt lat="48.41501" lon="7.34894">
        <ele>794.05499267578</ele>
        <time>2020-05-21T07:05:45Z</time>
      </trkpt>
      <trkpt lat="48.41506" lon="7.34883">
        <ele>789.05499267578</ele>
        <time>2020-05-21T07:05:51Z</time>
      </trkpt>
      <trkpt lat="48.41509" lon="7.34874">
        <ele>790.05499267578</ele>
        <time>2020-05-21T07:06:01Z</time>
      </trkpt>
      <trkpt lat="48.41512" lon="7.34865">
        <ele>788.05499267578</ele>
        <time>2020-05-21T07:06:06Z</time>
      </trkpt>
      <trkpt lat="48.41516" lon="7.34855">
        <ele>787.05499267578</ele>
        <time>2020-05-21T07:06:14Z</time>
      </trkpt>
      <trkpt lat="48.4152" lon="7.34847">
        <ele>788.05499267578</ele>
        <time>2020-05-21T07:06:19Z</time>
      </trkpt>
      <trkpt lat="48.41522" lon="7.34838">
        <ele>789.05499267578</ele>
        <time>2020-05-21T07:06:24Z</time>
      </trkpt>
      <trkpt lat="48.41527" lon="7.34827">
        <ele>787.05499267578</ele>
        <time>2020-05-21T07:06:29Z</time>
      </trkpt>
      <trkpt lat="48.41532" lon="7.34819">
        <ele>794.05499267578</ele>
        <time>2020-05-21T07:06:42Z</time>
      </trkpt>
      <trkpt lat="48.41536" lon="7.3481">
        <ele>797.05499267578</ele>
        <time>2020-05-21T07:06:49Z</time>
      </trkpt>
      <trkpt lat="48.41541" lon="7.34803">
        <ele>796.05499267578</ele>
        <time>2020-05-21T07:06:56Z</time>
      </trkpt>
      <trkpt lat="48.41546" lon="7.34796">
        <ele>802.05499267578</ele>
        <time>2020-05-21T07:07:02Z</time>
      </trkpt>
      <trkpt lat="48.41552" lon="7.34785">
        <ele>801.05499267578</ele>
        <time>2020-05-21T07:07:07Z</time>
      </trkpt>
      <trkpt lat="48.41557" lon="7.34777">
        <ele>808.05499267578</ele>
        <time>2020-05-21T07:07:12Z</time>
      </trkpt>
      <trkpt lat="48.4156" lon="7.34768">
        <ele>810.05499267578</ele>
        <time>2020-05-21T07:07:20Z</time>
      </trkpt>
      <trkpt lat="48.41565" lon="7.3476">
        <ele>805.05499267578</ele>
        <time>2020-05-21T07:07:29Z</time>
      </trkpt>
      <trkpt lat="48.41569" lon="7.34751">
        <ele>802.05499267578</ele>
        <time>2020-05-21T07:07:37Z</time>
      </trkpt>
      <trkpt lat="48.41576" lon="7.34743">
        <ele>801.05499267578</ele>
        <time>2020-05-21T07:07:47Z</time>
      </trkpt>
      <trkpt lat="48.41584" lon="7.34738">
        <ele>799.05499267578</ele>
        <time>2020-05-21T07:07:52Z</time>
      </trkpt>
      <trkpt lat="48.41594" lon="7.34734">
        <ele>803.05499267578</ele>
        <time>2020-05-21T07:07:57Z</time>
      </trkpt>
      <trkpt lat="48.41601" lon="7.34727">
        <ele>803.05499267578</ele>
        <time>2020-05-21T07:08:02Z</time>
      </trkpt>
      <trkpt lat="48.41607" lon="7.34725">
        <ele>801.05499267578</ele>
        <time>2020-05-21T07:08:08Z</time>
      </trkpt>
      <trkpt lat="48.41615" lon="7.34721">
        <ele>804.05499267578</ele>
        <time>2020-05-21T07:08:14Z</time>
      </trkpt>
      <trkpt lat="48.41622" lon="7.34719">
        <ele>806.05499267578</ele>
        <time>2020-05-21T07:08:20Z</time>
      </trkpt>
      <trkpt lat="48.4163" lon="7.34717">
        <ele>806.05499267578</ele>
        <time>2020-05-21T07:08:25Z</time>
      </trkpt>
      <trkpt lat="48.41637" lon="7.34711">
        <ele>807.05499267578</ele>
        <time>2020-05-21T07:08:32Z</time>
      </trkpt>
      <trkpt lat="48.41642" lon="7.34705">
        <ele>800.05499267578</ele>
        <time>2020-05-21T07:08:40Z</time>
      </trkpt>
      <trkpt lat="48.41649" lon="7.34704">
        <ele>801.05499267578</ele>
        <time>2020-05-21T07:08:46Z</time>
      </trkpt>
      <trkpt lat="48.41656" lon="7.34702">
        <ele>801.05499267578</ele>
        <time>2020-05-21T07:08:52Z</time>
      </trkpt>
      <trkpt lat="48.41664" lon="7.34701">
        <ele>801.05499267578</ele>
        <time>2020-05-21T07:08:58Z</time>
      </trkpt>
      <trkpt lat="48.4167" lon="7.347">
        <ele>799.05499267578</ele>
        <time>2020-05-21T07:09:05Z</time>
      </trkpt>
      <trkpt lat="48.41676" lon="7.34695">
        <ele>799.05499267578</ele>
        <time>2020-05-21T07:09:16Z</time>
      </trkpt>
      <trkpt lat="48.41684" lon="7.34688">
        <ele>802.05499267578</ele>
        <time>2020-05-21T07:09:21Z</time>
      </trkpt>
      <trkpt lat="48.41691" lon="7.34681">
        <ele>803.05499267578</ele>
        <time>2020-05-21T07:09:26Z</time>
      </trkpt>
      <trkpt lat="48.41699" lon="7.34676">
        <ele>805.05499267578</ele>
        <time>2020-05-21T07:09:31Z</time>
      </trkpt>
      <trkpt lat="48.41704" lon="7.34669">
        <ele>804.05499267578</ele>
        <time>2020-05-21T07:09:37Z</time>
      </trkpt>
      <trkpt lat="48.41709" lon="7.34663">
        <ele>805.05499267578</ele>
        <time>2020-05-21T07:09:45Z</time>
      </trkpt>
      <trkpt lat="48.41716" lon="7.34658">
        <ele>806.05499267578</ele>
        <time>2020-05-21T07:09:55Z</time>
      </trkpt>
      <trkpt lat="48.41725" lon="7.34651">
        <ele>808.05499267578</ele>
        <time>2020-05-21T07:10:00Z</time>
      </trkpt>
      <trkpt lat="48.41731" lon="7.34642">
        <ele>811.05499267578</ele>
        <time>2020-05-21T07:10:05Z</time>
      </trkpt>
      <trkpt lat="48.41737" lon="7.34634">
        <ele>810.05499267578</ele>
        <time>2020-05-21T07:10:11Z</time>
      </trkpt>
      <trkpt lat="48.41741" lon="7.34627">
        <ele>807.05499267578</ele>
        <time>2020-05-21T07:10:17Z</time>
      </trkpt>
      <trkpt lat="48.41747" lon="7.34619">
        <ele>808.05499267578</ele>
        <time>2020-05-21T07:10:22Z</time>
      </trkpt>
      <trkpt lat="48.41753" lon="7.34611">
        <ele>807.05499267578</ele>
        <time>2020-05-21T07:10:28Z</time>
      </trkpt>
      <trkpt lat="48.41759" lon="7.346">
        <ele>806.05499267578</ele>
        <time>2020-05-21T07:10:33Z</time>
      </trkpt>
      <trkpt lat="48.41765" lon="7.34594">
        <ele>805.05499267578</ele>
        <time>2020-05-21T07:10:38Z</time>
      </trkpt>
      <trkpt lat="48.4177" lon="7.34586">
        <ele>805.05499267578</ele>
        <time>2020-05-21T07:10:45Z</time>
      </trkpt>
      <trkpt lat="48.41774" lon="7.34578">
        <ele>808.05499267578</ele>
        <time>2020-05-21T07:10:54Z</time>
      </trkpt>
      <trkpt lat="48.41777" lon="7.34569">
        <ele>811.05499267578</ele>
        <time>2020-05-21T07:11:03Z</time>
      </trkpt>
      <trkpt lat="48.41782" lon="7.34559">
        <ele>809.05499267578</ele>
        <time>2020-05-21T07:11:10Z</time>
      </trkpt>
      <trkpt lat="48.41785" lon="7.34549">
        <ele>809.05499267578</ele>
        <time>2020-05-21T07:11:15Z</time>
      </trkpt>
      <trkpt lat="48.41789" lon="7.34539">
        <ele>811.05499267578</ele>
        <time>2020-05-21T07:11:20Z</time>
      </trkpt>
      <trkpt lat="48.41792" lon="7.34529">
        <ele>812.05499267578</ele>
        <time>2020-05-21T07:11:26Z</time>
      </trkpt>
      <trkpt lat="48.41793" lon="7.34519">
        <ele>815.05499267578</ele>
        <time>2020-05-21T07:11:31Z</time>
      </trkpt>
      <trkpt lat="48.41793" lon="7.34509">
        <ele>815.05499267578</ele>
        <time>2020-05-21T07:11:39Z</time>
      </trkpt>
      <trkpt lat="48.41793" lon="7.34498">
        <ele>819.05499267578</ele>
        <time>2020-05-21T07:11:46Z</time>
      </trkpt>
      <trkpt lat="48.41792" lon="7.34487">
        <ele>818.05499267578</ele>
        <time>2020-05-21T07:11:51Z</time>
      </trkpt>
      <trkpt lat="48.41797" lon="7.34476">
        <ele>817.05499267578</ele>
        <time>2020-05-21T07:11:57Z</time>
      </trkpt>
      <trkpt lat="48.41801" lon="7.34469">
        <ele>813.05499267578</ele>
        <time>2020-05-21T07:12:03Z</time>
      </trkpt>
      <trkpt lat="48.41807" lon="7.34462">
        <ele>813.05603027344</ele>
        <time>2020-05-21T07:12:09Z</time>
      </trkpt>
      <trkpt lat="48.41814" lon="7.34457">
        <ele>814.05603027344</ele>
        <time>2020-05-21T07:12:15Z</time>
      </trkpt>
      <trkpt lat="48.41818" lon="7.34449">
        <ele>814.05603027344</ele>
        <time>2020-05-21T07:12:21Z</time>
      </trkpt>
      <trkpt lat="48.41826" lon="7.34444">
        <ele>813.05603027344</ele>
        <time>2020-05-21T07:12:27Z</time>
      </trkpt>
      <trkpt lat="48.41832" lon="7.34438">
        <ele>815.05603027344</ele>
        <time>2020-05-21T07:12:33Z</time>
      </trkpt>
      <trkpt lat="48.41836" lon="7.3443">
        <ele>818.05603027344</ele>
        <time>2020-05-21T07:12:38Z</time>
      </trkpt>
      <trkpt lat="48.41843" lon="7.34429">
        <ele>816.05603027344</ele>
        <time>2020-05-21T07:12:56Z</time>
      </trkpt>
      <trkpt lat="48.41851" lon="7.34425">
        <ele>813.05603027344</ele>
        <time>2020-05-21T07:13:01Z</time>
      </trkpt>
      <trkpt lat="48.41861" lon="7.34418">
        <ele>814.05603027344</ele>
        <time>2020-05-21T07:13:06Z</time>
      </trkpt>
      <trkpt lat="48.41869" lon="7.34411">
        <ele>813.05603027344</ele>
        <time>2020-05-21T07:13:11Z</time>
      </trkpt>
      <trkpt lat="48.41874" lon="7.34405">
        <ele>816.05603027344</ele>
        <time>2020-05-21T07:13:21Z</time>
      </trkpt>
      <trkpt lat="48.41881" lon="7.34401">
        <ele>813.05603027344</ele>
        <time>2020-05-21T07:13:26Z</time>
      </trkpt>
      <trkpt lat="48.41889" lon="7.34393">
        <ele>816.05603027344</ele>
        <time>2020-05-21T07:13:31Z</time>
      </trkpt>
      <trkpt lat="48.41895" lon="7.34389">
        <ele>818.05603027344</ele>
        <time>2020-05-21T07:13:44Z</time>
      </trkpt>
      <trkpt lat="48.41901" lon="7.34382">
        <ele>817.05603027344</ele>
        <time>2020-05-21T07:13:51Z</time>
      </trkpt>
      <trkpt lat="48.41908" lon="7.34373">
        <ele>818.05603027344</ele>
        <time>2020-05-21T07:13:56Z</time>
      </trkpt>
      <trkpt lat="48.41916" lon="7.34365">
        <ele>817.05603027344</ele>
        <time>2020-05-21T07:14:01Z</time>
      </trkpt>
      <trkpt lat="48.41922" lon="7.34356">
        <ele>815.05603027344</ele>
        <time>2020-05-21T07:14:06Z</time>
      </trkpt>
      <trkpt lat="48.41927" lon="7.34349">
        <ele>815.05603027344</ele>
        <time>2020-05-21T07:14:12Z</time>
      </trkpt>
      <trkpt lat="48.41933" lon="7.34343">
        <ele>814.05603027344</ele>
        <time>2020-05-21T07:14:18Z</time>
      </trkpt>
      <trkpt lat="48.41937" lon="7.34334">
        <ele>814.05603027344</ele>
        <time>2020-05-21T07:14:24Z</time>
      </trkpt>
      <trkpt lat="48.41942" lon="7.34327">
        <ele>813.05603027344</ele>
        <time>2020-05-21T07:14:32Z</time>
      </trkpt>
      <trkpt lat="48.41949" lon="7.34323">
        <ele>813.05603027344</ele>
        <time>2020-05-21T07:14:37Z</time>
      </trkpt>
      <trkpt lat="48.41952" lon="7.34314">
        <ele>814.05603027344</ele>
        <time>2020-05-21T07:14:42Z</time>
      </trkpt>
      <trkpt lat="48.41957" lon="7.34306">
        <ele>814.05603027344</ele>
        <time>2020-05-21T07:14:48Z</time>
      </trkpt>
      <trkpt lat="48.41966" lon="7.34297">
        <ele>817.05603027344</ele>
        <time>2020-05-21T07:14:53Z</time>
      </trkpt>
      <trkpt lat="48.41973" lon="7.3429">
        <ele>817.05603027344</ele>
        <time>2020-05-21T07:14:58Z</time>
      </trkpt>
      <trkpt lat="48.41978" lon="7.34281">
        <ele>820.05603027344</ele>
        <time>2020-05-21T07:15:04Z</time>
      </trkpt>
      <trkpt lat="48.41984" lon="7.34275">
        <ele>821.05603027344</ele>
        <time>2020-05-21T07:15:09Z</time>
      </trkpt>
      <trkpt lat="48.41989" lon="7.34267">
        <ele>817.05603027344</ele>
        <time>2020-05-21T07:15:17Z</time>
      </trkpt>
      <trkpt lat="48.41993" lon="7.34258">
        <ele>818.05603027344</ele>
        <time>2020-05-21T07:15:26Z</time>
      </trkpt>
      <trkpt lat="48.41998" lon="7.34251">
        <ele>820.05603027344</ele>
        <time>2020-05-21T07:15:31Z</time>
      </trkpt>
      <trkpt lat="48.42004" lon="7.34242">
        <ele>824.05603027344</ele>
        <time>2020-05-21T07:15:36Z</time>
      </trkpt>
      <trkpt lat="48.42008" lon="7.34234">
        <ele>825.05603027344</ele>
        <time>2020-05-21T07:15:42Z</time>
      </trkpt>
      <trkpt lat="48.42014" lon="7.34227">
        <ele>827.05603027344</ele>
        <time>2020-05-21T07:15:48Z</time>
      </trkpt>
      <trkpt lat="48.42017" lon="7.34218">
        <ele>829.05603027344</ele>
        <time>2020-05-21T07:15:53Z</time>
      </trkpt>
      <trkpt lat="48.42024" lon="7.3421">
        <ele>832.05603027344</ele>
        <time>2020-05-21T07:15:58Z</time>
      </trkpt>
      <trkpt lat="48.42026" lon="7.342">
        <ele>832.05603027344</ele>
        <time>2020-05-21T07:16:04Z</time>
      </trkpt>
      <trkpt lat="48.4203" lon="7.3419">
        <ele>833.05603027344</ele>
        <time>2020-05-21T07:16:11Z</time>
      </trkpt>
      <trkpt lat="48.42033" lon="7.3418">
        <ele>832.05603027344</ele>
        <time>2020-05-21T07:16:18Z</time>
      </trkpt>
      <trkpt lat="48.42034" lon="7.3417">
        <ele>831.05603027344</ele>
        <time>2020-05-21T07:16:23Z</time>
      </trkpt>
      <trkpt lat="48.42032" lon="7.34159">
        <ele>831.05603027344</ele>
        <time>2020-05-21T07:16:30Z</time>
      </trkpt>
      <trkpt lat="48.42031" lon="7.34149">
        <ele>830.05603027344</ele>
        <time>2020-05-21T07:16:37Z</time>
      </trkpt>
      <trkpt lat="48.42032" lon="7.34139">
        <ele>830.05603027344</ele>
        <time>2020-05-21T07:16:42Z</time>
      </trkpt>
      <trkpt lat="48.42036" lon="7.34129">
        <ele>830.05603027344</ele>
        <time>2020-05-21T07:16:49Z</time>
      </trkpt>
      <trkpt lat="48.42037" lon="7.34118">
        <ele>831.05603027344</ele>
        <time>2020-05-21T07:16:56Z</time>
      </trkpt>
      <trkpt lat="48.42041" lon="7.34107">
        <ele>831.05603027344</ele>
        <time>2020-05-21T07:17:02Z</time>
      </trkpt>
      <trkpt lat="48.42042" lon="7.34097">
        <ele>830.05603027344</ele>
        <time>2020-05-21T07:17:07Z</time>
      </trkpt>
      <trkpt lat="48.42047" lon="7.34086">
        <ele>831.05603027344</ele>
        <time>2020-05-21T07:17:12Z</time>
      </trkpt>
      <trkpt lat="48.4205" lon="7.34076">
        <ele>834.05603027344</ele>
        <time>2020-05-21T07:17:17Z</time>
      </trkpt>
      <trkpt lat="48.42053" lon="7.34066">
        <ele>835.05603027344</ele>
        <time>2020-05-21T07:17:24Z</time>
      </trkpt>
      <trkpt lat="48.42053" lon="7.34056">
        <ele>831.05603027344</ele>
        <time>2020-05-21T07:17:30Z</time>
      </trkpt>
      <trkpt lat="48.42054" lon="7.34045">
        <ele>834.05603027344</ele>
        <time>2020-05-21T07:17:38Z</time>
      </trkpt>
      <trkpt lat="48.42056" lon="7.34033">
        <ele>831.05603027344</ele>
        <time>2020-05-21T07:17:45Z</time>
      </trkpt>
      <trkpt lat="48.42057" lon="7.34023">
        <ele>831.05603027344</ele>
        <time>2020-05-21T07:17:50Z</time>
      </trkpt>
      <trkpt lat="48.4206" lon="7.34014">
        <ele>836.05603027344</ele>
        <time>2020-05-21T07:18:02Z</time>
      </trkpt>
      <trkpt lat="48.42064" lon="7.34004">
        <ele>836.05603027344</ele>
        <time>2020-05-21T07:18:13Z</time>
      </trkpt>
      <trkpt lat="48.42069" lon="7.33994">
        <ele>836.05603027344</ele>
        <time>2020-05-21T07:18:18Z</time>
      </trkpt>
      <trkpt lat="48.42069" lon="7.33977">
        <ele>836.05603027344</ele>
        <time>2020-05-21T07:18:23Z</time>
      </trkpt>
      <trkpt lat="48.42064" lon="7.33968">
        <ele>838.05603027344</ele>
        <time>2020-05-21T07:18:28Z</time>
      </trkpt>
      <trkpt lat="48.42062" lon="7.33957">
        <ele>838.05603027344</ele>
        <time>2020-05-21T07:18:34Z</time>
      </trkpt>
      <trkpt lat="48.42064" lon="7.33947">
        <ele>838.05603027344</ele>
        <time>2020-05-21T07:18:39Z</time>
      </trkpt>
      <trkpt lat="48.42065" lon="7.33935">
        <ele>843.05603027344</ele>
        <time>2020-05-21T07:18:45Z</time>
      </trkpt>
      <trkpt lat="48.42065" lon="7.33925">
        <ele>846.05603027344</ele>
        <time>2020-05-21T07:18:52Z</time>
      </trkpt>
      <trkpt lat="48.42062" lon="7.33914">
        <ele>847.05603027344</ele>
        <time>2020-05-21T07:18:59Z</time>
      </trkpt>
      <trkpt lat="48.42064" lon="7.33905">
        <ele>847.05603027344</ele>
        <time>2020-05-21T07:19:05Z</time>
      </trkpt>
      <trkpt lat="48.42064" lon="7.33893">
        <ele>847.05603027344</ele>
        <time>2020-05-21T07:19:11Z</time>
      </trkpt>
      <trkpt lat="48.42067" lon="7.33882">
        <ele>848.05603027344</ele>
        <time>2020-05-21T07:19:16Z</time>
      </trkpt>
      <trkpt lat="48.42072" lon="7.3387">
        <ele>849.05603027344</ele>
        <time>2020-05-21T07:19:21Z</time>
      </trkpt>
      <trkpt lat="48.42072" lon="7.33859">
        <ele>849.05603027344</ele>
        <time>2020-05-21T07:19:27Z</time>
      </trkpt>
      <trkpt lat="48.4207" lon="7.33848">
        <ele>851.05603027344</ele>
        <time>2020-05-21T07:19:37Z</time>
      </trkpt>
      <trkpt lat="48.4207" lon="7.33837">
        <ele>852.05603027344</ele>
        <time>2020-05-21T07:19:42Z</time>
      </trkpt>
      <trkpt lat="48.4207" lon="7.33823">
        <ele>854.05603027344</ele>
        <time>2020-05-21T07:19:47Z</time>
      </trkpt>
      <trkpt lat="48.42072" lon="7.33812">
        <ele>856.05603027344</ele>
        <time>2020-05-21T07:19:52Z</time>
      </trkpt>
      <trkpt lat="48.42071" lon="7.338">
        <ele>853.05603027344</ele>
        <time>2020-05-21T07:19:57Z</time>
      </trkpt>
      <trkpt lat="48.4207" lon="7.33788">
        <ele>855.05603027344</ele>
        <time>2020-05-21T07:20:03Z</time>
      </trkpt>
      <trkpt lat="48.4207" lon="7.33778">
        <ele>852.05603027344</ele>
        <time>2020-05-21T07:20:09Z</time>
      </trkpt>
      <trkpt lat="48.42072" lon="7.33769">
        <ele>849.05603027344</ele>
        <time>2020-05-21T07:20:15Z</time>
      </trkpt>
      <trkpt lat="48.42073" lon="7.33757">
        <ele>851.05603027344</ele>
        <time>2020-05-21T07:20:21Z</time>
      </trkpt>
      <trkpt lat="48.42076" lon="7.33748">
        <ele>853.05603027344</ele>
        <time>2020-05-21T07:20:27Z</time>
      </trkpt>
      <trkpt lat="48.4207" lon="7.33738">
        <ele>847.05603027344</ele>
        <time>2020-05-21T07:20:32Z</time>
      </trkpt>
      <trkpt lat="48.42069" lon="7.33726">
        <ele>848.05603027344</ele>
        <time>2020-05-21T07:20:40Z</time>
      </trkpt>
      <trkpt lat="48.42072" lon="7.33717">
        <ele>850.05603027344</ele>
        <time>2020-05-21T07:20:45Z</time>
      </trkpt>
      <trkpt lat="48.42077" lon="7.33708">
        <ele>853.05603027344</ele>
        <time>2020-05-21T07:20:50Z</time>
      </trkpt>
      <trkpt lat="48.42078" lon="7.33698">
        <ele>854.05603027344</ele>
        <time>2020-05-21T07:20:56Z</time>
      </trkpt>
      <trkpt lat="48.42083" lon="7.33685">
        <ele>852.05603027344</ele>
        <time>2020-05-21T07:21:03Z</time>
      </trkpt>
      <trkpt lat="48.42089" lon="7.33672">
        <ele>857.05603027344</ele>
        <time>2020-05-21T07:21:08Z</time>
      </trkpt>
      <trkpt lat="48.42092" lon="7.33662">
        <ele>859.05603027344</ele>
        <time>2020-05-21T07:21:16Z</time>
      </trkpt>
      <trkpt lat="48.42093" lon="7.3365">
        <ele>858.05603027344</ele>
        <time>2020-05-21T07:21:21Z</time>
      </trkpt>
      <trkpt lat="48.42088" lon="7.33643">
        <ele>854.05603027344</ele>
        <time>2020-05-21T07:21:27Z</time>
      </trkpt>
      <trkpt lat="48.42083" lon="7.33636">
        <ele>855.05603027344</ele>
        <time>2020-05-21T07:21:32Z</time>
      </trkpt>
      <trkpt lat="48.42084" lon="7.33624">
        <ele>858.05603027344</ele>
        <time>2020-05-21T07:21:37Z</time>
      </trkpt>
      <trkpt lat="48.42081" lon="7.33612">
        <ele>857.05603027344</ele>
        <time>2020-05-21T07:21:43Z</time>
      </trkpt>
      <trkpt lat="48.42077" lon="7.33604">
        <ele>856.05603027344</ele>
        <time>2020-05-21T07:21:48Z</time>
      </trkpt>
      <trkpt lat="48.4207" lon="7.33597">
        <ele>852.05603027344</ele>
        <time>2020-05-21T07:21:53Z</time>
      </trkpt>
      <trkpt lat="48.42061" lon="7.33594">
        <ele>852.05603027344</ele>
        <time>2020-05-21T07:21:58Z</time>
      </trkpt>
      <trkpt lat="48.42056" lon="7.33584">
        <ele>851.05603027344</ele>
        <time>2020-05-21T07:22:03Z</time>
      </trkpt>
      <trkpt lat="48.42054" lon="7.33574">
        <ele>849.05603027344</ele>
        <time>2020-05-21T07:22:11Z</time>
      </trkpt>
      <trkpt lat="48.42052" lon="7.33563">
        <ele>851.05603027344</ele>
        <time>2020-05-21T07:22:17Z</time>
      </trkpt>
      <trkpt lat="48.42052" lon="7.33552">
        <ele>851.05603027344</ele>
        <time>2020-05-21T07:22:23Z</time>
      </trkpt>
      <trkpt lat="48.42058" lon="7.3354">
        <ele>854.05603027344</ele>
        <time>2020-05-21T07:22:28Z</time>
      </trkpt>
      <trkpt lat="48.42052" lon="7.33529">
        <ele>855.05603027344</ele>
        <time>2020-05-21T07:22:33Z</time>
      </trkpt>
      <trkpt lat="48.42048" lon="7.3352">
        <ele>860.05603027344</ele>
        <time>2020-05-21T07:22:38Z</time>
      </trkpt>
      <trkpt lat="48.42047" lon="7.3351">
        <ele>863.05603027344</ele>
        <time>2020-05-21T07:22:44Z</time>
      </trkpt>
      <trkpt lat="48.42047" lon="7.33499">
        <ele>860.05603027344</ele>
        <time>2020-05-21T07:22:50Z</time>
      </trkpt>
      <trkpt lat="48.42048" lon="7.33489">
        <ele>863.05603027344</ele>
        <time>2020-05-21T07:22:57Z</time>
      </trkpt>
      <trkpt lat="48.4205" lon="7.3348">
        <ele>861.05603027344</ele>
        <time>2020-05-21T07:23:02Z</time>
      </trkpt>
      <trkpt lat="48.42051" lon="7.33469">
        <ele>865.05603027344</ele>
        <time>2020-05-21T07:23:08Z</time>
      </trkpt>
      <trkpt lat="48.42048" lon="7.33459">
        <ele>867.05603027344</ele>
        <time>2020-05-21T07:23:13Z</time>
      </trkpt>
      <trkpt lat="48.42048" lon="7.33448">
        <ele>868.05603027344</ele>
        <time>2020-05-21T07:23:20Z</time>
      </trkpt>
      <trkpt lat="48.42045" lon="7.33436">
        <ele>867.05603027344</ele>
        <time>2020-05-21T07:23:25Z</time>
      </trkpt>
      <trkpt lat="48.42046" lon="7.33426">
        <ele>868.05603027344</ele>
        <time>2020-05-21T07:23:30Z</time>
      </trkpt>
      <trkpt lat="48.42043" lon="7.33416">
        <ele>868.05603027344</ele>
        <time>2020-05-21T07:23:35Z</time>
      </trkpt>
      <trkpt lat="48.42043" lon="7.33406">
        <ele>866.05603027344</ele>
        <time>2020-05-21T07:23:41Z</time>
      </trkpt>
      <trkpt lat="48.4204" lon="7.33396">
        <ele>871.05603027344</ele>
        <time>2020-05-21T07:23:49Z</time>
      </trkpt>
      <trkpt lat="48.42037" lon="7.33385">
        <ele>873.05603027344</ele>
        <time>2020-05-21T07:23:55Z</time>
      </trkpt>
      <trkpt lat="48.4203" lon="7.33379">
        <ele>869.05603027344</ele>
        <time>2020-05-21T07:24:00Z</time>
      </trkpt>
      <trkpt lat="48.42031" lon="7.33368">
        <ele>869.05603027344</ele>
        <time>2020-05-21T07:24:05Z</time>
      </trkpt>
      <trkpt lat="48.42032" lon="7.33357">
        <ele>869.05603027344</ele>
        <time>2020-05-21T07:24:10Z</time>
      </trkpt>
      <trkpt lat="48.42033" lon="7.33346">
        <ele>871.05603027344</ele>
        <time>2020-05-21T07:24:15Z</time>
      </trkpt>
      <trkpt lat="48.42031" lon="7.33335">
        <ele>871.05603027344</ele>
        <time>2020-05-21T07:24:21Z</time>
      </trkpt>
      <trkpt lat="48.42032" lon="7.33325">
        <ele>874.05603027344</ele>
        <time>2020-05-21T07:24:27Z</time>
      </trkpt>
      <trkpt lat="48.4203" lon="7.33315">
        <ele>877.05603027344</ele>
        <time>2020-05-21T07:24:32Z</time>
      </trkpt>
      <trkpt lat="48.42026" lon="7.33306">
        <ele>879.05603027344</ele>
        <time>2020-05-21T07:24:38Z</time>
      </trkpt>
      <trkpt lat="48.42023" lon="7.33297">
        <ele>879.05603027344</ele>
        <time>2020-05-21T07:24:45Z</time>
      </trkpt>
      <trkpt lat="48.42025" lon="7.33286">
        <ele>881.05603027344</ele>
        <time>2020-05-21T07:24:50Z</time>
      </trkpt>
      <trkpt lat="48.42025" lon="7.33273">
        <ele>882.05603027344</ele>
        <time>2020-05-21T07:25:03Z</time>
      </trkpt>
      <trkpt lat="48.42024" lon="7.33263">
        <ele>882.05603027344</ele>
        <time>2020-05-21T07:25:08Z</time>
      </trkpt>
      <trkpt lat="48.42022" lon="7.33252">
        <ele>881.05603027344</ele>
        <time>2020-05-21T07:25:13Z</time>
      </trkpt>
      <trkpt lat="48.4202" lon="7.33239">
        <ele>880.05603027344</ele>
        <time>2020-05-21T07:25:18Z</time>
      </trkpt>
      <trkpt lat="48.42018" lon="7.33228">
        <ele>877.05603027344</ele>
        <time>2020-05-21T07:25:24Z</time>
      </trkpt>
      <trkpt lat="48.42017" lon="7.33217">
        <ele>877.05603027344</ele>
        <time>2020-05-21T07:25:29Z</time>
      </trkpt>
      <trkpt lat="48.42014" lon="7.33205">
        <ele>880.05603027344</ele>
        <time>2020-05-21T07:25:34Z</time>
      </trkpt>
      <trkpt lat="48.42009" lon="7.33193">
        <ele>881.05603027344</ele>
        <time>2020-05-21T07:25:39Z</time>
      </trkpt>
      <trkpt lat="48.42007" lon="7.33182">
        <ele>880.05603027344</ele>
        <time>2020-05-21T07:25:44Z</time>
      </trkpt>
      <trkpt lat="48.42009" lon="7.33171">
        <ele>882.05603027344</ele>
        <time>2020-05-21T07:25:49Z</time>
      </trkpt>
      <trkpt lat="48.4201" lon="7.33161">
        <ele>881.05603027344</ele>
        <time>2020-05-21T07:25:56Z</time>
      </trkpt>
      <trkpt lat="48.4201" lon="7.33151">
        <ele>881.05603027344</ele>
        <time>2020-05-21T07:26:04Z</time>
      </trkpt>
      <trkpt lat="48.4201" lon="7.33141">
        <ele>884.05603027344</ele>
        <time>2020-05-21T07:26:17Z</time>
      </trkpt>
      <trkpt lat="48.42007" lon="7.33129">
        <ele>879.05603027344</ele>
        <time>2020-05-21T07:26:22Z</time>
      </trkpt>
      <trkpt lat="48.42008" lon="7.33119">
        <ele>875.05603027344</ele>
        <time>2020-05-21T07:26:27Z</time>
      </trkpt>
      <trkpt lat="48.42008" lon="7.33108">
        <ele>878.05603027344</ele>
        <time>2020-05-21T07:26:33Z</time>
      </trkpt>
      <trkpt lat="48.42007" lon="7.33094">
        <ele>878.05603027344</ele>
        <time>2020-05-21T07:26:38Z</time>
      </trkpt>
      <trkpt lat="48.42009" lon="7.33084">
        <ele>878.05603027344</ele>
        <time>2020-05-21T07:26:44Z</time>
      </trkpt>
      <trkpt lat="48.42008" lon="7.33073">
        <ele>880.05603027344</ele>
        <time>2020-05-21T07:26:51Z</time>
      </trkpt>
      <trkpt lat="48.42007" lon="7.33062">
        <ele>877.05603027344</ele>
        <time>2020-05-21T07:26:56Z</time>
      </trkpt>
      <trkpt lat="48.42008" lon="7.33052">
        <ele>882.05603027344</ele>
        <time>2020-05-21T07:27:01Z</time>
      </trkpt>
      <trkpt lat="48.42004" lon="7.33043">
        <ele>877.05603027344</ele>
        <time>2020-05-21T07:27:07Z</time>
      </trkpt>
      <trkpt lat="48.42009" lon="7.33034">
        <ele>880.05603027344</ele>
        <time>2020-05-21T07:27:12Z</time>
      </trkpt>
      <trkpt lat="48.42011" lon="7.33022">
        <ele>880.05603027344</ele>
        <time>2020-05-21T07:27:21Z</time>
      </trkpt>
      <trkpt lat="48.42013" lon="7.3301">
        <ele>878.05603027344</ele>
        <time>2020-05-21T07:27:27Z</time>
      </trkpt>
      <trkpt lat="48.42016" lon="7.32999">
        <ele>873.05603027344</ele>
        <time>2020-05-21T07:27:32Z</time>
      </trkpt>
      <trkpt lat="48.42019" lon="7.3299">
        <ele>875.05603027344</ele>
        <time>2020-05-21T07:27:38Z</time>
      </trkpt>
      <trkpt lat="48.42018" lon="7.3298">
        <ele>874.05603027344</ele>
        <time>2020-05-21T07:27:46Z</time>
      </trkpt>
      <trkpt lat="48.4202" lon="7.32967">
        <ele>875.05603027344</ele>
        <time>2020-05-21T07:27:52Z</time>
      </trkpt>
      <trkpt lat="48.4202" lon="7.32956">
        <ele>877.05603027344</ele>
        <time>2020-05-21T07:27:58Z</time>
      </trkpt>
      <trkpt lat="48.42022" lon="7.32944">
        <ele>878.05603027344</ele>
        <time>2020-05-21T07:28:03Z</time>
      </trkpt>
      <trkpt lat="48.42024" lon="7.32933">
        <ele>879.05603027344</ele>
        <time>2020-05-21T07:28:08Z</time>
      </trkpt>
      <trkpt lat="48.42025" lon="7.32922">
        <ele>880.05603027344</ele>
        <time>2020-05-21T07:28:13Z</time>
      </trkpt>
      <trkpt lat="48.42023" lon="7.32912">
        <ele>880.05603027344</ele>
        <time>2020-05-21T07:28:22Z</time>
      </trkpt>
      <trkpt lat="48.42023" lon="7.32901">
        <ele>882.05603027344</ele>
        <time>2020-05-21T07:28:31Z</time>
      </trkpt>
      <trkpt lat="48.42024" lon="7.32889">
        <ele>884.05603027344</ele>
        <time>2020-05-21T07:28:38Z</time>
      </trkpt>
      <trkpt lat="48.42024" lon="7.32878">
        <ele>886.05603027344</ele>
        <time>2020-05-21T07:28:44Z</time>
      </trkpt>
      <trkpt lat="48.42029" lon="7.3287">
        <ele>890.05603027344</ele>
        <time>2020-05-21T07:28:50Z</time>
      </trkpt>
      <trkpt lat="48.42034" lon="7.32864">
        <ele>890.05603027344</ele>
        <time>2020-05-21T07:28:55Z</time>
      </trkpt>
      <trkpt lat="48.42035" lon="7.32854">
        <ele>889.05603027344</ele>
        <time>2020-05-21T07:29:01Z</time>
      </trkpt>
      <trkpt lat="48.4204" lon="7.32846">
        <ele>886.05603027344</ele>
        <time>2020-05-21T07:29:09Z</time>
      </trkpt>
      <trkpt lat="48.42044" lon="7.32837">
        <ele>887.05603027344</ele>
        <time>2020-05-21T07:29:14Z</time>
      </trkpt>
      <trkpt lat="48.42051" lon="7.32831">
        <ele>886.05603027344</ele>
        <time>2020-05-21T07:29:20Z</time>
      </trkpt>
      <trkpt lat="48.42056" lon="7.32822">
        <ele>881.05603027344</ele>
        <time>2020-05-21T07:29:28Z</time>
      </trkpt>
      <trkpt lat="48.42058" lon="7.3281">
        <ele>878.05603027344</ele>
        <time>2020-05-21T07:29:35Z</time>
      </trkpt>
      <trkpt lat="48.42064" lon="7.32805">
        <ele>880.05603027344</ele>
        <time>2020-05-21T07:29:40Z</time>
      </trkpt>
      <trkpt lat="48.4207" lon="7.32797">
        <ele>881.05603027344</ele>
        <time>2020-05-21T07:29:46Z</time>
      </trkpt>
      <trkpt lat="48.42075" lon="7.32788">
        <ele>883.05603027344</ele>
        <time>2020-05-21T07:29:51Z</time>
      </trkpt>
      <trkpt lat="48.42076" lon="7.32777">
        <ele>885.05603027344</ele>
        <time>2020-05-21T07:29:57Z</time>
      </trkpt>
      <trkpt lat="48.4208" lon="7.32768">
        <ele>885.05603027344</ele>
        <time>2020-05-21T07:30:02Z</time>
      </trkpt>
      <trkpt lat="48.42082" lon="7.32759">
        <ele>884.05603027344</ele>
        <time>2020-05-21T07:30:08Z</time>
      </trkpt>
      <trkpt lat="48.42087" lon="7.32749">
        <ele>886.05603027344</ele>
        <time>2020-05-21T07:30:13Z</time>
      </trkpt>
      <trkpt lat="48.42089" lon="7.32738">
        <ele>890.05603027344</ele>
        <time>2020-05-21T07:30:19Z</time>
      </trkpt>
      <trkpt lat="48.42093" lon="7.3273">
        <ele>892.05603027344</ele>
        <time>2020-05-21T07:30:24Z</time>
      </trkpt>
      <trkpt lat="48.42099" lon="7.32722">
        <ele>891.05603027344</ele>
        <time>2020-05-21T07:30:32Z</time>
      </trkpt>
      <trkpt lat="48.42103" lon="7.32713">
        <ele>891.05603027344</ele>
        <time>2020-05-21T07:30:41Z</time>
      </trkpt>
      <trkpt lat="48.42108" lon="7.32703">
        <ele>891.05603027344</ele>
        <time>2020-05-21T07:30:46Z</time>
      </trkpt>
      <trkpt lat="48.42111" lon="7.32694">
        <ele>889.05603027344</ele>
        <time>2020-05-21T07:30:52Z</time>
      </trkpt>
      <trkpt lat="48.42117" lon="7.32687">
        <ele>891.05603027344</ele>
        <time>2020-05-21T07:30:59Z</time>
      </trkpt>
      <trkpt lat="48.42125" lon="7.32682">
        <ele>891.05603027344</ele>
        <time>2020-05-21T07:31:04Z</time>
      </trkpt>
      <trkpt lat="48.42132" lon="7.3268">
        <ele>893.05603027344</ele>
        <time>2020-05-21T07:31:12Z</time>
      </trkpt>
      <trkpt lat="48.42143" lon="7.32674">
        <ele>895.05603027344</ele>
        <time>2020-05-21T07:31:17Z</time>
      </trkpt>
      <trkpt lat="48.42146" lon="7.32666">
        <ele>897.05603027344</ele>
        <time>2020-05-21T07:31:23Z</time>
      </trkpt>
      <trkpt lat="48.42154" lon="7.32664">
        <ele>900.05603027344</ele>
        <time>2020-05-21T07:31:28Z</time>
      </trkpt>
      <trkpt lat="48.42159" lon="7.32657">
        <ele>900.05603027344</ele>
        <time>2020-05-21T07:31:34Z</time>
      </trkpt>
      <trkpt lat="48.42167" lon="7.32655">
        <ele>900.05603027344</ele>
        <time>2020-05-21T07:31:39Z</time>
      </trkpt>
      <trkpt lat="48.42175" lon="7.32651">
        <ele>902.05603027344</ele>
        <time>2020-05-21T07:31:44Z</time>
      </trkpt>
      <trkpt lat="48.42182" lon="7.32649">
        <ele>902.05603027344</ele>
        <time>2020-05-21T07:31:50Z</time>
      </trkpt>
      <trkpt lat="48.4219" lon="7.32644">
        <ele>904.05603027344</ele>
        <time>2020-05-21T07:31:55Z</time>
      </trkpt>
      <trkpt lat="48.42197" lon="7.3264">
        <ele>905.05603027344</ele>
        <time>2020-05-21T07:32:03Z</time>
      </trkpt>
      <trkpt lat="48.42205" lon="7.32637">
        <ele>906.05603027344</ele>
        <time>2020-05-21T07:32:14Z</time>
      </trkpt>
      <trkpt lat="48.42211" lon="7.32631">
        <ele>906.05603027344</ele>
        <time>2020-05-21T07:32:19Z</time>
      </trkpt>
      <trkpt lat="48.42217" lon="7.32626">
        <ele>904.05603027344</ele>
        <time>2020-05-21T07:32:26Z</time>
      </trkpt>
      <trkpt lat="48.42223" lon="7.3262">
        <ele>907.05603027344</ele>
        <time>2020-05-21T07:32:31Z</time>
      </trkpt>
      <trkpt lat="48.42229" lon="7.32618">
        <ele>909.05603027344</ele>
        <time>2020-05-21T07:32:38Z</time>
      </trkpt>
      <trkpt lat="48.42237" lon="7.32614">
        <ele>911.05603027344</ele>
        <time>2020-05-21T07:32:45Z</time>
      </trkpt>
      <trkpt lat="48.42244" lon="7.32609">
        <ele>908.05603027344</ele>
        <time>2020-05-21T07:32:51Z</time>
      </trkpt>
      <trkpt lat="48.42248" lon="7.32602">
        <ele>909.05603027344</ele>
        <time>2020-05-21T07:32:57Z</time>
      </trkpt>
      <trkpt lat="48.42255" lon="7.32598">
        <ele>913.05603027344</ele>
        <time>2020-05-21T07:33:02Z</time>
      </trkpt>
      <trkpt lat="48.42261" lon="7.32593">
        <ele>917.05700683594</ele>
        <time>2020-05-21T07:33:09Z</time>
      </trkpt>
      <trkpt lat="48.42268" lon="7.32591">
        <ele>915.05700683594</ele>
        <time>2020-05-21T07:33:14Z</time>
      </trkpt>
      <trkpt lat="48.42274" lon="7.32585">
        <ele>912.05700683594</ele>
        <time>2020-05-21T07:33:19Z</time>
      </trkpt>
      <trkpt lat="48.4228" lon="7.3258">
        <ele>910.05700683594</ele>
        <time>2020-05-21T07:33:26Z</time>
      </trkpt>
      <trkpt lat="48.42288" lon="7.32572">
        <ele>909.05700683594</ele>
        <time>2020-05-21T07:33:32Z</time>
      </trkpt>
      <trkpt lat="48.42296" lon="7.32567">
        <ele>913.05700683594</ele>
        <time>2020-05-21T07:33:37Z</time>
      </trkpt>
      <trkpt lat="48.42304" lon="7.32562">
        <ele>912.05700683594</ele>
        <time>2020-05-21T07:33:42Z</time>
      </trkpt>
      <trkpt lat="48.42313" lon="7.32558">
        <ele>915.05700683594</ele>
        <time>2020-05-21T07:33:47Z</time>
      </trkpt>
      <trkpt lat="48.42321" lon="7.32557">
        <ele>921.05700683594</ele>
        <time>2020-05-21T07:33:54Z</time>
      </trkpt>
      <trkpt lat="48.42327" lon="7.32551">
        <ele>922.05700683594</ele>
        <time>2020-05-21T07:33:59Z</time>
      </trkpt>
      <trkpt lat="48.42333" lon="7.32545">
        <ele>924.05700683594</ele>
        <time>2020-05-21T07:34:08Z</time>
      </trkpt>
      <trkpt lat="48.42341" lon="7.32545">
        <ele>926.05700683594</ele>
        <time>2020-05-21T07:34:17Z</time>
      </trkpt>
      <trkpt lat="48.42348" lon="7.32541">
        <ele>926.05700683594</ele>
        <time>2020-05-21T07:34:23Z</time>
      </trkpt>
      <trkpt lat="48.42351" lon="7.32532">
        <ele>926.05700683594</ele>
        <time>2020-05-21T07:34:40Z</time>
      </trkpt>
      <trkpt lat="48.42358" lon="7.32525">
        <ele>925.05700683594</ele>
        <time>2020-05-21T07:34:45Z</time>
      </trkpt>
      <trkpt lat="48.42367" lon="7.32517">
        <ele>925.05700683594</ele>
        <time>2020-05-21T07:34:50Z</time>
      </trkpt>
      <trkpt lat="48.42373" lon="7.32509">
        <ele>926.05700683594</ele>
        <time>2020-05-21T07:34:55Z</time>
      </trkpt>
      <trkpt lat="48.4238" lon="7.325">
        <ele>927.05700683594</ele>
        <time>2020-05-21T07:35:00Z</time>
      </trkpt>
      <trkpt lat="48.42386" lon="7.32495">
        <ele>925.05700683594</ele>
        <time>2020-05-21T07:35:05Z</time>
      </trkpt>
      <trkpt lat="48.42394" lon="7.32491">
        <ele>926.05700683594</ele>
        <time>2020-05-21T07:35:10Z</time>
      </trkpt>
      <trkpt lat="48.42401" lon="7.32485">
        <ele>924.05700683594</ele>
        <time>2020-05-21T07:35:15Z</time>
      </trkpt>
      <trkpt lat="48.42407" lon="7.32478">
        <ele>926.05700683594</ele>
        <time>2020-05-21T07:35:20Z</time>
      </trkpt>
      <trkpt lat="48.42414" lon="7.32471">
        <ele>929.05700683594</ele>
        <time>2020-05-21T07:35:25Z</time>
      </trkpt>
      <trkpt lat="48.42417" lon="7.32461">
        <ele>930.05700683594</ele>
        <time>2020-05-21T07:35:32Z</time>
      </trkpt>
      <trkpt lat="48.42421" lon="7.32451">
        <ele>931.05700683594</ele>
        <time>2020-05-21T07:35:41Z</time>
      </trkpt>
      <trkpt lat="48.42424" lon="7.32441">
        <ele>932.05700683594</ele>
        <time>2020-05-21T07:35:50Z</time>
      </trkpt>
      <trkpt lat="48.42429" lon="7.32434">
        <ele>932.05700683594</ele>
        <time>2020-05-21T07:35:58Z</time>
      </trkpt>
      <trkpt lat="48.42431" lon="7.32424">
        <ele>933.05700683594</ele>
        <time>2020-05-21T07:36:04Z</time>
      </trkpt>
      <trkpt lat="48.42438" lon="7.32413">
        <ele>932.05700683594</ele>
        <time>2020-05-21T07:36:09Z</time>
      </trkpt>
      <trkpt lat="48.42444" lon="7.32406">
        <ele>929.05700683594</ele>
        <time>2020-05-21T07:36:16Z</time>
      </trkpt>
      <trkpt lat="48.42448" lon="7.32398">
        <ele>929.05700683594</ele>
        <time>2020-05-21T07:36:21Z</time>
      </trkpt>
      <trkpt lat="48.42453" lon="7.3239">
        <ele>928.05700683594</ele>
        <time>2020-05-21T07:36:26Z</time>
      </trkpt>
      <trkpt lat="48.42457" lon="7.3238">
        <ele>925.05700683594</ele>
        <time>2020-05-21T07:36:33Z</time>
      </trkpt>
      <trkpt lat="48.42462" lon="7.32373">
        <ele>926.05700683594</ele>
        <time>2020-05-21T07:36:38Z</time>
      </trkpt>
      <trkpt lat="48.42465" lon="7.32364">
        <ele>927.05700683594</ele>
        <time>2020-05-21T07:36:44Z</time>
      </trkpt>
      <trkpt lat="48.42471" lon="7.32358">
        <ele>924.05700683594</ele>
        <time>2020-05-21T07:36:50Z</time>
      </trkpt>
      <trkpt lat="48.42474" lon="7.32348">
        <ele>925.05700683594</ele>
        <time>2020-05-21T07:36:55Z</time>
      </trkpt>
      <trkpt lat="48.4248" lon="7.3234">
        <ele>926.05700683594</ele>
        <time>2020-05-21T07:37:02Z</time>
      </trkpt>
      <trkpt lat="48.42485" lon="7.32333">
        <ele>926.05700683594</ele>
        <time>2020-05-21T07:37:11Z</time>
      </trkpt>
      <trkpt lat="48.4249" lon="7.32321">
        <ele>930.05700683594</ele>
        <time>2020-05-21T07:37:16Z</time>
      </trkpt>
      <trkpt lat="48.42495" lon="7.32314">
        <ele>933.05700683594</ele>
        <time>2020-05-21T07:37:24Z</time>
      </trkpt>
      <trkpt lat="48.42502" lon="7.32308">
        <ele>935.05700683594</ele>
        <time>2020-05-21T07:37:31Z</time>
      </trkpt>
      <trkpt lat="48.42506" lon="7.32299">
        <ele>933.05700683594</ele>
        <time>2020-05-21T07:37:37Z</time>
      </trkpt>
      <trkpt lat="48.42512" lon="7.32293">
        <ele>936.05700683594</ele>
        <time>2020-05-21T07:37:43Z</time>
      </trkpt>
      <trkpt lat="48.42517" lon="7.32284">
        <ele>930.05700683594</ele>
        <time>2020-05-21T07:37:50Z</time>
      </trkpt>
      <trkpt lat="48.42523" lon="7.32278">
        <ele>932.05700683594</ele>
        <time>2020-05-21T07:37:55Z</time>
      </trkpt>
      <trkpt lat="48.42529" lon="7.32273">
        <ele>933.05700683594</ele>
        <time>2020-05-21T07:38:00Z</time>
      </trkpt>
      <trkpt lat="48.42535" lon="7.32267">
        <ele>930.05700683594</ele>
        <time>2020-05-21T07:38:07Z</time>
      </trkpt>
      <trkpt lat="48.42542" lon="7.32262">
        <ele>930.05700683594</ele>
        <time>2020-05-21T07:38:12Z</time>
      </trkpt>
      <trkpt lat="48.4255" lon="7.32258">
        <ele>932.05700683594</ele>
        <time>2020-05-21T07:38:17Z</time>
      </trkpt>
      <trkpt lat="48.42556" lon="7.32258">
        <ele>932.05700683594</ele>
        <time>2020-05-21T07:38:22Z</time>
      </trkpt>
      <trkpt lat="48.42561" lon="7.32251">
        <ele>933.05700683594</ele>
        <time>2020-05-21T07:38:36Z</time>
      </trkpt>
      <trkpt lat="48.42568" lon="7.3225">
        <ele>935.05700683594</ele>
        <time>2020-05-21T07:38:45Z</time>
      </trkpt>
      <trkpt lat="48.42575" lon="7.32241">
        <ele>937.05700683594</ele>
        <time>2020-05-21T07:38:50Z</time>
      </trkpt>
      <trkpt lat="48.42582" lon="7.32236">
        <ele>938.05700683594</ele>
        <time>2020-05-21T07:38:55Z</time>
      </trkpt>
      <trkpt lat="48.42589" lon="7.3223">
        <ele>939.05700683594</ele>
        <time>2020-05-21T07:39:00Z</time>
      </trkpt>
      <trkpt lat="48.42595" lon="7.32223">
        <ele>938.05700683594</ele>
        <time>2020-05-21T07:39:06Z</time>
      </trkpt>
      <trkpt lat="48.42602" lon="7.32218">
        <ele>936.05700683594</ele>
        <time>2020-05-21T07:39:12Z</time>
      </trkpt>
      <trkpt lat="48.42608" lon="7.32214">
        <ele>939.05700683594</ele>
        <time>2020-05-21T07:39:17Z</time>
      </trkpt>
      <trkpt lat="48.42614" lon="7.32209">
        <ele>940.05700683594</ele>
        <time>2020-05-21T07:39:22Z</time>
      </trkpt>
      <trkpt lat="48.4262" lon="7.32204">
        <ele>943.05700683594</ele>
        <time>2020-05-21T07:39:29Z</time>
      </trkpt>
      <trkpt lat="48.42627" lon="7.32198">
        <ele>944.05700683594</ele>
        <time>2020-05-21T07:39:34Z</time>
      </trkpt>
      <trkpt lat="48.42633" lon="7.3219">
        <ele>944.05700683594</ele>
        <time>2020-05-21T07:39:39Z</time>
      </trkpt>
      <trkpt lat="48.42639" lon="7.32185">
        <ele>946.05700683594</ele>
        <time>2020-05-21T07:39:45Z</time>
      </trkpt>
      <trkpt lat="48.42646" lon="7.32182">
        <ele>946.05700683594</ele>
        <time>2020-05-21T07:39:52Z</time>
      </trkpt>
      <trkpt lat="48.42652" lon="7.32174">
        <ele>942.05700683594</ele>
        <time>2020-05-21T07:40:06Z</time>
      </trkpt>
      <trkpt lat="48.42657" lon="7.32166">
        <ele>943.05700683594</ele>
        <time>2020-05-21T07:40:13Z</time>
      </trkpt>
      <trkpt lat="48.42664" lon="7.32163">
        <ele>940.05700683594</ele>
        <time>2020-05-21T07:40:21Z</time>
      </trkpt>
      <trkpt lat="48.4267" lon="7.32157">
        <ele>941.05700683594</ele>
        <time>2020-05-21T07:40:26Z</time>
      </trkpt>
      <trkpt lat="48.42677" lon="7.32156">
        <ele>944.05700683594</ele>
        <time>2020-05-21T07:40:32Z</time>
      </trkpt>
      <trkpt lat="48.42684" lon="7.32152">
        <ele>945.05700683594</ele>
        <time>2020-05-21T07:40:37Z</time>
      </trkpt>
      <trkpt lat="48.42688" lon="7.32142">
        <ele>945.05700683594</ele>
        <time>2020-05-21T07:40:42Z</time>
      </trkpt>
      <trkpt lat="48.42692" lon="7.32132">
        <ele>946.05700683594</ele>
        <time>2020-05-21T07:40:48Z</time>
      </trkpt>
      <trkpt lat="48.427" lon="7.32121">
        <ele>950.05700683594</ele>
        <time>2020-05-21T07:40:53Z</time>
      </trkpt>
      <trkpt lat="48.42703" lon="7.32111">
        <ele>956.05700683594</ele>
        <time>2020-05-21T07:40:58Z</time>
      </trkpt>
      <trkpt lat="48.42704" lon="7.321">
        <ele>956.05700683594</ele>
        <time>2020-05-21T07:41:03Z</time>
      </trkpt>
      <trkpt lat="48.42705" lon="7.3209">
        <ele>956.05700683594</ele>
        <time>2020-05-21T07:41:08Z</time>
      </trkpt>
      <trkpt lat="48.42708" lon="7.32079">
        <ele>953.05700683594</ele>
        <time>2020-05-21T07:41:14Z</time>
      </trkpt>
      <trkpt lat="48.42709" lon="7.32068">
        <ele>955.05700683594</ele>
        <time>2020-05-21T07:41:23Z</time>
      </trkpt>
      <trkpt lat="48.42709" lon="7.32057">
        <ele>948.05700683594</ele>
        <time>2020-05-21T07:41:28Z</time>
      </trkpt>
      <trkpt lat="48.4271" lon="7.32046">
        <ele>950.05700683594</ele>
        <time>2020-05-21T07:41:33Z</time>
      </trkpt>
      <trkpt lat="48.42714" lon="7.32035">
        <ele>953.05700683594</ele>
        <time>2020-05-21T07:41:38Z</time>
      </trkpt>
      <trkpt lat="48.42712" lon="7.32025">
        <ele>954.05700683594</ele>
        <time>2020-05-21T07:41:43Z</time>
      </trkpt>
      <trkpt lat="48.42716" lon="7.32015">
        <ele>956.05700683594</ele>
        <time>2020-05-21T07:41:51Z</time>
      </trkpt>
      <trkpt lat="48.42716" lon="7.32005">
        <ele>957.05700683594</ele>
        <time>2020-05-21T07:41:57Z</time>
      </trkpt>
      <trkpt lat="48.42715" lon="7.31991">
        <ele>955.05700683594</ele>
        <time>2020-05-21T07:42:02Z</time>
      </trkpt>
      <trkpt lat="48.42716" lon="7.3198">
        <ele>957.05700683594</ele>
        <time>2020-05-21T07:42:07Z</time>
      </trkpt>
      <trkpt lat="48.42716" lon="7.31969">
        <ele>956.05700683594</ele>
        <time>2020-05-21T07:42:13Z</time>
      </trkpt>
      <trkpt lat="48.42717" lon="7.31959">
        <ele>954.05700683594</ele>
        <time>2020-05-21T07:42:19Z</time>
      </trkpt>
      <trkpt lat="48.42718" lon="7.31949">
        <ele>955.05700683594</ele>
        <time>2020-05-21T07:42:26Z</time>
      </trkpt>
      <trkpt lat="48.42716" lon="7.31939">
        <ele>955.05700683594</ele>
        <time>2020-05-21T07:42:31Z</time>
      </trkpt>
      <trkpt lat="48.42717" lon="7.31929">
        <ele>955.05700683594</ele>
        <time>2020-05-21T07:42:38Z</time>
      </trkpt>
      <trkpt lat="48.42715" lon="7.31917">
        <ele>956.05700683594</ele>
        <time>2020-05-21T07:42:43Z</time>
      </trkpt>
      <trkpt lat="48.42715" lon="7.31904">
        <ele>956.05700683594</ele>
        <time>2020-05-21T07:42:48Z</time>
      </trkpt>
      <trkpt lat="48.42713" lon="7.31894">
        <ele>952.05700683594</ele>
        <time>2020-05-21T07:42:54Z</time>
      </trkpt>
      <trkpt lat="48.42714" lon="7.31884">
        <ele>952.05700683594</ele>
        <time>2020-05-21T07:42:59Z</time>
      </trkpt>
      <trkpt lat="48.42713" lon="7.31875">
        <ele>954.05700683594</ele>
        <time>2020-05-21T07:43:04Z</time>
      </trkpt>
      <trkpt lat="48.42712" lon="7.31865">
        <ele>958.05700683594</ele>
        <time>2020-05-21T07:43:10Z</time>
      </trkpt>
      <trkpt lat="48.42715" lon="7.31854">
        <ele>959.05700683594</ele>
        <time>2020-05-21T07:43:17Z</time>
      </trkpt>
      <trkpt lat="48.42715" lon="7.31839">
        <ele>957.05700683594</ele>
        <time>2020-05-21T07:43:22Z</time>
      </trkpt>
      <trkpt lat="48.42713" lon="7.31829">
        <ele>956.05700683594</ele>
        <time>2020-05-21T07:43:27Z</time>
      </trkpt>
      <trkpt lat="48.42718" lon="7.31821">
        <ele>959.05700683594</ele>
        <time>2020-05-21T07:43:32Z</time>
      </trkpt>
      <trkpt lat="48.42719" lon="7.31811">
        <ele>960.05700683594</ele>
        <time>2020-05-21T07:43:40Z</time>
      </trkpt>
      <trkpt lat="48.42721" lon="7.318">
        <ele>962.05700683594</ele>
        <time>2020-05-21T07:43:47Z</time>
      </trkpt>
      <trkpt lat="48.42722" lon="7.3179">
        <ele>963.05700683594</ele>
        <time>2020-05-21T07:43:55Z</time>
      </trkpt>
      <trkpt lat="48.42724" lon="7.31781">
        <ele>964.05700683594</ele>
        <time>2020-05-21T07:44:01Z</time>
      </trkpt>
      <trkpt lat="48.42724" lon="7.31769">
        <ele>963.05700683594</ele>
        <time>2020-05-21T07:44:06Z</time>
      </trkpt>
      <trkpt lat="48.42722" lon="7.31757">
        <ele>965.05700683594</ele>
        <time>2020-05-21T07:44:11Z</time>
      </trkpt>
      <trkpt lat="48.42724" lon="7.31748">
        <ele>967.05700683594</ele>
        <time>2020-05-21T07:44:16Z</time>
      </trkpt>
      <trkpt lat="48.42726" lon="7.31737">
        <ele>967.05700683594</ele>
        <time>2020-05-21T07:44:24Z</time>
      </trkpt>
      <trkpt lat="48.42724" lon="7.31726">
        <ele>970.05700683594</ele>
        <time>2020-05-21T07:44:29Z</time>
      </trkpt>
      <trkpt lat="48.42726" lon="7.31713">
        <ele>966.05700683594</ele>
        <time>2020-05-21T07:44:34Z</time>
      </trkpt>
      <trkpt lat="48.42728" lon="7.31701">
        <ele>967.05700683594</ele>
        <time>2020-05-21T07:44:46Z</time>
      </trkpt>
      <trkpt lat="48.42731" lon="7.31689">
        <ele>965.05700683594</ele>
        <time>2020-05-21T07:44:51Z</time>
      </trkpt>
      <trkpt lat="48.42733" lon="7.31678">
        <ele>963.05700683594</ele>
        <time>2020-05-21T07:44:56Z</time>
      </trkpt>
      <trkpt lat="48.42736" lon="7.31667">
        <ele>960.05700683594</ele>
        <time>2020-05-21T07:45:02Z</time>
      </trkpt>
      <trkpt lat="48.42739" lon="7.31659">
        <ele>963.05700683594</ele>
        <time>2020-05-21T07:45:09Z</time>
      </trkpt>
      <trkpt lat="48.42742" lon="7.31648">
        <ele>962.05700683594</ele>
        <time>2020-05-21T07:45:15Z</time>
      </trkpt>
      <trkpt lat="48.42743" lon="7.31637">
        <ele>962.05700683594</ele>
        <time>2020-05-21T07:45:20Z</time>
      </trkpt>
      <trkpt lat="48.42746" lon="7.31627">
        <ele>958.05700683594</ele>
        <time>2020-05-21T07:45:25Z</time>
      </trkpt>
      <trkpt lat="48.4275" lon="7.31618">
        <ele>960.05700683594</ele>
        <time>2020-05-21T07:45:30Z</time>
      </trkpt>
      <trkpt lat="48.42752" lon="7.31607">
        <ele>957.05700683594</ele>
        <time>2020-05-21T07:45:43Z</time>
      </trkpt>
      <trkpt lat="48.42756" lon="7.31597">
        <ele>956.05700683594</ele>
        <time>2020-05-21T07:45:48Z</time>
      </trkpt>
      <trkpt lat="48.42754" lon="7.31587">
        <ele>950.05700683594</ele>
        <time>2020-05-21T07:45:56Z</time>
      </trkpt>
      <trkpt lat="48.42755" lon="7.31575">
        <ele>951.05700683594</ele>
        <time>2020-05-21T07:46:01Z</time>
      </trkpt>
      <trkpt lat="48.42759" lon="7.31566">
        <ele>955.05700683594</ele>
        <time>2020-05-21T07:46:11Z</time>
      </trkpt>
      <trkpt lat="48.42753" lon="7.31569">
        <ele>953.05700683594</ele>
        <time>2020-05-21T07:46:23Z</time>
      </trkpt>
      <trkpt lat="48.42755" lon="7.31559">
        <ele>955.05700683594</ele>
        <time>2020-05-21T07:46:47Z</time>
      </trkpt>
      <trkpt lat="48.42757" lon="7.3155">
        <ele>957.05700683594</ele>
        <time>2020-05-21T07:46:52Z</time>
      </trkpt>
      <trkpt lat="48.42762" lon="7.31542">
        <ele>958.05700683594</ele>
        <time>2020-05-21T07:46:57Z</time>
      </trkpt>
      <trkpt lat="48.42768" lon="7.31536">
        <ele>959.05700683594</ele>
        <time>2020-05-21T07:47:02Z</time>
      </trkpt>
      <trkpt lat="48.42774" lon="7.3153">
        <ele>960.05700683594</ele>
        <time>2020-05-21T07:47:08Z</time>
      </trkpt>
      <trkpt lat="48.42779" lon="7.31523">
        <ele>957.05700683594</ele>
        <time>2020-05-21T07:47:16Z</time>
      </trkpt>
      <trkpt lat="48.42784" lon="7.31516">
        <ele>956.05700683594</ele>
        <time>2020-05-21T07:47:28Z</time>
      </trkpt>
      <trkpt lat="48.42791" lon="7.31516">
        <ele>959.05700683594</ele>
        <time>2020-05-21T07:48:00Z</time>
      </trkpt>
      <trkpt lat="48.42797" lon="7.31514">
        <ele>957.05700683594</ele>
        <time>2020-05-21T07:48:23Z</time>
      </trkpt>
      <trkpt lat="48.42804" lon="7.31516">
        <ele>954.05700683594</ele>
        <time>2020-05-21T07:48:43Z</time>
      </trkpt>
      <trkpt lat="48.4281" lon="7.31512">
        <ele>956.05700683594</ele>
        <time>2020-05-21T07:49:14Z</time>
      </trkpt>
      <trkpt lat="48.42817" lon="7.31512">
        <ele>958.05700683594</ele>
        <time>2020-05-21T07:54:25Z</time>
      </trkpt>
      <trkpt lat="48.42824" lon="7.31505">
        <ele>958.05700683594</ele>
        <time>2020-05-21T07:54:33Z</time>
      </trkpt>
      <trkpt lat="48.42829" lon="7.31498">
        <ele>958.05798339844</ele>
        <time>2020-05-21T07:54:38Z</time>
      </trkpt>
      <trkpt lat="48.42835" lon="7.31493">
        <ele>957.05798339844</ele>
        <time>2020-05-21T07:54:43Z</time>
      </trkpt>
      <trkpt lat="48.42837" lon="7.31483">
        <ele>956.05798339844</ele>
        <time>2020-05-21T07:54:49Z</time>
      </trkpt>
      <trkpt lat="48.42838" lon="7.31471">
        <ele>956.05798339844</ele>
        <time>2020-05-21T07:54:55Z</time>
      </trkpt>
      <trkpt lat="48.42836" lon="7.31462">
        <ele>955.05798339844</ele>
        <time>2020-05-21T07:55:00Z</time>
      </trkpt>
      <trkpt lat="48.42839" lon="7.31452">
        <ele>957.05798339844</ele>
        <time>2020-05-21T07:55:06Z</time>
      </trkpt>
      <trkpt lat="48.42839" lon="7.31442">
        <ele>956.05798339844</ele>
        <time>2020-05-21T07:55:12Z</time>
      </trkpt>
      <trkpt lat="48.42839" lon="7.31432">
        <ele>954.05798339844</ele>
        <time>2020-05-21T07:55:20Z</time>
      </trkpt>
      <trkpt lat="48.4284" lon="7.31419">
        <ele>956.05798339844</ele>
        <time>2020-05-21T07:55:25Z</time>
      </trkpt>
      <trkpt lat="48.4284" lon="7.31408">
        <ele>954.05798339844</ele>
        <time>2020-05-21T07:55:31Z</time>
      </trkpt>
      <trkpt lat="48.42841" lon="7.31395">
        <ele>958.05798339844</ele>
        <time>2020-05-21T07:55:36Z</time>
      </trkpt>
      <trkpt lat="48.42841" lon="7.31384">
        <ele>956.05798339844</ele>
        <time>2020-05-21T07:55:42Z</time>
      </trkpt>
      <trkpt lat="48.42844" lon="7.31373">
        <ele>956.05798339844</ele>
        <time>2020-05-21T07:55:47Z</time>
      </trkpt>
      <trkpt lat="48.42847" lon="7.31363">
        <ele>955.05798339844</ele>
        <time>2020-05-21T07:55:52Z</time>
      </trkpt>
      <trkpt lat="48.4285" lon="7.31352">
        <ele>954.05798339844</ele>
        <time>2020-05-21T07:55:57Z</time>
      </trkpt>
      <trkpt lat="48.42848" lon="7.31342">
        <ele>954.05798339844</ele>
        <time>2020-05-21T07:56:02Z</time>
      </trkpt>
      <trkpt lat="48.42852" lon="7.3133">
        <ele>955.05798339844</ele>
        <time>2020-05-21T07:56:07Z</time>
      </trkpt>
      <trkpt lat="48.42857" lon="7.31321">
        <ele>957.05798339844</ele>
        <time>2020-05-21T07:56:12Z</time>
      </trkpt>
      <trkpt lat="48.4286" lon="7.31312">
        <ele>959.05798339844</ele>
        <time>2020-05-21T07:56:17Z</time>
      </trkpt>
      <trkpt lat="48.42863" lon="7.31301">
        <ele>959.05798339844</ele>
        <time>2020-05-21T07:56:22Z</time>
      </trkpt>
      <trkpt lat="48.42862" lon="7.31291">
        <ele>960.05798339844</ele>
        <time>2020-05-21T07:56:27Z</time>
      </trkpt>
      <trkpt lat="48.42863" lon="7.31281">
        <ele>958.05798339844</ele>
        <time>2020-05-21T07:56:32Z</time>
      </trkpt>
      <trkpt lat="48.42867" lon="7.3127">
        <ele>959.05798339844</ele>
        <time>2020-05-21T07:56:37Z</time>
      </trkpt>
      <trkpt lat="48.42867" lon="7.3126">
        <ele>956.05798339844</ele>
        <time>2020-05-21T07:56:43Z</time>
      </trkpt>
      <trkpt lat="48.42867" lon="7.3125">
        <ele>954.05798339844</ele>
        <time>2020-05-21T07:56:48Z</time>
      </trkpt>
      <trkpt lat="48.4287" lon="7.3124">
        <ele>955.05798339844</ele>
        <time>2020-05-21T07:56:53Z</time>
      </trkpt>
      <trkpt lat="48.42876" lon="7.3123">
        <ele>956.05798339844</ele>
        <time>2020-05-21T07:56:58Z</time>
      </trkpt>
      <trkpt lat="48.42879" lon="7.31221">
        <ele>960.05798339844</ele>
        <time>2020-05-21T07:57:03Z</time>
      </trkpt>
      <trkpt lat="48.42883" lon="7.31212">
        <ele>959.05798339844</ele>
        <time>2020-05-21T07:57:08Z</time>
      </trkpt>
      <trkpt lat="48.42887" lon="7.31203">
        <ele>962.05798339844</ele>
        <time>2020-05-21T07:57:13Z</time>
      </trkpt>
      <trkpt lat="48.42892" lon="7.31194">
        <ele>963.05798339844</ele>
        <time>2020-05-21T07:57:18Z</time>
      </trkpt>
      <trkpt lat="48.42893" lon="7.31183">
        <ele>963.05798339844</ele>
        <time>2020-05-21T07:57:23Z</time>
      </trkpt>
      <trkpt lat="48.42897" lon="7.3117">
        <ele>961.05798339844</ele>
        <time>2020-05-21T07:57:28Z</time>
      </trkpt>
      <trkpt lat="48.42902" lon="7.31163">
        <ele>963.05798339844</ele>
        <time>2020-05-21T07:57:32Z</time>
      </trkpt>
      <trkpt lat="48.42906" lon="7.31153">
        <ele>962.05798339844</ele>
        <time>2020-05-21T07:57:37Z</time>
      </trkpt>
      <trkpt lat="48.4291" lon="7.31144">
        <ele>961.05798339844</ele>
        <time>2020-05-21T07:57:42Z</time>
      </trkpt>
      <trkpt lat="48.4291" lon="7.31134">
        <ele>954.05798339844</ele>
        <time>2020-05-21T07:57:48Z</time>
      </trkpt>
      <trkpt lat="48.4291" lon="7.31124">
        <ele>952.05798339844</ele>
        <time>2020-05-21T07:57:54Z</time>
      </trkpt>
      <trkpt lat="48.42916" lon="7.31117">
        <ele>952.05798339844</ele>
        <time>2020-05-21T07:57:59Z</time>
      </trkpt>
      <trkpt lat="48.42919" lon="7.31107">
        <ele>954.05798339844</ele>
        <time>2020-05-21T07:58:05Z</time>
      </trkpt>
      <trkpt lat="48.42923" lon="7.31095">
        <ele>957.05798339844</ele>
        <time>2020-05-21T07:58:10Z</time>
      </trkpt>
      <trkpt lat="48.42924" lon="7.3108">
        <ele>957.05798339844</ele>
        <time>2020-05-21T07:58:15Z</time>
      </trkpt>
      <trkpt lat="48.42928" lon="7.31067">
        <ele>959.05798339844</ele>
        <time>2020-05-21T07:58:20Z</time>
      </trkpt>
      <trkpt lat="48.42932" lon="7.31059">
        <ele>959.05798339844</ele>
        <time>2020-05-21T07:58:25Z</time>
      </trkpt>
      <trkpt lat="48.4293" lon="7.31046">
        <ele>959.05798339844</ele>
        <time>2020-05-21T07:58:30Z</time>
      </trkpt>
      <trkpt lat="48.42929" lon="7.31036">
        <ele>962.05798339844</ele>
        <time>2020-05-21T07:58:35Z</time>
      </trkpt>
      <trkpt lat="48.42929" lon="7.31026">
        <ele>961.05798339844</ele>
        <time>2020-05-21T07:58:40Z</time>
      </trkpt>
      <trkpt lat="48.42927" lon="7.31016">
        <ele>959.05798339844</ele>
        <time>2020-05-21T07:58:45Z</time>
      </trkpt>
      <trkpt lat="48.42927" lon="7.31005">
        <ele>959.05798339844</ele>
        <time>2020-05-21T07:58:50Z</time>
      </trkpt>
      <trkpt lat="48.42929" lon="7.30996">
        <ele>960.05798339844</ele>
        <time>2020-05-21T07:58:55Z</time>
      </trkpt>
      <trkpt lat="48.42932" lon="7.30985">
        <ele>961.05798339844</ele>
        <time>2020-05-21T07:59:00Z</time>
      </trkpt>
      <trkpt lat="48.42933" lon="7.30976">
        <ele>962.05798339844</ele>
        <time>2020-05-21T07:59:05Z</time>
      </trkpt>
      <trkpt lat="48.42933" lon="7.30964">
        <ele>963.05798339844</ele>
        <time>2020-05-21T07:59:11Z</time>
      </trkpt>
      <trkpt lat="48.42932" lon="7.30953">
        <ele>960.05798339844</ele>
        <time>2020-05-21T07:59:17Z</time>
      </trkpt>
      <trkpt lat="48.42933" lon="7.30943">
        <ele>960.05798339844</ele>
        <time>2020-05-21T07:59:23Z</time>
      </trkpt>
      <trkpt lat="48.42935" lon="7.30932">
        <ele>960.05798339844</ele>
        <time>2020-05-21T07:59:28Z</time>
      </trkpt>
      <trkpt lat="48.42937" lon="7.3092">
        <ele>959.05798339844</ele>
        <time>2020-05-21T07:59:33Z</time>
      </trkpt>
      <trkpt lat="48.4294" lon="7.30909">
        <ele>961.05798339844</ele>
        <time>2020-05-21T07:59:38Z</time>
      </trkpt>
      <trkpt lat="48.42942" lon="7.30898">
        <ele>964.05798339844</ele>
        <time>2020-05-21T07:59:43Z</time>
      </trkpt>
      <trkpt lat="48.42943" lon="7.30888">
        <ele>964.05798339844</ele>
        <time>2020-05-21T07:59:48Z</time>
      </trkpt>
      <trkpt lat="48.42946" lon="7.30876">
        <ele>968.05798339844</ele>
        <time>2020-05-21T07:59:54Z</time>
      </trkpt>
      <trkpt lat="48.42945" lon="7.30864">
        <ele>966.05798339844</ele>
        <time>2020-05-21T07:59:59Z</time>
      </trkpt>
      <trkpt lat="48.42947" lon="7.30852">
        <ele>966.05798339844</ele>
        <time>2020-05-21T08:00:04Z</time>
      </trkpt>
      <trkpt lat="48.42949" lon="7.30842">
        <ele>967.05798339844</ele>
        <time>2020-05-21T08:00:09Z</time>
      </trkpt>
      <trkpt lat="48.42944" lon="7.30833">
        <ele>962.05798339844</ele>
        <time>2020-05-21T08:00:14Z</time>
      </trkpt>
      <trkpt lat="48.42945" lon="7.30819">
        <ele>961.05798339844</ele>
        <time>2020-05-21T08:00:19Z</time>
      </trkpt>
      <trkpt lat="48.42944" lon="7.30806">
        <ele>959.05798339844</ele>
        <time>2020-05-21T08:00:24Z</time>
      </trkpt>
      <trkpt lat="48.42947" lon="7.30795">
        <ele>961.05798339844</ele>
        <time>2020-05-21T08:00:29Z</time>
      </trkpt>
      <trkpt lat="48.4295" lon="7.30785">
        <ele>963.05798339844</ele>
        <time>2020-05-21T08:00:34Z</time>
      </trkpt>
      <trkpt lat="48.42947" lon="7.30774">
        <ele>958.05798339844</ele>
        <time>2020-05-21T08:00:39Z</time>
      </trkpt>
      <trkpt lat="48.42949" lon="7.30765">
        <ele>960.05798339844</ele>
        <time>2020-05-21T08:00:44Z</time>
      </trkpt>
      <trkpt lat="48.42953" lon="7.30754">
        <ele>963.05798339844</ele>
        <time>2020-05-21T08:00:50Z</time>
      </trkpt>
      <trkpt lat="48.42955" lon="7.30743">
        <ele>962.05798339844</ele>
        <time>2020-05-21T08:00:56Z</time>
      </trkpt>
      <trkpt lat="48.42957" lon="7.30732">
        <ele>964.05798339844</ele>
        <time>2020-05-21T08:01:02Z</time>
      </trkpt>
      <trkpt lat="48.42959" lon="7.30722">
        <ele>965.05798339844</ele>
        <time>2020-05-21T08:01:07Z</time>
      </trkpt>
      <trkpt lat="48.4296" lon="7.30712">
        <ele>965.05798339844</ele>
        <time>2020-05-21T08:01:13Z</time>
      </trkpt>
      <trkpt lat="48.42961" lon="7.30702">
        <ele>964.05798339844</ele>
        <time>2020-05-21T08:01:19Z</time>
      </trkpt>
      <trkpt lat="48.42958" lon="7.30692">
        <ele>962.05798339844</ele>
        <time>2020-05-21T08:01:24Z</time>
      </trkpt>
      <trkpt lat="48.4296" lon="7.3068">
        <ele>961.05798339844</ele>
        <time>2020-05-21T08:01:29Z</time>
      </trkpt>
      <trkpt lat="48.42961" lon="7.3067">
        <ele>961.05798339844</ele>
        <time>2020-05-21T08:01:34Z</time>
      </trkpt>
      <trkpt lat="48.42961" lon="7.30658">
        <ele>960.05798339844</ele>
        <time>2020-05-21T08:01:39Z</time>
      </trkpt>
      <trkpt lat="48.4296" lon="7.30646">
        <ele>956.05798339844</ele>
        <time>2020-05-21T08:01:47Z</time>
      </trkpt>
      <trkpt lat="48.4296" lon="7.30634">
        <ele>959.05798339844</ele>
        <time>2020-05-21T08:01:52Z</time>
      </trkpt>
      <trkpt lat="48.42956" lon="7.30624">
        <ele>960.05798339844</ele>
        <time>2020-05-21T08:01:57Z</time>
      </trkpt>
      <trkpt lat="48.42949" lon="7.30616">
        <ele>960.05798339844</ele>
        <time>2020-05-21T08:02:02Z</time>
      </trkpt>
      <trkpt lat="48.42942" lon="7.30612">
        <ele>959.05798339844</ele>
        <time>2020-05-21T08:02:08Z</time>
      </trkpt>
      <trkpt lat="48.42939" lon="7.30602">
        <ele>964.05798339844</ele>
        <time>2020-05-21T08:02:13Z</time>
      </trkpt>
      <trkpt lat="48.42938" lon="7.30591">
        <ele>966.05798339844</ele>
        <time>2020-05-21T08:02:20Z</time>
      </trkpt>
      <trkpt lat="48.42943" lon="7.30582">
        <ele>969.05798339844</ele>
        <time>2020-05-21T08:02:28Z</time>
      </trkpt>
      <trkpt lat="48.42949" lon="7.30576">
        <ele>973.05798339844</ele>
        <time>2020-05-21T08:02:35Z</time>
      </trkpt>
      <trkpt lat="48.42957" lon="7.30571">
        <ele>971.05798339844</ele>
        <time>2020-05-21T08:02:42Z</time>
      </trkpt>
      <trkpt lat="48.42963" lon="7.30565">
        <ele>969.05798339844</ele>
        <time>2020-05-21T08:02:48Z</time>
      </trkpt>
      <trkpt lat="48.42969" lon="7.30559">
        <ele>966.05798339844</ele>
        <time>2020-05-21T08:02:55Z</time>
      </trkpt>
      <trkpt lat="48.42976" lon="7.30555">
        <ele>965.05798339844</ele>
        <time>2020-05-21T08:03:00Z</time>
      </trkpt>
      <trkpt lat="48.42982" lon="7.30553">
        <ele>962.05798339844</ele>
        <time>2020-05-21T08:03:06Z</time>
      </trkpt>
      <trkpt lat="48.42989" lon="7.30557">
        <ele>964.05798339844</ele>
        <time>2020-05-21T08:03:12Z</time>
      </trkpt>
      <trkpt lat="48.42995" lon="7.3056">
        <ele>965.05798339844</ele>
        <time>2020-05-21T08:03:17Z</time>
      </trkpt>
      <trkpt lat="48.43004" lon="7.30564">
        <ele>967.05798339844</ele>
        <time>2020-05-21T08:03:22Z</time>
      </trkpt>
      <trkpt lat="48.43011" lon="7.30566">
        <ele>967.05798339844</ele>
        <time>2020-05-21T08:03:28Z</time>
      </trkpt>
      <trkpt lat="48.43018" lon="7.30566">
        <ele>967.05798339844</ele>
        <time>2020-05-21T08:03:34Z</time>
      </trkpt>
      <trkpt lat="48.43026" lon="7.30569">
        <ele>970.05798339844</ele>
        <time>2020-05-21T08:03:39Z</time>
      </trkpt>
      <trkpt lat="48.43035" lon="7.3057">
        <ele>971.05798339844</ele>
        <time>2020-05-21T08:03:44Z</time>
      </trkpt>
      <trkpt lat="48.43041" lon="7.3057">
        <ele>971.05798339844</ele>
        <time>2020-05-21T08:03:49Z</time>
      </trkpt>
      <trkpt lat="48.43048" lon="7.30572">
        <ele>973.05798339844</ele>
        <time>2020-05-21T08:03:55Z</time>
      </trkpt>
      <trkpt lat="48.43056" lon="7.30573">
        <ele>972.05798339844</ele>
        <time>2020-05-21T08:04:00Z</time>
      </trkpt>
      <trkpt lat="48.43064" lon="7.30569">
        <ele>968.05798339844</ele>
        <time>2020-05-21T08:04:05Z</time>
      </trkpt>
      <trkpt lat="48.4307" lon="7.30575">
        <ele>967.05798339844</ele>
        <time>2020-05-21T08:04:10Z</time>
      </trkpt>
      <trkpt lat="48.43077" lon="7.30584">
        <ele>967.05798339844</ele>
        <time>2020-05-21T08:04:15Z</time>
      </trkpt>
      <trkpt lat="48.43083" lon="7.30589">
        <ele>966.05798339844</ele>
        <time>2020-05-21T08:04:21Z</time>
      </trkpt>
      <trkpt lat="48.4309" lon="7.30597">
        <ele>968.05798339844</ele>
        <time>2020-05-21T08:04:26Z</time>
      </trkpt>
      <trkpt lat="48.43098" lon="7.30599">
        <ele>970.05798339844</ele>
        <time>2020-05-21T08:04:32Z</time>
      </trkpt>
      <trkpt lat="48.43105" lon="7.30603">
        <ele>974.05798339844</ele>
        <time>2020-05-21T08:04:37Z</time>
      </trkpt>
      <trkpt lat="48.43113" lon="7.30604">
        <ele>977.05798339844</ele>
        <time>2020-05-21T08:04:42Z</time>
      </trkpt>
      <trkpt lat="48.43121" lon="7.30604">
        <ele>973.05798339844</ele>
        <time>2020-05-21T08:04:48Z</time>
      </trkpt>
      <trkpt lat="48.43129" lon="7.30608">
        <ele>972.05798339844</ele>
        <time>2020-05-21T08:04:53Z</time>
      </trkpt>
      <trkpt lat="48.43136" lon="7.30611">
        <ele>969.05798339844</ele>
        <time>2020-05-21T08:04:59Z</time>
      </trkpt>
      <trkpt lat="48.43143" lon="7.30615">
        <ele>968.05798339844</ele>
        <time>2020-05-21T08:05:05Z</time>
      </trkpt>
      <trkpt lat="48.43149" lon="7.3062">
        <ele>969.05798339844</ele>
        <time>2020-05-21T08:05:11Z</time>
      </trkpt>
      <trkpt lat="48.43157" lon="7.30621">
        <ele>970.05798339844</ele>
        <time>2020-05-21T08:05:17Z</time>
      </trkpt>
      <trkpt lat="48.43165" lon="7.30628">
        <ele>970.05798339844</ele>
        <time>2020-05-21T08:05:22Z</time>
      </trkpt>
      <trkpt lat="48.43174" lon="7.30633">
        <ele>971.05798339844</ele>
        <time>2020-05-21T08:05:27Z</time>
      </trkpt>
      <trkpt lat="48.43181" lon="7.30633">
        <ele>970.05798339844</ele>
        <time>2020-05-21T08:05:33Z</time>
      </trkpt>
      <trkpt lat="48.43189" lon="7.30634">
        <ele>971.05798339844</ele>
        <time>2020-05-21T08:05:38Z</time>
      </trkpt>
      <trkpt lat="48.43196" lon="7.30628">
        <ele>970.05798339844</ele>
        <time>2020-05-21T08:05:43Z</time>
      </trkpt>
      <trkpt lat="48.43201" lon="7.3062">
        <ele>972.05798339844</ele>
        <time>2020-05-21T08:05:49Z</time>
      </trkpt>
      <trkpt lat="48.43213" lon="7.30623">
        <ele>971.05798339844</ele>
        <time>2020-05-21T08:05:54Z</time>
      </trkpt>
      <trkpt lat="48.43223" lon="7.30625">
        <ele>973.05798339844</ele>
        <time>2020-05-21T08:05:59Z</time>
      </trkpt>
      <trkpt lat="48.43231" lon="7.3062">
        <ele>974.05798339844</ele>
        <time>2020-05-21T08:06:04Z</time>
      </trkpt>
      <trkpt lat="48.43237" lon="7.30612">
        <ele>972.05798339844</ele>
        <time>2020-05-21T08:06:09Z</time>
      </trkpt>
      <trkpt lat="48.43242" lon="7.30602">
        <ele>967.05798339844</ele>
        <time>2020-05-21T08:06:14Z</time>
      </trkpt>
      <trkpt lat="48.43246" lon="7.30593">
        <ele>962.05798339844</ele>
        <time>2020-05-21T08:06:19Z</time>
      </trkpt>
      <trkpt lat="48.43252" lon="7.30584">
        <ele>962.05798339844</ele>
        <time>2020-05-21T08:06:24Z</time>
      </trkpt>
      <trkpt lat="48.4326" lon="7.30577">
        <ele>963.05798339844</ele>
        <time>2020-05-21T08:06:29Z</time>
      </trkpt>
      <trkpt lat="48.43265" lon="7.3057">
        <ele>963.05798339844</ele>
        <time>2020-05-21T08:06:35Z</time>
      </trkpt>
      <trkpt lat="48.4327" lon="7.30561">
        <ele>961.05798339844</ele>
        <time>2020-05-21T08:06:41Z</time>
      </trkpt>
      <trkpt lat="48.43276" lon="7.3055">
        <ele>962.05798339844</ele>
        <time>2020-05-21T08:06:46Z</time>
      </trkpt>
      <trkpt lat="48.4328" lon="7.30542">
        <ele>959.05798339844</ele>
        <time>2020-05-21T08:06:51Z</time>
      </trkpt>
      <trkpt lat="48.43285" lon="7.30534">
        <ele>958.05798339844</ele>
        <time>2020-05-21T08:06:56Z</time>
      </trkpt>
      <trkpt lat="48.43293" lon="7.30525">
        <ele>961.05798339844</ele>
        <time>2020-05-21T08:07:01Z</time>
      </trkpt>
      <trkpt lat="48.43299" lon="7.30518">
        <ele>961.05798339844</ele>
        <time>2020-05-21T08:07:06Z</time>
      </trkpt>
      <trkpt lat="48.43302" lon="7.30508">
        <ele>959.05798339844</ele>
        <time>2020-05-21T08:07:13Z</time>
      </trkpt>
      <trkpt lat="48.43307" lon="7.30503">
        <ele>960.05798339844</ele>
        <time>2020-05-21T08:07:18Z</time>
      </trkpt>
      <trkpt lat="48.43315" lon="7.30497">
        <ele>963.05798339844</ele>
        <time>2020-05-21T08:07:23Z</time>
      </trkpt>
      <trkpt lat="48.43321" lon="7.30489">
        <ele>964.05798339844</ele>
        <time>2020-05-21T08:07:28Z</time>
      </trkpt>
      <trkpt lat="48.43326" lon="7.30482">
        <ele>962.05798339844</ele>
        <time>2020-05-21T08:07:33Z</time>
      </trkpt>
      <trkpt lat="48.43331" lon="7.30475">
        <ele>959.05798339844</ele>
        <time>2020-05-21T08:07:39Z</time>
      </trkpt>
      <trkpt lat="48.43338" lon="7.30471">
        <ele>958.05798339844</ele>
        <time>2020-05-21T08:07:44Z</time>
      </trkpt>
      <trkpt lat="48.43345" lon="7.30467">
        <ele>957.05798339844</ele>
        <time>2020-05-21T08:07:50Z</time>
      </trkpt>
      <trkpt lat="48.43353" lon="7.30463">
        <ele>961.05798339844</ele>
        <time>2020-05-21T08:07:55Z</time>
      </trkpt>
      <trkpt lat="48.43358" lon="7.30455">
        <ele>959.05798339844</ele>
        <time>2020-05-21T08:08:01Z</time>
      </trkpt>
      <trkpt lat="48.43361" lon="7.30444">
        <ele>962.05798339844</ele>
        <time>2020-05-21T08:08:16Z</time>
      </trkpt>
      <trkpt lat="48.43363" lon="7.30433">
        <ele>966.05798339844</ele>
        <time>2020-05-21T08:08:22Z</time>
      </trkpt>
      <trkpt lat="48.43365" lon="7.30424">
        <ele>967.05798339844</ele>
        <time>2020-05-21T08:08:28Z</time>
      </trkpt>
      <trkpt lat="48.4337" lon="7.30416">
        <ele>967.05798339844</ele>
        <time>2020-05-21T08:08:35Z</time>
      </trkpt>
      <trkpt lat="48.43372" lon="7.30406">
        <ele>969.05798339844</ele>
        <time>2020-05-21T08:08:41Z</time>
      </trkpt>
      <trkpt lat="48.43375" lon="7.30396">
        <ele>969.05798339844</ele>
        <time>2020-05-21T08:08:49Z</time>
      </trkpt>
      <trkpt lat="48.43379" lon="7.30389">
        <ele>971.05798339844</ele>
        <time>2020-05-21T08:08:56Z</time>
      </trkpt>
      <trkpt lat="48.43383" lon="7.3038">
        <ele>970.05798339844</ele>
        <time>2020-05-21T08:09:03Z</time>
      </trkpt>
      <trkpt lat="48.43389" lon="7.30374">
        <ele>970.05798339844</ele>
        <time>2020-05-21T08:09:08Z</time>
      </trkpt>
      <trkpt lat="48.4339" lon="7.30364">
        <ele>968.05902099609</ele>
        <time>2020-05-21T08:09:14Z</time>
      </trkpt>
      <trkpt lat="48.43392" lon="7.30353">
        <ele>966.05902099609</ele>
        <time>2020-05-21T08:09:21Z</time>
      </trkpt>
      <trkpt lat="48.43394" lon="7.30342">
        <ele>970.05902099609</ele>
        <time>2020-05-21T08:09:28Z</time>
      </trkpt>
      <trkpt lat="48.43397" lon="7.30333">
        <ele>967.05902099609</ele>
        <time>2020-05-21T08:09:33Z</time>
      </trkpt>
      <trkpt lat="48.434" lon="7.30323">
        <ele>968.05902099609</ele>
        <time>2020-05-21T08:09:40Z</time>
      </trkpt>
      <trkpt lat="48.43405" lon="7.30314">
        <ele>970.05902099609</ele>
        <time>2020-05-21T08:09:46Z</time>
      </trkpt>
      <trkpt lat="48.43409" lon="7.30307">
        <ele>976.05902099609</ele>
        <time>2020-05-21T08:09:53Z</time>
      </trkpt>
      <trkpt lat="48.43413" lon="7.30298">
        <ele>980.05902099609</ele>
        <time>2020-05-21T08:10:00Z</time>
      </trkpt>
      <trkpt lat="48.43417" lon="7.30288">
        <ele>978.05902099609</ele>
        <time>2020-05-21T08:10:06Z</time>
      </trkpt>
      <trkpt lat="48.4342" lon="7.30278">
        <ele>979.05902099609</ele>
        <time>2020-05-21T08:10:11Z</time>
      </trkpt>
      <trkpt lat="48.43424" lon="7.30269">
        <ele>981.05902099609</ele>
        <time>2020-05-21T08:10:17Z</time>
      </trkpt>
      <trkpt lat="48.43423" lon="7.30258">
        <ele>980.05902099609</ele>
        <time>2020-05-21T08:10:24Z</time>
      </trkpt>
      <trkpt lat="48.43422" lon="7.30248">
        <ele>980.05902099609</ele>
        <time>2020-05-21T08:10:30Z</time>
      </trkpt>
      <trkpt lat="48.43424" lon="7.30238">
        <ele>980.05902099609</ele>
        <time>2020-05-21T08:10:35Z</time>
      </trkpt>
      <trkpt lat="48.43427" lon="7.30229">
        <ele>981.05902099609</ele>
        <time>2020-05-21T08:10:42Z</time>
      </trkpt>
      <trkpt lat="48.43429" lon="7.30219">
        <ele>982.05902099609</ele>
        <time>2020-05-21T08:10:47Z</time>
      </trkpt>
      <trkpt lat="48.43431" lon="7.30209">
        <ele>982.05902099609</ele>
        <time>2020-05-21T08:10:53Z</time>
      </trkpt>
      <trkpt lat="48.43431" lon="7.30199">
        <ele>981.05902099609</ele>
        <time>2020-05-21T08:10:59Z</time>
      </trkpt>
      <trkpt lat="48.43432" lon="7.30188">
        <ele>982.05902099609</ele>
        <time>2020-05-21T08:11:04Z</time>
      </trkpt>
      <trkpt lat="48.43437" lon="7.30179">
        <ele>985.05902099609</ele>
        <time>2020-05-21T08:11:10Z</time>
      </trkpt>
      <trkpt lat="48.4344" lon="7.30169">
        <ele>989.05902099609</ele>
        <time>2020-05-21T08:11:15Z</time>
      </trkpt>
      <trkpt lat="48.43439" lon="7.30158">
        <ele>991.05902099609</ele>
        <time>2020-05-21T08:11:22Z</time>
      </trkpt>
      <trkpt lat="48.43437" lon="7.30148">
        <ele>991.05902099609</ele>
        <time>2020-05-21T08:11:29Z</time>
      </trkpt>
      <trkpt lat="48.43437" lon="7.30138">
        <ele>989.05902099609</ele>
        <time>2020-05-21T08:11:35Z</time>
      </trkpt>
      <trkpt lat="48.43436" lon="7.30128">
        <ele>987.05902099609</ele>
        <time>2020-05-21T08:11:40Z</time>
      </trkpt>
      <trkpt lat="48.43435" lon="7.30116">
        <ele>987.05902099609</ele>
        <time>2020-05-21T08:11:46Z</time>
      </trkpt>
      <trkpt lat="48.43437" lon="7.30107">
        <ele>989.05902099609</ele>
        <time>2020-05-21T08:11:51Z</time>
      </trkpt>
      <trkpt lat="48.43437" lon="7.30096">
        <ele>989.05902099609</ele>
        <time>2020-05-21T08:11:57Z</time>
      </trkpt>
      <trkpt lat="48.43437" lon="7.30086">
        <ele>991.05902099609</ele>
        <time>2020-05-21T08:12:03Z</time>
      </trkpt>
      <trkpt lat="48.43438" lon="7.30076">
        <ele>994.05902099609</ele>
        <time>2020-05-21T08:12:10Z</time>
      </trkpt>
      <trkpt lat="48.43437" lon="7.30063">
        <ele>995.05902099609</ele>
        <time>2020-05-21T08:12:18Z</time>
      </trkpt>
      <trkpt lat="48.43432" lon="7.30055">
        <ele>994.05902099609</ele>
        <time>2020-05-21T08:12:26Z</time>
      </trkpt>
      <trkpt lat="48.4343" lon="7.30045">
        <ele>995.05902099609</ele>
        <time>2020-05-21T08:12:31Z</time>
      </trkpt>
      <trkpt lat="48.43428" lon="7.30035">
        <ele>999.05902099609</ele>
        <time>2020-05-21T08:12:36Z</time>
      </trkpt>
      <trkpt lat="48.43425" lon="7.30025">
        <ele>999.05902099609</ele>
        <time>2020-05-21T08:12:41Z</time>
      </trkpt>
      <trkpt lat="48.43426" lon="7.30014">
        <ele>1001.0590209961</ele>
        <time>2020-05-21T08:12:47Z</time>
      </trkpt>
      <trkpt lat="48.43425" lon="7.30003">
        <ele>1001.0590209961</ele>
        <time>2020-05-21T08:12:54Z</time>
      </trkpt>
      <trkpt lat="48.43427" lon="7.29992">
        <ele>1000.0590209961</ele>
        <time>2020-05-21T08:13:03Z</time>
      </trkpt>
      <trkpt lat="48.43431" lon="7.29983">
        <ele>1000.0590209961</ele>
        <time>2020-05-21T08:13:09Z</time>
      </trkpt>
      <trkpt lat="48.43435" lon="7.29975">
        <ele>1003.0590209961</ele>
        <time>2020-05-21T08:13:15Z</time>
      </trkpt>
      <trkpt lat="48.43439" lon="7.29965">
        <ele>1002.0590209961</ele>
        <time>2020-05-21T08:13:21Z</time>
      </trkpt>
      <trkpt lat="48.43441" lon="7.29956">
        <ele>1001.0590209961</ele>
        <time>2020-05-21T08:13:27Z</time>
      </trkpt>
      <trkpt lat="48.43443" lon="7.29946">
        <ele>999.05902099609</ele>
        <time>2020-05-21T08:13:33Z</time>
      </trkpt>
      <trkpt lat="48.43446" lon="7.29937">
        <ele>1000.0590209961</ele>
        <time>2020-05-21T08:13:39Z</time>
      </trkpt>
      <trkpt lat="48.43448" lon="7.29926">
        <ele>1000.0590209961</ele>
        <time>2020-05-21T08:13:46Z</time>
      </trkpt>
      <trkpt lat="48.4345" lon="7.29916">
        <ele>998.05902099609</ele>
        <time>2020-05-21T08:13:51Z</time>
      </trkpt>
      <trkpt lat="48.43456" lon="7.29914">
        <ele>995.05902099609</ele>
        <time>2020-05-21T08:14:00Z</time>
      </trkpt>
      <trkpt lat="48.43459" lon="7.29925">
        <ele>997.05902099609</ele>
        <time>2020-05-21T08:15:20Z</time>
      </trkpt>
      <trkpt lat="48.43458" lon="7.29935">
        <ele>1009.0590209961</ele>
        <time>2020-05-21T08:15:34Z</time>
      </trkpt>
      <trkpt lat="48.43454" lon="7.29926">
        <ele>1001.0590209961</ele>
        <time>2020-05-21T08:15:57Z</time>
      </trkpt>
      <trkpt lat="48.4345" lon="7.29918">
        <ele>998.05902099609</ele>
        <time>2020-05-21T08:16:03Z</time>
      </trkpt>
      <trkpt lat="48.43452" lon="7.29909">
        <ele>1000.0590209961</ele>
        <time>2020-05-21T08:21:00Z</time>
      </trkpt>
      <trkpt lat="48.43457" lon="7.29901">
        <ele>1004.0590209961</ele>
        <time>2020-05-21T08:21:10Z</time>
      </trkpt>
      <trkpt lat="48.43461" lon="7.29891">
        <ele>1003.0590209961</ele>
        <time>2020-05-21T08:21:18Z</time>
      </trkpt>
      <trkpt lat="48.43463" lon="7.29881">
        <ele>1001.0590209961</ele>
        <time>2020-05-21T08:21:24Z</time>
      </trkpt>
      <trkpt lat="48.43465" lon="7.29871">
        <ele>1000.0590209961</ele>
        <time>2020-05-21T08:21:29Z</time>
      </trkpt>
      <trkpt lat="48.43469" lon="7.29862">
        <ele>1002.0590209961</ele>
        <time>2020-05-21T08:21:34Z</time>
      </trkpt>
      <trkpt lat="48.43471" lon="7.29853">
        <ele>1004.0590209961</ele>
        <time>2020-05-21T08:21:39Z</time>
      </trkpt>
      <trkpt lat="48.43475" lon="7.29844">
        <ele>1003.0590209961</ele>
        <time>2020-05-21T08:21:44Z</time>
      </trkpt>
      <trkpt lat="48.43478" lon="7.29834">
        <ele>1002.0590209961</ele>
        <time>2020-05-21T08:21:50Z</time>
      </trkpt>
      <trkpt lat="48.43482" lon="7.29826">
        <ele>1000.0590209961</ele>
        <time>2020-05-21T08:21:56Z</time>
      </trkpt>
      <trkpt lat="48.43486" lon="7.29816">
        <ele>1001.0590209961</ele>
        <time>2020-05-21T08:22:02Z</time>
      </trkpt>
      <trkpt lat="48.43486" lon="7.29805">
        <ele>998.05902099609</ele>
        <time>2020-05-21T08:22:08Z</time>
      </trkpt>
      <trkpt lat="48.4349" lon="7.29797">
        <ele>998.05902099609</ele>
        <time>2020-05-21T08:22:13Z</time>
      </trkpt>
      <trkpt lat="48.43494" lon="7.29788">
        <ele>999.05902099609</ele>
        <time>2020-05-21T08:22:18Z</time>
      </trkpt>
      <trkpt lat="48.43498" lon="7.29778">
        <ele>998.05902099609</ele>
        <time>2020-05-21T08:22:24Z</time>
      </trkpt>
      <trkpt lat="48.43502" lon="7.29769">
        <ele>1000.0590209961</ele>
        <time>2020-05-21T08:22:31Z</time>
      </trkpt>
      <trkpt lat="48.4351" lon="7.29761">
        <ele>1001.0590209961</ele>
        <time>2020-05-21T08:22:36Z</time>
      </trkpt>
      <trkpt lat="48.43517" lon="7.29753">
        <ele>1004.0590209961</ele>
        <time>2020-05-21T08:22:41Z</time>
      </trkpt>
      <trkpt lat="48.43523" lon="7.29745">
        <ele>1005.0590209961</ele>
        <time>2020-05-21T08:22:46Z</time>
      </trkpt>
      <trkpt lat="48.43527" lon="7.29737">
        <ele>1005.0590209961</ele>
        <time>2020-05-21T08:22:51Z</time>
      </trkpt>
      <trkpt lat="48.43531" lon="7.29728">
        <ele>1002.0590209961</ele>
        <time>2020-05-21T08:22:57Z</time>
      </trkpt>
      <trkpt lat="48.43533" lon="7.29718">
        <ele>998.05902099609</ele>
        <time>2020-05-21T08:23:02Z</time>
      </trkpt>
      <trkpt lat="48.43537" lon="7.2971">
        <ele>997.05902099609</ele>
        <time>2020-05-21T08:23:08Z</time>
      </trkpt>
      <trkpt lat="48.43543" lon="7.29697">
        <ele>999.05902099609</ele>
        <time>2020-05-21T08:23:15Z</time>
      </trkpt>
      <trkpt lat="48.43549" lon="7.29691">
        <ele>995.05902099609</ele>
        <time>2020-05-21T08:23:22Z</time>
      </trkpt>
      <trkpt lat="48.43552" lon="7.29682">
        <ele>994.05902099609</ele>
        <time>2020-05-21T08:23:27Z</time>
      </trkpt>
      <trkpt lat="48.43556" lon="7.29675">
        <ele>995.05902099609</ele>
        <time>2020-05-21T08:23:32Z</time>
      </trkpt>
      <trkpt lat="48.43561" lon="7.29667">
        <ele>999.05902099609</ele>
        <time>2020-05-21T08:23:37Z</time>
      </trkpt>
      <trkpt lat="48.43565" lon="7.29658">
        <ele>1002.0590209961</ele>
        <time>2020-05-21T08:23:42Z</time>
      </trkpt>
      <trkpt lat="48.4357" lon="7.29648">
        <ele>1004.0590209961</ele>
        <time>2020-05-21T08:23:47Z</time>
      </trkpt>
      <trkpt lat="48.43573" lon="7.29638">
        <ele>1005.0590209961</ele>
        <time>2020-05-21T08:23:52Z</time>
      </trkpt>
      <trkpt lat="48.43579" lon="7.29631">
        <ele>1003.0590209961</ele>
        <time>2020-05-21T08:23:57Z</time>
      </trkpt>
      <trkpt lat="48.43582" lon="7.29622">
        <ele>1004.0590209961</ele>
        <time>2020-05-21T08:24:04Z</time>
      </trkpt>
      <trkpt lat="48.43586" lon="7.29613">
        <ele>1001.0590209961</ele>
        <time>2020-05-21T08:24:10Z</time>
      </trkpt>
      <trkpt lat="48.4359" lon="7.29604">
        <ele>1000.0590209961</ele>
        <time>2020-05-21T08:24:16Z</time>
      </trkpt>
      <trkpt lat="48.43594" lon="7.29595">
        <ele>1001.0590209961</ele>
        <time>2020-05-21T08:24:21Z</time>
      </trkpt>
      <trkpt lat="48.43599" lon="7.29587">
        <ele>1001.0590209961</ele>
        <time>2020-05-21T08:24:27Z</time>
      </trkpt>
      <trkpt lat="48.43602" lon="7.29575">
        <ele>1004.0590209961</ele>
        <time>2020-05-21T08:24:32Z</time>
      </trkpt>
      <trkpt lat="48.43608" lon="7.29569">
        <ele>1004.0590209961</ele>
        <time>2020-05-21T08:24:37Z</time>
      </trkpt>
      <trkpt lat="48.43614" lon="7.29563">
        <ele>1001.0590209961</ele>
        <time>2020-05-21T08:24:43Z</time>
      </trkpt>
      <trkpt lat="48.43618" lon="7.29556">
        <ele>1001.0590209961</ele>
        <time>2020-05-21T08:24:48Z</time>
      </trkpt>
      <trkpt lat="48.43619" lon="7.29545">
        <ele>1001.0590209961</ele>
        <time>2020-05-21T08:24:55Z</time>
      </trkpt>
      <trkpt lat="48.43613" lon="7.29537">
        <ele>1003.0590209961</ele>
        <time>2020-05-21T08:26:24Z</time>
      </trkpt>
      <trkpt lat="48.43604" lon="7.29536">
        <ele>999.05902099609</ele>
        <time>2020-05-21T08:26:29Z</time>
      </trkpt>
      <trkpt lat="48.43598" lon="7.29541">
        <ele>1004.0590209961</ele>
        <time>2020-05-21T08:26:35Z</time>
      </trkpt>
      <trkpt lat="48.43592" lon="7.29539">
        <ele>1002.0590209961</ele>
        <time>2020-05-21T08:26:43Z</time>
      </trkpt>
      <trkpt lat="48.43585" lon="7.29538">
        <ele>1000.0590209961</ele>
        <time>2020-05-21T08:26:49Z</time>
      </trkpt>
      <trkpt lat="48.43578" lon="7.2954">
        <ele>999.05902099609</ele>
        <time>2020-05-21T08:26:56Z</time>
      </trkpt>
      <trkpt lat="48.43571" lon="7.29544">
        <ele>997.05902099609</ele>
        <time>2020-05-21T08:27:01Z</time>
      </trkpt>
      <trkpt lat="48.43564" lon="7.29545">
        <ele>998.05902099609</ele>
        <time>2020-05-21T08:27:07Z</time>
      </trkpt>
      <trkpt lat="48.43557" lon="7.29546">
        <ele>999.05902099609</ele>
        <time>2020-05-21T08:27:12Z</time>
      </trkpt>
      <trkpt lat="48.4355" lon="7.29545">
        <ele>1001.0590209961</ele>
        <time>2020-05-21T08:27:17Z</time>
      </trkpt>
      <trkpt lat="48.43545" lon="7.29551">
        <ele>1003.0590209961</ele>
        <time>2020-05-21T08:27:24Z</time>
      </trkpt>
      <trkpt lat="48.43537" lon="7.29552">
        <ele>1009.0590209961</ele>
        <time>2020-05-21T08:27:29Z</time>
      </trkpt>
      <trkpt lat="48.4353" lon="7.29552">
        <ele>1007.0590209961</ele>
        <time>2020-05-21T08:27:34Z</time>
      </trkpt>
      <trkpt lat="48.43522" lon="7.29554">
        <ele>1004.0590209961</ele>
        <time>2020-05-21T08:27:41Z</time>
      </trkpt>
      <trkpt lat="48.43515" lon="7.29557">
        <ele>999.05902099609</ele>
        <time>2020-05-21T08:27:48Z</time>
      </trkpt>
      <trkpt lat="48.43509" lon="7.29561">
        <ele>1002.0590209961</ele>
        <time>2020-05-21T08:27:53Z</time>
      </trkpt>
      <trkpt lat="48.43503" lon="7.29566">
        <ele>1002.0590209961</ele>
        <time>2020-05-21T08:27:58Z</time>
      </trkpt>
      <trkpt lat="48.43496" lon="7.29574">
        <ele>1000.0590209961</ele>
        <time>2020-05-21T08:28:05Z</time>
      </trkpt>
      <trkpt lat="48.43488" lon="7.29576">
        <ele>1002.0590209961</ele>
        <time>2020-05-21T08:28:12Z</time>
      </trkpt>
      <trkpt lat="48.43482" lon="7.29579">
        <ele>1000.0590209961</ele>
        <time>2020-05-21T08:28:18Z</time>
      </trkpt>
      <trkpt lat="48.43475" lon="7.29581">
        <ele>999.05902099609</ele>
        <time>2020-05-21T08:28:24Z</time>
      </trkpt>
      <trkpt lat="48.43468" lon="7.29583">
        <ele>1001.0590209961</ele>
        <time>2020-05-21T08:28:30Z</time>
      </trkpt>
      <trkpt lat="48.43462" lon="7.29584">
        <ele>999.05902099609</ele>
        <time>2020-05-21T08:28:35Z</time>
      </trkpt>
      <trkpt lat="48.43455" lon="7.29587">
        <ele>999.05902099609</ele>
        <time>2020-05-21T08:28:40Z</time>
      </trkpt>
      <trkpt lat="48.43446" lon="7.29582">
        <ele>1000.0590209961</ele>
        <time>2020-05-21T08:28:45Z</time>
      </trkpt>
      <trkpt lat="48.43439" lon="7.29586">
        <ele>999.05902099609</ele>
        <time>2020-05-21T08:28:54Z</time>
      </trkpt>
      <trkpt lat="48.43431" lon="7.29585">
        <ele>1001.0590209961</ele>
        <time>2020-05-21T08:29:03Z</time>
      </trkpt>
      <trkpt lat="48.43421" lon="7.29585">
        <ele>1006.0590209961</ele>
        <time>2020-05-21T08:29:08Z</time>
      </trkpt>
      <trkpt lat="48.43416" lon="7.29589">
        <ele>1005.0590209961</ele>
        <time>2020-05-21T08:29:14Z</time>
      </trkpt>
      <trkpt lat="48.43409" lon="7.29592">
        <ele>1007.0590209961</ele>
        <time>2020-05-21T08:29:20Z</time>
      </trkpt>
      <trkpt lat="48.43401" lon="7.29588">
        <ele>1011.0590209961</ele>
        <time>2020-05-21T08:29:26Z</time>
      </trkpt>
      <trkpt lat="48.43395" lon="7.29593">
        <ele>1008.0590209961</ele>
        <time>2020-05-21T08:29:31Z</time>
      </trkpt>
      <trkpt lat="48.43392" lon="7.29602">
        <ele>1004.0590209961</ele>
        <time>2020-05-21T08:29:37Z</time>
      </trkpt>
      <trkpt lat="48.43388" lon="7.2961">
        <ele>1004.0590209961</ele>
        <time>2020-05-21T08:29:43Z</time>
      </trkpt>
      <trkpt lat="48.43382" lon="7.29615">
        <ele>1004.0590209961</ele>
        <time>2020-05-21T08:29:48Z</time>
      </trkpt>
      <trkpt lat="48.43377" lon="7.29621">
        <ele>1005.0590209961</ele>
        <time>2020-05-21T08:29:53Z</time>
      </trkpt>
      <trkpt lat="48.4337" lon="7.29627">
        <ele>1005.0590209961</ele>
        <time>2020-05-21T08:29:58Z</time>
      </trkpt>
      <trkpt lat="48.43364" lon="7.29633">
        <ele>1009.0590209961</ele>
        <time>2020-05-21T08:30:04Z</time>
      </trkpt>
      <trkpt lat="48.43361" lon="7.29642">
        <ele>1004.0590209961</ele>
        <time>2020-05-21T08:30:12Z</time>
      </trkpt>
      <trkpt lat="48.43356" lon="7.2965">
        <ele>1003.0590209961</ele>
        <time>2020-05-21T08:30:19Z</time>
      </trkpt>
      <trkpt lat="48.43349" lon="7.29656">
        <ele>1008.0590209961</ele>
        <time>2020-05-21T08:30:26Z</time>
      </trkpt>
      <trkpt lat="48.43344" lon="7.29663">
        <ele>1005.0590209961</ele>
        <time>2020-05-21T08:30:32Z</time>
      </trkpt>
      <trkpt lat="48.43338" lon="7.29667">
        <ele>1003.0590209961</ele>
        <time>2020-05-21T08:30:37Z</time>
      </trkpt>
      <trkpt lat="48.4333" lon="7.29669">
        <ele>1002.0590209961</ele>
        <time>2020-05-21T08:30:42Z</time>
      </trkpt>
      <trkpt lat="48.43325" lon="7.29677">
        <ele>1002.0590209961</ele>
        <time>2020-05-21T08:30:49Z</time>
      </trkpt>
      <trkpt lat="48.43318" lon="7.29681">
        <ele>1000.0590209961</ele>
        <time>2020-05-21T08:30:54Z</time>
      </trkpt>
      <trkpt lat="48.43313" lon="7.29688">
        <ele>1001.0590209961</ele>
        <time>2020-05-21T08:30:59Z</time>
      </trkpt>
      <trkpt lat="48.43309" lon="7.29698">
        <ele>998.05902099609</ele>
        <time>2020-05-21T08:31:04Z</time>
      </trkpt>
      <trkpt lat="48.43302" lon="7.29701">
        <ele>998.05902099609</ele>
        <time>2020-05-21T08:31:09Z</time>
      </trkpt>
      <trkpt lat="48.43297" lon="7.29708">
        <ele>998.05902099609</ele>
        <time>2020-05-21T08:31:14Z</time>
      </trkpt>
      <trkpt lat="48.43288" lon="7.29713">
        <ele>999.05902099609</ele>
        <time>2020-05-21T08:31:19Z</time>
      </trkpt>
      <trkpt lat="48.43282" lon="7.29718">
        <ele>1004.0579833984</ele>
        <time>2020-05-21T08:31:24Z</time>
      </trkpt>
      <trkpt lat="48.43275" lon="7.29724">
        <ele>1009.0579833984</ele>
        <time>2020-05-21T08:31:29Z</time>
      </trkpt>
      <trkpt lat="48.43269" lon="7.29731">
        <ele>1009.0579833984</ele>
        <time>2020-05-21T08:31:34Z</time>
      </trkpt>
      <trkpt lat="48.43261" lon="7.29736">
        <ele>1005.0579833984</ele>
        <time>2020-05-21T08:31:44Z</time>
      </trkpt>
      <trkpt lat="48.43255" lon="7.29739">
        <ele>1009.0579833984</ele>
        <time>2020-05-21T08:31:50Z</time>
      </trkpt>
      <trkpt lat="48.43247" lon="7.29748">
        <ele>1009.0579833984</ele>
        <time>2020-05-21T08:31:55Z</time>
      </trkpt>
      <trkpt lat="48.43244" lon="7.29758">
        <ele>1010.0579833984</ele>
        <time>2020-05-21T08:32:00Z</time>
      </trkpt>
      <trkpt lat="48.43237" lon="7.29763">
        <ele>1007.0579833984</ele>
        <time>2020-05-21T08:32:06Z</time>
      </trkpt>
      <trkpt lat="48.4323" lon="7.29768">
        <ele>1008.0579833984</ele>
        <time>2020-05-21T08:32:11Z</time>
      </trkpt>
      <trkpt lat="48.43227" lon="7.29778">
        <ele>1005.0579833984</ele>
        <time>2020-05-21T08:32:16Z</time>
      </trkpt>
      <trkpt lat="48.43219" lon="7.29782">
        <ele>1006.0579833984</ele>
        <time>2020-05-21T08:32:21Z</time>
      </trkpt>
      <trkpt lat="48.43216" lon="7.2979">
        <ele>1005.0579833984</ele>
        <time>2020-05-21T08:32:26Z</time>
      </trkpt>
      <trkpt lat="48.43208" lon="7.29794">
        <ele>1007.0579833984</ele>
        <time>2020-05-21T08:32:33Z</time>
      </trkpt>
      <trkpt lat="48.43205" lon="7.29803">
        <ele>1007.0579833984</ele>
        <time>2020-05-21T08:32:38Z</time>
      </trkpt>
      <trkpt lat="48.43202" lon="7.29814">
        <ele>1007.0579833984</ele>
        <time>2020-05-21T08:32:45Z</time>
      </trkpt>
      <trkpt lat="48.43196" lon="7.29818">
        <ele>1008.0579833984</ele>
        <time>2020-05-21T08:32:50Z</time>
      </trkpt>
      <trkpt lat="48.4319" lon="7.29822">
        <ele>1005.0579833984</ele>
        <time>2020-05-21T08:32:55Z</time>
      </trkpt>
      <trkpt lat="48.43184" lon="7.29828">
        <ele>1006.0579833984</ele>
        <time>2020-05-21T08:33:01Z</time>
      </trkpt>
      <trkpt lat="48.43178" lon="7.29837">
        <ele>1009.0579833984</ele>
        <time>2020-05-21T08:33:06Z</time>
      </trkpt>
      <trkpt lat="48.43174" lon="7.29845">
        <ele>1007.0579833984</ele>
        <time>2020-05-21T08:33:13Z</time>
      </trkpt>
      <trkpt lat="48.43167" lon="7.29849">
        <ele>1009.0579833984</ele>
        <time>2020-05-21T08:33:19Z</time>
      </trkpt>
      <trkpt lat="48.43161" lon="7.2985">
        <ele>1011.0579833984</ele>
        <time>2020-05-21T08:33:26Z</time>
      </trkpt>
      <trkpt lat="48.43156" lon="7.29858">
        <ele>1009.0579833984</ele>
        <time>2020-05-21T08:33:31Z</time>
      </trkpt>
      <trkpt lat="48.43151" lon="7.29867">
        <ele>1013.0579833984</ele>
        <time>2020-05-21T08:33:36Z</time>
      </trkpt>
      <trkpt lat="48.43144" lon="7.29873">
        <ele>1013.0579833984</ele>
        <time>2020-05-21T08:33:41Z</time>
      </trkpt>
      <trkpt lat="48.43139" lon="7.29878">
        <ele>1014.0579833984</ele>
        <time>2020-05-21T08:33:46Z</time>
      </trkpt>
      <trkpt lat="48.43131" lon="7.29881">
        <ele>1010.0579833984</ele>
        <time>2020-05-21T08:33:51Z</time>
      </trkpt>
      <trkpt lat="48.43124" lon="7.29885">
        <ele>1010.0579833984</ele>
        <time>2020-05-21T08:33:57Z</time>
      </trkpt>
      <trkpt lat="48.43117" lon="7.29891">
        <ele>1004.0579833984</ele>
        <time>2020-05-21T08:34:04Z</time>
      </trkpt>
      <trkpt lat="48.43113" lon="7.29898">
        <ele>1007.0579833984</ele>
        <time>2020-05-21T08:34:09Z</time>
      </trkpt>
      <trkpt lat="48.43107" lon="7.29903">
        <ele>1008.0579833984</ele>
        <time>2020-05-21T08:34:14Z</time>
      </trkpt>
      <trkpt lat="48.43101" lon="7.29909">
        <ele>1004.0579833984</ele>
        <time>2020-05-21T08:34:19Z</time>
      </trkpt>
      <trkpt lat="48.43094" lon="7.29914">
        <ele>1003.0579833984</ele>
        <time>2020-05-21T08:34:24Z</time>
      </trkpt>
      <trkpt lat="48.4309" lon="7.29923">
        <ele>1004.0579833984</ele>
        <time>2020-05-21T08:34:30Z</time>
      </trkpt>
      <trkpt lat="48.43084" lon="7.29929">
        <ele>1003.0579833984</ele>
        <time>2020-05-21T08:34:37Z</time>
      </trkpt>
      <trkpt lat="48.43077" lon="7.29932">
        <ele>1004.0579833984</ele>
        <time>2020-05-21T08:34:42Z</time>
      </trkpt>
      <trkpt lat="48.43072" lon="7.29937">
        <ele>1007.0579833984</ele>
        <time>2020-05-21T08:34:47Z</time>
      </trkpt>
      <trkpt lat="48.43064" lon="7.29941">
        <ele>1007.0579833984</ele>
        <time>2020-05-21T08:34:52Z</time>
      </trkpt>
      <trkpt lat="48.43057" lon="7.29945">
        <ele>1009.0579833984</ele>
        <time>2020-05-21T08:34:58Z</time>
      </trkpt>
      <trkpt lat="48.43052" lon="7.29951">
        <ele>1010.0579833984</ele>
        <time>2020-05-21T08:35:03Z</time>
      </trkpt>
      <trkpt lat="48.43046" lon="7.29957">
        <ele>1013.0579833984</ele>
        <time>2020-05-21T08:35:08Z</time>
      </trkpt>
      <trkpt lat="48.4304" lon="7.29962">
        <ele>1014.0579833984</ele>
        <time>2020-05-21T08:35:13Z</time>
      </trkpt>
      <trkpt lat="48.43034" lon="7.29969">
        <ele>1013.0579833984</ele>
        <time>2020-05-21T08:35:19Z</time>
      </trkpt>
      <trkpt lat="48.43028" lon="7.29973">
        <ele>1015.0579833984</ele>
        <time>2020-05-21T08:35:24Z</time>
      </trkpt>
      <trkpt lat="48.43022" lon="7.2998">
        <ele>1017.0579833984</ele>
        <time>2020-05-21T08:35:31Z</time>
      </trkpt>
      <trkpt lat="48.43017" lon="7.29986">
        <ele>1019.0579833984</ele>
        <time>2020-05-21T08:35:37Z</time>
      </trkpt>
      <trkpt lat="48.43011" lon="7.29994">
        <ele>1018.0579833984</ele>
        <time>2020-05-21T08:35:44Z</time>
      </trkpt>
      <trkpt lat="48.43005" lon="7.29998">
        <ele>1018.0579833984</ele>
        <time>2020-05-21T08:35:50Z</time>
      </trkpt>
      <trkpt lat="48.42999" lon="7.30003">
        <ele>1017.0579833984</ele>
        <time>2020-05-21T08:35:56Z</time>
      </trkpt>
      <trkpt lat="48.42992" lon="7.30009">
        <ele>1017.0579833984</ele>
        <time>2020-05-21T08:36:01Z</time>
      </trkpt>
      <trkpt lat="48.42985" lon="7.30012">
        <ele>1018.0579833984</ele>
        <time>2020-05-21T08:36:08Z</time>
      </trkpt>
      <trkpt lat="48.42978" lon="7.30011">
        <ele>1016.0579833984</ele>
        <time>2020-05-21T08:36:32Z</time>
      </trkpt>
      <trkpt lat="48.42975" lon="7.30003">
        <ele>1022.0579833984</ele>
        <time>2020-05-21T08:36:38Z</time>
      </trkpt>
      <trkpt lat="48.42972" lon="7.29993">
        <ele>1024.0579833984</ele>
        <time>2020-05-21T08:36:46Z</time>
      </trkpt>
      <trkpt lat="48.42969" lon="7.29983">
        <ele>1023.0579833984</ele>
        <time>2020-05-21T08:36:52Z</time>
      </trkpt>
      <trkpt lat="48.42964" lon="7.29975">
        <ele>1019.0579833984</ele>
        <time>2020-05-21T08:36:57Z</time>
      </trkpt>
      <trkpt lat="48.42963" lon="7.29964">
        <ele>1022.0579833984</ele>
        <time>2020-05-21T08:37:02Z</time>
      </trkpt>
      <trkpt lat="48.4296" lon="7.29955">
        <ele>1021.0579833984</ele>
        <time>2020-05-21T08:37:07Z</time>
      </trkpt>
      <trkpt lat="48.42957" lon="7.29945">
        <ele>1025.0579833984</ele>
        <time>2020-05-21T08:37:12Z</time>
      </trkpt>
      <trkpt lat="48.42957" lon="7.29934">
        <ele>1027.0579833984</ele>
        <time>2020-05-21T08:37:17Z</time>
      </trkpt>
      <trkpt lat="48.42956" lon="7.29923">
        <ele>1028.0579833984</ele>
        <time>2020-05-21T08:37:24Z</time>
      </trkpt>
      <trkpt lat="48.42955" lon="7.29911">
        <ele>1028.0579833984</ele>
        <time>2020-05-21T08:37:29Z</time>
      </trkpt>
      <trkpt lat="48.4295" lon="7.29901">
        <ele>1028.0579833984</ele>
        <time>2020-05-21T08:37:34Z</time>
      </trkpt>
      <trkpt lat="48.42948" lon="7.29889">
        <ele>1030.0579833984</ele>
        <time>2020-05-21T08:37:39Z</time>
      </trkpt>
      <trkpt lat="48.42947" lon="7.29879">
        <ele>1029.0579833984</ele>
        <time>2020-05-21T08:37:45Z</time>
      </trkpt>
      <trkpt lat="48.42943" lon="7.29866">
        <ele>1030.0579833984</ele>
        <time>2020-05-21T08:37:50Z</time>
      </trkpt>
      <trkpt lat="48.42941" lon="7.29856">
        <ele>1031.0579833984</ele>
        <time>2020-05-21T08:37:56Z</time>
      </trkpt>
      <trkpt lat="48.42939" lon="7.29844">
        <ele>1030.0579833984</ele>
        <time>2020-05-21T08:38:01Z</time>
      </trkpt>
      <trkpt lat="48.42935" lon="7.29836">
        <ele>1026.0579833984</ele>
        <time>2020-05-21T08:38:06Z</time>
      </trkpt>
      <trkpt lat="48.42932" lon="7.29826">
        <ele>1025.0579833984</ele>
        <time>2020-05-21T08:38:11Z</time>
      </trkpt>
      <trkpt lat="48.42931" lon="7.29815">
        <ele>1024.0579833984</ele>
        <time>2020-05-21T08:38:18Z</time>
      </trkpt>
      <trkpt lat="48.42928" lon="7.29807">
        <ele>1025.0579833984</ele>
        <time>2020-05-21T08:38:23Z</time>
      </trkpt>
      <trkpt lat="48.42923" lon="7.29796">
        <ele>1023.0579833984</ele>
        <time>2020-05-21T08:38:28Z</time>
      </trkpt>
      <trkpt lat="48.42922" lon="7.29785">
        <ele>1026.0579833984</ele>
        <time>2020-05-21T08:38:33Z</time>
      </trkpt>
      <trkpt lat="48.4292" lon="7.29775">
        <ele>1026.0579833984</ele>
        <time>2020-05-21T08:38:38Z</time>
      </trkpt>
      <trkpt lat="48.42916" lon="7.29765">
        <ele>1025.0579833984</ele>
        <time>2020-05-21T08:38:44Z</time>
      </trkpt>
      <trkpt lat="48.42912" lon="7.29758">
        <ele>1026.0579833984</ele>
        <time>2020-05-21T08:38:49Z</time>
      </trkpt>
      <trkpt lat="48.4291" lon="7.29747">
        <ele>1025.0579833984</ele>
        <time>2020-05-21T08:38:55Z</time>
      </trkpt>
      <trkpt lat="48.42905" lon="7.29739">
        <ele>1029.0579833984</ele>
        <time>2020-05-21T08:39:00Z</time>
      </trkpt>
      <trkpt lat="48.42902" lon="7.29729">
        <ele>1030.0579833984</ele>
        <time>2020-05-21T08:39:05Z</time>
      </trkpt>
      <trkpt lat="48.42896" lon="7.2972">
        <ele>1028.0579833984</ele>
        <time>2020-05-21T08:39:10Z</time>
      </trkpt>
      <trkpt lat="48.42893" lon="7.2971">
        <ele>1025.0579833984</ele>
        <time>2020-05-21T08:39:15Z</time>
      </trkpt>
      <trkpt lat="48.42888" lon="7.297">
        <ele>1026.0579833984</ele>
        <time>2020-05-21T08:39:20Z</time>
      </trkpt>
      <trkpt lat="48.42886" lon="7.29689">
        <ele>1025.0579833984</ele>
        <time>2020-05-21T08:39:26Z</time>
      </trkpt>
      <trkpt lat="48.42881" lon="7.2968">
        <ele>1022.0579833984</ele>
        <time>2020-05-21T08:39:33Z</time>
      </trkpt>
      <trkpt lat="48.42877" lon="7.29669">
        <ele>1025.0579833984</ele>
        <time>2020-05-21T08:39:38Z</time>
      </trkpt>
      <trkpt lat="48.42872" lon="7.2966">
        <ele>1024.0579833984</ele>
        <time>2020-05-21T08:39:43Z</time>
      </trkpt>
      <trkpt lat="48.42866" lon="7.2965">
        <ele>1023.0579833984</ele>
        <time>2020-05-21T08:39:48Z</time>
      </trkpt>
      <trkpt lat="48.42862" lon="7.29638">
        <ele>1024.0579833984</ele>
        <time>2020-05-21T08:39:55Z</time>
      </trkpt>
      <trkpt lat="48.42859" lon="7.29628">
        <ele>1023.0579833984</ele>
        <time>2020-05-21T08:40:02Z</time>
      </trkpt>
      <trkpt lat="48.42854" lon="7.29619">
        <ele>1021.0579833984</ele>
        <time>2020-05-21T08:40:07Z</time>
      </trkpt>
      <trkpt lat="48.42851" lon="7.29609">
        <ele>1024.0579833984</ele>
        <time>2020-05-21T08:40:13Z</time>
      </trkpt>
      <trkpt lat="48.42848" lon="7.296">
        <ele>1026.0579833984</ele>
        <time>2020-05-21T08:40:20Z</time>
      </trkpt>
      <trkpt lat="48.42844" lon="7.29591">
        <ele>1027.0579833984</ele>
        <time>2020-05-21T08:40:25Z</time>
      </trkpt>
      <trkpt lat="48.4284" lon="7.29582">
        <ele>1025.0579833984</ele>
        <time>2020-05-21T08:40:31Z</time>
      </trkpt>
      <trkpt lat="48.42835" lon="7.29571">
        <ele>1026.0579833984</ele>
        <time>2020-05-21T08:40:36Z</time>
      </trkpt>
      <trkpt lat="48.42829" lon="7.29555">
        <ele>1029.0579833984</ele>
        <time>2020-05-21T08:40:41Z</time>
      </trkpt>
      <trkpt lat="48.42825" lon="7.29544">
        <ele>1029.0579833984</ele>
        <time>2020-05-21T08:40:46Z</time>
      </trkpt>
      <trkpt lat="48.4282" lon="7.29535">
        <ele>1028.0579833984</ele>
        <time>2020-05-21T08:40:52Z</time>
      </trkpt>
      <trkpt lat="48.42816" lon="7.29525">
        <ele>1032.0579833984</ele>
        <time>2020-05-21T08:40:57Z</time>
      </trkpt>
      <trkpt lat="48.42812" lon="7.29515">
        <ele>1037.0579833984</ele>
        <time>2020-05-21T08:41:03Z</time>
      </trkpt>
      <trkpt lat="48.42808" lon="7.29506">
        <ele>1035.0579833984</ele>
        <time>2020-05-21T08:41:08Z</time>
      </trkpt>
      <trkpt lat="48.42802" lon="7.29499">
        <ele>1033.0579833984</ele>
        <time>2020-05-21T08:41:13Z</time>
      </trkpt>
      <trkpt lat="48.42798" lon="7.2949">
        <ele>1032.0579833984</ele>
        <time>2020-05-21T08:41:19Z</time>
      </trkpt>
      <trkpt lat="48.42792" lon="7.29483">
        <ele>1029.0579833984</ele>
        <time>2020-05-21T08:41:24Z</time>
      </trkpt>
      <trkpt lat="48.42787" lon="7.29473">
        <ele>1031.0579833984</ele>
        <time>2020-05-21T08:41:30Z</time>
      </trkpt>
      <trkpt lat="48.42778" lon="7.29471">
        <ele>1027.0579833984</ele>
        <time>2020-05-21T08:41:35Z</time>
      </trkpt>
      <trkpt lat="48.42772" lon="7.29465">
        <ele>1027.0579833984</ele>
        <time>2020-05-21T08:41:41Z</time>
      </trkpt>
      <trkpt lat="48.42766" lon="7.29458">
        <ele>1027.0579833984</ele>
        <time>2020-05-21T08:41:48Z</time>
      </trkpt>
      <trkpt lat="48.42759" lon="7.29453">
        <ele>1027.0579833984</ele>
        <time>2020-05-21T08:41:53Z</time>
      </trkpt>
      <trkpt lat="48.42751" lon="7.29443">
        <ele>1030.0579833984</ele>
        <time>2020-05-21T08:41:58Z</time>
      </trkpt>
      <trkpt lat="48.42746" lon="7.29436">
        <ele>1029.0579833984</ele>
        <time>2020-05-21T08:42:04Z</time>
      </trkpt>
      <trkpt lat="48.42739" lon="7.29432">
        <ele>1028.0579833984</ele>
        <time>2020-05-21T08:42:09Z</time>
      </trkpt>
      <trkpt lat="48.42732" lon="7.29427">
        <ele>1026.0579833984</ele>
        <time>2020-05-21T08:42:14Z</time>
      </trkpt>
      <trkpt lat="48.42723" lon="7.29421">
        <ele>1029.0579833984</ele>
        <time>2020-05-21T08:42:19Z</time>
      </trkpt>
      <trkpt lat="48.42713" lon="7.29418">
        <ele>1029.0579833984</ele>
        <time>2020-05-21T08:42:24Z</time>
      </trkpt>
      <trkpt lat="48.42706" lon="7.29422">
        <ele>1028.0579833984</ele>
        <time>2020-05-21T08:42:31Z</time>
      </trkpt>
      <trkpt lat="48.42699" lon="7.29424">
        <ele>1027.0579833984</ele>
        <time>2020-05-21T08:42:37Z</time>
      </trkpt>
      <trkpt lat="48.42693" lon="7.29426">
        <ele>1025.0579833984</ele>
        <time>2020-05-21T08:42:44Z</time>
      </trkpt>
      <trkpt lat="48.42686" lon="7.2943">
        <ele>1024.0579833984</ele>
        <time>2020-05-21T08:42:49Z</time>
      </trkpt>
      <trkpt lat="48.42679" lon="7.29433">
        <ele>1025.0579833984</ele>
        <time>2020-05-21T08:42:54Z</time>
      </trkpt>
      <trkpt lat="48.42672" lon="7.29436">
        <ele>1029.0579833984</ele>
        <time>2020-05-21T08:42:59Z</time>
      </trkpt>
      <trkpt lat="48.42666" lon="7.29445">
        <ele>1028.0579833984</ele>
        <time>2020-05-21T08:43:06Z</time>
      </trkpt>
      <trkpt lat="48.4266" lon="7.29452">
        <ele>1031.0579833984</ele>
        <time>2020-05-21T08:43:13Z</time>
      </trkpt>
      <trkpt lat="48.42652" lon="7.29457">
        <ele>1032.0579833984</ele>
        <time>2020-05-21T08:43:18Z</time>
      </trkpt>
      <trkpt lat="48.42646" lon="7.29462">
        <ele>1031.0579833984</ele>
        <time>2020-05-21T08:43:23Z</time>
      </trkpt>
      <trkpt lat="48.42642" lon="7.29471">
        <ele>1028.0579833984</ele>
        <time>2020-05-21T08:43:29Z</time>
      </trkpt>
      <trkpt lat="48.42635" lon="7.29474">
        <ele>1027.0579833984</ele>
        <time>2020-05-21T08:43:34Z</time>
      </trkpt>
      <trkpt lat="48.42627" lon="7.29478">
        <ele>1026.0579833984</ele>
        <time>2020-05-21T08:43:39Z</time>
      </trkpt>
      <trkpt lat="48.4262" lon="7.29481">
        <ele>1030.0579833984</ele>
        <time>2020-05-21T08:43:44Z</time>
      </trkpt>
      <trkpt lat="48.42614" lon="7.29483">
        <ele>1031.0579833984</ele>
        <time>2020-05-21T08:44:11Z</time>
      </trkpt>
      <trkpt lat="48.4261" lon="7.29494">
        <ele>1032.0579833984</ele>
        <time>2020-05-21T08:44:17Z</time>
      </trkpt>
      <trkpt lat="48.42601" lon="7.29494">
        <ele>1032.0579833984</ele>
        <time>2020-05-21T08:44:22Z</time>
      </trkpt>
      <trkpt lat="48.42595" lon="7.29501">
        <ele>1030.0579833984</ele>
        <time>2020-05-21T08:44:27Z</time>
      </trkpt>
      <trkpt lat="48.42589" lon="7.29508">
        <ele>1029.0579833984</ele>
        <time>2020-05-21T08:44:32Z</time>
      </trkpt>
      <trkpt lat="48.42583" lon="7.29514">
        <ele>1033.0579833984</ele>
        <time>2020-05-21T08:44:39Z</time>
      </trkpt>
      <trkpt lat="48.42576" lon="7.29521">
        <ele>1034.0579833984</ele>
        <time>2020-05-21T08:44:44Z</time>
      </trkpt>
      <trkpt lat="48.4257" lon="7.29528">
        <ele>1032.0579833984</ele>
        <time>2020-05-21T08:44:50Z</time>
      </trkpt>
      <trkpt lat="48.42565" lon="7.29535">
        <ele>1032.0579833984</ele>
        <time>2020-05-21T08:44:55Z</time>
      </trkpt>
      <trkpt lat="48.4256" lon="7.29543">
        <ele>1033.0579833984</ele>
        <time>2020-05-21T08:45:00Z</time>
      </trkpt>
      <trkpt lat="48.42554" lon="7.2955">
        <ele>1032.0579833984</ele>
        <time>2020-05-21T08:45:06Z</time>
      </trkpt>
      <trkpt lat="48.42549" lon="7.29555">
        <ele>1032.0579833984</ele>
        <time>2020-05-21T08:45:12Z</time>
      </trkpt>
      <trkpt lat="48.42541" lon="7.2956">
        <ele>1032.0579833984</ele>
        <time>2020-05-21T08:45:18Z</time>
      </trkpt>
      <trkpt lat="48.42531" lon="7.29563">
        <ele>1033.0579833984</ele>
        <time>2020-05-21T08:45:23Z</time>
      </trkpt>
      <trkpt lat="48.42524" lon="7.29569">
        <ele>1037.0579833984</ele>
        <time>2020-05-21T08:45:30Z</time>
      </trkpt>
      <trkpt lat="48.42516" lon="7.29571">
        <ele>1038.0570068359</ele>
        <time>2020-05-21T08:45:36Z</time>
      </trkpt>
      <trkpt lat="48.42509" lon="7.29574">
        <ele>1036.0570068359</ele>
        <time>2020-05-21T08:45:41Z</time>
      </trkpt>
      <trkpt lat="48.42501" lon="7.29577">
        <ele>1036.0570068359</ele>
        <time>2020-05-21T08:45:46Z</time>
      </trkpt>
      <trkpt lat="48.42496" lon="7.29583">
        <ele>1036.0570068359</ele>
        <time>2020-05-21T08:45:51Z</time>
      </trkpt>
      <trkpt lat="48.42489" lon="7.29589">
        <ele>1036.0570068359</ele>
        <time>2020-05-21T08:45:59Z</time>
      </trkpt>
      <trkpt lat="48.42483" lon="7.29594">
        <ele>1034.0570068359</ele>
        <time>2020-05-21T08:46:05Z</time>
      </trkpt>
      <trkpt lat="48.42477" lon="7.29599">
        <ele>1032.0570068359</ele>
        <time>2020-05-21T08:46:11Z</time>
      </trkpt>
      <trkpt lat="48.42467" lon="7.29605">
        <ele>1029.0570068359</ele>
        <time>2020-05-21T08:46:17Z</time>
      </trkpt>
      <trkpt lat="48.42459" lon="7.2961">
        <ele>1030.0570068359</ele>
        <time>2020-05-21T08:46:22Z</time>
      </trkpt>
      <trkpt lat="48.42454" lon="7.29617">
        <ele>1028.0570068359</ele>
        <time>2020-05-21T08:46:27Z</time>
      </trkpt>
      <trkpt lat="48.42447" lon="7.29619">
        <ele>1030.0570068359</ele>
        <time>2020-05-21T08:46:32Z</time>
      </trkpt>
      <trkpt lat="48.42438" lon="7.29617">
        <ele>1037.0570068359</ele>
        <time>2020-05-21T08:46:37Z</time>
      </trkpt>
      <trkpt lat="48.42431" lon="7.29622">
        <ele>1038.0570068359</ele>
        <time>2020-05-21T08:46:44Z</time>
      </trkpt>
      <trkpt lat="48.42423" lon="7.2962">
        <ele>1038.0570068359</ele>
        <time>2020-05-21T08:46:49Z</time>
      </trkpt>
      <trkpt lat="48.42417" lon="7.29618">
        <ele>1037.0570068359</ele>
        <time>2020-05-21T08:46:55Z</time>
      </trkpt>
      <trkpt lat="48.42408" lon="7.29618">
        <ele>1038.0570068359</ele>
        <time>2020-05-21T08:47:01Z</time>
      </trkpt>
      <trkpt lat="48.424" lon="7.29616">
        <ele>1040.0570068359</ele>
        <time>2020-05-21T08:47:06Z</time>
      </trkpt>
      <trkpt lat="48.42392" lon="7.29616">
        <ele>1040.0570068359</ele>
        <time>2020-05-21T08:47:11Z</time>
      </trkpt>
      <trkpt lat="48.42385" lon="7.29616">
        <ele>1039.0570068359</ele>
        <time>2020-05-21T08:47:17Z</time>
      </trkpt>
      <trkpt lat="48.42378" lon="7.2962">
        <ele>1040.0570068359</ele>
        <time>2020-05-21T08:47:24Z</time>
      </trkpt>
      <trkpt lat="48.42369" lon="7.29623">
        <ele>1041.0570068359</ele>
        <time>2020-05-21T08:47:29Z</time>
      </trkpt>
      <trkpt lat="48.42363" lon="7.29618">
        <ele>1042.0570068359</ele>
        <time>2020-05-21T08:47:41Z</time>
      </trkpt>
      <trkpt lat="48.42356" lon="7.29612">
        <ele>1043.0570068359</ele>
        <time>2020-05-21T08:47:47Z</time>
      </trkpt>
      <trkpt lat="48.4235" lon="7.29603">
        <ele>1045.0570068359</ele>
        <time>2020-05-21T08:47:52Z</time>
      </trkpt>
      <trkpt lat="48.42346" lon="7.29594">
        <ele>1046.0570068359</ele>
        <time>2020-05-21T08:48:01Z</time>
      </trkpt>
      <trkpt lat="48.42339" lon="7.29592">
        <ele>1039.0570068359</ele>
        <time>2020-05-21T08:48:06Z</time>
      </trkpt>
      <trkpt lat="48.42333" lon="7.29584">
        <ele>1038.0570068359</ele>
        <time>2020-05-21T08:48:11Z</time>
      </trkpt>
      <trkpt lat="48.42327" lon="7.29577">
        <ele>1037.0570068359</ele>
        <time>2020-05-21T08:48:16Z</time>
      </trkpt>
      <trkpt lat="48.42321" lon="7.2957">
        <ele>1039.0570068359</ele>
        <time>2020-05-21T08:48:25Z</time>
      </trkpt>
      <trkpt lat="48.42315" lon="7.29565">
        <ele>1038.0570068359</ele>
        <time>2020-05-21T08:48:30Z</time>
      </trkpt>
      <trkpt lat="48.42309" lon="7.29557">
        <ele>1039.0570068359</ele>
        <time>2020-05-21T08:48:35Z</time>
      </trkpt>
      <trkpt lat="48.42301" lon="7.29546">
        <ele>1041.0570068359</ele>
        <time>2020-05-21T08:48:40Z</time>
      </trkpt>
      <trkpt lat="48.42296" lon="7.29539">
        <ele>1042.0570068359</ele>
        <time>2020-05-21T08:48:45Z</time>
      </trkpt>
      <trkpt lat="48.4229" lon="7.29533">
        <ele>1043.0570068359</ele>
        <time>2020-05-21T08:48:50Z</time>
      </trkpt>
      <trkpt lat="48.42282" lon="7.29525">
        <ele>1043.0570068359</ele>
        <time>2020-05-21T08:48:55Z</time>
      </trkpt>
      <trkpt lat="48.42276" lon="7.29521">
        <ele>1043.0570068359</ele>
        <time>2020-05-21T08:49:00Z</time>
      </trkpt>
      <trkpt lat="48.4227" lon="7.29519">
        <ele>1043.0570068359</ele>
        <time>2020-05-21T08:49:06Z</time>
      </trkpt>
      <trkpt lat="48.42263" lon="7.29514">
        <ele>1044.0570068359</ele>
        <time>2020-05-21T08:49:12Z</time>
      </trkpt>
      <trkpt lat="48.42255" lon="7.29512">
        <ele>1045.0570068359</ele>
        <time>2020-05-21T08:49:18Z</time>
      </trkpt>
      <trkpt lat="48.42248" lon="7.2951">
        <ele>1042.0570068359</ele>
        <time>2020-05-21T08:49:23Z</time>
      </trkpt>
      <trkpt lat="48.4224" lon="7.29506">
        <ele>1042.0570068359</ele>
        <time>2020-05-21T08:49:28Z</time>
      </trkpt>
      <trkpt lat="48.42233" lon="7.29503">
        <ele>1042.0570068359</ele>
        <time>2020-05-21T08:49:33Z</time>
      </trkpt>
      <trkpt lat="48.42227" lon="7.29499">
        <ele>1041.0570068359</ele>
        <time>2020-05-21T08:49:38Z</time>
      </trkpt>
      <trkpt lat="48.4222" lon="7.295">
        <ele>1041.0570068359</ele>
        <time>2020-05-21T08:49:43Z</time>
      </trkpt>
      <trkpt lat="48.42212" lon="7.295">
        <ele>1041.0570068359</ele>
        <time>2020-05-21T08:49:49Z</time>
      </trkpt>
      <trkpt lat="48.42205" lon="7.29503">
        <ele>1041.0570068359</ele>
        <time>2020-05-21T08:49:55Z</time>
      </trkpt>
      <trkpt lat="48.42198" lon="7.29502">
        <ele>1040.0570068359</ele>
        <time>2020-05-21T08:50:01Z</time>
      </trkpt>
      <trkpt lat="48.42191" lon="7.29499">
        <ele>1038.0570068359</ele>
        <time>2020-05-21T08:50:06Z</time>
      </trkpt>
      <trkpt lat="48.42184" lon="7.29496">
        <ele>1040.0570068359</ele>
        <time>2020-05-21T08:50:11Z</time>
      </trkpt>
      <trkpt lat="48.42178" lon="7.29491">
        <ele>1040.0570068359</ele>
        <time>2020-05-21T08:50:16Z</time>
      </trkpt>
      <trkpt lat="48.42171" lon="7.29483">
        <ele>1041.0570068359</ele>
        <time>2020-05-21T08:50:21Z</time>
      </trkpt>
      <trkpt lat="48.42164" lon="7.29479">
        <ele>1040.0570068359</ele>
        <time>2020-05-21T08:50:27Z</time>
      </trkpt>
      <trkpt lat="48.42157" lon="7.29476">
        <ele>1040.0570068359</ele>
        <time>2020-05-21T08:50:32Z</time>
      </trkpt>
      <trkpt lat="48.4215" lon="7.2947">
        <ele>1041.0570068359</ele>
        <time>2020-05-21T08:50:40Z</time>
      </trkpt>
      <trkpt lat="48.42144" lon="7.29468">
        <ele>1039.0570068359</ele>
        <time>2020-05-21T08:50:45Z</time>
      </trkpt>
      <trkpt lat="48.42139" lon="7.2946">
        <ele>1040.0570068359</ele>
        <time>2020-05-21T08:50:52Z</time>
      </trkpt>
      <trkpt lat="48.42134" lon="7.29451">
        <ele>1042.0570068359</ele>
        <time>2020-05-21T08:50:57Z</time>
      </trkpt>
      <trkpt lat="48.42128" lon="7.29443">
        <ele>1041.0570068359</ele>
        <time>2020-05-21T08:51:04Z</time>
      </trkpt>
      <trkpt lat="48.42123" lon="7.29433">
        <ele>1041.0570068359</ele>
        <time>2020-05-21T08:51:09Z</time>
      </trkpt>
      <trkpt lat="48.42118" lon="7.29427">
        <ele>1042.0570068359</ele>
        <time>2020-05-21T08:51:14Z</time>
      </trkpt>
      <trkpt lat="48.42113" lon="7.29419">
        <ele>1041.0570068359</ele>
        <time>2020-05-21T08:51:26Z</time>
      </trkpt>
      <trkpt lat="48.42107" lon="7.29415">
        <ele>1045.0570068359</ele>
        <time>2020-05-21T08:51:39Z</time>
      </trkpt>
      <trkpt lat="48.42112" lon="7.29422">
        <ele>1039.0570068359</ele>
        <time>2020-05-21T08:52:06Z</time>
      </trkpt>
      <trkpt lat="48.42114" lon="7.29431">
        <ele>1034.0570068359</ele>
        <time>2020-05-21T08:52:28Z</time>
      </trkpt>
      <trkpt lat="48.42107" lon="7.29433">
        <ele>1036.0570068359</ele>
        <time>2020-05-21T08:52:42Z</time>
      </trkpt>
      <trkpt lat="48.421" lon="7.29436">
        <ele>1038.0570068359</ele>
        <time>2020-05-21T08:52:47Z</time>
      </trkpt>
      <trkpt lat="48.42094" lon="7.29442">
        <ele>1036.0570068359</ele>
        <time>2020-05-21T08:52:53Z</time>
      </trkpt>
      <trkpt lat="48.42089" lon="7.29449">
        <ele>1029.0570068359</ele>
        <time>2020-05-21T08:53:01Z</time>
      </trkpt>
      <trkpt lat="48.42082" lon="7.29452">
        <ele>1029.0570068359</ele>
        <time>2020-05-21T08:53:07Z</time>
      </trkpt>
      <trkpt lat="48.42074" lon="7.29453">
        <ele>1034.0570068359</ele>
        <time>2020-05-21T08:53:17Z</time>
      </trkpt>
      <trkpt lat="48.42067" lon="7.29452">
        <ele>1035.0570068359</ele>
        <time>2020-05-21T08:53:22Z</time>
      </trkpt>
      <trkpt lat="48.4206" lon="7.29451">
        <ele>1036.0570068359</ele>
        <time>2020-05-21T08:53:27Z</time>
      </trkpt>
      <trkpt lat="48.42054" lon="7.29458">
        <ele>1034.0570068359</ele>
        <time>2020-05-21T08:53:34Z</time>
      </trkpt>
      <trkpt lat="48.42049" lon="7.29464">
        <ele>1034.0570068359</ele>
        <time>2020-05-21T08:53:40Z</time>
      </trkpt>
      <trkpt lat="48.42046" lon="7.29474">
        <ele>1033.0570068359</ele>
        <time>2020-05-21T08:53:46Z</time>
      </trkpt>
      <trkpt lat="48.42043" lon="7.29483">
        <ele>1031.0570068359</ele>
        <time>2020-05-21T08:53:51Z</time>
      </trkpt>
      <trkpt lat="48.42038" lon="7.29492">
        <ele>1026.0570068359</ele>
        <time>2020-05-21T08:53:59Z</time>
      </trkpt>
      <trkpt lat="48.42032" lon="7.29498">
        <ele>1026.0570068359</ele>
        <time>2020-05-21T08:54:06Z</time>
      </trkpt>
      <trkpt lat="48.42027" lon="7.29504">
        <ele>1025.0570068359</ele>
        <time>2020-05-21T08:54:11Z</time>
      </trkpt>
      <trkpt lat="48.42021" lon="7.29508">
        <ele>1024.0570068359</ele>
        <time>2020-05-21T08:54:17Z</time>
      </trkpt>
      <trkpt lat="48.42014" lon="7.29505">
        <ele>1021.0570068359</ele>
        <time>2020-05-21T08:54:27Z</time>
      </trkpt>
      <trkpt lat="48.42007" lon="7.29499">
        <ele>1022.0570068359</ele>
        <time>2020-05-21T08:54:32Z</time>
      </trkpt>
      <trkpt lat="48.42002" lon="7.29489">
        <ele>1023.0570068359</ele>
        <time>2020-05-21T08:54:37Z</time>
      </trkpt>
      <trkpt lat="48.41996" lon="7.29486">
        <ele>1019.0570068359</ele>
        <time>2020-05-21T08:54:42Z</time>
      </trkpt>
      <trkpt lat="48.41988" lon="7.29482">
        <ele>1021.0570068359</ele>
        <time>2020-05-21T08:54:47Z</time>
      </trkpt>
      <trkpt lat="48.41981" lon="7.29475">
        <ele>1023.0570068359</ele>
        <time>2020-05-21T08:54:52Z</time>
      </trkpt>
      <trkpt lat="48.41974" lon="7.29471">
        <ele>1022.0570068359</ele>
        <time>2020-05-21T08:55:00Z</time>
      </trkpt>
      <trkpt lat="48.41967" lon="7.29474">
        <ele>1022.0570068359</ele>
        <time>2020-05-21T08:55:06Z</time>
      </trkpt>
      <trkpt lat="48.4196" lon="7.29466">
        <ele>1021.0570068359</ele>
        <time>2020-05-21T08:55:11Z</time>
      </trkpt>
      <trkpt lat="48.41954" lon="7.29459">
        <ele>1024.0570068359</ele>
        <time>2020-05-21T08:55:16Z</time>
      </trkpt>
      <trkpt lat="48.41948" lon="7.29455">
        <ele>1021.0570068359</ele>
        <time>2020-05-21T08:55:22Z</time>
      </trkpt>
      <trkpt lat="48.41942" lon="7.29447">
        <ele>1020.0570068359</ele>
        <time>2020-05-21T08:55:27Z</time>
      </trkpt>
      <trkpt lat="48.41935" lon="7.29442">
        <ele>1016.0570068359</ele>
        <time>2020-05-21T08:55:34Z</time>
      </trkpt>
      <trkpt lat="48.41928" lon="7.2944">
        <ele>1017.0570068359</ele>
        <time>2020-05-21T08:55:40Z</time>
      </trkpt>
      <trkpt lat="48.41922" lon="7.29437">
        <ele>1016.0570068359</ele>
        <time>2020-05-21T08:55:45Z</time>
      </trkpt>
      <trkpt lat="48.41916" lon="7.29442">
        <ele>1010.0570068359</ele>
        <time>2020-05-21T08:55:52Z</time>
      </trkpt>
      <trkpt lat="48.41909" lon="7.29437">
        <ele>1010.0570068359</ele>
        <time>2020-05-21T08:55:57Z</time>
      </trkpt>
      <trkpt lat="48.41903" lon="7.29434">
        <ele>1012.0570068359</ele>
        <time>2020-05-21T08:56:02Z</time>
      </trkpt>
      <trkpt lat="48.41897" lon="7.29435">
        <ele>1013.0570068359</ele>
        <time>2020-05-21T08:56:07Z</time>
      </trkpt>
      <trkpt lat="48.41891" lon="7.2943">
        <ele>1012.0570068359</ele>
        <time>2020-05-21T08:56:12Z</time>
      </trkpt>
      <trkpt lat="48.41884" lon="7.29425">
        <ele>1013.0570068359</ele>
        <time>2020-05-21T08:56:17Z</time>
      </trkpt>
      <trkpt lat="48.4188" lon="7.29416">
        <ele>1013.0570068359</ele>
        <time>2020-05-21T08:56:22Z</time>
      </trkpt>
      <trkpt lat="48.41875" lon="7.29408">
        <ele>1012.0570068359</ele>
        <time>2020-05-21T08:56:27Z</time>
      </trkpt>
      <trkpt lat="48.41868" lon="7.29403">
        <ele>1013.0570068359</ele>
        <time>2020-05-21T08:56:32Z</time>
      </trkpt>
      <trkpt lat="48.4186" lon="7.29395">
        <ele>1018.0570068359</ele>
        <time>2020-05-21T08:56:37Z</time>
      </trkpt>
      <trkpt lat="48.41853" lon="7.29388">
        <ele>1017.0570068359</ele>
        <time>2020-05-21T08:56:42Z</time>
      </trkpt>
      <trkpt lat="48.41846" lon="7.29377">
        <ele>1015.0570068359</ele>
        <time>2020-05-21T08:56:47Z</time>
      </trkpt>
      <trkpt lat="48.41838" lon="7.29374">
        <ele>1007.0570068359</ele>
        <time>2020-05-21T08:56:55Z</time>
      </trkpt>
      <trkpt lat="48.41831" lon="7.29377">
        <ele>1004.0570068359</ele>
        <time>2020-05-21T08:57:07Z</time>
      </trkpt>
      <trkpt lat="48.41824" lon="7.29379">
        <ele>1006.0570068359</ele>
        <time>2020-05-21T08:57:14Z</time>
      </trkpt>
      <trkpt lat="48.41817" lon="7.29378">
        <ele>1007.0570068359</ele>
        <time>2020-05-21T08:57:19Z</time>
      </trkpt>
      <trkpt lat="48.4181" lon="7.29376">
        <ele>1007.0570068359</ele>
        <time>2020-05-21T08:57:24Z</time>
      </trkpt>
      <trkpt lat="48.41802" lon="7.29379">
        <ele>1009.0570068359</ele>
        <time>2020-05-21T08:57:31Z</time>
      </trkpt>
      <trkpt lat="48.41795" lon="7.2938">
        <ele>1009.0570068359</ele>
        <time>2020-05-21T08:57:38Z</time>
      </trkpt>
      <trkpt lat="48.41788" lon="7.29383">
        <ele>1006.0570068359</ele>
        <time>2020-05-21T08:57:44Z</time>
      </trkpt>
      <trkpt lat="48.41779" lon="7.2938">
        <ele>1009.0570068359</ele>
        <time>2020-05-21T08:57:49Z</time>
      </trkpt>
      <trkpt lat="48.41772" lon="7.29378">
        <ele>1006.0570068359</ele>
        <time>2020-05-21T08:57:55Z</time>
      </trkpt>
      <trkpt lat="48.41764" lon="7.29374">
        <ele>1009.0570068359</ele>
        <time>2020-05-21T08:58:04Z</time>
      </trkpt>
      <trkpt lat="48.41756" lon="7.29374">
        <ele>1007.0570068359</ele>
        <time>2020-05-21T08:58:11Z</time>
      </trkpt>
      <trkpt lat="48.4175" lon="7.29377">
        <ele>1006.0560302734</ele>
        <time>2020-05-21T08:58:17Z</time>
      </trkpt>
      <trkpt lat="48.41743" lon="7.29375">
        <ele>1002.0560302734</ele>
        <time>2020-05-21T08:58:23Z</time>
      </trkpt>
      <trkpt lat="48.41737" lon="7.29372">
        <ele>1004.0560302734</ele>
        <time>2020-05-21T08:58:28Z</time>
      </trkpt>
      <trkpt lat="48.41728" lon="7.29372">
        <ele>1002.0560302734</ele>
        <time>2020-05-21T08:58:33Z</time>
      </trkpt>
      <trkpt lat="48.41722" lon="7.29368">
        <ele>1008.0560302734</ele>
        <time>2020-05-21T08:58:39Z</time>
      </trkpt>
      <trkpt lat="48.41715" lon="7.29371">
        <ele>1005.0560302734</ele>
        <time>2020-05-21T08:58:44Z</time>
      </trkpt>
      <trkpt lat="48.41708" lon="7.2937">
        <ele>999.05603027344</ele>
        <time>2020-05-21T08:58:50Z</time>
      </trkpt>
      <trkpt lat="48.41701" lon="7.29365">
        <ele>997.05603027344</ele>
        <time>2020-05-21T08:58:57Z</time>
      </trkpt>
      <trkpt lat="48.41693" lon="7.29363">
        <ele>994.05603027344</ele>
        <time>2020-05-21T08:59:02Z</time>
      </trkpt>
      <trkpt lat="48.41685" lon="7.2936">
        <ele>992.05603027344</ele>
        <time>2020-05-21T08:59:07Z</time>
      </trkpt>
      <trkpt lat="48.41678" lon="7.29357">
        <ele>989.05603027344</ele>
        <time>2020-05-21T08:59:14Z</time>
      </trkpt>
      <trkpt lat="48.41671" lon="7.29355">
        <ele>990.05603027344</ele>
        <time>2020-05-21T08:59:19Z</time>
      </trkpt>
      <trkpt lat="48.41664" lon="7.29352">
        <ele>990.05603027344</ele>
        <time>2020-05-21T08:59:25Z</time>
      </trkpt>
      <trkpt lat="48.41657" lon="7.2935">
        <ele>990.05603027344</ele>
        <time>2020-05-21T08:59:30Z</time>
      </trkpt>
      <trkpt lat="48.41651" lon="7.29347">
        <ele>989.05603027344</ele>
        <time>2020-05-21T08:59:35Z</time>
      </trkpt>
      <trkpt lat="48.41645" lon="7.29348">
        <ele>988.05603027344</ele>
        <time>2020-05-21T08:59:40Z</time>
      </trkpt>
      <trkpt lat="48.41637" lon="7.29343">
        <ele>989.05603027344</ele>
        <time>2020-05-21T08:59:45Z</time>
      </trkpt>
      <trkpt lat="48.4163" lon="7.29341">
        <ele>991.05603027344</ele>
        <time>2020-05-21T08:59:50Z</time>
      </trkpt>
      <trkpt lat="48.41624" lon="7.2934">
        <ele>993.05603027344</ele>
        <time>2020-05-21T08:59:55Z</time>
      </trkpt>
      <trkpt lat="48.41616" lon="7.29339">
        <ele>992.05603027344</ele>
        <time>2020-05-21T09:00:02Z</time>
      </trkpt>
      <trkpt lat="48.4161" lon="7.29337">
        <ele>990.05603027344</ele>
        <time>2020-05-21T09:00:07Z</time>
      </trkpt>
      <trkpt lat="48.41601" lon="7.29335">
        <ele>993.05603027344</ele>
        <time>2020-05-21T09:00:12Z</time>
      </trkpt>
      <trkpt lat="48.41593" lon="7.29336">
        <ele>992.05603027344</ele>
        <time>2020-05-21T09:00:18Z</time>
      </trkpt>
      <trkpt lat="48.41587" lon="7.2934">
        <ele>991.05603027344</ele>
        <time>2020-05-21T09:00:43Z</time>
      </trkpt>
      <trkpt lat="48.41579" lon="7.2934">
        <ele>991.05603027344</ele>
        <time>2020-05-21T09:00:55Z</time>
      </trkpt>
      <trkpt lat="48.41571" lon="7.2934">
        <ele>990.05603027344</ele>
        <time>2020-05-21T09:01:00Z</time>
      </trkpt>
      <trkpt lat="48.41566" lon="7.29334">
        <ele>985.05603027344</ele>
        <time>2020-05-21T09:01:07Z</time>
      </trkpt>
      <trkpt lat="48.41559" lon="7.29335">
        <ele>988.05603027344</ele>
        <time>2020-05-21T09:01:12Z</time>
      </trkpt>
      <trkpt lat="48.41551" lon="7.29337">
        <ele>988.05603027344</ele>
        <time>2020-05-21T09:01:18Z</time>
      </trkpt>
      <trkpt lat="48.41544" lon="7.29339">
        <ele>986.05603027344</ele>
        <time>2020-05-21T09:01:24Z</time>
      </trkpt>
      <trkpt lat="48.41537" lon="7.29341">
        <ele>985.05603027344</ele>
        <time>2020-05-21T09:01:30Z</time>
      </trkpt>
      <trkpt lat="48.4153" lon="7.2934">
        <ele>986.05603027344</ele>
        <time>2020-05-21T09:01:36Z</time>
      </trkpt>
      <trkpt lat="48.41523" lon="7.29342">
        <ele>983.05603027344</ele>
        <time>2020-05-21T09:01:42Z</time>
      </trkpt>
      <trkpt lat="48.41516" lon="7.29346">
        <ele>981.05603027344</ele>
        <time>2020-05-21T09:01:49Z</time>
      </trkpt>
      <trkpt lat="48.41509" lon="7.29348">
        <ele>982.05603027344</ele>
        <time>2020-05-21T09:01:54Z</time>
      </trkpt>
      <trkpt lat="48.41502" lon="7.2935">
        <ele>980.05603027344</ele>
        <time>2020-05-21T09:01:59Z</time>
      </trkpt>
      <trkpt lat="48.41495" lon="7.29352">
        <ele>977.05603027344</ele>
        <time>2020-05-21T09:02:06Z</time>
      </trkpt>
      <trkpt lat="48.41488" lon="7.29351">
        <ele>976.05603027344</ele>
        <time>2020-05-21T09:02:15Z</time>
      </trkpt>
      <trkpt lat="48.41481" lon="7.29355">
        <ele>976.05603027344</ele>
        <time>2020-05-21T09:02:22Z</time>
      </trkpt>
      <trkpt lat="48.41473" lon="7.29357">
        <ele>975.05603027344</ele>
        <time>2020-05-21T09:02:28Z</time>
      </trkpt>
      <trkpt lat="48.41466" lon="7.29358">
        <ele>974.05603027344</ele>
        <time>2020-05-21T09:02:35Z</time>
      </trkpt>
      <trkpt lat="48.41459" lon="7.29361">
        <ele>971.05603027344</ele>
        <time>2020-05-21T09:02:42Z</time>
      </trkpt>
      <trkpt lat="48.41452" lon="7.29362">
        <ele>969.05603027344</ele>
        <time>2020-05-21T09:02:49Z</time>
      </trkpt>
      <trkpt lat="48.41445" lon="7.29361">
        <ele>968.05603027344</ele>
        <time>2020-05-21T09:02:56Z</time>
      </trkpt>
      <trkpt lat="48.41438" lon="7.29363">
        <ele>967.05603027344</ele>
        <time>2020-05-21T09:03:03Z</time>
      </trkpt>
      <trkpt lat="48.41431" lon="7.29357">
        <ele>970.05603027344</ele>
        <time>2020-05-21T09:03:08Z</time>
      </trkpt>
      <trkpt lat="48.41425" lon="7.29352">
        <ele>969.05603027344</ele>
        <time>2020-05-21T09:03:14Z</time>
      </trkpt>
      <trkpt lat="48.41418" lon="7.29351">
        <ele>972.05603027344</ele>
        <time>2020-05-21T09:03:19Z</time>
      </trkpt>
      <trkpt lat="48.41412" lon="7.29348">
        <ele>969.05603027344</ele>
        <time>2020-05-21T09:03:25Z</time>
      </trkpt>
      <trkpt lat="48.41405" lon="7.29342">
        <ele>963.05603027344</ele>
        <time>2020-05-21T09:03:32Z</time>
      </trkpt>
      <trkpt lat="48.41401" lon="7.29331">
        <ele>957.05603027344</ele>
        <time>2020-05-21T09:03:37Z</time>
      </trkpt>
      <trkpt lat="48.41396" lon="7.29326">
        <ele>954.05603027344</ele>
        <time>2020-05-21T09:03:46Z</time>
      </trkpt>
      <trkpt lat="48.41387" lon="7.29325">
        <ele>955.05603027344</ele>
        <time>2020-05-21T09:03:51Z</time>
      </trkpt>
      <trkpt lat="48.4138" lon="7.29324">
        <ele>952.05603027344</ele>
        <time>2020-05-21T09:03:57Z</time>
      </trkpt>
      <trkpt lat="48.41374" lon="7.29318">
        <ele>947.05603027344</ele>
        <time>2020-05-21T09:04:02Z</time>
      </trkpt>
      <trkpt lat="48.4137" lon="7.29309">
        <ele>941.05603027344</ele>
        <time>2020-05-21T09:04:10Z</time>
      </trkpt>
      <trkpt lat="48.41362" lon="7.29304">
        <ele>941.05603027344</ele>
        <time>2020-05-21T09:04:15Z</time>
      </trkpt>
      <trkpt lat="48.41354" lon="7.29302">
        <ele>941.05603027344</ele>
        <time>2020-05-21T09:04:20Z</time>
      </trkpt>
      <trkpt lat="48.41345" lon="7.29297">
        <ele>940.05603027344</ele>
        <time>2020-05-21T09:04:25Z</time>
      </trkpt>
      <trkpt lat="48.41339" lon="7.29292">
        <ele>937.05603027344</ele>
        <time>2020-05-21T09:04:30Z</time>
      </trkpt>
      <trkpt lat="48.41331" lon="7.29289">
        <ele>937.05603027344</ele>
        <time>2020-05-21T09:04:35Z</time>
      </trkpt>
      <trkpt lat="48.41324" lon="7.29285">
        <ele>938.05603027344</ele>
        <time>2020-05-21T09:04:40Z</time>
      </trkpt>
      <trkpt lat="48.4132" lon="7.29278">
        <ele>937.05603027344</ele>
        <time>2020-05-21T09:04:49Z</time>
      </trkpt>
      <trkpt lat="48.41313" lon="7.29272">
        <ele>937.05603027344</ele>
        <time>2020-05-21T09:05:09Z</time>
      </trkpt>
      <trkpt lat="48.41308" lon="7.29266">
        <ele>937.05603027344</ele>
        <time>2020-05-21T09:05:14Z</time>
      </trkpt>
      <trkpt lat="48.41301" lon="7.29265">
        <ele>935.05603027344</ele>
        <time>2020-05-21T09:05:19Z</time>
      </trkpt>
      <trkpt lat="48.41296" lon="7.29256">
        <ele>934.05603027344</ele>
        <time>2020-05-21T09:05:24Z</time>
      </trkpt>
      <trkpt lat="48.41289" lon="7.29247">
        <ele>937.05603027344</ele>
        <time>2020-05-21T09:05:29Z</time>
      </trkpt>
      <trkpt lat="48.41284" lon="7.29234">
        <ele>943.05603027344</ele>
        <time>2020-05-21T09:05:34Z</time>
      </trkpt>
      <trkpt lat="48.41278" lon="7.29229">
        <ele>945.05603027344</ele>
        <time>2020-05-21T09:05:43Z</time>
      </trkpt>
      <trkpt lat="48.41272" lon="7.29223">
        <ele>945.05603027344</ele>
        <time>2020-05-21T09:05:51Z</time>
      </trkpt>
      <trkpt lat="48.41265" lon="7.29221">
        <ele>944.05603027344</ele>
        <time>2020-05-21T09:05:56Z</time>
      </trkpt>
      <trkpt lat="48.41259" lon="7.29218">
        <ele>945.05603027344</ele>
        <time>2020-05-21T09:06:02Z</time>
      </trkpt>
      <trkpt lat="48.41252" lon="7.29212">
        <ele>945.05603027344</ele>
        <time>2020-05-21T09:06:09Z</time>
      </trkpt>
      <trkpt lat="48.41245" lon="7.29208">
        <ele>946.05603027344</ele>
        <time>2020-05-21T09:06:15Z</time>
      </trkpt>
      <trkpt lat="48.41238" lon="7.29207">
        <ele>953.05603027344</ele>
        <time>2020-05-21T09:06:21Z</time>
      </trkpt>
      <trkpt lat="48.4123" lon="7.29208">
        <ele>952.05603027344</ele>
        <time>2020-05-21T09:06:29Z</time>
      </trkpt>
      <trkpt lat="48.41223" lon="7.29211">
        <ele>951.05603027344</ele>
        <time>2020-05-21T09:06:35Z</time>
      </trkpt>
      <trkpt lat="48.41216" lon="7.2921">
        <ele>953.05603027344</ele>
        <time>2020-05-21T09:06:41Z</time>
      </trkpt>
      <trkpt lat="48.41208" lon="7.2921">
        <ele>953.05603027344</ele>
        <time>2020-05-21T09:06:47Z</time>
      </trkpt>
      <trkpt lat="48.412" lon="7.2921">
        <ele>952.05603027344</ele>
        <time>2020-05-21T09:06:54Z</time>
      </trkpt>
      <trkpt lat="48.41194" lon="7.29209">
        <ele>951.05603027344</ele>
        <time>2020-05-21T09:07:01Z</time>
      </trkpt>
      <trkpt lat="48.41187" lon="7.29213">
        <ele>951.05603027344</ele>
        <time>2020-05-21T09:07:06Z</time>
      </trkpt>
      <trkpt lat="48.4118" lon="7.2921">
        <ele>951.05603027344</ele>
        <time>2020-05-21T09:07:14Z</time>
      </trkpt>
      <trkpt lat="48.41174" lon="7.29208">
        <ele>952.05603027344</ele>
        <time>2020-05-21T09:07:20Z</time>
      </trkpt>
      <trkpt lat="48.41166" lon="7.29204">
        <ele>954.05603027344</ele>
        <time>2020-05-21T09:07:25Z</time>
      </trkpt>
      <trkpt lat="48.41156" lon="7.29205">
        <ele>956.05603027344</ele>
        <time>2020-05-21T09:07:30Z</time>
      </trkpt>
      <trkpt lat="48.41151" lon="7.29197">
        <ele>956.05603027344</ele>
        <time>2020-05-21T09:07:39Z</time>
      </trkpt>
      <trkpt lat="48.41144" lon="7.29194">
        <ele>956.05603027344</ele>
        <time>2020-05-21T09:07:44Z</time>
      </trkpt>
      <trkpt lat="48.4114" lon="7.29186">
        <ele>956.05603027344</ele>
        <time>2020-05-21T09:07:52Z</time>
      </trkpt>
      <trkpt lat="48.41131" lon="7.29182">
        <ele>957.05603027344</ele>
        <time>2020-05-21T09:07:57Z</time>
      </trkpt>
      <trkpt lat="48.41124" lon="7.29176">
        <ele>959.05603027344</ele>
        <time>2020-05-21T09:08:02Z</time>
      </trkpt>
      <trkpt lat="48.41118" lon="7.2917">
        <ele>960.05603027344</ele>
        <time>2020-05-21T09:08:08Z</time>
      </trkpt>
      <trkpt lat="48.41114" lon="7.29162">
        <ele>958.05603027344</ele>
        <time>2020-05-21T09:08:14Z</time>
      </trkpt>
      <trkpt lat="48.41108" lon="7.29159">
        <ele>959.05603027344</ele>
        <time>2020-05-21T09:08:20Z</time>
      </trkpt>
      <trkpt lat="48.41102" lon="7.29154">
        <ele>961.05603027344</ele>
        <time>2020-05-21T09:08:26Z</time>
      </trkpt>
      <trkpt lat="48.41098" lon="7.29145">
        <ele>958.05603027344</ele>
        <time>2020-05-21T09:08:31Z</time>
      </trkpt>
      <trkpt lat="48.41091" lon="7.29142">
        <ele>959.05603027344</ele>
        <time>2020-05-21T09:08:36Z</time>
      </trkpt>
      <trkpt lat="48.41088" lon="7.29132">
        <ele>956.05603027344</ele>
        <time>2020-05-21T09:08:43Z</time>
      </trkpt>
      <trkpt lat="48.41081" lon="7.29131">
        <ele>957.05603027344</ele>
        <time>2020-05-21T09:09:54Z</time>
      </trkpt>
      <trkpt lat="48.41077" lon="7.29123">
        <ele>954.05603027344</ele>
        <time>2020-05-21T09:10:20Z</time>
      </trkpt>
      <trkpt lat="48.41072" lon="7.29116">
        <ele>952.05603027344</ele>
        <time>2020-05-21T09:10:28Z</time>
      </trkpt>
      <trkpt lat="48.41067" lon="7.2911">
        <ele>954.05603027344</ele>
        <time>2020-05-21T09:10:35Z</time>
      </trkpt>
      <trkpt lat="48.41062" lon="7.29101">
        <ele>956.05603027344</ele>
        <time>2020-05-21T09:10:42Z</time>
      </trkpt>
      <trkpt lat="48.41058" lon="7.29093">
        <ele>956.05603027344</ele>
        <time>2020-05-21T09:10:47Z</time>
      </trkpt>
      <trkpt lat="48.41056" lon="7.29083">
        <ele>952.05603027344</ele>
        <time>2020-05-21T09:10:54Z</time>
      </trkpt>
      <trkpt lat="48.41054" lon="7.29072">
        <ele>955.05603027344</ele>
        <time>2020-05-21T09:11:00Z</time>
      </trkpt>
      <trkpt lat="48.41049" lon="7.29064">
        <ele>956.05603027344</ele>
        <time>2020-05-21T09:11:05Z</time>
      </trkpt>
      <trkpt lat="48.41046" lon="7.29053">
        <ele>953.05603027344</ele>
        <time>2020-05-21T09:11:13Z</time>
      </trkpt>
      <trkpt lat="48.41042" lon="7.29046">
        <ele>952.05603027344</ele>
        <time>2020-05-21T09:11:20Z</time>
      </trkpt>
      <trkpt lat="48.41037" lon="7.29038">
        <ele>956.05603027344</ele>
        <time>2020-05-21T09:11:27Z</time>
      </trkpt>
      <trkpt lat="48.4103" lon="7.29033">
        <ele>958.05603027344</ele>
        <time>2020-05-21T09:11:35Z</time>
      </trkpt>
      <trkpt lat="48.41025" lon="7.29025">
        <ele>957.05603027344</ele>
        <time>2020-05-21T09:11:41Z</time>
      </trkpt>
      <trkpt lat="48.41018" lon="7.29019">
        <ele>956.05603027344</ele>
        <time>2020-05-21T09:11:46Z</time>
      </trkpt>
      <trkpt lat="48.4101" lon="7.29015">
        <ele>956.05603027344</ele>
        <time>2020-05-21T09:11:51Z</time>
      </trkpt>
      <trkpt lat="48.41003" lon="7.29007">
        <ele>959.05603027344</ele>
        <time>2020-05-21T09:11:56Z</time>
      </trkpt>
      <trkpt lat="48.40994" lon="7.28999">
        <ele>964.05603027344</ele>
        <time>2020-05-21T09:12:01Z</time>
      </trkpt>
      <trkpt lat="48.40988" lon="7.28994">
        <ele>967.05603027344</ele>
        <time>2020-05-21T09:12:06Z</time>
      </trkpt>
      <trkpt lat="48.40982" lon="7.2899">
        <ele>970.05603027344</ele>
        <time>2020-05-21T09:12:12Z</time>
      </trkpt>
      <trkpt lat="48.40975" lon="7.28989">
        <ele>970.05603027344</ele>
        <time>2020-05-21T09:12:18Z</time>
      </trkpt>
      <trkpt lat="48.40968" lon="7.2899">
        <ele>968.05603027344</ele>
        <time>2020-05-21T09:12:25Z</time>
      </trkpt>
      <trkpt lat="48.40961" lon="7.28989">
        <ele>972.05603027344</ele>
        <time>2020-05-21T09:12:30Z</time>
      </trkpt>
      <trkpt lat="48.40954" lon="7.28989">
        <ele>975.05499267578</ele>
        <time>2020-05-21T09:12:36Z</time>
      </trkpt>
      <trkpt lat="48.40947" lon="7.28987">
        <ele>977.05499267578</ele>
        <time>2020-05-21T09:12:41Z</time>
      </trkpt>
      <trkpt lat="48.4094" lon="7.28988">
        <ele>978.05499267578</ele>
        <time>2020-05-21T09:12:46Z</time>
      </trkpt>
      <trkpt lat="48.40934" lon="7.28984">
        <ele>977.05499267578</ele>
        <time>2020-05-21T09:12:51Z</time>
      </trkpt>
      <trkpt lat="48.40927" lon="7.28984">
        <ele>975.05499267578</ele>
        <time>2020-05-21T09:12:56Z</time>
      </trkpt>
      <trkpt lat="48.40921" lon="7.28981">
        <ele>976.05499267578</ele>
        <time>2020-05-21T09:13:01Z</time>
      </trkpt>
      <trkpt lat="48.40914" lon="7.28979">
        <ele>976.05499267578</ele>
        <time>2020-05-21T09:13:07Z</time>
      </trkpt>
      <trkpt lat="48.40907" lon="7.28975">
        <ele>975.05499267578</ele>
        <time>2020-05-21T09:13:15Z</time>
      </trkpt>
      <trkpt lat="48.40902" lon="7.28967">
        <ele>975.05499267578</ele>
        <time>2020-05-21T09:13:23Z</time>
      </trkpt>
      <trkpt lat="48.40896" lon="7.28965">
        <ele>977.05499267578</ele>
        <time>2020-05-21T09:13:29Z</time>
      </trkpt>
      <trkpt lat="48.40891" lon="7.28957">
        <ele>976.05499267578</ele>
        <time>2020-05-21T09:13:36Z</time>
      </trkpt>
      <trkpt lat="48.40887" lon="7.28948">
        <ele>972.05499267578</ele>
        <time>2020-05-21T09:13:43Z</time>
      </trkpt>
      <trkpt lat="48.40881" lon="7.28942">
        <ele>975.05499267578</ele>
        <time>2020-05-21T09:13:50Z</time>
      </trkpt>
      <trkpt lat="48.40876" lon="7.28936">
        <ele>978.05499267578</ele>
        <time>2020-05-21T09:13:55Z</time>
      </trkpt>
      <trkpt lat="48.40871" lon="7.28928">
        <ele>977.05499267578</ele>
        <time>2020-05-21T09:14:01Z</time>
      </trkpt>
      <trkpt lat="48.40864" lon="7.28923">
        <ele>978.05499267578</ele>
        <time>2020-05-21T09:14:07Z</time>
      </trkpt>
      <trkpt lat="48.40858" lon="7.28918">
        <ele>978.05499267578</ele>
        <time>2020-05-21T09:14:14Z</time>
      </trkpt>
      <trkpt lat="48.40854" lon="7.2891">
        <ele>975.05499267578</ele>
        <time>2020-05-21T09:14:20Z</time>
      </trkpt>
      <trkpt lat="48.40849" lon="7.289">
        <ele>977.05499267578</ele>
        <time>2020-05-21T09:14:25Z</time>
      </trkpt>
      <trkpt lat="48.40844" lon="7.28893">
        <ele>977.05499267578</ele>
        <time>2020-05-21T09:14:30Z</time>
      </trkpt>
      <trkpt lat="48.4084" lon="7.28885">
        <ele>978.05499267578</ele>
        <time>2020-05-21T09:14:39Z</time>
      </trkpt>
      <trkpt lat="48.40836" lon="7.28873">
        <ele>977.05499267578</ele>
        <time>2020-05-21T09:14:44Z</time>
      </trkpt>
      <trkpt lat="48.40833" lon="7.28862">
        <ele>978.05499267578</ele>
        <time>2020-05-21T09:14:51Z</time>
      </trkpt>
      <trkpt lat="48.4083" lon="7.28851">
        <ele>976.05499267578</ele>
        <time>2020-05-21T09:14:56Z</time>
      </trkpt>
      <trkpt lat="48.40828" lon="7.28841">
        <ele>977.05499267578</ele>
        <time>2020-05-21T09:15:01Z</time>
      </trkpt>
      <trkpt lat="48.40822" lon="7.28834">
        <ele>979.05499267578</ele>
        <time>2020-05-21T09:15:06Z</time>
      </trkpt>
      <trkpt lat="48.40818" lon="7.28826">
        <ele>984.05499267578</ele>
        <time>2020-05-21T09:15:12Z</time>
      </trkpt>
      <trkpt lat="48.40815" lon="7.28816">
        <ele>980.05499267578</ele>
        <time>2020-05-21T09:15:19Z</time>
      </trkpt>
      <trkpt lat="48.40812" lon="7.28805">
        <ele>982.05499267578</ele>
        <time>2020-05-21T09:15:25Z</time>
      </trkpt>
      <trkpt lat="48.40808" lon="7.28797">
        <ele>981.05499267578</ele>
        <time>2020-05-21T09:15:31Z</time>
      </trkpt>
      <trkpt lat="48.40804" lon="7.28787">
        <ele>979.05499267578</ele>
        <time>2020-05-21T09:15:36Z</time>
      </trkpt>
      <trkpt lat="48.40801" lon="7.28778">
        <ele>981.05499267578</ele>
        <time>2020-05-21T09:15:42Z</time>
      </trkpt>
      <trkpt lat="48.40797" lon="7.28769">
        <ele>983.05499267578</ele>
        <time>2020-05-21T09:15:48Z</time>
      </trkpt>
      <trkpt lat="48.40795" lon="7.2876">
        <ele>985.05499267578</ele>
        <time>2020-05-21T09:15:54Z</time>
      </trkpt>
      <trkpt lat="48.40791" lon="7.28753">
        <ele>987.05499267578</ele>
        <time>2020-05-21T09:15:59Z</time>
      </trkpt>
      <trkpt lat="48.40787" lon="7.28744">
        <ele>986.05499267578</ele>
        <time>2020-05-21T09:16:04Z</time>
      </trkpt>
      <trkpt lat="48.40784" lon="7.28735">
        <ele>988.05499267578</ele>
        <time>2020-05-21T09:16:09Z</time>
      </trkpt>
      <trkpt lat="48.40781" lon="7.28725">
        <ele>985.05499267578</ele>
        <time>2020-05-21T09:16:15Z</time>
      </trkpt>
      <trkpt lat="48.40778" lon="7.28716">
        <ele>981.05499267578</ele>
        <time>2020-05-21T09:16:21Z</time>
      </trkpt>
      <trkpt lat="48.40776" lon="7.28706">
        <ele>982.05499267578</ele>
        <time>2020-05-21T09:16:28Z</time>
      </trkpt>
      <trkpt lat="48.40772" lon="7.28696">
        <ele>985.05499267578</ele>
        <time>2020-05-21T09:16:34Z</time>
      </trkpt>
      <trkpt lat="48.40768" lon="7.28688">
        <ele>987.05499267578</ele>
        <time>2020-05-21T09:16:39Z</time>
      </trkpt>
      <trkpt lat="48.40765" lon="7.28673">
        <ele>985.05499267578</ele>
        <time>2020-05-21T09:16:44Z</time>
      </trkpt>
      <trkpt lat="48.40761" lon="7.28663">
        <ele>983.05499267578</ele>
        <time>2020-05-21T09:16:49Z</time>
      </trkpt>
      <trkpt lat="48.40761" lon="7.2865">
        <ele>986.05499267578</ele>
        <time>2020-05-21T09:16:54Z</time>
      </trkpt>
      <trkpt lat="48.40761" lon="7.28639">
        <ele>988.05499267578</ele>
        <time>2020-05-21T09:17:01Z</time>
      </trkpt>
      <trkpt lat="48.4076" lon="7.28628">
        <ele>988.05499267578</ele>
        <time>2020-05-21T09:17:06Z</time>
      </trkpt>
      <trkpt lat="48.40759" lon="7.28618">
        <ele>992.05499267578</ele>
        <time>2020-05-21T09:17:13Z</time>
      </trkpt>
      <trkpt lat="48.40761" lon="7.28609">
        <ele>992.05499267578</ele>
        <time>2020-05-21T09:17:18Z</time>
      </trkpt>
      <trkpt lat="48.40759" lon="7.28597">
        <ele>992.05499267578</ele>
        <time>2020-05-21T09:17:25Z</time>
      </trkpt>
      <trkpt lat="48.40762" lon="7.28588">
        <ele>991.05499267578</ele>
        <time>2020-05-21T09:17:30Z</time>
      </trkpt>
      <trkpt lat="48.4076" lon="7.28576">
        <ele>988.05499267578</ele>
        <time>2020-05-21T09:17:37Z</time>
      </trkpt>
      <trkpt lat="48.40762" lon="7.28566">
        <ele>989.05499267578</ele>
        <time>2020-05-21T09:17:42Z</time>
      </trkpt>
      <trkpt lat="48.40766" lon="7.28557">
        <ele>989.05499267578</ele>
        <time>2020-05-21T09:17:47Z</time>
      </trkpt>
      <trkpt lat="48.40765" lon="7.28546">
        <ele>991.05499267578</ele>
        <time>2020-05-21T09:17:53Z</time>
      </trkpt>
      <trkpt lat="48.40765" lon="7.28537">
        <ele>991.05499267578</ele>
        <time>2020-05-21T09:17:58Z</time>
      </trkpt>
      <trkpt lat="48.40766" lon="7.28527">
        <ele>987.05499267578</ele>
        <time>2020-05-21T09:18:04Z</time>
      </trkpt>
      <trkpt lat="48.40767" lon="7.28515">
        <ele>987.05499267578</ele>
        <time>2020-05-21T09:18:09Z</time>
      </trkpt>
      <trkpt lat="48.40767" lon="7.28503">
        <ele>985.05499267578</ele>
        <time>2020-05-21T09:18:16Z</time>
      </trkpt>
      <trkpt lat="48.40765" lon="7.28493">
        <ele>986.05499267578</ele>
        <time>2020-05-21T09:18:21Z</time>
      </trkpt>
      <trkpt lat="48.40766" lon="7.28481">
        <ele>987.05499267578</ele>
        <time>2020-05-21T09:18:26Z</time>
      </trkpt>
      <trkpt lat="48.40765" lon="7.28471">
        <ele>991.05499267578</ele>
        <time>2020-05-21T09:18:31Z</time>
      </trkpt>
      <trkpt lat="48.40766" lon="7.28461">
        <ele>994.05499267578</ele>
        <time>2020-05-21T09:18:37Z</time>
      </trkpt>
      <trkpt lat="48.40769" lon="7.2845">
        <ele>994.05499267578</ele>
        <time>2020-05-21T09:18:43Z</time>
      </trkpt>
      <trkpt lat="48.40769" lon="7.28439">
        <ele>996.05499267578</ele>
        <time>2020-05-21T09:18:49Z</time>
      </trkpt>
      <trkpt lat="48.40769" lon="7.28428">
        <ele>996.05499267578</ele>
        <time>2020-05-21T09:18:54Z</time>
      </trkpt>
      <trkpt lat="48.40766" lon="7.28418">
        <ele>998.05499267578</ele>
        <time>2020-05-21T09:18:59Z</time>
      </trkpt>
      <trkpt lat="48.40764" lon="7.28408">
        <ele>999.05499267578</ele>
        <time>2020-05-21T09:19:06Z</time>
      </trkpt>
      <trkpt lat="48.40761" lon="7.28398">
        <ele>1000.0549926758</ele>
        <time>2020-05-21T09:19:15Z</time>
      </trkpt>
      <trkpt lat="48.40758" lon="7.28388">
        <ele>1001.0549926758</ele>
        <time>2020-05-21T09:19:22Z</time>
      </trkpt>
      <trkpt lat="48.40758" lon="7.28375">
        <ele>1001.0549926758</ele>
        <time>2020-05-21T09:19:27Z</time>
      </trkpt>
      <trkpt lat="48.40761" lon="7.28364">
        <ele>1005.0549926758</ele>
        <time>2020-05-21T09:19:32Z</time>
      </trkpt>
      <trkpt lat="48.4076" lon="7.28346">
        <ele>1005.0549926758</ele>
        <time>2020-05-21T09:19:37Z</time>
      </trkpt>
      <trkpt lat="48.40764" lon="7.28335">
        <ele>1002.0549926758</ele>
        <time>2020-05-21T09:19:42Z</time>
      </trkpt>
      <trkpt lat="48.40763" lon="7.28325">
        <ele>1003.0549926758</ele>
        <time>2020-05-21T09:19:47Z</time>
      </trkpt>
      <trkpt lat="48.40762" lon="7.28314">
        <ele>1003.0549926758</ele>
        <time>2020-05-21T09:19:52Z</time>
      </trkpt>
      <trkpt lat="48.40763" lon="7.28305">
        <ele>1006.0549926758</ele>
        <time>2020-05-21T09:19:59Z</time>
      </trkpt>
      <trkpt lat="48.40764" lon="7.28294">
        <ele>1006.0549926758</ele>
        <time>2020-05-21T09:20:04Z</time>
      </trkpt>
      <trkpt lat="48.40764" lon="7.28284">
        <ele>1005.0549926758</ele>
        <time>2020-05-21T09:20:09Z</time>
      </trkpt>
      <trkpt lat="48.40763" lon="7.28273">
        <ele>1003.0549926758</ele>
        <time>2020-05-21T09:20:15Z</time>
      </trkpt>
      <trkpt lat="48.40759" lon="7.28265">
        <ele>1004.0549926758</ele>
        <time>2020-05-21T09:20:20Z</time>
      </trkpt>
      <trkpt lat="48.40758" lon="7.28252">
        <ele>1004.0549926758</ele>
        <time>2020-05-21T09:20:26Z</time>
      </trkpt>
      <trkpt lat="48.40758" lon="7.28241">
        <ele>1005.0549926758</ele>
        <time>2020-05-21T09:20:31Z</time>
      </trkpt>
      <trkpt lat="48.40757" lon="7.28231">
        <ele>1008.0549926758</ele>
        <time>2020-05-21T09:20:37Z</time>
      </trkpt>
      <trkpt lat="48.40757" lon="7.2822">
        <ele>1008.0549926758</ele>
        <time>2020-05-21T09:20:42Z</time>
      </trkpt>
      <trkpt lat="48.40757" lon="7.28207">
        <ele>1009.0549926758</ele>
        <time>2020-05-21T09:20:48Z</time>
      </trkpt>
      <trkpt lat="48.40755" lon="7.28197">
        <ele>1012.0549926758</ele>
        <time>2020-05-21T09:20:54Z</time>
      </trkpt>
      <trkpt lat="48.40751" lon="7.28186">
        <ele>1012.0549926758</ele>
        <time>2020-05-21T09:21:00Z</time>
      </trkpt>
      <trkpt lat="48.4075" lon="7.28176">
        <ele>1012.0549926758</ele>
        <time>2020-05-21T09:21:05Z</time>
      </trkpt>
      <trkpt lat="48.40748" lon="7.28166">
        <ele>1010.0549926758</ele>
        <time>2020-05-21T09:21:10Z</time>
      </trkpt>
      <trkpt lat="48.40746" lon="7.28155">
        <ele>1009.0549926758</ele>
        <time>2020-05-21T09:21:15Z</time>
      </trkpt>
      <trkpt lat="48.40746" lon="7.28143">
        <ele>1012.0549926758</ele>
        <time>2020-05-21T09:21:21Z</time>
      </trkpt>
      <trkpt lat="48.40744" lon="7.28133">
        <ele>1009.0549926758</ele>
        <time>2020-05-21T09:21:28Z</time>
      </trkpt>
      <trkpt lat="48.40744" lon="7.28122">
        <ele>1008.0549926758</ele>
        <time>2020-05-21T09:21:34Z</time>
      </trkpt>
      <trkpt lat="48.40742" lon="7.28112">
        <ele>1008.0549926758</ele>
        <time>2020-05-21T09:21:40Z</time>
      </trkpt>
      <trkpt lat="48.40739" lon="7.28101">
        <ele>1011.0549926758</ele>
        <time>2020-05-21T09:21:46Z</time>
      </trkpt>
      <trkpt lat="48.40737" lon="7.2809">
        <ele>1011.0549926758</ele>
        <time>2020-05-21T09:21:52Z</time>
      </trkpt>
      <trkpt lat="48.40737" lon="7.28079">
        <ele>1014.0549926758</ele>
        <time>2020-05-21T09:21:57Z</time>
      </trkpt>
      <trkpt lat="48.40735" lon="7.28069">
        <ele>1018.0549926758</ele>
        <time>2020-05-21T09:22:03Z</time>
      </trkpt>
      <trkpt lat="48.40734" lon="7.28058">
        <ele>1018.0549926758</ele>
        <time>2020-05-21T09:22:11Z</time>
      </trkpt>
      <trkpt lat="48.4073" lon="7.28049">
        <ele>1019.0549926758</ele>
        <time>2020-05-21T09:22:17Z</time>
      </trkpt>
      <trkpt lat="48.40729" lon="7.28039">
        <ele>1020.0549926758</ele>
        <time>2020-05-21T09:22:23Z</time>
      </trkpt>
      <trkpt lat="48.40728" lon="7.28028">
        <ele>1024.0550537109</ele>
        <time>2020-05-21T09:22:29Z</time>
      </trkpt>
      <trkpt lat="48.40721" lon="7.28022">
        <ele>1022.0549926758</ele>
        <time>2020-05-21T09:22:34Z</time>
      </trkpt>
      <trkpt lat="48.40719" lon="7.28012">
        <ele>1025.0550537109</ele>
        <time>2020-05-21T09:22:41Z</time>
      </trkpt>
      <trkpt lat="48.40718" lon="7.28">
        <ele>1024.0550537109</ele>
        <time>2020-05-21T09:22:47Z</time>
      </trkpt>
      <trkpt lat="48.40721" lon="7.27989">
        <ele>1023.0549926758</ele>
        <time>2020-05-21T09:22:52Z</time>
      </trkpt>
      <trkpt lat="48.40719" lon="7.27978">
        <ele>1028.0550537109</ele>
        <time>2020-05-21T09:22:58Z</time>
      </trkpt>
      <trkpt lat="48.40717" lon="7.27967">
        <ele>1026.0550537109</ele>
        <time>2020-05-21T09:23:05Z</time>
      </trkpt>
      <trkpt lat="48.40716" lon="7.27956">
        <ele>1028.0550537109</ele>
        <time>2020-05-21T09:23:11Z</time>
      </trkpt>
      <trkpt lat="48.40715" lon="7.27946">
        <ele>1029.0550537109</ele>
        <time>2020-05-21T09:23:16Z</time>
      </trkpt>
      <trkpt lat="48.40714" lon="7.27936">
        <ele>1029.0550537109</ele>
        <time>2020-05-21T09:23:22Z</time>
      </trkpt>
      <trkpt lat="48.40713" lon="7.27926">
        <ele>1028.0550537109</ele>
        <time>2020-05-21T09:23:27Z</time>
      </trkpt>
      <trkpt lat="48.40713" lon="7.27915">
        <ele>1027.0550537109</ele>
        <time>2020-05-21T09:23:33Z</time>
      </trkpt>
      <trkpt lat="48.40712" lon="7.27905">
        <ele>1026.0550537109</ele>
        <time>2020-05-21T09:23:39Z</time>
      </trkpt>
      <trkpt lat="48.4071" lon="7.27895">
        <ele>1027.0550537109</ele>
        <time>2020-05-21T09:23:45Z</time>
      </trkpt>
      <trkpt lat="48.40709" lon="7.27886">
        <ele>1024.0550537109</ele>
        <time>2020-05-21T09:23:51Z</time>
      </trkpt>
      <trkpt lat="48.40708" lon="7.27875">
        <ele>1024.0550537109</ele>
        <time>2020-05-21T09:23:56Z</time>
      </trkpt>
      <trkpt lat="48.40706" lon="7.27865">
        <ele>1025.0550537109</ele>
        <time>2020-05-21T09:24:03Z</time>
      </trkpt>
      <trkpt lat="48.40706" lon="7.27854">
        <ele>1028.0550537109</ele>
        <time>2020-05-21T09:24:08Z</time>
      </trkpt>
      <trkpt lat="48.40705" lon="7.27843">
        <ele>1031.0550537109</ele>
        <time>2020-05-21T09:24:14Z</time>
      </trkpt>
      <trkpt lat="48.40703" lon="7.27834">
        <ele>1032.0550537109</ele>
        <time>2020-05-21T09:24:20Z</time>
      </trkpt>
      <trkpt lat="48.40701" lon="7.27824">
        <ele>1032.0550537109</ele>
        <time>2020-05-21T09:24:27Z</time>
      </trkpt>
      <trkpt lat="48.40702" lon="7.27813">
        <ele>1033.0550537109</ele>
        <time>2020-05-21T09:24:32Z</time>
      </trkpt>
      <trkpt lat="48.40701" lon="7.27802">
        <ele>1036.0550537109</ele>
        <time>2020-05-21T09:24:38Z</time>
      </trkpt>
      <trkpt lat="48.407" lon="7.27791">
        <ele>1036.0550537109</ele>
        <time>2020-05-21T09:24:44Z</time>
      </trkpt>
      <trkpt lat="48.40698" lon="7.27781">
        <ele>1036.0550537109</ele>
        <time>2020-05-21T09:24:51Z</time>
      </trkpt>
      <trkpt lat="48.40697" lon="7.27771">
        <ele>1034.0550537109</ele>
        <time>2020-05-21T09:24:57Z</time>
      </trkpt>
      <trkpt lat="48.40699" lon="7.27759">
        <ele>1033.0550537109</ele>
        <time>2020-05-21T09:25:02Z</time>
      </trkpt>
      <trkpt lat="48.40697" lon="7.27748">
        <ele>1035.0550537109</ele>
        <time>2020-05-21T09:25:07Z</time>
      </trkpt>
      <trkpt lat="48.40698" lon="7.27738">
        <ele>1038.0550537109</ele>
        <time>2020-05-21T09:25:12Z</time>
      </trkpt>
      <trkpt lat="48.40698" lon="7.27728">
        <ele>1041.0550537109</ele>
        <time>2020-05-21T09:25:18Z</time>
      </trkpt>
      <trkpt lat="48.40696" lon="7.27718">
        <ele>1040.0550537109</ele>
        <time>2020-05-21T09:25:23Z</time>
      </trkpt>
      <trkpt lat="48.40696" lon="7.27706">
        <ele>1044.0550537109</ele>
        <time>2020-05-21T09:25:28Z</time>
      </trkpt>
      <trkpt lat="48.40695" lon="7.27693">
        <ele>1043.0550537109</ele>
        <time>2020-05-21T09:25:33Z</time>
      </trkpt>
      <trkpt lat="48.40694" lon="7.27683">
        <ele>1043.0550537109</ele>
        <time>2020-05-21T09:25:39Z</time>
      </trkpt>
      <trkpt lat="48.40694" lon="7.27672">
        <ele>1041.0550537109</ele>
        <time>2020-05-21T09:25:45Z</time>
      </trkpt>
      <trkpt lat="48.40696" lon="7.27661">
        <ele>1040.0550537109</ele>
        <time>2020-05-21T09:25:53Z</time>
      </trkpt>
      <trkpt lat="48.40699" lon="7.27652">
        <ele>1039.0550537109</ele>
        <time>2020-05-21T09:25:59Z</time>
      </trkpt>
      <trkpt lat="48.40702" lon="7.27642">
        <ele>1040.0550537109</ele>
        <time>2020-05-21T09:26:05Z</time>
      </trkpt>
      <trkpt lat="48.40703" lon="7.27632">
        <ele>1043.0550537109</ele>
        <time>2020-05-21T09:26:10Z</time>
      </trkpt>
      <trkpt lat="48.40704" lon="7.27621">
        <ele>1045.0550537109</ele>
        <time>2020-05-21T09:26:16Z</time>
      </trkpt>
      <trkpt lat="48.40702" lon="7.27609">
        <ele>1044.0550537109</ele>
        <time>2020-05-21T09:26:22Z</time>
      </trkpt>
      <trkpt lat="48.407" lon="7.27599">
        <ele>1045.0550537109</ele>
        <time>2020-05-21T09:26:28Z</time>
      </trkpt>
      <trkpt lat="48.40701" lon="7.27589">
        <ele>1042.0550537109</ele>
        <time>2020-05-21T09:26:35Z</time>
      </trkpt>
      <trkpt lat="48.40705" lon="7.27579">
        <ele>1042.0550537109</ele>
        <time>2020-05-21T09:26:40Z</time>
      </trkpt>
      <trkpt lat="48.40706" lon="7.27566">
        <ele>1045.0550537109</ele>
        <time>2020-05-21T09:26:45Z</time>
      </trkpt>
      <trkpt lat="48.40705" lon="7.27554">
        <ele>1044.0550537109</ele>
        <time>2020-05-21T09:26:51Z</time>
      </trkpt>
      <trkpt lat="48.40703" lon="7.27543">
        <ele>1039.0550537109</ele>
        <time>2020-05-21T09:26:58Z</time>
      </trkpt>
      <trkpt lat="48.40698" lon="7.27536">
        <ele>1041.0550537109</ele>
        <time>2020-05-21T09:27:03Z</time>
      </trkpt>
      <trkpt lat="48.40691" lon="7.27528">
        <ele>1042.0550537109</ele>
        <time>2020-05-21T09:27:09Z</time>
      </trkpt>
      <trkpt lat="48.40685" lon="7.27522">
        <ele>1046.0550537109</ele>
        <time>2020-05-21T09:27:15Z</time>
      </trkpt>
      <trkpt lat="48.40678" lon="7.27518">
        <ele>1049.0550537109</ele>
        <time>2020-05-21T09:27:20Z</time>
      </trkpt>
      <trkpt lat="48.40671" lon="7.27515">
        <ele>1050.0550537109</ele>
        <time>2020-05-21T09:27:26Z</time>
      </trkpt>
      <trkpt lat="48.40664" lon="7.27514">
        <ele>1050.0550537109</ele>
        <time>2020-05-21T09:27:32Z</time>
      </trkpt>
      <trkpt lat="48.40656" lon="7.27513">
        <ele>1048.0550537109</ele>
        <time>2020-05-21T09:27:37Z</time>
      </trkpt>
      <trkpt lat="48.4065" lon="7.27511">
        <ele>1048.0550537109</ele>
        <time>2020-05-21T09:27:42Z</time>
      </trkpt>
      <trkpt lat="48.40642" lon="7.27506">
        <ele>1049.0550537109</ele>
        <time>2020-05-21T09:27:47Z</time>
      </trkpt>
      <trkpt lat="48.40635" lon="7.27504">
        <ele>1048.0550537109</ele>
        <time>2020-05-21T09:27:53Z</time>
      </trkpt>
      <trkpt lat="48.40628" lon="7.275">
        <ele>1048.0550537109</ele>
        <time>2020-05-21T09:27:58Z</time>
      </trkpt>
      <trkpt lat="48.40623" lon="7.27493">
        <ele>1050.0550537109</ele>
        <time>2020-05-21T09:28:03Z</time>
      </trkpt>
      <trkpt lat="48.40617" lon="7.27488">
        <ele>1049.0550537109</ele>
        <time>2020-05-21T09:28:08Z</time>
      </trkpt>
      <trkpt lat="48.40611" lon="7.27483">
        <ele>1049.0550537109</ele>
        <time>2020-05-21T09:28:13Z</time>
      </trkpt>
      <trkpt lat="48.40605" lon="7.27474">
        <ele>1056.0550537109</ele>
        <time>2020-05-21T09:28:18Z</time>
      </trkpt>
      <trkpt lat="48.40599" lon="7.27468">
        <ele>1056.0550537109</ele>
        <time>2020-05-21T09:28:24Z</time>
      </trkpt>
      <trkpt lat="48.40593" lon="7.27464">
        <ele>1051.0550537109</ele>
        <time>2020-05-21T09:28:30Z</time>
      </trkpt>
      <trkpt lat="48.40588" lon="7.27454">
        <ele>1053.0550537109</ele>
        <time>2020-05-21T09:28:37Z</time>
      </trkpt>
      <trkpt lat="48.40583" lon="7.27446">
        <ele>1053.0550537109</ele>
        <time>2020-05-21T09:28:43Z</time>
      </trkpt>
      <trkpt lat="48.40577" lon="7.2744">
        <ele>1055.0550537109</ele>
        <time>2020-05-21T09:28:49Z</time>
      </trkpt>
      <trkpt lat="48.40571" lon="7.27435">
        <ele>1056.0550537109</ele>
        <time>2020-05-21T09:28:54Z</time>
      </trkpt>
      <trkpt lat="48.40565" lon="7.27427">
        <ele>1054.0550537109</ele>
        <time>2020-05-21T09:29:01Z</time>
      </trkpt>
      <trkpt lat="48.40557" lon="7.27424">
        <ele>1054.0550537109</ele>
        <time>2020-05-21T09:29:07Z</time>
      </trkpt>
      <trkpt lat="48.4055" lon="7.27424">
        <ele>1057.0550537109</ele>
        <time>2020-05-21T09:30:09Z</time>
      </trkpt>
      <trkpt lat="48.40548" lon="7.27414">
        <ele>1055.0550537109</ele>
        <time>2020-05-21T09:31:40Z</time>
      </trkpt>
      <trkpt lat="48.40543" lon="7.27408">
        <ele>1055.0550537109</ele>
        <time>2020-05-21T09:31:47Z</time>
      </trkpt>
      <trkpt lat="48.40536" lon="7.27404">
        <ele>1055.0550537109</ele>
        <time>2020-05-21T09:31:54Z</time>
      </trkpt>
      <trkpt lat="48.40528" lon="7.27403">
        <ele>1052.0550537109</ele>
        <time>2020-05-21T09:32:04Z</time>
      </trkpt>
      <trkpt lat="48.40521" lon="7.27404">
        <ele>1051.0550537109</ele>
        <time>2020-05-21T09:32:12Z</time>
      </trkpt>
      <trkpt lat="48.40513" lon="7.27404">
        <ele>1054.0550537109</ele>
        <time>2020-05-21T09:32:18Z</time>
      </trkpt>
      <trkpt lat="48.40506" lon="7.27407">
        <ele>1054.0550537109</ele>
        <time>2020-05-21T09:32:24Z</time>
      </trkpt>
      <trkpt lat="48.40498" lon="7.27404">
        <ele>1053.0550537109</ele>
        <time>2020-05-21T09:32:30Z</time>
      </trkpt>
      <trkpt lat="48.40491" lon="7.27404">
        <ele>1054.0550537109</ele>
        <time>2020-05-21T09:32:35Z</time>
      </trkpt>
      <trkpt lat="48.40484" lon="7.27401">
        <ele>1053.0550537109</ele>
        <time>2020-05-21T09:32:42Z</time>
      </trkpt>
      <trkpt lat="48.40477" lon="7.27398">
        <ele>1056.0550537109</ele>
        <time>2020-05-21T09:32:48Z</time>
      </trkpt>
      <trkpt lat="48.4047" lon="7.27396">
        <ele>1057.0550537109</ele>
        <time>2020-05-21T09:32:54Z</time>
      </trkpt>
      <trkpt lat="48.40464" lon="7.2739">
        <ele>1059.0550537109</ele>
        <time>2020-05-21T09:32:59Z</time>
      </trkpt>
      <trkpt lat="48.40458" lon="7.27387">
        <ele>1062.0550537109</ele>
        <time>2020-05-21T09:33:05Z</time>
      </trkpt>
      <trkpt lat="48.40451" lon="7.27384">
        <ele>1063.0550537109</ele>
        <time>2020-05-21T09:33:10Z</time>
      </trkpt>
      <trkpt lat="48.40443" lon="7.27382">
        <ele>1062.0550537109</ele>
        <time>2020-05-21T09:33:15Z</time>
      </trkpt>
      <trkpt lat="48.40436" lon="7.27382">
        <ele>1060.0550537109</ele>
        <time>2020-05-21T09:33:20Z</time>
      </trkpt>
      <trkpt lat="48.40429" lon="7.27383">
        <ele>1059.0550537109</ele>
        <time>2020-05-21T09:33:25Z</time>
      </trkpt>
      <trkpt lat="48.40421" lon="7.27382">
        <ele>1058.0550537109</ele>
        <time>2020-05-21T09:33:30Z</time>
      </trkpt>
      <trkpt lat="48.40414" lon="7.27381">
        <ele>1058.0550537109</ele>
        <time>2020-05-21T09:33:35Z</time>
      </trkpt>
      <trkpt lat="48.40405" lon="7.27381">
        <ele>1056.0550537109</ele>
        <time>2020-05-21T09:33:40Z</time>
      </trkpt>
      <trkpt lat="48.40399" lon="7.2738">
        <ele>1055.0550537109</ele>
        <time>2020-05-21T09:33:45Z</time>
      </trkpt>
      <trkpt lat="48.40392" lon="7.27377">
        <ele>1056.0550537109</ele>
        <time>2020-05-21T09:33:53Z</time>
      </trkpt>
      <trkpt lat="48.40385" lon="7.27374">
        <ele>1059.0550537109</ele>
        <time>2020-05-21T09:33:59Z</time>
      </trkpt>
      <trkpt lat="48.40377" lon="7.27371">
        <ele>1059.0550537109</ele>
        <time>2020-05-21T09:34:05Z</time>
      </trkpt>
      <trkpt lat="48.40371" lon="7.27369">
        <ele>1059.0550537109</ele>
        <time>2020-05-21T09:34:11Z</time>
      </trkpt>
      <trkpt lat="48.40364" lon="7.27368">
        <ele>1058.0550537109</ele>
        <time>2020-05-21T09:34:16Z</time>
      </trkpt>
      <trkpt lat="48.40357" lon="7.27365">
        <ele>1059.0550537109</ele>
        <time>2020-05-21T09:34:21Z</time>
      </trkpt>
      <trkpt lat="48.40351" lon="7.27362">
        <ele>1062.0550537109</ele>
        <time>2020-05-21T09:34:27Z</time>
      </trkpt>
      <trkpt lat="48.40345" lon="7.27357">
        <ele>1064.0550537109</ele>
        <time>2020-05-21T09:34:33Z</time>
      </trkpt>
      <trkpt lat="48.40339" lon="7.27353">
        <ele>1065.0550537109</ele>
        <time>2020-05-21T09:34:38Z</time>
      </trkpt>
      <trkpt lat="48.40333" lon="7.27347">
        <ele>1065.0550537109</ele>
        <time>2020-05-21T09:34:43Z</time>
      </trkpt>
      <trkpt lat="48.40325" lon="7.27348">
        <ele>1065.0550537109</ele>
        <time>2020-05-21T09:34:48Z</time>
      </trkpt>
      <trkpt lat="48.40318" lon="7.27347">
        <ele>1063.0550537109</ele>
        <time>2020-05-21T09:34:53Z</time>
      </trkpt>
      <trkpt lat="48.40312" lon="7.27344">
        <ele>1064.0550537109</ele>
        <time>2020-05-21T09:34:58Z</time>
      </trkpt>
      <trkpt lat="48.40305" lon="7.27344">
        <ele>1061.0550537109</ele>
        <time>2020-05-21T09:35:03Z</time>
      </trkpt>
      <trkpt lat="48.40298" lon="7.27344">
        <ele>1060.0550537109</ele>
        <time>2020-05-21T09:35:08Z</time>
      </trkpt>
      <trkpt lat="48.40289" lon="7.27343">
        <ele>1062.0550537109</ele>
        <time>2020-05-21T09:35:13Z</time>
      </trkpt>
      <trkpt lat="48.40281" lon="7.27342">
        <ele>1064.0550537109</ele>
        <time>2020-05-21T09:35:20Z</time>
      </trkpt>
      <trkpt lat="48.40274" lon="7.27342">
        <ele>1062.0550537109</ele>
        <time>2020-05-21T09:35:26Z</time>
      </trkpt>
      <trkpt lat="48.40267" lon="7.27344">
        <ele>1060.0550537109</ele>
        <time>2020-05-21T09:35:31Z</time>
      </trkpt>
      <trkpt lat="48.4026" lon="7.27343">
        <ele>1059.0550537109</ele>
        <time>2020-05-21T09:35:36Z</time>
      </trkpt>
      <trkpt lat="48.40252" lon="7.27342">
        <ele>1058.0550537109</ele>
        <time>2020-05-21T09:35:41Z</time>
      </trkpt>
      <trkpt lat="48.40246" lon="7.27342">
        <ele>1060.0550537109</ele>
        <time>2020-05-21T09:35:46Z</time>
      </trkpt>
      <trkpt lat="48.40238" lon="7.27341">
        <ele>1059.0550537109</ele>
        <time>2020-05-21T09:35:53Z</time>
      </trkpt>
      <trkpt lat="48.40232" lon="7.27338">
        <ele>1060.0550537109</ele>
        <time>2020-05-21T09:35:58Z</time>
      </trkpt>
      <trkpt lat="48.40224" lon="7.27333">
        <ele>1063.0550537109</ele>
        <time>2020-05-21T09:36:04Z</time>
      </trkpt>
      <trkpt lat="48.40218" lon="7.27327">
        <ele>1064.0550537109</ele>
        <time>2020-05-21T09:36:10Z</time>
      </trkpt>
      <trkpt lat="48.40211" lon="7.27327">
        <ele>1062.0550537109</ele>
        <time>2020-05-21T09:36:15Z</time>
      </trkpt>
      <trkpt lat="48.40205" lon="7.27322">
        <ele>1063.0550537109</ele>
        <time>2020-05-21T09:36:21Z</time>
      </trkpt>
      <trkpt lat="48.40199" lon="7.27316">
        <ele>1063.0550537109</ele>
        <time>2020-05-21T09:36:29Z</time>
      </trkpt>
      <trkpt lat="48.40192" lon="7.27313">
        <ele>1065.0550537109</ele>
        <time>2020-05-21T09:36:34Z</time>
      </trkpt>
      <trkpt lat="48.40186" lon="7.27307">
        <ele>1065.0550537109</ele>
        <time>2020-05-21T09:36:40Z</time>
      </trkpt>
      <trkpt lat="48.40181" lon="7.27299">
        <ele>1059.0550537109</ele>
        <time>2020-05-21T09:36:48Z</time>
      </trkpt>
      <trkpt lat="48.40174" lon="7.27294">
        <ele>1061.0550537109</ele>
        <time>2020-05-21T09:36:54Z</time>
      </trkpt>
      <trkpt lat="48.40168" lon="7.27287">
        <ele>1061.0550537109</ele>
        <time>2020-05-21T09:37:00Z</time>
      </trkpt>
      <trkpt lat="48.40163" lon="7.27278">
        <ele>1062.0550537109</ele>
        <time>2020-05-21T09:37:06Z</time>
      </trkpt>
      <trkpt lat="48.40158" lon="7.2727">
        <ele>1061.0550537109</ele>
        <time>2020-05-21T09:37:12Z</time>
      </trkpt>
      <trkpt lat="48.40153" lon="7.27263">
        <ele>1058.0550537109</ele>
        <time>2020-05-21T09:37:17Z</time>
      </trkpt>
      <trkpt lat="48.40147" lon="7.27257">
        <ele>1055.0550537109</ele>
        <time>2020-05-21T09:37:24Z</time>
      </trkpt>
      <trkpt lat="48.40142" lon="7.27248">
        <ele>1058.0550537109</ele>
        <time>2020-05-21T09:37:30Z</time>
      </trkpt>
      <trkpt lat="48.40137" lon="7.27235">
        <ele>1063.0550537109</ele>
        <time>2020-05-21T09:37:35Z</time>
      </trkpt>
      <trkpt lat="48.40134" lon="7.27223">
        <ele>1066.0550537109</ele>
        <time>2020-05-21T09:37:43Z</time>
      </trkpt>
      <trkpt lat="48.40131" lon="7.27215">
        <ele>1066.0550537109</ele>
        <time>2020-05-21T09:37:48Z</time>
      </trkpt>
      <trkpt lat="48.40128" lon="7.27207">
        <ele>1065.0550537109</ele>
        <time>2020-05-21T09:37:54Z</time>
      </trkpt>
      <trkpt lat="48.40123" lon="7.27198">
        <ele>1068.0550537109</ele>
        <time>2020-05-21T09:38:00Z</time>
      </trkpt>
      <trkpt lat="48.40117" lon="7.27192">
        <ele>1066.0550537109</ele>
        <time>2020-05-21T09:38:05Z</time>
      </trkpt>
      <trkpt lat="48.40112" lon="7.27184">
        <ele>1068.0550537109</ele>
        <time>2020-05-21T09:38:12Z</time>
      </trkpt>
      <trkpt lat="48.40109" lon="7.27172">
        <ele>1069.0550537109</ele>
        <time>2020-05-21T09:38:17Z</time>
      </trkpt>
      <trkpt lat="48.40105" lon="7.27161">
        <ele>1073.0550537109</ele>
        <time>2020-05-21T09:38:22Z</time>
      </trkpt>
      <trkpt lat="48.40101" lon="7.2715">
        <ele>1071.0550537109</ele>
        <time>2020-05-21T09:38:27Z</time>
      </trkpt>
      <trkpt lat="48.40099" lon="7.2714">
        <ele>1071.0550537109</ele>
        <time>2020-05-21T09:38:32Z</time>
      </trkpt>
      <trkpt lat="48.40094" lon="7.27131">
        <ele>1070.0550537109</ele>
        <time>2020-05-21T09:38:37Z</time>
      </trkpt>
      <trkpt lat="48.40089" lon="7.27123">
        <ele>1071.0550537109</ele>
        <time>2020-05-21T09:38:42Z</time>
      </trkpt>
      <trkpt lat="48.40086" lon="7.27113">
        <ele>1068.0550537109</ele>
        <time>2020-05-21T09:38:50Z</time>
      </trkpt>
      <trkpt lat="48.40082" lon="7.27103">
        <ele>1067.0550537109</ele>
        <time>2020-05-21T09:38:56Z</time>
      </trkpt>
      <trkpt lat="48.40081" lon="7.27093">
        <ele>1072.0550537109</ele>
        <time>2020-05-21T09:39:01Z</time>
      </trkpt>
      <trkpt lat="48.40078" lon="7.27082">
        <ele>1070.0550537109</ele>
        <time>2020-05-21T09:39:07Z</time>
      </trkpt>
      <trkpt lat="48.40076" lon="7.27071">
        <ele>1071.0550537109</ele>
        <time>2020-05-21T09:39:13Z</time>
      </trkpt>
      <trkpt lat="48.40075" lon="7.2706">
        <ele>1073.0550537109</ele>
        <time>2020-05-21T09:39:19Z</time>
      </trkpt>
      <trkpt lat="48.40073" lon="7.2705">
        <ele>1073.0550537109</ele>
        <time>2020-05-21T09:39:25Z</time>
      </trkpt>
      <trkpt lat="48.40071" lon="7.27039">
        <ele>1073.0550537109</ele>
        <time>2020-05-21T09:39:31Z</time>
      </trkpt>
      <trkpt lat="48.40067" lon="7.27029">
        <ele>1074.0550537109</ele>
        <time>2020-05-21T09:39:37Z</time>
      </trkpt>
      <trkpt lat="48.40062" lon="7.27021">
        <ele>1072.0550537109</ele>
        <time>2020-05-21T09:39:43Z</time>
      </trkpt>
      <trkpt lat="48.40059" lon="7.27011">
        <ele>1072.0550537109</ele>
        <time>2020-05-21T09:39:49Z</time>
      </trkpt>
      <trkpt lat="48.40053" lon="7.27006">
        <ele>1071.0550537109</ele>
        <time>2020-05-21T09:39:58Z</time>
      </trkpt>
      <trkpt lat="48.40046" lon="7.27002">
        <ele>1071.0550537109</ele>
        <time>2020-05-21T09:40:04Z</time>
      </trkpt>
      <trkpt lat="48.40039" lon="7.26998">
        <ele>1070.0550537109</ele>
        <time>2020-05-21T09:40:16Z</time>
      </trkpt>
      <trkpt lat="48.40033" lon="7.26992">
        <ele>1067.0550537109</ele>
        <time>2020-05-21T09:40:22Z</time>
      </trkpt>
      <trkpt lat="48.40029" lon="7.26983">
        <ele>1071.0550537109</ele>
        <time>2020-05-21T09:40:37Z</time>
      </trkpt>
      <trkpt lat="48.40024" lon="7.26978">
        <ele>1071.0550537109</ele>
        <time>2020-05-21T09:40:45Z</time>
      </trkpt>
      <trkpt lat="48.40019" lon="7.26969">
        <ele>1069.0550537109</ele>
        <time>2020-05-21T09:41:01Z</time>
      </trkpt>
      <trkpt lat="48.40017" lon="7.26959">
        <ele>1072.0550537109</ele>
        <time>2020-05-21T09:41:07Z</time>
      </trkpt>
      <trkpt lat="48.40014" lon="7.26949">
        <ele>1072.0550537109</ele>
        <time>2020-05-21T09:41:14Z</time>
      </trkpt>
      <trkpt lat="48.40016" lon="7.26939">
        <ele>1074.0550537109</ele>
        <time>2020-05-21T09:41:22Z</time>
      </trkpt>
      <trkpt lat="48.40015" lon="7.26928">
        <ele>1074.0550537109</ele>
        <time>2020-05-21T09:41:27Z</time>
      </trkpt>
      <trkpt lat="48.40012" lon="7.26918">
        <ele>1075.0550537109</ele>
        <time>2020-05-21T09:41:33Z</time>
      </trkpt>
      <trkpt lat="48.40009" lon="7.26908">
        <ele>1076.0550537109</ele>
        <time>2020-05-21T09:41:39Z</time>
      </trkpt>
      <trkpt lat="48.40005" lon="7.269">
        <ele>1077.0550537109</ele>
        <time>2020-05-21T09:41:45Z</time>
      </trkpt>
      <trkpt lat="48.40001" lon="7.26891">
        <ele>1076.0550537109</ele>
        <time>2020-05-21T09:41:50Z</time>
      </trkpt>
      <trkpt lat="48.39997" lon="7.26883">
        <ele>1076.0550537109</ele>
        <time>2020-05-21T09:41:55Z</time>
      </trkpt>
      <trkpt lat="48.39993" lon="7.26875">
        <ele>1073.0550537109</ele>
        <time>2020-05-21T09:42:00Z</time>
      </trkpt>
      <trkpt lat="48.39987" lon="7.26868">
        <ele>1072.0550537109</ele>
        <time>2020-05-21T09:42:06Z</time>
      </trkpt>
      <trkpt lat="48.39984" lon="7.26859">
        <ele>1073.0550537109</ele>
        <time>2020-05-21T09:42:11Z</time>
      </trkpt>
      <trkpt lat="48.39979" lon="7.26851">
        <ele>1073.0550537109</ele>
        <time>2020-05-21T09:42:16Z</time>
      </trkpt>
      <trkpt lat="48.39978" lon="7.26841">
        <ele>1074.0550537109</ele>
        <time>2020-05-21T09:42:22Z</time>
      </trkpt>
      <trkpt lat="48.39974" lon="7.2683">
        <ele>1074.0550537109</ele>
        <time>2020-05-21T09:42:28Z</time>
      </trkpt>
      <trkpt lat="48.39973" lon="7.26819">
        <ele>1078.0550537109</ele>
        <time>2020-05-21T09:42:35Z</time>
      </trkpt>
      <trkpt lat="48.39972" lon="7.26807">
        <ele>1076.0550537109</ele>
        <time>2020-05-21T09:42:40Z</time>
      </trkpt>
      <trkpt lat="48.39969" lon="7.26798">
        <ele>1078.0550537109</ele>
        <time>2020-05-21T09:42:45Z</time>
      </trkpt>
      <trkpt lat="48.39964" lon="7.26791">
        <ele>1079.0550537109</ele>
        <time>2020-05-21T09:42:50Z</time>
      </trkpt>
      <trkpt lat="48.39957" lon="7.26786">
        <ele>1079.0550537109</ele>
        <time>2020-05-21T09:43:03Z</time>
      </trkpt>
      <trkpt lat="48.39951" lon="7.2678">
        <ele>1079.0550537109</ele>
        <time>2020-05-21T09:43:09Z</time>
      </trkpt>
      <trkpt lat="48.39945" lon="7.26776">
        <ele>1075.0550537109</ele>
        <time>2020-05-21T09:43:15Z</time>
      </trkpt>
      <trkpt lat="48.39938" lon="7.26772">
        <ele>1075.0550537109</ele>
        <time>2020-05-21T09:43:20Z</time>
      </trkpt>
      <trkpt lat="48.39932" lon="7.26766">
        <ele>1078.0550537109</ele>
        <time>2020-05-21T09:43:26Z</time>
      </trkpt>
      <trkpt lat="48.39926" lon="7.26761">
        <ele>1079.0550537109</ele>
        <time>2020-05-21T09:43:31Z</time>
      </trkpt>
      <trkpt lat="48.3992" lon="7.26756">
        <ele>1079.0550537109</ele>
        <time>2020-05-21T09:43:37Z</time>
      </trkpt>
      <trkpt lat="48.39913" lon="7.2675">
        <ele>1079.0550537109</ele>
        <time>2020-05-21T09:43:42Z</time>
      </trkpt>
      <trkpt lat="48.39907" lon="7.26743">
        <ele>1078.0550537109</ele>
        <time>2020-05-21T09:43:48Z</time>
      </trkpt>
      <trkpt lat="48.399" lon="7.26736">
        <ele>1079.0550537109</ele>
        <time>2020-05-21T09:43:53Z</time>
      </trkpt>
      <trkpt lat="48.39894" lon="7.2673">
        <ele>1079.0550537109</ele>
        <time>2020-05-21T09:43:59Z</time>
      </trkpt>
      <trkpt lat="48.39888" lon="7.26724">
        <ele>1083.0550537109</ele>
        <time>2020-05-21T09:44:05Z</time>
      </trkpt>
      <trkpt lat="48.39882" lon="7.26719">
        <ele>1083.0539550781</ele>
        <time>2020-05-21T09:44:10Z</time>
      </trkpt>
      <trkpt lat="48.39874" lon="7.26716">
        <ele>1083.0539550781</ele>
        <time>2020-05-21T09:44:16Z</time>
      </trkpt>
      <trkpt lat="48.39868" lon="7.2671">
        <ele>1083.0539550781</ele>
        <time>2020-05-21T09:44:22Z</time>
      </trkpt>
      <trkpt lat="48.39863" lon="7.26703">
        <ele>1082.0539550781</ele>
        <time>2020-05-21T09:44:29Z</time>
      </trkpt>
      <trkpt lat="48.39859" lon="7.26695">
        <ele>1087.0539550781</ele>
        <time>2020-05-21T09:44:34Z</time>
      </trkpt>
      <trkpt lat="48.39853" lon="7.26687">
        <ele>1084.0539550781</ele>
        <time>2020-05-21T09:44:39Z</time>
      </trkpt>
      <trkpt lat="48.39846" lon="7.26681">
        <ele>1088.0539550781</ele>
        <time>2020-05-21T09:44:45Z</time>
      </trkpt>
      <trkpt lat="48.3984" lon="7.2668">
        <ele>1089.0539550781</ele>
        <time>2020-05-21T09:44:50Z</time>
      </trkpt>
      <trkpt lat="48.39833" lon="7.26678">
        <ele>1089.0539550781</ele>
        <time>2020-05-21T09:44:55Z</time>
      </trkpt>
      <trkpt lat="48.39826" lon="7.26676">
        <ele>1090.0539550781</ele>
        <time>2020-05-21T09:45:00Z</time>
      </trkpt>
      <trkpt lat="48.39819" lon="7.26675">
        <ele>1088.0539550781</ele>
        <time>2020-05-21T09:45:07Z</time>
      </trkpt>
      <trkpt lat="48.39814" lon="7.26669">
        <ele>1087.0539550781</ele>
        <time>2020-05-21T09:45:12Z</time>
      </trkpt>
      <trkpt lat="48.39807" lon="7.26667">
        <ele>1087.0539550781</ele>
        <time>2020-05-21T09:45:17Z</time>
      </trkpt>
      <trkpt lat="48.39799" lon="7.26667">
        <ele>1086.0539550781</ele>
        <time>2020-05-21T09:45:24Z</time>
      </trkpt>
      <trkpt lat="48.39791" lon="7.26667">
        <ele>1085.0539550781</ele>
        <time>2020-05-21T09:45:29Z</time>
      </trkpt>
      <trkpt lat="48.39784" lon="7.26667">
        <ele>1084.0539550781</ele>
        <time>2020-05-21T09:45:35Z</time>
      </trkpt>
      <trkpt lat="48.39777" lon="7.26668">
        <ele>1083.0539550781</ele>
        <time>2020-05-21T09:45:41Z</time>
      </trkpt>
      <trkpt lat="48.3977" lon="7.26667">
        <ele>1085.0539550781</ele>
        <time>2020-05-21T09:45:46Z</time>
      </trkpt>
      <trkpt lat="48.39763" lon="7.26669">
        <ele>1086.0539550781</ele>
        <time>2020-05-21T09:45:51Z</time>
      </trkpt>
      <trkpt lat="48.39756" lon="7.26672">
        <ele>1086.0539550781</ele>
        <time>2020-05-21T09:45:57Z</time>
      </trkpt>
      <trkpt lat="48.39748" lon="7.26676">
        <ele>1086.0539550781</ele>
        <time>2020-05-21T09:46:02Z</time>
      </trkpt>
      <trkpt lat="48.39743" lon="7.26683">
        <ele>1086.0539550781</ele>
        <time>2020-05-21T09:46:09Z</time>
      </trkpt>
      <trkpt lat="48.39738" lon="7.2669">
        <ele>1087.0539550781</ele>
        <time>2020-05-21T09:46:16Z</time>
      </trkpt>
      <trkpt lat="48.39733" lon="7.26697">
        <ele>1088.0539550781</ele>
        <time>2020-05-21T09:46:22Z</time>
      </trkpt>
      <trkpt lat="48.39731" lon="7.26709">
        <ele>1087.0539550781</ele>
        <time>2020-05-21T09:46:28Z</time>
      </trkpt>
      <trkpt lat="48.3973" lon="7.26719">
        <ele>1087.0539550781</ele>
        <time>2020-05-21T09:46:33Z</time>
      </trkpt>
      <trkpt lat="48.3973" lon="7.2673">
        <ele>1087.0539550781</ele>
        <time>2020-05-21T09:46:38Z</time>
      </trkpt>
      <trkpt lat="48.39731" lon="7.26741">
        <ele>1086.0539550781</ele>
        <time>2020-05-21T09:46:44Z</time>
      </trkpt>
      <trkpt lat="48.3973" lon="7.26752">
        <ele>1086.0539550781</ele>
        <time>2020-05-21T09:46:49Z</time>
      </trkpt>
      <trkpt lat="48.39729" lon="7.26762">
        <ele>1087.0539550781</ele>
        <time>2020-05-21T09:46:54Z</time>
      </trkpt>
      <trkpt lat="48.39729" lon="7.26773">
        <ele>1086.0539550781</ele>
        <time>2020-05-21T09:46:59Z</time>
      </trkpt>
      <trkpt lat="48.3973" lon="7.26784">
        <ele>1090.0539550781</ele>
        <time>2020-05-21T09:47:05Z</time>
      </trkpt>
      <trkpt lat="48.39728" lon="7.26795">
        <ele>1092.0539550781</ele>
        <time>2020-05-21T09:47:13Z</time>
      </trkpt>
      <trkpt lat="48.39721" lon="7.26803">
        <ele>1092.0539550781</ele>
        <time>2020-05-21T09:47:18Z</time>
      </trkpt>
      <trkpt lat="48.39715" lon="7.26811">
        <ele>1095.0539550781</ele>
        <time>2020-05-21T09:47:25Z</time>
      </trkpt>
      <trkpt lat="48.39708" lon="7.26813">
        <ele>1094.0539550781</ele>
        <time>2020-05-21T09:47:32Z</time>
      </trkpt>
      <trkpt lat="48.397" lon="7.26819">
        <ele>1095.0539550781</ele>
        <time>2020-05-21T09:47:38Z</time>
      </trkpt>
      <trkpt lat="48.39692" lon="7.26825">
        <ele>1090.0539550781</ele>
        <time>2020-05-21T09:47:43Z</time>
      </trkpt>
      <trkpt lat="48.39684" lon="7.26827">
        <ele>1090.0539550781</ele>
        <time>2020-05-21T09:47:52Z</time>
      </trkpt>
      <trkpt lat="48.39677" lon="7.26828">
        <ele>1092.0539550781</ele>
        <time>2020-05-21T09:47:58Z</time>
      </trkpt>
      <trkpt lat="48.39671" lon="7.26834">
        <ele>1092.0539550781</ele>
        <time>2020-05-21T09:48:05Z</time>
      </trkpt>
      <trkpt lat="48.39665" lon="7.26828">
        <ele>1094.0539550781</ele>
        <time>2020-05-21T09:48:21Z</time>
      </trkpt>
      <trkpt lat="48.39658" lon="7.26824">
        <ele>1093.0539550781</ele>
        <time>2020-05-21T09:48:28Z</time>
      </trkpt>
      <trkpt lat="48.39653" lon="7.26818">
        <ele>1094.0539550781</ele>
        <time>2020-05-21T09:48:35Z</time>
      </trkpt>
      <trkpt lat="48.39646" lon="7.26816">
        <ele>1097.0539550781</ele>
        <time>2020-05-21T09:48:40Z</time>
      </trkpt>
      <trkpt lat="48.39641" lon="7.26823">
        <ele>1098.0539550781</ele>
        <time>2020-05-21T09:48:48Z</time>
      </trkpt>
      <trkpt lat="48.39636" lon="7.26831">
        <ele>1100.0539550781</ele>
        <time>2020-05-21T09:48:58Z</time>
      </trkpt>
      <trkpt lat="48.3963" lon="7.26837">
        <ele>1099.0539550781</ele>
        <time>2020-05-21T09:49:03Z</time>
      </trkpt>
      <trkpt lat="48.39626" lon="7.26845">
        <ele>1098.0539550781</ele>
        <time>2020-05-21T09:49:10Z</time>
      </trkpt>
      <trkpt lat="48.39619" lon="7.26847">
        <ele>1096.0539550781</ele>
        <time>2020-05-21T09:49:17Z</time>
      </trkpt>
      <trkpt lat="48.39612" lon="7.2685">
        <ele>1096.0539550781</ele>
        <time>2020-05-21T09:49:23Z</time>
      </trkpt>
      <trkpt lat="48.39605" lon="7.2685">
        <ele>1096.0539550781</ele>
        <time>2020-05-21T09:49:32Z</time>
      </trkpt>
      <trkpt lat="48.39599" lon="7.26848">
        <ele>1092.0539550781</ele>
        <time>2020-05-21T09:49:39Z</time>
      </trkpt>
      <trkpt lat="48.39594" lon="7.26857">
        <ele>1096.0539550781</ele>
        <time>2020-05-21T09:49:50Z</time>
      </trkpt>
      <trkpt lat="48.39588" lon="7.26861">
        <ele>1087.0539550781</ele>
        <time>2020-05-21T09:49:55Z</time>
      </trkpt>
      <trkpt lat="48.39581" lon="7.26861">
        <ele>1093.0539550781</ele>
        <time>2020-05-21T09:50:02Z</time>
      </trkpt>
      <trkpt lat="48.39575" lon="7.26862">
        <ele>1095.0539550781</ele>
        <time>2020-05-21T09:50:08Z</time>
      </trkpt>
      <trkpt lat="48.39568" lon="7.2686">
        <ele>1098.0539550781</ele>
        <time>2020-05-21T09:50:15Z</time>
      </trkpt>
      <trkpt lat="48.3956" lon="7.26862">
        <ele>1102.0539550781</ele>
        <time>2020-05-21T09:50:21Z</time>
      </trkpt>
      <trkpt lat="48.39554" lon="7.26868">
        <ele>1101.0539550781</ele>
        <time>2020-05-21T09:50:26Z</time>
      </trkpt>
      <trkpt lat="48.39547" lon="7.26872">
        <ele>1090.0539550781</ele>
        <time>2020-05-21T09:50:32Z</time>
      </trkpt>
      <trkpt lat="48.3954" lon="7.26872">
        <ele>1096.0539550781</ele>
        <time>2020-05-21T09:50:39Z</time>
      </trkpt>
      <trkpt lat="48.39533" lon="7.26874">
        <ele>1099.0539550781</ele>
        <time>2020-05-21T09:50:44Z</time>
      </trkpt>
      <trkpt lat="48.39526" lon="7.26876">
        <ele>1099.0539550781</ele>
        <time>2020-05-21T09:50:51Z</time>
      </trkpt>
      <trkpt lat="48.39519" lon="7.26878">
        <ele>1097.0539550781</ele>
        <time>2020-05-21T09:51:06Z</time>
      </trkpt>
      <trkpt lat="48.39513" lon="7.26882">
        <ele>1099.0539550781</ele>
        <time>2020-05-21T09:51:19Z</time>
      </trkpt>
      <trkpt lat="48.39507" lon="7.26889">
        <ele>1100.0539550781</ele>
        <time>2020-05-21T09:51:27Z</time>
      </trkpt>
      <trkpt lat="48.395" lon="7.26891">
        <ele>1098.0539550781</ele>
        <time>2020-05-21T09:51:34Z</time>
      </trkpt>
      <trkpt lat="48.39493" lon="7.26887">
        <ele>1096.0539550781</ele>
        <time>2020-05-21T09:51:44Z</time>
      </trkpt>
      <trkpt lat="48.39487" lon="7.26888">
        <ele>1097.0539550781</ele>
        <time>2020-05-21T09:51:49Z</time>
      </trkpt>
      <trkpt lat="48.3948" lon="7.26892">
        <ele>1099.0539550781</ele>
        <time>2020-05-21T09:51:55Z</time>
      </trkpt>
      <trkpt lat="48.39474" lon="7.26898">
        <ele>1098.0539550781</ele>
        <time>2020-05-21T09:52:02Z</time>
      </trkpt>
      <trkpt lat="48.39472" lon="7.26888">
        <ele>1101.0539550781</ele>
        <time>2020-05-21T09:52:23Z</time>
      </trkpt>
      <trkpt lat="48.39471" lon="7.26878">
        <ele>1104.0539550781</ele>
        <time>2020-05-21T09:52:30Z</time>
      </trkpt>
      <trkpt lat="48.39472" lon="7.26868">
        <ele>1103.0539550781</ele>
        <time>2020-05-21T09:52:37Z</time>
      </trkpt>
      <trkpt lat="48.39472" lon="7.26857">
        <ele>1101.0539550781</ele>
        <time>2020-05-21T09:52:46Z</time>
      </trkpt>
      <trkpt lat="48.39469" lon="7.26848">
        <ele>1102.0539550781</ele>
        <time>2020-05-21T09:52:54Z</time>
      </trkpt>
      <trkpt lat="48.39466" lon="7.26838">
        <ele>1100.0539550781</ele>
        <time>2020-05-21T09:53:01Z</time>
      </trkpt>
      <trkpt lat="48.39462" lon="7.2683">
        <ele>1101.0539550781</ele>
        <time>2020-05-21T09:53:07Z</time>
      </trkpt>
      <trkpt lat="48.39459" lon="7.2682">
        <ele>1098.0539550781</ele>
        <time>2020-05-21T09:53:14Z</time>
      </trkpt>
      <trkpt lat="48.39457" lon="7.2681">
        <ele>1096.0539550781</ele>
        <time>2020-05-21T09:53:20Z</time>
      </trkpt>
      <trkpt lat="48.39454" lon="7.26802">
        <ele>1094.0539550781</ele>
        <time>2020-05-21T09:53:27Z</time>
      </trkpt>
      <trkpt lat="48.39459" lon="7.26797">
        <ele>1097.0539550781</ele>
        <time>2020-05-21T10:09:53Z</time>
      </trkpt>
      <trkpt lat="48.39452" lon="7.26799">
        <ele>1098.0539550781</ele>
        <time>2020-05-21T10:12:04Z</time>
      </trkpt>
      <trkpt lat="48.3945" lon="7.26809">
        <ele>1101.0539550781</ele>
        <time>2020-05-21T10:16:11Z</time>
      </trkpt>
      <trkpt lat="48.39451" lon="7.26819">
        <ele>1100.0539550781</ele>
        <time>2020-05-21T10:16:18Z</time>
      </trkpt>
      <trkpt lat="48.39452" lon="7.26829">
        <ele>1104.0539550781</ele>
        <time>2020-05-21T10:16:25Z</time>
      </trkpt>
      <trkpt lat="48.39452" lon="7.2684">
        <ele>1103.0539550781</ele>
        <time>2020-05-21T10:16:31Z</time>
      </trkpt>
      <trkpt lat="48.39454" lon="7.26852">
        <ele>1102.0539550781</ele>
        <time>2020-05-21T10:16:38Z</time>
      </trkpt>
      <trkpt lat="48.39456" lon="7.26861">
        <ele>1100.0539550781</ele>
        <time>2020-05-21T10:16:44Z</time>
      </trkpt>
      <trkpt lat="48.39458" lon="7.26872">
        <ele>1100.0539550781</ele>
        <time>2020-05-21T10:16:49Z</time>
      </trkpt>
      <trkpt lat="48.39459" lon="7.26882">
        <ele>1100.0539550781</ele>
        <time>2020-05-21T10:16:54Z</time>
      </trkpt>
      <trkpt lat="48.39462" lon="7.26893">
        <ele>1098.0539550781</ele>
        <time>2020-05-21T10:17:00Z</time>
      </trkpt>
      <trkpt lat="48.39463" lon="7.26904">
        <ele>1098.0539550781</ele>
        <time>2020-05-21T10:17:06Z</time>
      </trkpt>
      <trkpt lat="48.39465" lon="7.26913">
        <ele>1099.0539550781</ele>
        <time>2020-05-21T10:17:12Z</time>
      </trkpt>
      <trkpt lat="48.39466" lon="7.26923">
        <ele>1098.0539550781</ele>
        <time>2020-05-21T10:17:17Z</time>
      </trkpt>
      <trkpt lat="48.39466" lon="7.26934">
        <ele>1100.0539550781</ele>
        <time>2020-05-21T10:17:23Z</time>
      </trkpt>
      <trkpt lat="48.39469" lon="7.26942">
        <ele>1101.0539550781</ele>
        <time>2020-05-21T10:17:30Z</time>
      </trkpt>
      <trkpt lat="48.3947" lon="7.26953">
        <ele>1100.0539550781</ele>
        <time>2020-05-21T10:17:37Z</time>
      </trkpt>
      <trkpt lat="48.39466" lon="7.26962">
        <ele>1099.0539550781</ele>
        <time>2020-05-21T10:17:44Z</time>
      </trkpt>
      <trkpt lat="48.39461" lon="7.2697">
        <ele>1099.0539550781</ele>
        <time>2020-05-21T10:17:50Z</time>
      </trkpt>
      <trkpt lat="48.39453" lon="7.26975">
        <ele>1099.0539550781</ele>
        <time>2020-05-21T10:17:56Z</time>
      </trkpt>
      <trkpt lat="48.39446" lon="7.26977">
        <ele>1099.0539550781</ele>
        <time>2020-05-21T10:18:03Z</time>
      </trkpt>
      <trkpt lat="48.39443" lon="7.26986">
        <ele>1098.0539550781</ele>
        <time>2020-05-21T10:18:09Z</time>
      </trkpt>
      <trkpt lat="48.39442" lon="7.26996">
        <ele>1099.0539550781</ele>
        <time>2020-05-21T10:18:15Z</time>
      </trkpt>
      <trkpt lat="48.39444" lon="7.27006">
        <ele>1102.0539550781</ele>
        <time>2020-05-21T10:18:22Z</time>
      </trkpt>
      <trkpt lat="48.39444" lon="7.27018">
        <ele>1102.0539550781</ele>
        <time>2020-05-21T10:18:29Z</time>
      </trkpt>
      <trkpt lat="48.39444" lon="7.27031">
        <ele>1101.0539550781</ele>
        <time>2020-05-21T10:18:39Z</time>
      </trkpt>
      <trkpt lat="48.39443" lon="7.27043">
        <ele>1100.0539550781</ele>
        <time>2020-05-21T10:18:44Z</time>
      </trkpt>
      <trkpt lat="48.39446" lon="7.27057">
        <ele>1104.0539550781</ele>
        <time>2020-05-21T10:18:49Z</time>
      </trkpt>
      <trkpt lat="48.39444" lon="7.27067">
        <ele>1107.0539550781</ele>
        <time>2020-05-21T10:18:57Z</time>
      </trkpt>
      <trkpt lat="48.39444" lon="7.27079">
        <ele>1107.0539550781</ele>
        <time>2020-05-21T10:19:06Z</time>
      </trkpt>
      <trkpt lat="48.39442" lon="7.27096">
        <ele>1105.0539550781</ele>
        <time>2020-05-21T10:19:11Z</time>
      </trkpt>
      <trkpt lat="48.39443" lon="7.27109">
        <ele>1107.0539550781</ele>
        <time>2020-05-21T10:19:17Z</time>
      </trkpt>
      <trkpt lat="48.39447" lon="7.27118">
        <ele>1107.0539550781</ele>
        <time>2020-05-21T10:19:25Z</time>
      </trkpt>
      <trkpt lat="48.39444" lon="7.27133">
        <ele>1104.0539550781</ele>
        <time>2020-05-21T10:19:30Z</time>
      </trkpt>
      <trkpt lat="48.39445" lon="7.27144">
        <ele>1104.0539550781</ele>
        <time>2020-05-21T10:19:35Z</time>
      </trkpt>
      <trkpt lat="48.39447" lon="7.27161">
        <ele>1103.0539550781</ele>
        <time>2020-05-21T10:19:40Z</time>
      </trkpt>
      <trkpt lat="48.3945" lon="7.2717">
        <ele>1102.0539550781</ele>
        <time>2020-05-21T10:19:45Z</time>
      </trkpt>
      <trkpt lat="48.3945" lon="7.2718">
        <ele>1096.0539550781</ele>
        <time>2020-05-21T10:19:55Z</time>
      </trkpt>
      <trkpt lat="48.39447" lon="7.2719">
        <ele>1091.0539550781</ele>
        <time>2020-05-21T10:20:00Z</time>
      </trkpt>
      <trkpt lat="48.39446" lon="7.27201">
        <ele>1090.0539550781</ele>
        <time>2020-05-21T10:20:06Z</time>
      </trkpt>
      <trkpt lat="48.39446" lon="7.27213">
        <ele>1090.0539550781</ele>
        <time>2020-05-21T10:20:11Z</time>
      </trkpt>
      <trkpt lat="48.39446" lon="7.27225">
        <ele>1089.0539550781</ele>
        <time>2020-05-21T10:20:16Z</time>
      </trkpt>
      <trkpt lat="48.39441" lon="7.27232">
        <ele>1087.0539550781</ele>
        <time>2020-05-21T10:20:21Z</time>
      </trkpt>
      <trkpt lat="48.39442" lon="7.27244">
        <ele>1088.0539550781</ele>
        <time>2020-05-21T10:20:27Z</time>
      </trkpt>
      <trkpt lat="48.39448" lon="7.27255">
        <ele>1090.0539550781</ele>
        <time>2020-05-21T10:20:32Z</time>
      </trkpt>
      <trkpt lat="48.39447" lon="7.27266">
        <ele>1090.0539550781</ele>
        <time>2020-05-21T10:20:38Z</time>
      </trkpt>
      <trkpt lat="48.39448" lon="7.27276">
        <ele>1088.0539550781</ele>
        <time>2020-05-21T10:20:44Z</time>
      </trkpt>
      <trkpt lat="48.39449" lon="7.27287">
        <ele>1085.0539550781</ele>
        <time>2020-05-21T10:20:50Z</time>
      </trkpt>
      <trkpt lat="48.39451" lon="7.27297">
        <ele>1087.0539550781</ele>
        <time>2020-05-21T10:20:56Z</time>
      </trkpt>
      <trkpt lat="48.39457" lon="7.27307">
        <ele>1090.0539550781</ele>
        <time>2020-05-21T10:21:01Z</time>
      </trkpt>
      <trkpt lat="48.3946" lon="7.2732">
        <ele>1094.0539550781</ele>
        <time>2020-05-21T10:21:08Z</time>
      </trkpt>
      <trkpt lat="48.39461" lon="7.2733">
        <ele>1091.0539550781</ele>
        <time>2020-05-21T10:21:17Z</time>
      </trkpt>
      <trkpt lat="48.39462" lon="7.27343">
        <ele>1088.0539550781</ele>
        <time>2020-05-21T10:21:25Z</time>
      </trkpt>
      <trkpt lat="48.39463" lon="7.27353">
        <ele>1088.0539550781</ele>
        <time>2020-05-21T10:21:30Z</time>
      </trkpt>
      <trkpt lat="48.39462" lon="7.27364">
        <ele>1084.0539550781</ele>
        <time>2020-05-21T10:21:36Z</time>
      </trkpt>
      <trkpt lat="48.39463" lon="7.27374">
        <ele>1088.0539550781</ele>
        <time>2020-05-21T10:21:42Z</time>
      </trkpt>
      <trkpt lat="48.39462" lon="7.27385">
        <ele>1081.0539550781</ele>
        <time>2020-05-21T10:21:52Z</time>
      </trkpt>
      <trkpt lat="48.39462" lon="7.27395">
        <ele>1080.0539550781</ele>
        <time>2020-05-21T10:22:08Z</time>
      </trkpt>
      <trkpt lat="48.39461" lon="7.27406">
        <ele>1080.0539550781</ele>
        <time>2020-05-21T10:22:16Z</time>
      </trkpt>
      <trkpt lat="48.39457" lon="7.27415">
        <ele>1076.0539550781</ele>
        <time>2020-05-21T10:22:24Z</time>
      </trkpt>
      <trkpt lat="48.39455" lon="7.27425">
        <ele>1072.0539550781</ele>
        <time>2020-05-21T10:22:34Z</time>
      </trkpt>
      <trkpt lat="48.39454" lon="7.27435">
        <ele>1070.0539550781</ele>
        <time>2020-05-21T10:22:40Z</time>
      </trkpt>
      <trkpt lat="48.39454" lon="7.27445">
        <ele>1071.0539550781</ele>
        <time>2020-05-21T10:22:45Z</time>
      </trkpt>
      <trkpt lat="48.39451" lon="7.27456">
        <ele>1070.0539550781</ele>
        <time>2020-05-21T10:22:51Z</time>
      </trkpt>
      <trkpt lat="48.39451" lon="7.27466">
        <ele>1077.0539550781</ele>
        <time>2020-05-21T10:23:06Z</time>
      </trkpt>
      <trkpt lat="48.3945" lon="7.27477">
        <ele>1077.0539550781</ele>
        <time>2020-05-21T10:23:32Z</time>
      </trkpt>
      <trkpt lat="48.39451" lon="7.27488">
        <ele>1076.0539550781</ele>
        <time>2020-05-21T10:23:37Z</time>
      </trkpt>
      <trkpt lat="48.39451" lon="7.27498">
        <ele>1075.0539550781</ele>
        <time>2020-05-21T10:23:43Z</time>
      </trkpt>
      <trkpt lat="48.39451" lon="7.27508">
        <ele>1071.0539550781</ele>
        <time>2020-05-21T10:23:50Z</time>
      </trkpt>
      <trkpt lat="48.39454" lon="7.27518">
        <ele>1069.0539550781</ele>
        <time>2020-05-21T10:23:55Z</time>
      </trkpt>
      <trkpt lat="48.39456" lon="7.27528">
        <ele>1071.0539550781</ele>
        <time>2020-05-21T10:24:03Z</time>
      </trkpt>
      <trkpt lat="48.39456" lon="7.27539">
        <ele>1075.0539550781</ele>
        <time>2020-05-21T10:24:11Z</time>
      </trkpt>
      <trkpt lat="48.39456" lon="7.27549">
        <ele>1074.0539550781</ele>
        <time>2020-05-21T10:24:17Z</time>
      </trkpt>
      <trkpt lat="48.39458" lon="7.2756">
        <ele>1070.0539550781</ele>
        <time>2020-05-21T10:24:27Z</time>
      </trkpt>
      <trkpt lat="48.39457" lon="7.2757">
        <ele>1064.0539550781</ele>
        <time>2020-05-21T10:24:39Z</time>
      </trkpt>
      <trkpt lat="48.39457" lon="7.27581">
        <ele>1065.0539550781</ele>
        <time>2020-05-21T10:24:46Z</time>
      </trkpt>
      <trkpt lat="48.39458" lon="7.27591">
        <ele>1064.0539550781</ele>
        <time>2020-05-21T10:24:51Z</time>
      </trkpt>
      <trkpt lat="48.39461" lon="7.27602">
        <ele>1065.0539550781</ele>
        <time>2020-05-21T10:24:56Z</time>
      </trkpt>
      <trkpt lat="48.39464" lon="7.27613">
        <ele>1065.0539550781</ele>
        <time>2020-05-21T10:25:01Z</time>
      </trkpt>
      <trkpt lat="48.39463" lon="7.27623">
        <ele>1066.0539550781</ele>
        <time>2020-05-21T10:25:09Z</time>
      </trkpt>
      <trkpt lat="48.39461" lon="7.27633">
        <ele>1057.0539550781</ele>
        <time>2020-05-21T10:25:22Z</time>
      </trkpt>
      <trkpt lat="48.39465" lon="7.27642">
        <ele>1056.0539550781</ele>
        <time>2020-05-21T10:25:28Z</time>
      </trkpt>
      <trkpt lat="48.39468" lon="7.27654">
        <ele>1054.0539550781</ele>
        <time>2020-05-21T10:25:36Z</time>
      </trkpt>
      <trkpt lat="48.3947" lon="7.27663">
        <ele>1051.0539550781</ele>
        <time>2020-05-21T10:25:49Z</time>
      </trkpt>
      <trkpt lat="48.39472" lon="7.27674">
        <ele>1055.0539550781</ele>
        <time>2020-05-21T10:26:04Z</time>
      </trkpt>
      <trkpt lat="48.39472" lon="7.27687">
        <ele>1058.0539550781</ele>
        <time>2020-05-21T10:26:09Z</time>
      </trkpt>
      <trkpt lat="48.39468" lon="7.27697">
        <ele>1055.0539550781</ele>
        <time>2020-05-21T10:26:16Z</time>
      </trkpt>
      <trkpt lat="48.39473" lon="7.27704">
        <ele>1051.0539550781</ele>
        <time>2020-05-21T10:26:21Z</time>
      </trkpt>
      <trkpt lat="48.39473" lon="7.27715">
        <ele>1047.0539550781</ele>
        <time>2020-05-21T10:26:27Z</time>
      </trkpt>
      <trkpt lat="48.39475" lon="7.27724">
        <ele>1038.0539550781</ele>
        <time>2020-05-21T10:26:37Z</time>
      </trkpt>
      <trkpt lat="48.39476" lon="7.27736">
        <ele>1036.0539550781</ele>
        <time>2020-05-21T10:26:50Z</time>
      </trkpt>
      <trkpt lat="48.39481" lon="7.27747">
        <ele>1037.0539550781</ele>
        <time>2020-05-21T10:26:55Z</time>
      </trkpt>
      <trkpt lat="48.3948" lon="7.27758">
        <ele>1038.0539550781</ele>
        <time>2020-05-21T10:27:00Z</time>
      </trkpt>
      <trkpt lat="48.3948" lon="7.2777">
        <ele>1039.0539550781</ele>
        <time>2020-05-21T10:27:05Z</time>
      </trkpt>
      <trkpt lat="48.39484" lon="7.2778">
        <ele>1041.0539550781</ele>
        <time>2020-05-21T10:27:10Z</time>
      </trkpt>
      <trkpt lat="48.39482" lon="7.27789">
        <ele>1038.0539550781</ele>
        <time>2020-05-21T10:27:16Z</time>
      </trkpt>
      <trkpt lat="48.39481" lon="7.27799">
        <ele>1037.0539550781</ele>
        <time>2020-05-21T10:27:21Z</time>
      </trkpt>
      <trkpt lat="48.39482" lon="7.27809">
        <ele>1031.0539550781</ele>
        <time>2020-05-21T10:27:30Z</time>
      </trkpt>
      <trkpt lat="48.39483" lon="7.27819">
        <ele>1029.0539550781</ele>
        <time>2020-05-21T10:27:36Z</time>
      </trkpt>
      <trkpt lat="48.39484" lon="7.27829">
        <ele>1029.0539550781</ele>
        <time>2020-05-21T10:27:41Z</time>
      </trkpt>
      <trkpt lat="48.39488" lon="7.27838">
        <ele>1029.0539550781</ele>
        <time>2020-05-21T10:27:46Z</time>
      </trkpt>
      <trkpt lat="48.39491" lon="7.27847">
        <ele>1029.0539550781</ele>
        <time>2020-05-21T10:27:52Z</time>
      </trkpt>
      <trkpt lat="48.3949" lon="7.27858">
        <ele>1026.0539550781</ele>
        <time>2020-05-21T10:27:59Z</time>
      </trkpt>
      <trkpt lat="48.39493" lon="7.27867">
        <ele>1026.0539550781</ele>
        <time>2020-05-21T10:28:05Z</time>
      </trkpt>
      <trkpt lat="48.39495" lon="7.27876">
        <ele>1025.0539550781</ele>
        <time>2020-05-21T10:28:12Z</time>
      </trkpt>
      <trkpt lat="48.39497" lon="7.27886">
        <ele>1023.0540161133</ele>
        <time>2020-05-21T10:28:19Z</time>
      </trkpt>
      <trkpt lat="48.39498" lon="7.27897">
        <ele>1020.0540161133</ele>
        <time>2020-05-21T10:28:27Z</time>
      </trkpt>
      <trkpt lat="48.39497" lon="7.27908">
        <ele>1016.0540161133</ele>
        <time>2020-05-21T10:28:40Z</time>
      </trkpt>
      <trkpt lat="48.395" lon="7.27919">
        <ele>1013.0540161133</ele>
        <time>2020-05-21T10:28:50Z</time>
      </trkpt>
      <trkpt lat="48.395" lon="7.27931">
        <ele>1011.0540161133</ele>
        <time>2020-05-21T10:28:58Z</time>
      </trkpt>
      <trkpt lat="48.39503" lon="7.27942">
        <ele>1014.0540161133</ele>
        <time>2020-05-21T10:29:04Z</time>
      </trkpt>
      <trkpt lat="48.39506" lon="7.27951">
        <ele>1013.0540161133</ele>
        <time>2020-05-21T10:29:10Z</time>
      </trkpt>
      <trkpt lat="48.39507" lon="7.27961">
        <ele>1014.0540161133</ele>
        <time>2020-05-21T10:29:17Z</time>
      </trkpt>
      <trkpt lat="48.39503" lon="7.2797">
        <ele>1013.0540161133</ele>
        <time>2020-05-21T10:29:22Z</time>
      </trkpt>
      <trkpt lat="48.395" lon="7.2798">
        <ele>1014.0540161133</ele>
        <time>2020-05-21T10:29:30Z</time>
      </trkpt>
      <trkpt lat="48.39497" lon="7.27989">
        <ele>1013.0540161133</ele>
        <time>2020-05-21T10:29:35Z</time>
      </trkpt>
      <trkpt lat="48.39493" lon="7.27998">
        <ele>1010.0540161133</ele>
        <time>2020-05-21T10:29:42Z</time>
      </trkpt>
      <trkpt lat="48.39495" lon="7.28009">
        <ele>1013.0540161133</ele>
        <time>2020-05-21T10:30:05Z</time>
      </trkpt>
      <trkpt lat="48.3949" lon="7.28016">
        <ele>1009.0540161133</ele>
        <time>2020-05-21T10:30:12Z</time>
      </trkpt>
      <trkpt lat="48.39494" lon="7.28009">
        <ele>1012.0540161133</ele>
        <time>2020-05-21T10:31:53Z</time>
      </trkpt>
      <trkpt lat="48.39487" lon="7.28005">
        <ele>1014.0540161133</ele>
        <time>2020-05-21T10:31:58Z</time>
      </trkpt>
      <trkpt lat="48.39476" lon="7.28008">
        <ele>1017.0540161133</ele>
        <time>2020-05-21T10:32:03Z</time>
      </trkpt>
      <trkpt lat="48.39476" lon="7.28019">
        <ele>1015.0540161133</ele>
        <time>2020-05-21T10:32:08Z</time>
      </trkpt>
      <trkpt lat="48.39473" lon="7.2803">
        <ele>1013.0540161133</ele>
        <time>2020-05-21T10:32:14Z</time>
      </trkpt>
      <trkpt lat="48.39468" lon="7.28037">
        <ele>1012.0540161133</ele>
        <time>2020-05-21T10:32:19Z</time>
      </trkpt>
      <trkpt lat="48.39464" lon="7.28045">
        <ele>1012.0540161133</ele>
        <time>2020-05-21T10:32:25Z</time>
      </trkpt>
      <trkpt lat="48.3946" lon="7.28056">
        <ele>1014.0540161133</ele>
        <time>2020-05-21T10:32:33Z</time>
      </trkpt>
      <trkpt lat="48.39458" lon="7.28066">
        <ele>1011.0540161133</ele>
        <time>2020-05-21T10:32:39Z</time>
      </trkpt>
      <trkpt lat="48.39454" lon="7.28075">
        <ele>1013.0540161133</ele>
        <time>2020-05-21T10:32:45Z</time>
      </trkpt>
      <trkpt lat="48.3945" lon="7.28083">
        <ele>1007.0540161133</ele>
        <time>2020-05-21T10:32:51Z</time>
      </trkpt>
      <trkpt lat="48.39447" lon="7.28091">
        <ele>1008.0540161133</ele>
        <time>2020-05-21T10:32:56Z</time>
      </trkpt>
      <trkpt lat="48.39443" lon="7.28101">
        <ele>1009.0540161133</ele>
        <time>2020-05-21T10:33:02Z</time>
      </trkpt>
      <trkpt lat="48.39439" lon="7.2811">
        <ele>1008.0540161133</ele>
        <time>2020-05-21T10:33:07Z</time>
      </trkpt>
      <trkpt lat="48.39434" lon="7.28117">
        <ele>1008.0540161133</ele>
        <time>2020-05-21T10:33:14Z</time>
      </trkpt>
      <trkpt lat="48.39431" lon="7.28126">
        <ele>1002.0540161133</ele>
        <time>2020-05-21T10:33:29Z</time>
      </trkpt>
      <trkpt lat="48.39429" lon="7.28135">
        <ele>999.05401611328</ele>
        <time>2020-05-21T10:33:34Z</time>
      </trkpt>
      <trkpt lat="48.39426" lon="7.28144">
        <ele>996.05401611328</ele>
        <time>2020-05-21T10:33:49Z</time>
      </trkpt>
      <trkpt lat="48.39425" lon="7.28156">
        <ele>994.05401611328</ele>
        <time>2020-05-21T10:34:20Z</time>
      </trkpt>
      <trkpt lat="48.39421" lon="7.28164">
        <ele>994.05401611328</ele>
        <time>2020-05-21T10:34:26Z</time>
      </trkpt>
      <trkpt lat="48.39414" lon="7.28174">
        <ele>993.05401611328</ele>
        <time>2020-05-21T10:34:31Z</time>
      </trkpt>
      <trkpt lat="48.39406" lon="7.28182">
        <ele>991.05401611328</ele>
        <time>2020-05-21T10:34:36Z</time>
      </trkpt>
      <trkpt lat="48.39399" lon="7.28184">
        <ele>990.05401611328</ele>
        <time>2020-05-21T10:34:44Z</time>
      </trkpt>
      <trkpt lat="48.39393" lon="7.28193">
        <ele>988.05401611328</ele>
        <time>2020-05-21T10:34:49Z</time>
      </trkpt>
      <trkpt lat="48.39392" lon="7.28204">
        <ele>987.05401611328</ele>
        <time>2020-05-21T10:34:56Z</time>
      </trkpt>
      <trkpt lat="48.39387" lon="7.28211">
        <ele>986.05401611328</ele>
        <time>2020-05-21T10:35:02Z</time>
      </trkpt>
      <trkpt lat="48.39384" lon="7.2822">
        <ele>987.05401611328</ele>
        <time>2020-05-21T10:35:09Z</time>
      </trkpt>
      <trkpt lat="48.39378" lon="7.28225">
        <ele>985.05401611328</ele>
        <time>2020-05-21T10:35:19Z</time>
      </trkpt>
      <trkpt lat="48.39383" lon="7.28218">
        <ele>981.05401611328</ele>
        <time>2020-05-21T10:35:42Z</time>
      </trkpt>
      <trkpt lat="48.39387" lon="7.28211">
        <ele>984.05401611328</ele>
        <time>2020-05-21T10:35:47Z</time>
      </trkpt>
      <trkpt lat="48.39387" lon="7.28201">
        <ele>983.05401611328</ele>
        <time>2020-05-21T10:35:59Z</time>
      </trkpt>
      <trkpt lat="48.39389" lon="7.28191">
        <ele>984.05401611328</ele>
        <time>2020-05-21T10:36:04Z</time>
      </trkpt>
      <trkpt lat="48.39396" lon="7.28187">
        <ele>985.05401611328</ele>
        <time>2020-05-21T10:36:10Z</time>
      </trkpt>
      <trkpt lat="48.39402" lon="7.28181">
        <ele>984.05401611328</ele>
        <time>2020-05-21T10:36:16Z</time>
      </trkpt>
      <trkpt lat="48.39406" lon="7.28173">
        <ele>984.05401611328</ele>
        <time>2020-05-21T10:36:23Z</time>
      </trkpt>
      <trkpt lat="48.39413" lon="7.28168">
        <ele>987.05401611328</ele>
        <time>2020-05-21T10:36:29Z</time>
      </trkpt>
      <trkpt lat="48.39419" lon="7.28162">
        <ele>986.05401611328</ele>
        <time>2020-05-21T10:36:38Z</time>
      </trkpt>
      <trkpt lat="48.3942" lon="7.28172">
        <ele>990.05401611328</ele>
        <time>2020-05-21T10:36:47Z</time>
      </trkpt>
      <trkpt lat="48.39423" lon="7.28182">
        <ele>986.05401611328</ele>
        <time>2020-05-21T10:36:54Z</time>
      </trkpt>
      <trkpt lat="48.39429" lon="7.28187">
        <ele>987.05401611328</ele>
        <time>2020-05-21T10:37:02Z</time>
      </trkpt>
      <trkpt lat="48.39429" lon="7.28197">
        <ele>984.05401611328</ele>
        <time>2020-05-21T10:37:10Z</time>
      </trkpt>
      <trkpt lat="48.39429" lon="7.28208">
        <ele>987.05401611328</ele>
        <time>2020-05-21T10:37:17Z</time>
      </trkpt>
      <trkpt lat="48.39435" lon="7.28214">
        <ele>987.05401611328</ele>
        <time>2020-05-21T10:37:23Z</time>
      </trkpt>
      <trkpt lat="48.39438" lon="7.28224">
        <ele>986.05401611328</ele>
        <time>2020-05-21T10:37:29Z</time>
      </trkpt>
      <trkpt lat="48.39443" lon="7.28233">
        <ele>985.05401611328</ele>
        <time>2020-05-21T10:37:34Z</time>
      </trkpt>
      <trkpt lat="48.3945" lon="7.28242">
        <ele>985.05401611328</ele>
        <time>2020-05-21T10:37:39Z</time>
      </trkpt>
      <trkpt lat="48.39455" lon="7.28249">
        <ele>984.05401611328</ele>
        <time>2020-05-21T10:37:45Z</time>
      </trkpt>
      <trkpt lat="48.3946" lon="7.28255">
        <ele>980.05401611328</ele>
        <time>2020-05-21T10:37:52Z</time>
      </trkpt>
      <trkpt lat="48.39466" lon="7.2826">
        <ele>979.05401611328</ele>
        <time>2020-05-21T10:37:57Z</time>
      </trkpt>
      <trkpt lat="48.39471" lon="7.28267">
        <ele>977.05401611328</ele>
        <time>2020-05-21T10:38:02Z</time>
      </trkpt>
      <trkpt lat="48.39476" lon="7.28274">
        <ele>978.05401611328</ele>
        <time>2020-05-21T10:38:07Z</time>
      </trkpt>
      <trkpt lat="48.39481" lon="7.28281">
        <ele>979.05401611328</ele>
        <time>2020-05-21T10:38:13Z</time>
      </trkpt>
      <trkpt lat="48.39488" lon="7.28288">
        <ele>979.05401611328</ele>
        <time>2020-05-21T10:38:20Z</time>
      </trkpt>
      <trkpt lat="48.39495" lon="7.28293">
        <ele>978.05401611328</ele>
        <time>2020-05-21T10:38:25Z</time>
      </trkpt>
      <trkpt lat="48.395" lon="7.283">
        <ele>978.05401611328</ele>
        <time>2020-05-21T10:38:30Z</time>
      </trkpt>
      <trkpt lat="48.39506" lon="7.28307">
        <ele>979.05401611328</ele>
        <time>2020-05-21T10:38:35Z</time>
      </trkpt>
      <trkpt lat="48.39513" lon="7.28312">
        <ele>979.05401611328</ele>
        <time>2020-05-21T10:38:42Z</time>
      </trkpt>
      <trkpt lat="48.39518" lon="7.28318">
        <ele>971.05401611328</ele>
        <time>2020-05-21T10:38:52Z</time>
      </trkpt>
      <trkpt lat="48.39524" lon="7.28324">
        <ele>970.05401611328</ele>
        <time>2020-05-21T10:39:02Z</time>
      </trkpt>
      <trkpt lat="48.39529" lon="7.28333">
        <ele>967.05401611328</ele>
        <time>2020-05-21T10:39:10Z</time>
      </trkpt>
      <trkpt lat="48.39535" lon="7.28341">
        <ele>971.05401611328</ele>
        <time>2020-05-21T10:39:16Z</time>
      </trkpt>
      <trkpt lat="48.3954" lon="7.28346">
        <ele>970.05401611328</ele>
        <time>2020-05-21T10:39:21Z</time>
      </trkpt>
      <trkpt lat="48.39548" lon="7.2835">
        <ele>970.05401611328</ele>
        <time>2020-05-21T10:39:26Z</time>
      </trkpt>
      <trkpt lat="48.39549" lon="7.28361">
        <ele>969.05401611328</ele>
        <time>2020-05-21T10:39:31Z</time>
      </trkpt>
      <trkpt lat="48.3955" lon="7.28371">
        <ele>969.05401611328</ele>
        <time>2020-05-21T10:39:37Z</time>
      </trkpt>
      <trkpt lat="48.3955" lon="7.28382">
        <ele>967.05401611328</ele>
        <time>2020-05-21T10:39:45Z</time>
      </trkpt>
      <trkpt lat="48.39552" lon="7.28393">
        <ele>969.05401611328</ele>
        <time>2020-05-21T10:39:50Z</time>
      </trkpt>
      <trkpt lat="48.39557" lon="7.284">
        <ele>972.05401611328</ele>
        <time>2020-05-21T10:39:55Z</time>
      </trkpt>
      <trkpt lat="48.39555" lon="7.2841">
        <ele>971.05401611328</ele>
        <time>2020-05-21T10:40:02Z</time>
      </trkpt>
      <trkpt lat="48.39553" lon="7.2842">
        <ele>973.05401611328</ele>
        <time>2020-05-21T10:40:08Z</time>
      </trkpt>
      <trkpt lat="48.39555" lon="7.2843">
        <ele>966.05401611328</ele>
        <time>2020-05-21T10:40:16Z</time>
      </trkpt>
      <trkpt lat="48.39557" lon="7.28441">
        <ele>965.05401611328</ele>
        <time>2020-05-21T10:40:22Z</time>
      </trkpt>
      <trkpt lat="48.39559" lon="7.28453">
        <ele>965.05401611328</ele>
        <time>2020-05-21T10:40:27Z</time>
      </trkpt>
      <trkpt lat="48.39563" lon="7.28462">
        <ele>964.05401611328</ele>
        <time>2020-05-21T10:40:34Z</time>
      </trkpt>
      <trkpt lat="48.39567" lon="7.28473">
        <ele>960.05401611328</ele>
        <time>2020-05-21T10:40:44Z</time>
      </trkpt>
      <trkpt lat="48.39569" lon="7.28485">
        <ele>957.05401611328</ele>
        <time>2020-05-21T10:40:50Z</time>
      </trkpt>
      <trkpt lat="48.39574" lon="7.28493">
        <ele>956.05401611328</ele>
        <time>2020-05-21T10:40:58Z</time>
      </trkpt>
      <trkpt lat="48.39579" lon="7.28502">
        <ele>954.05401611328</ele>
        <time>2020-05-21T10:41:06Z</time>
      </trkpt>
      <trkpt lat="48.39578" lon="7.28512">
        <ele>955.05401611328</ele>
        <time>2020-05-21T10:41:14Z</time>
      </trkpt>
      <trkpt lat="48.39581" lon="7.28521">
        <ele>956.05401611328</ele>
        <time>2020-05-21T10:41:20Z</time>
      </trkpt>
      <trkpt lat="48.39581" lon="7.28531">
        <ele>953.05401611328</ele>
        <time>2020-05-21T10:41:26Z</time>
      </trkpt>
      <trkpt lat="48.39582" lon="7.28542">
        <ele>952.05401611328</ele>
        <time>2020-05-21T10:41:36Z</time>
      </trkpt>
      <trkpt lat="48.39588" lon="7.2855">
        <ele>953.05401611328</ele>
        <time>2020-05-21T10:41:44Z</time>
      </trkpt>
      <trkpt lat="48.39589" lon="7.2856">
        <ele>954.05401611328</ele>
        <time>2020-05-21T10:41:50Z</time>
      </trkpt>
      <trkpt lat="48.39592" lon="7.28571">
        <ele>952.05401611328</ele>
        <time>2020-05-21T10:41:58Z</time>
      </trkpt>
      <trkpt lat="48.39593" lon="7.28582">
        <ele>942.05401611328</ele>
        <time>2020-05-21T10:42:06Z</time>
      </trkpt>
      <trkpt lat="48.39594" lon="7.28593">
        <ele>941.05401611328</ele>
        <time>2020-05-21T10:42:13Z</time>
      </trkpt>
      <trkpt lat="48.39601" lon="7.28599">
        <ele>943.05401611328</ele>
        <time>2020-05-21T10:42:25Z</time>
      </trkpt>
      <trkpt lat="48.39605" lon="7.28607">
        <ele>942.05401611328</ele>
        <time>2020-05-21T10:42:30Z</time>
      </trkpt>
      <trkpt lat="48.39606" lon="7.28617">
        <ele>942.05401611328</ele>
        <time>2020-05-21T10:42:37Z</time>
      </trkpt>
      <trkpt lat="48.3961" lon="7.28627">
        <ele>945.05401611328</ele>
        <time>2020-05-21T10:42:45Z</time>
      </trkpt>
      <trkpt lat="48.39618" lon="7.28635">
        <ele>942.05401611328</ele>
        <time>2020-05-21T10:42:52Z</time>
      </trkpt>
      <trkpt lat="48.3962" lon="7.28645">
        <ele>936.05401611328</ele>
        <time>2020-05-21T10:42:59Z</time>
      </trkpt>
      <trkpt lat="48.39626" lon="7.2865">
        <ele>936.05401611328</ele>
        <time>2020-05-21T10:43:06Z</time>
      </trkpt>
      <trkpt lat="48.39627" lon="7.28661">
        <ele>935.05401611328</ele>
        <time>2020-05-21T10:43:14Z</time>
      </trkpt>
      <trkpt lat="48.39628" lon="7.28671">
        <ele>924.05401611328</ele>
        <time>2020-05-21T10:43:34Z</time>
      </trkpt>
      <trkpt lat="48.39632" lon="7.2868">
        <ele>919.05401611328</ele>
        <time>2020-05-21T10:43:40Z</time>
      </trkpt>
      <trkpt lat="48.39635" lon="7.2869">
        <ele>913.05401611328</ele>
        <time>2020-05-21T10:44:02Z</time>
      </trkpt>
      <trkpt lat="48.39642" lon="7.28698">
        <ele>910.05401611328</ele>
        <time>2020-05-21T10:44:07Z</time>
      </trkpt>
      <trkpt lat="48.39645" lon="7.28709">
        <ele>908.05401611328</ele>
        <time>2020-05-21T10:44:13Z</time>
      </trkpt>
      <trkpt lat="48.39648" lon="7.28718">
        <ele>908.05401611328</ele>
        <time>2020-05-21T10:44:20Z</time>
      </trkpt>
      <trkpt lat="48.39652" lon="7.28726">
        <ele>902.05401611328</ele>
        <time>2020-05-21T10:44:28Z</time>
      </trkpt>
      <trkpt lat="48.39657" lon="7.28735">
        <ele>903.05401611328</ele>
        <time>2020-05-21T10:44:36Z</time>
      </trkpt>
      <trkpt lat="48.39659" lon="7.28744">
        <ele>898.05401611328</ele>
        <time>2020-05-21T10:44:45Z</time>
      </trkpt>
      <trkpt lat="48.39657" lon="7.28753">
        <ele>895.05401611328</ele>
        <time>2020-05-21T10:44:55Z</time>
      </trkpt>
      <trkpt lat="48.39655" lon="7.28754">
        <ele>892.05401611328</ele>
        <time>2020-05-21T10:45:03Z</time>
      </trkpt>
      <trkpt lat="48.39653" lon="7.28764">
        <ele>888.05401611328</ele>
        <time>2020-05-21T10:45:21Z</time>
      </trkpt>
      <trkpt lat="48.39652" lon="7.28774">
        <ele>887.05401611328</ele>
        <time>2020-05-21T10:45:26Z</time>
      </trkpt>
      <trkpt lat="48.39655" lon="7.28785">
        <ele>889.05401611328</ele>
        <time>2020-05-21T10:45:31Z</time>
      </trkpt>
      <trkpt lat="48.39656" lon="7.28796">
        <ele>889.05401611328</ele>
        <time>2020-05-21T10:45:38Z</time>
      </trkpt>
      <trkpt lat="48.39659" lon="7.28804">
        <ele>891.05401611328</ele>
        <time>2020-05-21T10:45:44Z</time>
      </trkpt>
      <trkpt lat="48.39659" lon="7.28815">
        <ele>892.05401611328</ele>
        <time>2020-05-21T10:45:49Z</time>
      </trkpt>
      <trkpt lat="48.3966" lon="7.28825">
        <ele>886.05401611328</ele>
        <time>2020-05-21T10:45:57Z</time>
      </trkpt>
      <trkpt lat="48.39663" lon="7.28833">
        <ele>882.05401611328</ele>
        <time>2020-05-21T10:46:03Z</time>
      </trkpt>
      <trkpt lat="48.39663" lon="7.28844">
        <ele>881.05401611328</ele>
        <time>2020-05-21T10:46:10Z</time>
      </trkpt>
      <trkpt lat="48.3966" lon="7.28853">
        <ele>883.05401611328</ele>
        <time>2020-05-21T10:46:16Z</time>
      </trkpt>
      <trkpt lat="48.39651" lon="7.28858">
        <ele>885.05401611328</ele>
        <time>2020-05-21T10:46:21Z</time>
      </trkpt>
      <trkpt lat="48.39646" lon="7.28866">
        <ele>890.05401611328</ele>
        <time>2020-05-21T10:46:26Z</time>
      </trkpt>
      <trkpt lat="48.39643" lon="7.28875">
        <ele>894.05401611328</ele>
        <time>2020-05-21T10:46:32Z</time>
      </trkpt>
      <trkpt lat="48.39645" lon="7.28886">
        <ele>896.05401611328</ele>
        <time>2020-05-21T10:46:38Z</time>
      </trkpt>
      <trkpt lat="48.39642" lon="7.28895">
        <ele>899.05401611328</ele>
        <time>2020-05-21T10:46:43Z</time>
      </trkpt>
      <trkpt lat="48.39641" lon="7.28905">
        <ele>898.05401611328</ele>
        <time>2020-05-21T10:46:48Z</time>
      </trkpt>
      <trkpt lat="48.3964" lon="7.28916">
        <ele>896.05401611328</ele>
        <time>2020-05-21T10:46:55Z</time>
      </trkpt>
      <trkpt lat="48.39644" lon="7.28924">
        <ele>892.05401611328</ele>
        <time>2020-05-21T10:47:00Z</time>
      </trkpt>
      <trkpt lat="48.39649" lon="7.28934">
        <ele>891.05401611328</ele>
        <time>2020-05-21T10:47:05Z</time>
      </trkpt>
      <trkpt lat="48.39647" lon="7.28945">
        <ele>894.05401611328</ele>
        <time>2020-05-21T10:47:11Z</time>
      </trkpt>
      <trkpt lat="48.39646" lon="7.28956">
        <ele>894.05401611328</ele>
        <time>2020-05-21T10:47:16Z</time>
      </trkpt>
      <trkpt lat="48.39646" lon="7.28968">
        <ele>894.05401611328</ele>
        <time>2020-05-21T10:47:22Z</time>
      </trkpt>
      <trkpt lat="48.39644" lon="7.28978">
        <ele>894.05401611328</ele>
        <time>2020-05-21T10:47:29Z</time>
      </trkpt>
      <trkpt lat="48.39646" lon="7.28989">
        <ele>892.05401611328</ele>
        <time>2020-05-21T10:47:34Z</time>
      </trkpt>
      <trkpt lat="48.39646" lon="7.29">
        <ele>890.05401611328</ele>
        <time>2020-05-21T10:47:39Z</time>
      </trkpt>
      <trkpt lat="48.39649" lon="7.29009">
        <ele>892.05401611328</ele>
        <time>2020-05-21T10:47:45Z</time>
      </trkpt>
      <trkpt lat="48.39651" lon="7.29018">
        <ele>894.05401611328</ele>
        <time>2020-05-21T10:48:02Z</time>
      </trkpt>
      <trkpt lat="48.39652" lon="7.2903">
        <ele>894.05401611328</ele>
        <time>2020-05-21T10:48:07Z</time>
      </trkpt>
      <trkpt lat="48.39654" lon="7.2904">
        <ele>892.05401611328</ele>
        <time>2020-05-21T10:48:14Z</time>
      </trkpt>
      <trkpt lat="48.39653" lon="7.29051">
        <ele>892.05401611328</ele>
        <time>2020-05-21T10:48:19Z</time>
      </trkpt>
      <trkpt lat="48.39655" lon="7.29062">
        <ele>893.05401611328</ele>
        <time>2020-05-21T10:48:25Z</time>
      </trkpt>
      <trkpt lat="48.39658" lon="7.29071">
        <ele>895.05401611328</ele>
        <time>2020-05-21T10:48:30Z</time>
      </trkpt>
      <trkpt lat="48.39659" lon="7.29082">
        <ele>893.05401611328</ele>
        <time>2020-05-21T10:48:35Z</time>
      </trkpt>
      <trkpt lat="48.39664" lon="7.29089">
        <ele>893.05401611328</ele>
        <time>2020-05-21T10:48:40Z</time>
      </trkpt>
      <trkpt lat="48.39669" lon="7.29098">
        <ele>893.05401611328</ele>
        <time>2020-05-21T10:48:45Z</time>
      </trkpt>
      <trkpt lat="48.3967" lon="7.29108">
        <ele>898.05401611328</ele>
        <time>2020-05-21T10:48:51Z</time>
      </trkpt>
      <trkpt lat="48.39672" lon="7.29118">
        <ele>898.05401611328</ele>
        <time>2020-05-21T10:48:56Z</time>
      </trkpt>
      <trkpt lat="48.39674" lon="7.29128">
        <ele>900.05401611328</ele>
        <time>2020-05-21T10:49:01Z</time>
      </trkpt>
      <trkpt lat="48.3968" lon="7.29137">
        <ele>898.05401611328</ele>
        <time>2020-05-21T10:49:06Z</time>
      </trkpt>
      <trkpt lat="48.39683" lon="7.29148">
        <ele>898.05401611328</ele>
        <time>2020-05-21T10:49:11Z</time>
      </trkpt>
      <trkpt lat="48.3969" lon="7.29158">
        <ele>899.05401611328</ele>
        <time>2020-05-21T10:49:16Z</time>
      </trkpt>
      <trkpt lat="48.39694" lon="7.29167">
        <ele>900.05401611328</ele>
        <time>2020-05-21T10:49:21Z</time>
      </trkpt>
      <trkpt lat="48.397" lon="7.29174">
        <ele>898.05401611328</ele>
        <time>2020-05-21T10:49:26Z</time>
      </trkpt>
      <trkpt lat="48.39701" lon="7.29185">
        <ele>896.05401611328</ele>
        <time>2020-05-21T10:49:37Z</time>
      </trkpt>
      <trkpt lat="48.39706" lon="7.29198">
        <ele>892.05401611328</ele>
        <time>2020-05-21T10:49:42Z</time>
      </trkpt>
      <trkpt lat="48.39708" lon="7.29209">
        <ele>888.05401611328</ele>
        <time>2020-05-21T10:49:48Z</time>
      </trkpt>
      <trkpt lat="48.39711" lon="7.29218">
        <ele>888.05401611328</ele>
        <time>2020-05-21T10:49:53Z</time>
      </trkpt>
      <trkpt lat="48.39715" lon="7.29228">
        <ele>887.05401611328</ele>
        <time>2020-05-21T10:49:58Z</time>
      </trkpt>
      <trkpt lat="48.39717" lon="7.29237">
        <ele>886.05401611328</ele>
        <time>2020-05-21T10:50:04Z</time>
      </trkpt>
      <trkpt lat="48.3972" lon="7.29246">
        <ele>885.05401611328</ele>
        <time>2020-05-21T10:50:09Z</time>
      </trkpt>
      <trkpt lat="48.39723" lon="7.29256">
        <ele>885.05401611328</ele>
        <time>2020-05-21T10:50:15Z</time>
      </trkpt>
      <trkpt lat="48.39728" lon="7.29264">
        <ele>884.05401611328</ele>
        <time>2020-05-21T10:50:20Z</time>
      </trkpt>
      <trkpt lat="48.39733" lon="7.29273">
        <ele>886.05401611328</ele>
        <time>2020-05-21T10:50:25Z</time>
      </trkpt>
      <trkpt lat="48.39736" lon="7.29284">
        <ele>891.05401611328</ele>
        <time>2020-05-21T10:50:33Z</time>
      </trkpt>
      <trkpt lat="48.39741" lon="7.29292">
        <ele>891.05401611328</ele>
        <time>2020-05-21T10:50:38Z</time>
      </trkpt>
      <trkpt lat="48.39742" lon="7.29303">
        <ele>890.05401611328</ele>
        <time>2020-05-21T10:50:44Z</time>
      </trkpt>
      <trkpt lat="48.39749" lon="7.29315">
        <ele>889.05401611328</ele>
        <time>2020-05-21T10:50:49Z</time>
      </trkpt>
      <trkpt lat="48.39753" lon="7.29323">
        <ele>890.05401611328</ele>
        <time>2020-05-21T10:50:55Z</time>
      </trkpt>
      <trkpt lat="48.39759" lon="7.29329">
        <ele>889.05401611328</ele>
        <time>2020-05-21T10:51:00Z</time>
      </trkpt>
      <trkpt lat="48.39764" lon="7.29336">
        <ele>888.05401611328</ele>
        <time>2020-05-21T10:51:05Z</time>
      </trkpt>
      <trkpt lat="48.39775" lon="7.29346">
        <ele>890.05401611328</ele>
        <time>2020-05-21T10:51:10Z</time>
      </trkpt>
      <trkpt lat="48.39783" lon="7.29355">
        <ele>890.05401611328</ele>
        <time>2020-05-21T10:51:15Z</time>
      </trkpt>
      <trkpt lat="48.39789" lon="7.29364">
        <ele>888.05401611328</ele>
        <time>2020-05-21T10:51:20Z</time>
      </trkpt>
      <trkpt lat="48.39797" lon="7.29373">
        <ele>886.05401611328</ele>
        <time>2020-05-21T10:51:25Z</time>
      </trkpt>
      <trkpt lat="48.39803" lon="7.29379">
        <ele>883.05401611328</ele>
        <time>2020-05-21T10:51:32Z</time>
      </trkpt>
      <trkpt lat="48.39808" lon="7.29387">
        <ele>884.05401611328</ele>
        <time>2020-05-21T10:51:40Z</time>
      </trkpt>
      <trkpt lat="48.39812" lon="7.29397">
        <ele>883.05401611328</ele>
        <time>2020-05-21T10:51:46Z</time>
      </trkpt>
      <trkpt lat="48.39815" lon="7.29405">
        <ele>883.05401611328</ele>
        <time>2020-05-21T10:52:02Z</time>
      </trkpt>
      <trkpt lat="48.3982" lon="7.29413">
        <ele>881.05401611328</ele>
        <time>2020-05-21T10:52:07Z</time>
      </trkpt>
      <trkpt lat="48.39825" lon="7.2942">
        <ele>875.05401611328</ele>
        <time>2020-05-21T10:52:13Z</time>
      </trkpt>
      <trkpt lat="48.39827" lon="7.2943">
        <ele>873.05401611328</ele>
        <time>2020-05-21T10:52:23Z</time>
      </trkpt>
      <trkpt lat="48.39832" lon="7.29437">
        <ele>872.05401611328</ele>
        <time>2020-05-21T10:52:31Z</time>
      </trkpt>
      <trkpt lat="48.39836" lon="7.29445">
        <ele>871.05401611328</ele>
        <time>2020-05-21T10:52:37Z</time>
      </trkpt>
      <trkpt lat="48.39838" lon="7.29455">
        <ele>869.05401611328</ele>
        <time>2020-05-21T10:52:44Z</time>
      </trkpt>
      <trkpt lat="48.39841" lon="7.29464">
        <ele>869.05401611328</ele>
        <time>2020-05-21T10:52:49Z</time>
      </trkpt>
      <trkpt lat="48.39845" lon="7.29472">
        <ele>867.05401611328</ele>
        <time>2020-05-21T10:52:54Z</time>
      </trkpt>
      <trkpt lat="48.3985" lon="7.2948">
        <ele>865.05401611328</ele>
        <time>2020-05-21T10:53:00Z</time>
      </trkpt>
      <trkpt lat="48.39853" lon="7.29492">
        <ele>860.05401611328</ele>
        <time>2020-05-21T10:53:08Z</time>
      </trkpt>
      <trkpt lat="48.39857" lon="7.29504">
        <ele>859.05401611328</ele>
        <time>2020-05-21T10:53:13Z</time>
      </trkpt>
      <trkpt lat="48.39856" lon="7.29515">
        <ele>858.05401611328</ele>
        <time>2020-05-21T10:53:18Z</time>
      </trkpt>
      <trkpt lat="48.39857" lon="7.29525">
        <ele>857.05401611328</ele>
        <time>2020-05-21T10:53:31Z</time>
      </trkpt>
      <trkpt lat="48.39863" lon="7.29534">
        <ele>856.05401611328</ele>
        <time>2020-05-21T10:53:36Z</time>
      </trkpt>
      <trkpt lat="48.39866" lon="7.29543">
        <ele>856.05401611328</ele>
        <time>2020-05-21T10:53:42Z</time>
      </trkpt>
      <trkpt lat="48.39863" lon="7.29552">
        <ele>852.05401611328</ele>
        <time>2020-05-21T10:54:02Z</time>
      </trkpt>
      <trkpt lat="48.39866" lon="7.29562">
        <ele>851.05401611328</ele>
        <time>2020-05-21T10:54:08Z</time>
      </trkpt>
      <trkpt lat="48.39872" lon="7.29565">
        <ele>845.05401611328</ele>
        <time>2020-05-21T10:54:18Z</time>
      </trkpt>
      <trkpt lat="48.39873" lon="7.29575">
        <ele>843.05401611328</ele>
        <time>2020-05-21T10:54:46Z</time>
      </trkpt>
      <trkpt lat="48.39873" lon="7.29586">
        <ele>834.05401611328</ele>
        <time>2020-05-21T10:54:54Z</time>
      </trkpt>
      <trkpt lat="48.39874" lon="7.29596">
        <ele>834.05401611328</ele>
        <time>2020-05-21T10:54:59Z</time>
      </trkpt>
      <trkpt lat="48.39879" lon="7.29605">
        <ele>834.05401611328</ele>
        <time>2020-05-21T10:55:04Z</time>
      </trkpt>
      <trkpt lat="48.39881" lon="7.29615">
        <ele>836.05401611328</ele>
        <time>2020-05-21T10:55:10Z</time>
      </trkpt>
      <trkpt lat="48.39885" lon="7.29624">
        <ele>837.05401611328</ele>
        <time>2020-05-21T10:55:15Z</time>
      </trkpt>
      <trkpt lat="48.39892" lon="7.29633">
        <ele>839.05401611328</ele>
        <time>2020-05-21T10:55:20Z</time>
      </trkpt>
      <trkpt lat="48.39897" lon="7.29642">
        <ele>834.05401611328</ele>
        <time>2020-05-21T10:55:26Z</time>
      </trkpt>
      <trkpt lat="48.39901" lon="7.2965">
        <ele>833.05401611328</ele>
        <time>2020-05-21T10:55:32Z</time>
      </trkpt>
      <trkpt lat="48.39904" lon="7.2966">
        <ele>831.05401611328</ele>
        <time>2020-05-21T10:55:38Z</time>
      </trkpt>
      <trkpt lat="48.39907" lon="7.29669">
        <ele>827.05401611328</ele>
        <time>2020-05-21T10:55:45Z</time>
      </trkpt>
      <trkpt lat="48.39912" lon="7.29679">
        <ele>824.05401611328</ele>
        <time>2020-05-21T10:55:50Z</time>
      </trkpt>
      <trkpt lat="48.39916" lon="7.29687">
        <ele>824.05401611328</ele>
        <time>2020-05-21T10:55:58Z</time>
      </trkpt>
      <trkpt lat="48.3992" lon="7.29695">
        <ele>821.05401611328</ele>
        <time>2020-05-21T10:56:08Z</time>
      </trkpt>
      <trkpt lat="48.39918" lon="7.29705">
        <ele>821.05401611328</ele>
        <time>2020-05-21T10:56:15Z</time>
      </trkpt>
      <trkpt lat="48.39921" lon="7.29715">
        <ele>819.05401611328</ele>
        <time>2020-05-21T10:56:23Z</time>
      </trkpt>
      <trkpt lat="48.39925" lon="7.29722">
        <ele>815.05401611328</ele>
        <time>2020-05-21T10:56:29Z</time>
      </trkpt>
      <trkpt lat="48.39928" lon="7.29731">
        <ele>814.05401611328</ele>
        <time>2020-05-21T10:56:35Z</time>
      </trkpt>
      <trkpt lat="48.39931" lon="7.29741">
        <ele>811.05401611328</ele>
        <time>2020-05-21T10:56:43Z</time>
      </trkpt>
      <trkpt lat="48.39936" lon="7.29749">
        <ele>808.05401611328</ele>
        <time>2020-05-21T10:56:51Z</time>
      </trkpt>
      <trkpt lat="48.39933" lon="7.29759">
        <ele>809.05401611328</ele>
        <time>2020-05-21T10:56:58Z</time>
      </trkpt>
      <trkpt lat="48.39937" lon="7.29767">
        <ele>808.05401611328</ele>
        <time>2020-05-21T10:57:04Z</time>
      </trkpt>
      <trkpt lat="48.39939" lon="7.29777">
        <ele>806.05401611328</ele>
        <time>2020-05-21T10:57:11Z</time>
      </trkpt>
      <trkpt lat="48.39942" lon="7.29786">
        <ele>806.05401611328</ele>
        <time>2020-05-21T10:57:18Z</time>
      </trkpt>
      <trkpt lat="48.39945" lon="7.29796">
        <ele>803.05401611328</ele>
        <time>2020-05-21T10:57:27Z</time>
      </trkpt>
      <trkpt lat="48.3995" lon="7.29804">
        <ele>801.05401611328</ele>
        <time>2020-05-21T10:57:33Z</time>
      </trkpt>
      <trkpt lat="48.39956" lon="7.29808">
        <ele>800.05401611328</ele>
        <time>2020-05-21T10:57:38Z</time>
      </trkpt>
      <trkpt lat="48.39961" lon="7.29814">
        <ele>799.05401611328</ele>
        <time>2020-05-21T10:57:43Z</time>
      </trkpt>
      <trkpt lat="48.39967" lon="7.2982">
        <ele>796.05401611328</ele>
        <time>2020-05-21T10:57:52Z</time>
      </trkpt>
      <trkpt lat="48.39973" lon="7.29826">
        <ele>791.05401611328</ele>
        <time>2020-05-21T10:58:03Z</time>
      </trkpt>
      <trkpt lat="48.39979" lon="7.29832">
        <ele>791.05401611328</ele>
        <time>2020-05-21T10:58:10Z</time>
      </trkpt>
      <trkpt lat="48.3998" lon="7.29843">
        <ele>790.05401611328</ele>
        <time>2020-05-21T10:58:20Z</time>
      </trkpt>
      <trkpt lat="48.39985" lon="7.29851">
        <ele>787.05401611328</ele>
        <time>2020-05-21T10:58:31Z</time>
      </trkpt>
      <trkpt lat="48.39991" lon="7.29853">
        <ele>782.05401611328</ele>
        <time>2020-05-21T10:58:41Z</time>
      </trkpt>
      <trkpt lat="48.39996" lon="7.2986">
        <ele>780.05401611328</ele>
        <time>2020-05-21T10:58:50Z</time>
      </trkpt>
      <trkpt lat="48.40003" lon="7.29864">
        <ele>776.05401611328</ele>
        <time>2020-05-21T10:59:00Z</time>
      </trkpt>
      <trkpt lat="48.40007" lon="7.29873">
        <ele>774.05401611328</ele>
        <time>2020-05-21T10:59:11Z</time>
      </trkpt>
      <trkpt lat="48.40004" lon="7.29883">
        <ele>773.05401611328</ele>
        <time>2020-05-21T10:59:17Z</time>
      </trkpt>
      <trkpt lat="48.40001" lon="7.29893">
        <ele>774.05401611328</ele>
        <time>2020-05-21T10:59:23Z</time>
      </trkpt>
      <trkpt lat="48.39997" lon="7.29903">
        <ele>774.05401611328</ele>
        <time>2020-05-21T10:59:29Z</time>
      </trkpt>
      <trkpt lat="48.39992" lon="7.29912">
        <ele>774.05401611328</ele>
        <time>2020-05-21T10:59:34Z</time>
      </trkpt>
      <trkpt lat="48.39987" lon="7.2992">
        <ele>773.05401611328</ele>
        <time>2020-05-21T10:59:40Z</time>
      </trkpt>
      <trkpt lat="48.39987" lon="7.2993">
        <ele>772.05401611328</ele>
        <time>2020-05-21T10:59:46Z</time>
      </trkpt>
      <trkpt lat="48.39984" lon="7.29938">
        <ele>773.05401611328</ele>
        <time>2020-05-21T10:59:51Z</time>
      </trkpt>
      <trkpt lat="48.39984" lon="7.29948">
        <ele>767.05401611328</ele>
        <time>2020-05-21T11:00:01Z</time>
      </trkpt>
      <trkpt lat="48.39981" lon="7.29958">
        <ele>764.05401611328</ele>
        <time>2020-05-21T11:00:08Z</time>
      </trkpt>
      <trkpt lat="48.39978" lon="7.29966">
        <ele>760.05401611328</ele>
        <time>2020-05-21T11:00:14Z</time>
      </trkpt>
      <trkpt lat="48.39973" lon="7.29974">
        <ele>760.05401611328</ele>
        <time>2020-05-21T11:00:20Z</time>
      </trkpt>
      <trkpt lat="48.39979" lon="7.29975">
        <ele>763.05401611328</ele>
        <time>2020-05-21T11:00:35Z</time>
      </trkpt>
      <trkpt lat="48.39986" lon="7.29975">
        <ele>762.05401611328</ele>
        <time>2020-05-21T11:00:44Z</time>
      </trkpt>
      <trkpt lat="48.39994" lon="7.29974">
        <ele>760.05401611328</ele>
        <time>2020-05-21T11:00:54Z</time>
      </trkpt>
      <trkpt lat="48.40002" lon="7.29974">
        <ele>756.05401611328</ele>
        <time>2020-05-21T11:01:00Z</time>
      </trkpt>
      <trkpt lat="48.40009" lon="7.29978">
        <ele>754.05401611328</ele>
        <time>2020-05-21T11:01:07Z</time>
      </trkpt>
      <trkpt lat="48.40016" lon="7.29977">
        <ele>750.05401611328</ele>
        <time>2020-05-21T11:01:13Z</time>
      </trkpt>
      <trkpt lat="48.40021" lon="7.29971">
        <ele>750.05401611328</ele>
        <time>2020-05-21T11:01:21Z</time>
      </trkpt>
      <trkpt lat="48.40028" lon="7.29967">
        <ele>750.05401611328</ele>
        <time>2020-05-21T11:01:27Z</time>
      </trkpt>
      <trkpt lat="48.40033" lon="7.29959">
        <ele>752.05401611328</ele>
        <time>2020-05-21T11:01:37Z</time>
      </trkpt>
      <trkpt lat="48.40035" lon="7.29948">
        <ele>751.05401611328</ele>
        <time>2020-05-21T11:01:42Z</time>
      </trkpt>
      <trkpt lat="48.40041" lon="7.29942">
        <ele>749.05401611328</ele>
        <time>2020-05-21T11:01:58Z</time>
      </trkpt>
      <trkpt lat="48.40047" lon="7.29938">
        <ele>750.05401611328</ele>
        <time>2020-05-21T11:02:12Z</time>
      </trkpt>
      <trkpt lat="48.40054" lon="7.29937">
        <ele>752.05401611328</ele>
        <time>2020-05-21T11:02:18Z</time>
      </trkpt>
      <trkpt lat="48.40059" lon="7.29947">
        <ele>755.05401611328</ele>
        <time>2020-05-21T11:02:25Z</time>
      </trkpt>
      <trkpt lat="48.40056" lon="7.29957">
        <ele>751.05401611328</ele>
        <time>2020-05-21T11:02:38Z</time>
      </trkpt>
      <trkpt lat="48.40051" lon="7.29964">
        <ele>748.05401611328</ele>
        <time>2020-05-21T11:02:44Z</time>
      </trkpt>
      <trkpt lat="48.40045" lon="7.2997">
        <ele>746.05401611328</ele>
        <time>2020-05-21T11:02:50Z</time>
      </trkpt>
      <trkpt lat="48.40046" lon="7.29982">
        <ele>745.05401611328</ele>
        <time>2020-05-21T11:02:57Z</time>
      </trkpt>
      <trkpt lat="48.40045" lon="7.29992">
        <ele>746.05401611328</ele>
        <time>2020-05-21T11:03:05Z</time>
      </trkpt>
      <trkpt lat="48.40047" lon="7.30001">
        <ele>746.05401611328</ele>
        <time>2020-05-21T11:03:10Z</time>
      </trkpt>
      <trkpt lat="48.40045" lon="7.30011">
        <ele>743.05401611328</ele>
        <time>2020-05-21T11:03:18Z</time>
      </trkpt>
      <trkpt lat="48.40047" lon="7.30021">
        <ele>743.05401611328</ele>
        <time>2020-05-21T11:03:23Z</time>
      </trkpt>
      <trkpt lat="48.40044" lon="7.30031">
        <ele>743.05401611328</ele>
        <time>2020-05-21T11:03:29Z</time>
      </trkpt>
      <trkpt lat="48.40045" lon="7.3004">
        <ele>739.05401611328</ele>
        <time>2020-05-21T11:03:37Z</time>
      </trkpt>
      <trkpt lat="48.40044" lon="7.30052">
        <ele>741.05401611328</ele>
        <time>2020-05-21T11:03:44Z</time>
      </trkpt>
      <trkpt lat="48.4004" lon="7.30061">
        <ele>743.05401611328</ele>
        <time>2020-05-21T11:03:50Z</time>
      </trkpt>
      <trkpt lat="48.4004" lon="7.30071">
        <ele>742.05401611328</ele>
        <time>2020-05-21T11:03:55Z</time>
      </trkpt>
      <trkpt lat="48.40041" lon="7.30081">
        <ele>742.05401611328</ele>
        <time>2020-05-21T11:04:02Z</time>
      </trkpt>
      <trkpt lat="48.40047" lon="7.30087">
        <ele>736.05401611328</ele>
        <time>2020-05-21T11:04:08Z</time>
      </trkpt>
      <trkpt lat="48.40052" lon="7.30095">
        <ele>735.05401611328</ele>
        <time>2020-05-21T11:04:15Z</time>
      </trkpt>
      <trkpt lat="48.40051" lon="7.30105">
        <ele>731.05401611328</ele>
        <time>2020-05-21T11:04:33Z</time>
      </trkpt>
      <trkpt lat="48.40054" lon="7.30115">
        <ele>730.05401611328</ele>
        <time>2020-05-21T11:04:42Z</time>
      </trkpt>
      <trkpt lat="48.4005" lon="7.30124">
        <ele>734.05401611328</ele>
        <time>2020-05-21T11:04:47Z</time>
      </trkpt>
      <trkpt lat="48.40048" lon="7.30133">
        <ele>735.05401611328</ele>
        <time>2020-05-21T11:05:02Z</time>
      </trkpt>
      <trkpt lat="48.40053" lon="7.30139">
        <ele>727.05401611328</ele>
        <time>2020-05-21T11:05:43Z</time>
      </trkpt>
      <trkpt lat="48.40057" lon="7.30149">
        <ele>725.05401611328</ele>
        <time>2020-05-21T11:05:49Z</time>
      </trkpt>
      <trkpt lat="48.40057" lon="7.30159">
        <ele>725.05401611328</ele>
        <time>2020-05-21T11:05:55Z</time>
      </trkpt>
      <trkpt lat="48.40052" lon="7.30168">
        <ele>726.05401611328</ele>
        <time>2020-05-21T11:06:07Z</time>
      </trkpt>
      <trkpt lat="48.40048" lon="7.30176">
        <ele>726.05401611328</ele>
        <time>2020-05-21T11:06:18Z</time>
      </trkpt>
      <trkpt lat="48.40043" lon="7.30185">
        <ele>720.05401611328</ele>
        <time>2020-05-21T11:06:31Z</time>
      </trkpt>
      <trkpt lat="48.4004" lon="7.30194">
        <ele>720.05401611328</ele>
        <time>2020-05-21T11:07:29Z</time>
      </trkpt>
      <trkpt lat="48.40046" lon="7.30189">
        <ele>721.05401611328</ele>
        <time>2020-05-21T11:07:43Z</time>
      </trkpt>
      <trkpt lat="48.4005" lon="7.30181">
        <ele>725.05401611328</ele>
        <time>2020-05-21T11:07:56Z</time>
      </trkpt>
      <trkpt lat="48.40053" lon="7.30171">
        <ele>723.05401611328</ele>
        <time>2020-05-21T11:08:07Z</time>
      </trkpt>
      <trkpt lat="48.40059" lon="7.30164">
        <ele>724.05401611328</ele>
        <time>2020-05-21T11:08:15Z</time>
      </trkpt>
      <trkpt lat="48.40058" lon="7.30153">
        <ele>728.05401611328</ele>
        <time>2020-05-21T11:08:24Z</time>
      </trkpt>
      <trkpt lat="48.40054" lon="7.30145">
        <ele>732.05401611328</ele>
        <time>2020-05-21T11:08:31Z</time>
      </trkpt>
      <trkpt lat="48.40052" lon="7.30135">
        <ele>731.05401611328</ele>
        <time>2020-05-21T11:08:41Z</time>
      </trkpt>
      <trkpt lat="48.40058" lon="7.30142">
        <ele>730.05401611328</ele>
        <time>2020-05-21T11:09:05Z</time>
      </trkpt>
      <trkpt lat="48.40064" lon="7.30146">
        <ele>728.05401611328</ele>
        <time>2020-05-21T11:09:11Z</time>
      </trkpt>
      <trkpt lat="48.40071" lon="7.30151">
        <ele>728.05401611328</ele>
        <time>2020-05-21T11:09:19Z</time>
      </trkpt>
      <trkpt lat="48.40077" lon="7.30154">
        <ele>726.05401611328</ele>
        <time>2020-05-21T11:09:27Z</time>
      </trkpt>
      <trkpt lat="48.40085" lon="7.30155">
        <ele>725.05401611328</ele>
        <time>2020-05-21T11:09:32Z</time>
      </trkpt>
      <trkpt lat="48.40092" lon="7.3016">
        <ele>729.05401611328</ele>
        <time>2020-05-21T11:09:38Z</time>
      </trkpt>
      <trkpt lat="48.40095" lon="7.30169">
        <ele>731.05401611328</ele>
        <time>2020-05-21T11:09:45Z</time>
      </trkpt>
      <trkpt lat="48.40098" lon="7.30178">
        <ele>733.05401611328</ele>
        <time>2020-05-21T11:09:50Z</time>
      </trkpt>
      <trkpt lat="48.40104" lon="7.30184">
        <ele>730.05401611328</ele>
        <time>2020-05-21T11:09:58Z</time>
      </trkpt>
      <trkpt lat="48.40108" lon="7.30191">
        <ele>731.05401611328</ele>
        <time>2020-05-21T11:10:06Z</time>
      </trkpt>
      <trkpt lat="48.40111" lon="7.30203">
        <ele>730.05401611328</ele>
        <time>2020-05-21T11:10:12Z</time>
      </trkpt>
      <trkpt lat="48.40116" lon="7.3021">
        <ele>729.05401611328</ele>
        <time>2020-05-21T11:10:18Z</time>
      </trkpt>
      <trkpt lat="48.4012" lon="7.30216">
        <ele>729.05401611328</ele>
        <time>2020-05-21T11:10:25Z</time>
      </trkpt>
      <trkpt lat="48.40125" lon="7.30225">
        <ele>729.05401611328</ele>
        <time>2020-05-21T11:10:32Z</time>
      </trkpt>
      <trkpt lat="48.4013" lon="7.30232">
        <ele>730.05401611328</ele>
        <time>2020-05-21T11:10:39Z</time>
      </trkpt>
      <trkpt lat="48.40134" lon="7.30241">
        <ele>728.05401611328</ele>
        <time>2020-05-21T11:10:46Z</time>
      </trkpt>
      <trkpt lat="48.40141" lon="7.30246">
        <ele>721.05401611328</ele>
        <time>2020-05-21T11:10:51Z</time>
      </trkpt>
      <trkpt lat="48.40147" lon="7.3025">
        <ele>719.05401611328</ele>
        <time>2020-05-21T11:10:56Z</time>
      </trkpt>
      <trkpt lat="48.40152" lon="7.30257">
        <ele>718.05401611328</ele>
        <time>2020-05-21T11:11:03Z</time>
      </trkpt>
      <trkpt lat="48.4016" lon="7.30263">
        <ele>717.05401611328</ele>
        <time>2020-05-21T11:11:08Z</time>
      </trkpt>
      <trkpt lat="48.40166" lon="7.30267">
        <ele>719.05401611328</ele>
        <time>2020-05-21T11:11:13Z</time>
      </trkpt>
      <trkpt lat="48.40172" lon="7.30272">
        <ele>717.05401611328</ele>
        <time>2020-05-21T11:11:18Z</time>
      </trkpt>
      <trkpt lat="48.40178" lon="7.30277">
        <ele>716.05401611328</ele>
        <time>2020-05-21T11:11:25Z</time>
      </trkpt>
      <trkpt lat="48.40185" lon="7.30283">
        <ele>716.05401611328</ele>
        <time>2020-05-21T11:11:33Z</time>
      </trkpt>
      <trkpt lat="48.40192" lon="7.30289">
        <ele>717.05401611328</ele>
        <time>2020-05-21T11:11:38Z</time>
      </trkpt>
      <trkpt lat="48.40199" lon="7.30296">
        <ele>719.05401611328</ele>
        <time>2020-05-21T11:11:44Z</time>
      </trkpt>
      <trkpt lat="48.40205" lon="7.303">
        <ele>719.05401611328</ele>
        <time>2020-05-21T11:11:49Z</time>
      </trkpt>
      <trkpt lat="48.40212" lon="7.30305">
        <ele>717.05401611328</ele>
        <time>2020-05-21T11:11:56Z</time>
      </trkpt>
      <trkpt lat="48.40219" lon="7.30309">
        <ele>716.05401611328</ele>
        <time>2020-05-21T11:12:02Z</time>
      </trkpt>
      <trkpt lat="48.40224" lon="7.30316">
        <ele>716.05401611328</ele>
        <time>2020-05-21T11:12:09Z</time>
      </trkpt>
      <trkpt lat="48.4023" lon="7.30321">
        <ele>716.05401611328</ele>
        <time>2020-05-21T11:12:14Z</time>
      </trkpt>
      <trkpt lat="48.40236" lon="7.30324">
        <ele>718.05401611328</ele>
        <time>2020-05-21T11:12:19Z</time>
      </trkpt>
      <trkpt lat="48.40243" lon="7.3033">
        <ele>718.05401611328</ele>
        <time>2020-05-21T11:12:24Z</time>
      </trkpt>
      <trkpt lat="48.4025" lon="7.30329">
        <ele>718.05401611328</ele>
        <time>2020-05-21T11:12:30Z</time>
      </trkpt>
      <trkpt lat="48.40259" lon="7.30332">
        <ele>722.05401611328</ele>
        <time>2020-05-21T11:12:36Z</time>
      </trkpt>
      <trkpt lat="48.40266" lon="7.30333">
        <ele>725.05401611328</ele>
        <time>2020-05-21T11:12:49Z</time>
      </trkpt>
      <trkpt lat="48.40273" lon="7.30332">
        <ele>724.05401611328</ele>
        <time>2020-05-21T11:12:54Z</time>
      </trkpt>
      <trkpt lat="48.40281" lon="7.30332">
        <ele>724.05401611328</ele>
        <time>2020-05-21T11:13:00Z</time>
      </trkpt>
      <trkpt lat="48.40289" lon="7.30328">
        <ele>723.05401611328</ele>
        <time>2020-05-21T11:13:07Z</time>
      </trkpt>
      <trkpt lat="48.40292" lon="7.30339">
        <ele>726.05401611328</ele>
        <time>2020-05-21T11:13:20Z</time>
      </trkpt>
      <trkpt lat="48.40295" lon="7.30349">
        <ele>727.05401611328</ele>
        <time>2020-05-21T11:13:29Z</time>
      </trkpt>
      <trkpt lat="48.40298" lon="7.30359">
        <ele>724.05401611328</ele>
        <time>2020-05-21T11:13:37Z</time>
      </trkpt>
      <trkpt lat="48.40301" lon="7.30368">
        <ele>724.05401611328</ele>
        <time>2020-05-21T11:13:45Z</time>
      </trkpt>
      <trkpt lat="48.40303" lon="7.30379">
        <ele>724.05401611328</ele>
        <time>2020-05-21T11:13:53Z</time>
      </trkpt>
      <trkpt lat="48.40308" lon="7.30386">
        <ele>719.05401611328</ele>
        <time>2020-05-21T11:13:59Z</time>
      </trkpt>
      <trkpt lat="48.40312" lon="7.30394">
        <ele>717.05401611328</ele>
        <time>2020-05-21T11:14:06Z</time>
      </trkpt>
      <trkpt lat="48.40315" lon="7.30404">
        <ele>718.05401611328</ele>
        <time>2020-05-21T11:14:12Z</time>
      </trkpt>
      <trkpt lat="48.4032" lon="7.30412">
        <ele>717.05401611328</ele>
        <time>2020-05-21T11:14:18Z</time>
      </trkpt>
      <trkpt lat="48.40324" lon="7.3042">
        <ele>720.05401611328</ele>
        <time>2020-05-21T11:14:23Z</time>
      </trkpt>
      <trkpt lat="48.4033" lon="7.30425">
        <ele>720.05401611328</ele>
        <time>2020-05-21T11:14:29Z</time>
      </trkpt>
      <trkpt lat="48.40337" lon="7.30431">
        <ele>717.05401611328</ele>
        <time>2020-05-21T11:14:35Z</time>
      </trkpt>
      <trkpt lat="48.40343" lon="7.30436">
        <ele>714.05401611328</ele>
        <time>2020-05-21T11:14:41Z</time>
      </trkpt>
      <trkpt lat="48.40345" lon="7.30445">
        <ele>718.05401611328</ele>
        <time>2020-05-21T11:14:47Z</time>
      </trkpt>
      <trkpt lat="48.40349" lon="7.30454">
        <ele>719.05401611328</ele>
        <time>2020-05-21T11:14:53Z</time>
      </trkpt>
      <trkpt lat="48.40352" lon="7.30465">
        <ele>717.05401611328</ele>
        <time>2020-05-21T11:15:01Z</time>
      </trkpt>
      <trkpt lat="48.40356" lon="7.30475">
        <ele>716.05401611328</ele>
        <time>2020-05-21T11:15:08Z</time>
      </trkpt>
      <trkpt lat="48.40357" lon="7.30485">
        <ele>714.05401611328</ele>
        <time>2020-05-21T11:15:13Z</time>
      </trkpt>
      <trkpt lat="48.40356" lon="7.30497">
        <ele>715.05401611328</ele>
        <time>2020-05-21T11:15:18Z</time>
      </trkpt>
      <trkpt lat="48.40355" lon="7.30509">
        <ele>717.05401611328</ele>
        <time>2020-05-21T11:15:23Z</time>
      </trkpt>
      <trkpt lat="48.40357" lon="7.30521">
        <ele>716.05401611328</ele>
        <time>2020-05-21T11:15:29Z</time>
      </trkpt>
      <trkpt lat="48.40362" lon="7.30532">
        <ele>714.05401611328</ele>
        <time>2020-05-21T11:15:34Z</time>
      </trkpt>
      <trkpt lat="48.40365" lon="7.30541">
        <ele>712.05401611328</ele>
        <time>2020-05-21T11:15:39Z</time>
      </trkpt>
      <trkpt lat="48.40368" lon="7.30553">
        <ele>710.05401611328</ele>
        <time>2020-05-21T11:15:45Z</time>
      </trkpt>
      <trkpt lat="48.40369" lon="7.30566">
        <ele>709.05401611328</ele>
        <time>2020-05-21T11:15:50Z</time>
      </trkpt>
      <trkpt lat="48.40369" lon="7.30576">
        <ele>708.05401611328</ele>
        <time>2020-05-21T11:15:55Z</time>
      </trkpt>
      <trkpt lat="48.40374" lon="7.30585">
        <ele>706.05401611328</ele>
        <time>2020-05-21T11:16:01Z</time>
      </trkpt>
      <trkpt lat="48.40376" lon="7.30595">
        <ele>706.05401611328</ele>
        <time>2020-05-21T11:16:07Z</time>
      </trkpt>
      <trkpt lat="48.40376" lon="7.30605">
        <ele>707.05401611328</ele>
        <time>2020-05-21T11:16:12Z</time>
      </trkpt>
      <trkpt lat="48.4038" lon="7.30615">
        <ele>705.05401611328</ele>
        <time>2020-05-21T11:16:18Z</time>
      </trkpt>
      <trkpt lat="48.40382" lon="7.30625">
        <ele>706.05401611328</ele>
        <time>2020-05-21T11:16:23Z</time>
      </trkpt>
      <trkpt lat="48.40383" lon="7.30637">
        <ele>706.05401611328</ele>
        <time>2020-05-21T11:16:29Z</time>
      </trkpt>
      <trkpt lat="48.40385" lon="7.30647">
        <ele>704.05401611328</ele>
        <time>2020-05-21T11:16:34Z</time>
      </trkpt>
      <trkpt lat="48.40388" lon="7.30659">
        <ele>703.05401611328</ele>
        <time>2020-05-21T11:16:40Z</time>
      </trkpt>
      <trkpt lat="48.40389" lon="7.30672">
        <ele>708.05401611328</ele>
        <time>2020-05-21T11:16:47Z</time>
      </trkpt>
      <trkpt lat="48.40394" lon="7.30681">
        <ele>711.05401611328</ele>
        <time>2020-05-21T11:16:54Z</time>
      </trkpt>
      <trkpt lat="48.40397" lon="7.3069">
        <ele>710.05401611328</ele>
        <time>2020-05-21T11:17:01Z</time>
      </trkpt>
      <trkpt lat="48.40402" lon="7.30699">
        <ele>710.05401611328</ele>
        <time>2020-05-21T11:17:11Z</time>
      </trkpt>
      <trkpt lat="48.40407" lon="7.30706">
        <ele>710.05401611328</ele>
        <time>2020-05-21T11:17:17Z</time>
      </trkpt>
      <trkpt lat="48.4041" lon="7.30715">
        <ele>707.05401611328</ele>
        <time>2020-05-21T11:17:22Z</time>
      </trkpt>
      <trkpt lat="48.40411" lon="7.30725">
        <ele>707.05401611328</ele>
        <time>2020-05-21T11:17:28Z</time>
      </trkpt>
      <trkpt lat="48.40415" lon="7.30733">
        <ele>703.05401611328</ele>
        <time>2020-05-21T11:17:33Z</time>
      </trkpt>
      <trkpt lat="48.40418" lon="7.30742">
        <ele>702.05401611328</ele>
        <time>2020-05-21T11:17:38Z</time>
      </trkpt>
      <trkpt lat="48.4042" lon="7.30752">
        <ele>699.05401611328</ele>
        <time>2020-05-21T11:17:43Z</time>
      </trkpt>
      <trkpt lat="48.40424" lon="7.30762">
        <ele>697.05401611328</ele>
        <time>2020-05-21T11:17:50Z</time>
      </trkpt>
      <trkpt lat="48.4043" lon="7.30768">
        <ele>697.05401611328</ele>
        <time>2020-05-21T11:17:56Z</time>
      </trkpt>
      <trkpt lat="48.40435" lon="7.30776">
        <ele>698.05401611328</ele>
        <time>2020-05-21T11:18:01Z</time>
      </trkpt>
      <trkpt lat="48.40443" lon="7.30778">
        <ele>694.05401611328</ele>
        <time>2020-05-21T11:18:06Z</time>
      </trkpt>
      <trkpt lat="48.40449" lon="7.30779">
        <ele>694.05401611328</ele>
        <time>2020-05-21T11:18:11Z</time>
      </trkpt>
      <trkpt lat="48.40456" lon="7.30783">
        <ele>695.05401611328</ele>
        <time>2020-05-21T11:18:16Z</time>
      </trkpt>
      <trkpt lat="48.40463" lon="7.30782">
        <ele>691.05401611328</ele>
        <time>2020-05-21T11:18:23Z</time>
      </trkpt>
      <trkpt lat="48.4047" lon="7.30785">
        <ele>691.05401611328</ele>
        <time>2020-05-21T11:18:28Z</time>
      </trkpt>
      <trkpt lat="48.40477" lon="7.30784">
        <ele>691.05401611328</ele>
        <time>2020-05-21T11:18:34Z</time>
      </trkpt>
      <trkpt lat="48.40484" lon="7.30785">
        <ele>691.05401611328</ele>
        <time>2020-05-21T11:18:39Z</time>
      </trkpt>
      <trkpt lat="48.40492" lon="7.30785">
        <ele>691.05499267578</ele>
        <time>2020-05-21T11:18:45Z</time>
      </trkpt>
      <trkpt lat="48.40499" lon="7.30785">
        <ele>689.05499267578</ele>
        <time>2020-05-21T11:18:50Z</time>
      </trkpt>
      <trkpt lat="48.40506" lon="7.30785">
        <ele>691.05499267578</ele>
        <time>2020-05-21T11:18:55Z</time>
      </trkpt>
      <trkpt lat="48.40513" lon="7.30784">
        <ele>690.05499267578</ele>
        <time>2020-05-21T11:19:00Z</time>
      </trkpt>
      <trkpt lat="48.4052" lon="7.30782">
        <ele>692.05499267578</ele>
        <time>2020-05-21T11:19:06Z</time>
      </trkpt>
      <trkpt lat="48.40526" lon="7.30782">
        <ele>693.05499267578</ele>
        <time>2020-05-21T11:19:11Z</time>
      </trkpt>
      <trkpt lat="48.40533" lon="7.3078">
        <ele>692.05499267578</ele>
        <time>2020-05-21T11:19:16Z</time>
      </trkpt>
      <trkpt lat="48.4054" lon="7.30779">
        <ele>691.05499267578</ele>
        <time>2020-05-21T11:19:22Z</time>
      </trkpt>
      <trkpt lat="48.40548" lon="7.30777">
        <ele>692.05499267578</ele>
        <time>2020-05-21T11:19:29Z</time>
      </trkpt>
      <trkpt lat="48.40556" lon="7.30777">
        <ele>692.05499267578</ele>
        <time>2020-05-21T11:19:35Z</time>
      </trkpt>
      <trkpt lat="48.40562" lon="7.3078">
        <ele>692.05499267578</ele>
        <time>2020-05-21T11:19:40Z</time>
      </trkpt>
      <trkpt lat="48.40569" lon="7.30783">
        <ele>693.05499267578</ele>
        <time>2020-05-21T11:19:45Z</time>
      </trkpt>
      <trkpt lat="48.40576" lon="7.30787">
        <ele>694.05499267578</ele>
        <time>2020-05-21T11:19:50Z</time>
      </trkpt>
      <trkpt lat="48.40583" lon="7.30784">
        <ele>693.05499267578</ele>
        <time>2020-05-21T11:19:56Z</time>
      </trkpt>
      <trkpt lat="48.4059" lon="7.3078">
        <ele>693.05499267578</ele>
        <time>2020-05-21T11:20:02Z</time>
      </trkpt>
      <trkpt lat="48.40596" lon="7.30789">
        <ele>697.05499267578</ele>
        <time>2020-05-21T11:20:07Z</time>
      </trkpt>
      <trkpt lat="48.40603" lon="7.30788">
        <ele>697.05499267578</ele>
        <time>2020-05-21T11:20:14Z</time>
      </trkpt>
      <trkpt lat="48.4061" lon="7.30792">
        <ele>699.05499267578</ele>
        <time>2020-05-21T11:20:20Z</time>
      </trkpt>
      <trkpt lat="48.40618" lon="7.30787">
        <ele>700.05499267578</ele>
        <time>2020-05-21T11:20:26Z</time>
      </trkpt>
      <trkpt lat="48.40625" lon="7.30791">
        <ele>700.05499267578</ele>
        <time>2020-05-21T11:20:31Z</time>
      </trkpt>
      <trkpt lat="48.40633" lon="7.30795">
        <ele>701.05499267578</ele>
        <time>2020-05-21T11:20:36Z</time>
      </trkpt>
      <trkpt lat="48.40639" lon="7.30793">
        <ele>699.05499267578</ele>
        <time>2020-05-21T11:20:43Z</time>
      </trkpt>
      <trkpt lat="48.40646" lon="7.30793">
        <ele>699.05499267578</ele>
        <time>2020-05-21T11:20:52Z</time>
      </trkpt>
      <trkpt lat="48.40652" lon="7.30798">
        <ele>698.05499267578</ele>
        <time>2020-05-21T11:20:58Z</time>
      </trkpt>
      <trkpt lat="48.40659" lon="7.30799">
        <ele>696.05499267578</ele>
        <time>2020-05-21T11:21:03Z</time>
      </trkpt>
      <trkpt lat="48.40665" lon="7.30803">
        <ele>694.05499267578</ele>
        <time>2020-05-21T11:21:15Z</time>
      </trkpt>
      <trkpt lat="48.40672" lon="7.30804">
        <ele>694.05499267578</ele>
        <time>2020-05-21T11:21:20Z</time>
      </trkpt>
      <trkpt lat="48.40678" lon="7.30809">
        <ele>700.05499267578</ele>
        <time>2020-05-21T11:21:28Z</time>
      </trkpt>
      <trkpt lat="48.40685" lon="7.30813">
        <ele>703.05499267578</ele>
        <time>2020-05-21T11:21:36Z</time>
      </trkpt>
      <trkpt lat="48.40692" lon="7.30814">
        <ele>704.05499267578</ele>
        <time>2020-05-21T11:21:43Z</time>
      </trkpt>
      <trkpt lat="48.40699" lon="7.30818">
        <ele>703.05499267578</ele>
        <time>2020-05-21T11:21:48Z</time>
      </trkpt>
      <trkpt lat="48.40704" lon="7.30821">
        <ele>703.05499267578</ele>
        <time>2020-05-21T11:22:31Z</time>
      </trkpt>
      <trkpt lat="48.40697" lon="7.30821">
        <ele>705.05499267578</ele>
        <time>2020-05-21T11:22:44Z</time>
      </trkpt>
      <trkpt lat="48.40688" lon="7.3082">
        <ele>715.05499267578</ele>
        <time>2020-05-21T11:22:49Z</time>
      </trkpt>
      <trkpt lat="48.4068" lon="7.30818">
        <ele>720.05499267578</ele>
        <time>2020-05-21T11:22:54Z</time>
      </trkpt>
      <trkpt lat="48.40675" lon="7.30825">
        <ele>717.05499267578</ele>
        <time>2020-05-21T11:23:03Z</time>
      </trkpt>
      <trkpt lat="48.40668" lon="7.30829">
        <ele>720.05499267578</ele>
        <time>2020-05-21T11:23:08Z</time>
      </trkpt>
      <trkpt lat="48.4066" lon="7.30829">
        <ele>719.05499267578</ele>
        <time>2020-05-21T11:23:14Z</time>
      </trkpt>
      <trkpt lat="48.40652" lon="7.30832">
        <ele>717.05499267578</ele>
        <time>2020-05-21T11:23:21Z</time>
      </trkpt>
      <trkpt lat="48.40646" lon="7.3083">
        <ele>710.05499267578</ele>
        <time>2020-05-21T11:23:27Z</time>
      </trkpt>
      <trkpt lat="48.40638" lon="7.30834">
        <ele>706.05499267578</ele>
        <time>2020-05-21T11:23:37Z</time>
      </trkpt>
      <trkpt lat="48.40631" lon="7.30838">
        <ele>711.05499267578</ele>
        <time>2020-05-21T11:23:43Z</time>
      </trkpt>
      <trkpt lat="48.40625" lon="7.30843">
        <ele>713.05499267578</ele>
        <time>2020-05-21T11:23:49Z</time>
      </trkpt>
      <trkpt lat="48.4062" lon="7.30848">
        <ele>713.05499267578</ele>
        <time>2020-05-21T11:24:00Z</time>
      </trkpt>
      <trkpt lat="48.40612" lon="7.30855">
        <ele>708.05499267578</ele>
        <time>2020-05-21T11:24:07Z</time>
      </trkpt>
      <trkpt lat="48.40605" lon="7.30858">
        <ele>706.05499267578</ele>
        <time>2020-05-21T11:24:14Z</time>
      </trkpt>
      <trkpt lat="48.40598" lon="7.30861">
        <ele>702.05499267578</ele>
        <time>2020-05-21T11:24:19Z</time>
      </trkpt>
      <trkpt lat="48.40592" lon="7.30868">
        <ele>698.05499267578</ele>
        <time>2020-05-21T11:24:25Z</time>
      </trkpt>
      <trkpt lat="48.40587" lon="7.30876">
        <ele>694.05499267578</ele>
        <time>2020-05-21T11:24:31Z</time>
      </trkpt>
      <trkpt lat="48.40582" lon="7.30884">
        <ele>690.05499267578</ele>
        <time>2020-05-21T11:24:37Z</time>
      </trkpt>
      <trkpt lat="48.40582" lon="7.30896">
        <ele>689.05499267578</ele>
        <time>2020-05-21T11:24:42Z</time>
      </trkpt>
      <trkpt lat="48.40581" lon="7.30908">
        <ele>687.05499267578</ele>
        <time>2020-05-21T11:24:47Z</time>
      </trkpt>
      <trkpt lat="48.40577" lon="7.30921">
        <ele>690.05499267578</ele>
        <time>2020-05-21T11:24:52Z</time>
      </trkpt>
      <trkpt lat="48.40573" lon="7.3093">
        <ele>691.05499267578</ele>
        <time>2020-05-21T11:24:58Z</time>
      </trkpt>
      <trkpt lat="48.40568" lon="7.30937">
        <ele>694.05499267578</ele>
        <time>2020-05-21T11:25:03Z</time>
      </trkpt>
      <trkpt lat="48.40564" lon="7.30947">
        <ele>697.05499267578</ele>
        <time>2020-05-21T11:25:08Z</time>
      </trkpt>
      <trkpt lat="48.40559" lon="7.30954">
        <ele>695.05499267578</ele>
        <time>2020-05-21T11:25:15Z</time>
      </trkpt>
      <trkpt lat="48.40553" lon="7.3096">
        <ele>690.05499267578</ele>
        <time>2020-05-21T11:25:23Z</time>
      </trkpt>
      <trkpt lat="48.40547" lon="7.30963">
        <ele>685.05499267578</ele>
        <time>2020-05-21T11:25:29Z</time>
      </trkpt>
      <trkpt lat="48.4054" lon="7.30965">
        <ele>685.05499267578</ele>
        <time>2020-05-21T11:25:36Z</time>
      </trkpt>
      <trkpt lat="48.40534" lon="7.30969">
        <ele>688.05499267578</ele>
        <time>2020-05-21T11:25:42Z</time>
      </trkpt>
      <trkpt lat="48.40525" lon="7.30973">
        <ele>687.05499267578</ele>
        <time>2020-05-21T11:25:47Z</time>
      </trkpt>
      <trkpt lat="48.40519" lon="7.30977">
        <ele>683.05499267578</ele>
        <time>2020-05-21T11:25:52Z</time>
      </trkpt>
      <trkpt lat="48.40514" lon="7.30985">
        <ele>683.05401611328</ele>
        <time>2020-05-21T11:25:59Z</time>
      </trkpt>
      <trkpt lat="48.40509" lon="7.3099">
        <ele>681.05401611328</ele>
        <time>2020-05-21T11:26:04Z</time>
      </trkpt>
      <trkpt lat="48.40506" lon="7.31003">
        <ele>680.05401611328</ele>
        <time>2020-05-21T11:26:09Z</time>
      </trkpt>
      <trkpt lat="48.40505" lon="7.31013">
        <ele>676.05401611328</ele>
        <time>2020-05-21T11:26:14Z</time>
      </trkpt>
      <trkpt lat="48.405" lon="7.31022">
        <ele>678.05401611328</ele>
        <time>2020-05-21T11:26:19Z</time>
      </trkpt>
      <trkpt lat="48.40496" lon="7.31031">
        <ele>676.05401611328</ele>
        <time>2020-05-21T11:26:24Z</time>
      </trkpt>
      <trkpt lat="48.4049" lon="7.31038">
        <ele>682.05401611328</ele>
        <time>2020-05-21T11:26:32Z</time>
      </trkpt>
      <trkpt lat="48.40486" lon="7.31047">
        <ele>682.05401611328</ele>
        <time>2020-05-21T11:26:37Z</time>
      </trkpt>
      <trkpt lat="48.40481" lon="7.31053">
        <ele>682.05401611328</ele>
        <time>2020-05-21T11:26:42Z</time>
      </trkpt>
      <trkpt lat="48.40475" lon="7.3106">
        <ele>676.05401611328</ele>
        <time>2020-05-21T11:26:51Z</time>
      </trkpt>
      <trkpt lat="48.40468" lon="7.31062">
        <ele>675.05401611328</ele>
        <time>2020-05-21T11:26:57Z</time>
      </trkpt>
      <trkpt lat="48.40462" lon="7.31065">
        <ele>673.05401611328</ele>
        <time>2020-05-21T11:27:03Z</time>
      </trkpt>
      <trkpt lat="48.40458" lon="7.31074">
        <ele>675.05401611328</ele>
        <time>2020-05-21T11:27:08Z</time>
      </trkpt>
      <trkpt lat="48.40451" lon="7.31081">
        <ele>678.05401611328</ele>
        <time>2020-05-21T11:27:13Z</time>
      </trkpt>
      <trkpt lat="48.40447" lon="7.31092">
        <ele>677.05401611328</ele>
        <time>2020-05-21T11:27:18Z</time>
      </trkpt>
      <trkpt lat="48.40442" lon="7.31099">
        <ele>676.05401611328</ele>
        <time>2020-05-21T11:27:24Z</time>
      </trkpt>
      <trkpt lat="48.40439" lon="7.3111">
        <ele>676.05401611328</ele>
        <time>2020-05-21T11:27:29Z</time>
      </trkpt>
      <trkpt lat="48.40438" lon="7.31122">
        <ele>677.05401611328</ele>
        <time>2020-05-21T11:27:34Z</time>
      </trkpt>
      <trkpt lat="48.4043" lon="7.31124">
        <ele>677.05401611328</ele>
        <time>2020-05-21T11:27:40Z</time>
      </trkpt>
      <trkpt lat="48.40424" lon="7.31129">
        <ele>676.05401611328</ele>
        <time>2020-05-21T11:27:46Z</time>
      </trkpt>
      <trkpt lat="48.40423" lon="7.31139">
        <ele>676.05401611328</ele>
        <time>2020-05-21T11:27:51Z</time>
      </trkpt>
      <trkpt lat="48.40416" lon="7.31146">
        <ele>679.05401611328</ele>
        <time>2020-05-21T11:27:57Z</time>
      </trkpt>
      <trkpt lat="48.40411" lon="7.31152">
        <ele>680.05401611328</ele>
        <time>2020-05-21T11:28:03Z</time>
      </trkpt>
      <trkpt lat="48.40404" lon="7.31154">
        <ele>680.05401611328</ele>
        <time>2020-05-21T11:28:08Z</time>
      </trkpt>
      <trkpt lat="48.40397" lon="7.31155">
        <ele>675.05401611328</ele>
        <time>2020-05-21T11:28:14Z</time>
      </trkpt>
      <trkpt lat="48.40391" lon="7.3116">
        <ele>671.05401611328</ele>
        <time>2020-05-21T11:28:22Z</time>
      </trkpt>
      <trkpt lat="48.40385" lon="7.31164">
        <ele>670.05401611328</ele>
        <time>2020-05-21T11:28:28Z</time>
      </trkpt>
      <trkpt lat="48.40379" lon="7.3117">
        <ele>669.05401611328</ele>
        <time>2020-05-21T11:28:34Z</time>
      </trkpt>
      <trkpt lat="48.40374" lon="7.31179">
        <ele>670.05401611328</ele>
        <time>2020-05-21T11:28:41Z</time>
      </trkpt>
      <trkpt lat="48.40372" lon="7.31189">
        <ele>670.05401611328</ele>
        <time>2020-05-21T11:28:46Z</time>
      </trkpt>
      <trkpt lat="48.40367" lon="7.31198">
        <ele>670.05401611328</ele>
        <time>2020-05-21T11:28:52Z</time>
      </trkpt>
      <trkpt lat="48.40368" lon="7.31209">
        <ele>669.05401611328</ele>
        <time>2020-05-21T11:28:57Z</time>
      </trkpt>
      <trkpt lat="48.40369" lon="7.3122">
        <ele>666.05401611328</ele>
        <time>2020-05-21T11:29:02Z</time>
      </trkpt>
      <trkpt lat="48.40373" lon="7.3123">
        <ele>662.05401611328</ele>
        <time>2020-05-21T11:29:08Z</time>
      </trkpt>
      <trkpt lat="48.40374" lon="7.3124">
        <ele>665.05401611328</ele>
        <time>2020-05-21T11:29:13Z</time>
      </trkpt>
      <trkpt lat="48.40379" lon="7.31248">
        <ele>662.05401611328</ele>
        <time>2020-05-21T11:29:20Z</time>
      </trkpt>
      <trkpt lat="48.40386" lon="7.31248">
        <ele>659.05401611328</ele>
        <time>2020-05-21T11:29:27Z</time>
      </trkpt>
      <trkpt lat="48.40388" lon="7.31258">
        <ele>658.05401611328</ele>
        <time>2020-05-21T11:30:02Z</time>
      </trkpt>
      <trkpt lat="48.40388" lon="7.31269">
        <ele>658.05401611328</ele>
        <time>2020-05-21T11:30:11Z</time>
      </trkpt>
      <trkpt lat="48.4039" lon="7.31286">
        <ele>657.05401611328</ele>
        <time>2020-05-21T11:30:16Z</time>
      </trkpt>
      <trkpt lat="48.40397" lon="7.31294">
        <ele>657.05401611328</ele>
        <time>2020-05-21T11:30:21Z</time>
      </trkpt>
      <trkpt lat="48.40404" lon="7.31296">
        <ele>663.05401611328</ele>
        <time>2020-05-21T11:30:30Z</time>
      </trkpt>
      <trkpt lat="48.40408" lon="7.31304">
        <ele>661.05401611328</ele>
        <time>2020-05-21T11:30:38Z</time>
      </trkpt>
      <trkpt lat="48.40415" lon="7.31307">
        <ele>664.05401611328</ele>
        <time>2020-05-21T11:30:44Z</time>
      </trkpt>
      <trkpt lat="48.40419" lon="7.31314">
        <ele>665.05401611328</ele>
        <time>2020-05-21T11:30:51Z</time>
      </trkpt>
      <trkpt lat="48.4042" lon="7.31324">
        <ele>669.05401611328</ele>
        <time>2020-05-21T11:30:57Z</time>
      </trkpt>
      <trkpt lat="48.40423" lon="7.31334">
        <ele>669.05401611328</ele>
        <time>2020-05-21T11:31:03Z</time>
      </trkpt>
      <trkpt lat="48.40426" lon="7.31346">
        <ele>673.05401611328</ele>
        <time>2020-05-21T11:31:08Z</time>
      </trkpt>
      <trkpt lat="48.4043" lon="7.31354">
        <ele>674.05401611328</ele>
        <time>2020-05-21T11:31:15Z</time>
      </trkpt>
      <trkpt lat="48.40429" lon="7.31365">
        <ele>676.05401611328</ele>
        <time>2020-05-21T11:31:21Z</time>
      </trkpt>
      <trkpt lat="48.40429" lon="7.31375">
        <ele>675.05401611328</ele>
        <time>2020-05-21T11:31:28Z</time>
      </trkpt>
      <trkpt lat="48.40431" lon="7.31386">
        <ele>672.05401611328</ele>
        <time>2020-05-21T11:31:33Z</time>
      </trkpt>
      <trkpt lat="48.40433" lon="7.31399">
        <ele>671.05401611328</ele>
        <time>2020-05-21T11:31:38Z</time>
      </trkpt>
      <trkpt lat="48.40436" lon="7.31408">
        <ele>671.05401611328</ele>
        <time>2020-05-21T11:31:43Z</time>
      </trkpt>
      <trkpt lat="48.40441" lon="7.31415">
        <ele>670.05401611328</ele>
        <time>2020-05-21T11:31:50Z</time>
      </trkpt>
      <trkpt lat="48.40442" lon="7.31426">
        <ele>667.05401611328</ele>
        <time>2020-05-21T11:31:56Z</time>
      </trkpt>
      <trkpt lat="48.40445" lon="7.31435">
        <ele>663.05401611328</ele>
        <time>2020-05-21T11:32:01Z</time>
      </trkpt>
      <trkpt lat="48.40451" lon="7.31443">
        <ele>663.05401611328</ele>
        <time>2020-05-21T11:32:06Z</time>
      </trkpt>
      <trkpt lat="48.40452" lon="7.31458">
        <ele>667.05401611328</ele>
        <time>2020-05-21T11:32:11Z</time>
      </trkpt>
      <trkpt lat="48.40458" lon="7.3147">
        <ele>667.05401611328</ele>
        <time>2020-05-21T11:32:16Z</time>
      </trkpt>
      <trkpt lat="48.40464" lon="7.31478">
        <ele>660.05401611328</ele>
        <time>2020-05-21T11:32:21Z</time>
      </trkpt>
      <trkpt lat="48.40467" lon="7.31488">
        <ele>661.05401611328</ele>
        <time>2020-05-21T11:32:27Z</time>
      </trkpt>
      <trkpt lat="48.40471" lon="7.31497">
        <ele>660.05401611328</ele>
        <time>2020-05-21T11:32:34Z</time>
      </trkpt>
      <trkpt lat="48.40475" lon="7.31508">
        <ele>661.05401611328</ele>
        <time>2020-05-21T11:32:39Z</time>
      </trkpt>
      <trkpt lat="48.40478" lon="7.31518">
        <ele>661.05401611328</ele>
        <time>2020-05-21T11:32:44Z</time>
      </trkpt>
      <trkpt lat="48.40483" lon="7.31528">
        <ele>659.05401611328</ele>
        <time>2020-05-21T11:32:50Z</time>
      </trkpt>
      <trkpt lat="48.40487" lon="7.31536">
        <ele>658.05401611328</ele>
        <time>2020-05-21T11:32:57Z</time>
      </trkpt>
      <trkpt lat="48.40491" lon="7.31546">
        <ele>656.05401611328</ele>
        <time>2020-05-21T11:33:02Z</time>
      </trkpt>
      <trkpt lat="48.40494" lon="7.31555">
        <ele>655.05401611328</ele>
        <time>2020-05-21T11:33:07Z</time>
      </trkpt>
      <trkpt lat="48.40498" lon="7.31567">
        <ele>657.05401611328</ele>
        <time>2020-05-21T11:33:12Z</time>
      </trkpt>
      <trkpt lat="48.40505" lon="7.31575">
        <ele>654.05401611328</ele>
        <time>2020-05-21T11:33:19Z</time>
      </trkpt>
      <trkpt lat="48.40509" lon="7.31583">
        <ele>655.05401611328</ele>
        <time>2020-05-21T11:33:24Z</time>
      </trkpt>
      <trkpt lat="48.40511" lon="7.31593">
        <ele>657.05401611328</ele>
        <time>2020-05-21T11:33:29Z</time>
      </trkpt>
      <trkpt lat="48.40516" lon="7.31602">
        <ele>658.05401611328</ele>
        <time>2020-05-21T11:33:34Z</time>
      </trkpt>
      <trkpt lat="48.40522" lon="7.31607">
        <ele>659.05401611328</ele>
        <time>2020-05-21T11:33:40Z</time>
      </trkpt>
      <trkpt lat="48.40529" lon="7.31609">
        <ele>661.05401611328</ele>
        <time>2020-05-21T11:33:45Z</time>
      </trkpt>
      <trkpt lat="48.40536" lon="7.31613">
        <ele>662.05401611328</ele>
        <time>2020-05-21T11:33:50Z</time>
      </trkpt>
      <trkpt lat="48.40544" lon="7.3162">
        <ele>664.05401611328</ele>
        <time>2020-05-21T11:33:55Z</time>
      </trkpt>
      <trkpt lat="48.4055" lon="7.31626">
        <ele>664.05401611328</ele>
        <time>2020-05-21T11:34:00Z</time>
      </trkpt>
      <trkpt lat="48.40558" lon="7.31626">
        <ele>663.05401611328</ele>
        <time>2020-05-21T11:34:06Z</time>
      </trkpt>
      <trkpt lat="48.40567" lon="7.31625">
        <ele>659.05401611328</ele>
        <time>2020-05-21T11:34:11Z</time>
      </trkpt>
      <trkpt lat="48.40572" lon="7.31635">
        <ele>662.05401611328</ele>
        <time>2020-05-21T11:34:16Z</time>
      </trkpt>
      <trkpt lat="48.4058" lon="7.31638">
        <ele>662.05401611328</ele>
        <time>2020-05-21T11:34:21Z</time>
      </trkpt>
      <trkpt lat="48.40587" lon="7.3164">
        <ele>661.05401611328</ele>
        <time>2020-05-21T11:34:26Z</time>
      </trkpt>
      <trkpt lat="48.40594" lon="7.3164">
        <ele>660.05401611328</ele>
        <time>2020-05-21T11:34:31Z</time>
      </trkpt>
      <trkpt lat="48.40598" lon="7.31648">
        <ele>661.05401611328</ele>
        <time>2020-05-21T11:34:37Z</time>
      </trkpt>
      <trkpt lat="48.40593" lon="7.31654">
        <ele>661.05401611328</ele>
        <time>2020-05-21T11:34:46Z</time>
      </trkpt>
      <trkpt lat="48.4059" lon="7.31664">
        <ele>662.05401611328</ele>
        <time>2020-05-21T11:34:51Z</time>
      </trkpt>
      <trkpt lat="48.40588" lon="7.31674">
        <ele>658.05401611328</ele>
        <time>2020-05-21T11:34:57Z</time>
      </trkpt>
      <trkpt lat="48.40588" lon="7.31686">
        <ele>661.05401611328</ele>
        <time>2020-05-21T11:35:03Z</time>
      </trkpt>
      <trkpt lat="48.40589" lon="7.31695">
        <ele>664.05401611328</ele>
        <time>2020-05-21T11:35:08Z</time>
      </trkpt>
      <trkpt lat="48.40588" lon="7.31706">
        <ele>660.05401611328</ele>
        <time>2020-05-21T11:35:13Z</time>
      </trkpt>
      <trkpt lat="48.40591" lon="7.31717">
        <ele>661.05401611328</ele>
        <time>2020-05-21T11:35:19Z</time>
      </trkpt>
      <trkpt lat="48.40595" lon="7.3173">
        <ele>657.05401611328</ele>
        <time>2020-05-21T11:35:24Z</time>
      </trkpt>
      <trkpt lat="48.40602" lon="7.3174">
        <ele>655.05401611328</ele>
        <time>2020-05-21T11:35:29Z</time>
      </trkpt>
      <trkpt lat="48.40605" lon="7.31751">
        <ele>653.05401611328</ele>
        <time>2020-05-21T11:35:38Z</time>
      </trkpt>
      <trkpt lat="48.40606" lon="7.31763">
        <ele>651.05401611328</ele>
        <time>2020-05-21T11:35:45Z</time>
      </trkpt>
      <trkpt lat="48.40605" lon="7.31774">
        <ele>653.05401611328</ele>
        <time>2020-05-21T11:35:51Z</time>
      </trkpt>
      <trkpt lat="48.40606" lon="7.31784">
        <ele>653.05401611328</ele>
        <time>2020-05-21T11:35:56Z</time>
      </trkpt>
      <trkpt lat="48.40608" lon="7.31794">
        <ele>652.05401611328</ele>
        <time>2020-05-21T11:36:04Z</time>
      </trkpt>
      <trkpt lat="48.40607" lon="7.31804">
        <ele>651.05401611328</ele>
        <time>2020-05-21T11:36:09Z</time>
      </trkpt>
      <trkpt lat="48.40603" lon="7.31814">
        <ele>652.05401611328</ele>
        <time>2020-05-21T11:36:16Z</time>
      </trkpt>
      <trkpt lat="48.40601" lon="7.31825">
        <ele>653.05401611328</ele>
        <time>2020-05-21T11:36:21Z</time>
      </trkpt>
      <trkpt lat="48.40597" lon="7.31836">
        <ele>653.05401611328</ele>
        <time>2020-05-21T11:36:26Z</time>
      </trkpt>
      <trkpt lat="48.40592" lon="7.31847">
        <ele>651.05401611328</ele>
        <time>2020-05-21T11:36:37Z</time>
      </trkpt>
      <trkpt lat="48.40596" lon="7.31854">
        <ele>650.05401611328</ele>
        <time>2020-05-21T11:36:45Z</time>
      </trkpt>
      <trkpt lat="48.406" lon="7.3187">
        <ele>651.05401611328</ele>
        <time>2020-05-21T11:36:50Z</time>
      </trkpt>
      <trkpt lat="48.406" lon="7.31883">
        <ele>645.05401611328</ele>
        <time>2020-05-21T11:36:55Z</time>
      </trkpt>
      <trkpt lat="48.40598" lon="7.31894">
        <ele>643.05401611328</ele>
        <time>2020-05-21T11:37:00Z</time>
      </trkpt>
      <trkpt lat="48.40598" lon="7.31904">
        <ele>641.05401611328</ele>
        <time>2020-05-21T11:37:06Z</time>
      </trkpt>
      <trkpt lat="48.40596" lon="7.31913">
        <ele>642.05401611328</ele>
        <time>2020-05-21T11:37:11Z</time>
      </trkpt>
      <trkpt lat="48.40596" lon="7.31924">
        <ele>643.05401611328</ele>
        <time>2020-05-21T11:37:16Z</time>
      </trkpt>
      <trkpt lat="48.40598" lon="7.31933">
        <ele>645.05401611328</ele>
        <time>2020-05-21T11:37:22Z</time>
      </trkpt>
      <trkpt lat="48.40599" lon="7.31944">
        <ele>642.05401611328</ele>
        <time>2020-05-21T11:37:27Z</time>
      </trkpt>
      <trkpt lat="48.40599" lon="7.31955">
        <ele>642.05401611328</ele>
        <time>2020-05-21T11:37:32Z</time>
      </trkpt>
      <trkpt lat="48.40601" lon="7.31965">
        <ele>643.05401611328</ele>
        <time>2020-05-21T11:37:38Z</time>
      </trkpt>
      <trkpt lat="48.40605" lon="7.31974">
        <ele>640.05401611328</ele>
        <time>2020-05-21T11:37:43Z</time>
      </trkpt>
      <trkpt lat="48.40606" lon="7.31985">
        <ele>639.05401611328</ele>
        <time>2020-05-21T11:37:48Z</time>
      </trkpt>
      <trkpt lat="48.4061" lon="7.31995">
        <ele>637.05401611328</ele>
        <time>2020-05-21T11:37:53Z</time>
      </trkpt>
      <trkpt lat="48.40614" lon="7.32007">
        <ele>638.05401611328</ele>
        <time>2020-05-21T11:37:58Z</time>
      </trkpt>
      <trkpt lat="48.4062" lon="7.32014">
        <ele>636.05401611328</ele>
        <time>2020-05-21T11:38:03Z</time>
      </trkpt>
      <trkpt lat="48.40627" lon="7.32019">
        <ele>632.05401611328</ele>
        <time>2020-05-21T11:38:08Z</time>
      </trkpt>
      <trkpt lat="48.40633" lon="7.32026">
        <ele>633.05401611328</ele>
        <time>2020-05-21T11:38:13Z</time>
      </trkpt>
      <trkpt lat="48.40639" lon="7.32028">
        <ele>634.05401611328</ele>
        <time>2020-05-21T11:38:18Z</time>
      </trkpt>
      <trkpt lat="48.40646" lon="7.32027">
        <ele>632.05401611328</ele>
        <time>2020-05-21T11:38:23Z</time>
      </trkpt>
      <trkpt lat="48.40653" lon="7.32028">
        <ele>635.05401611328</ele>
        <time>2020-05-21T11:38:28Z</time>
      </trkpt>
      <trkpt lat="48.40661" lon="7.32029">
        <ele>636.05401611328</ele>
        <time>2020-05-21T11:38:34Z</time>
      </trkpt>
      <trkpt lat="48.40668" lon="7.32032">
        <ele>634.05401611328</ele>
        <time>2020-05-21T11:38:39Z</time>
      </trkpt>
      <trkpt lat="48.40675" lon="7.32034">
        <ele>634.05401611328</ele>
        <time>2020-05-21T11:38:45Z</time>
      </trkpt>
      <trkpt lat="48.40682" lon="7.32038">
        <ele>633.05499267578</ele>
        <time>2020-05-21T11:38:50Z</time>
      </trkpt>
      <trkpt lat="48.40684" lon="7.32049">
        <ele>631.05499267578</ele>
        <time>2020-05-21T11:38:57Z</time>
      </trkpt>
      <trkpt lat="48.40681" lon="7.3206">
        <ele>633.05499267578</ele>
        <time>2020-05-21T11:39:02Z</time>
      </trkpt>
      <trkpt lat="48.40684" lon="7.3207">
        <ele>636.05499267578</ele>
        <time>2020-05-21T11:39:08Z</time>
      </trkpt>
      <trkpt lat="48.40685" lon="7.32081">
        <ele>638.05499267578</ele>
        <time>2020-05-21T11:39:15Z</time>
      </trkpt>
      <trkpt lat="48.40687" lon="7.32091">
        <ele>638.05499267578</ele>
        <time>2020-05-21T11:39:23Z</time>
      </trkpt>
      <trkpt lat="48.40688" lon="7.32102">
        <ele>643.05499267578</ele>
        <time>2020-05-21T11:39:29Z</time>
      </trkpt>
      <trkpt lat="48.40692" lon="7.3211">
        <ele>646.05499267578</ele>
        <time>2020-05-21T11:39:34Z</time>
      </trkpt>
      <trkpt lat="48.40696" lon="7.32118">
        <ele>643.05499267578</ele>
        <time>2020-05-21T11:39:41Z</time>
      </trkpt>
      <trkpt lat="48.40698" lon="7.3213">
        <ele>645.05499267578</ele>
        <time>2020-05-21T11:39:49Z</time>
      </trkpt>
      <trkpt lat="48.40698" lon="7.32141">
        <ele>645.05499267578</ele>
        <time>2020-05-21T11:39:55Z</time>
      </trkpt>
      <trkpt lat="48.40704" lon="7.32146">
        <ele>641.05499267578</ele>
        <time>2020-05-21T11:40:08Z</time>
      </trkpt>
      <trkpt lat="48.40705" lon="7.32159">
        <ele>645.05499267578</ele>
        <time>2020-05-21T11:40:13Z</time>
      </trkpt>
      <trkpt lat="48.40709" lon="7.32169">
        <ele>644.05499267578</ele>
        <time>2020-05-21T11:40:21Z</time>
      </trkpt>
      <trkpt lat="48.40709" lon="7.3218">
        <ele>639.05499267578</ele>
        <time>2020-05-21T11:40:26Z</time>
      </trkpt>
      <trkpt lat="48.4071" lon="7.32191">
        <ele>635.05499267578</ele>
        <time>2020-05-21T11:40:31Z</time>
      </trkpt>
      <trkpt lat="48.40709" lon="7.32202">
        <ele>634.05499267578</ele>
        <time>2020-05-21T11:40:40Z</time>
      </trkpt>
      <trkpt lat="48.40707" lon="7.32211">
        <ele>631.05499267578</ele>
        <time>2020-05-21T11:40:50Z</time>
      </trkpt>
      <trkpt lat="48.40701" lon="7.32217">
        <ele>634.05401611328</ele>
        <time>2020-05-21T11:40:56Z</time>
      </trkpt>
      <trkpt lat="48.407" lon="7.32227">
        <ele>630.05401611328</ele>
        <time>2020-05-21T11:41:03Z</time>
      </trkpt>
      <trkpt lat="48.40697" lon="7.32239">
        <ele>630.05401611328</ele>
        <time>2020-05-21T11:41:08Z</time>
      </trkpt>
      <trkpt lat="48.40696" lon="7.3225">
        <ele>631.05401611328</ele>
        <time>2020-05-21T11:41:13Z</time>
      </trkpt>
      <trkpt lat="48.40691" lon="7.32259">
        <ele>632.05401611328</ele>
        <time>2020-05-21T11:41:18Z</time>
      </trkpt>
      <trkpt lat="48.40693" lon="7.32271">
        <ele>630.05401611328</ele>
        <time>2020-05-21T11:41:23Z</time>
      </trkpt>
      <trkpt lat="48.40689" lon="7.32277">
        <ele>629.05401611328</ele>
        <time>2020-05-21T11:41:29Z</time>
      </trkpt>
      <trkpt lat="48.40683" lon="7.32287">
        <ele>629.05401611328</ele>
        <time>2020-05-21T11:41:34Z</time>
      </trkpt>
      <trkpt lat="48.40679" lon="7.32297">
        <ele>627.05401611328</ele>
        <time>2020-05-21T11:41:41Z</time>
      </trkpt>
      <trkpt lat="48.40673" lon="7.32309">
        <ele>628.05401611328</ele>
        <time>2020-05-21T11:41:46Z</time>
      </trkpt>
      <trkpt lat="48.40667" lon="7.32314">
        <ele>628.05401611328</ele>
        <time>2020-05-21T11:41:51Z</time>
      </trkpt>
      <trkpt lat="48.40661" lon="7.32318">
        <ele>626.05401611328</ele>
        <time>2020-05-21T11:41:57Z</time>
      </trkpt>
      <trkpt lat="48.40656" lon="7.32325">
        <ele>623.05401611328</ele>
        <time>2020-05-21T11:42:05Z</time>
      </trkpt>
      <trkpt lat="48.40651" lon="7.3233">
        <ele>622.05401611328</ele>
        <time>2020-05-21T11:42:18Z</time>
      </trkpt>
      <trkpt lat="48.40641" lon="7.32336">
        <ele>621.05401611328</ele>
        <time>2020-05-21T11:42:23Z</time>
      </trkpt>
      <trkpt lat="48.40636" lon="7.32344">
        <ele>621.05401611328</ele>
        <time>2020-05-21T11:42:29Z</time>
      </trkpt>
      <trkpt lat="48.40629" lon="7.32348">
        <ele>621.05401611328</ele>
        <time>2020-05-21T11:42:34Z</time>
      </trkpt>
      <trkpt lat="48.40624" lon="7.32353">
        <ele>621.05401611328</ele>
        <time>2020-05-21T11:42:39Z</time>
      </trkpt>
      <trkpt lat="48.40617" lon="7.32362">
        <ele>621.05401611328</ele>
        <time>2020-05-21T11:42:45Z</time>
      </trkpt>
      <trkpt lat="48.40615" lon="7.32371">
        <ele>623.05401611328</ele>
        <time>2020-05-21T11:42:50Z</time>
      </trkpt>
      <trkpt lat="48.40612" lon="7.3238">
        <ele>624.05401611328</ele>
        <time>2020-05-21T11:42:55Z</time>
      </trkpt>
      <trkpt lat="48.40605" lon="7.32386">
        <ele>622.05401611328</ele>
        <time>2020-05-21T11:43:02Z</time>
      </trkpt>
      <trkpt lat="48.40601" lon="7.32392">
        <ele>624.05401611328</ele>
        <time>2020-05-21T11:43:07Z</time>
      </trkpt>
      <trkpt lat="48.40605" lon="7.32402">
        <ele>623.05401611328</ele>
        <time>2020-05-21T11:43:57Z</time>
      </trkpt>
      <trkpt lat="48.40607" lon="7.32412">
        <ele>623.05401611328</ele>
        <time>2020-05-21T11:44:03Z</time>
      </trkpt>
      <trkpt lat="48.40612" lon="7.32419">
        <ele>619.05401611328</ele>
        <time>2020-05-21T11:44:11Z</time>
      </trkpt>
      <trkpt lat="48.4062" lon="7.32427">
        <ele>618.05401611328</ele>
        <time>2020-05-21T11:44:16Z</time>
      </trkpt>
      <trkpt lat="48.40627" lon="7.3243">
        <ele>618.05401611328</ele>
        <time>2020-05-21T11:44:24Z</time>
      </trkpt>
      <trkpt lat="48.40634" lon="7.32435">
        <ele>614.05401611328</ele>
        <time>2020-05-21T11:44:29Z</time>
      </trkpt>
      <trkpt lat="48.4064" lon="7.32441">
        <ele>611.05401611328</ele>
        <time>2020-05-21T11:44:34Z</time>
      </trkpt>
      <trkpt lat="48.40643" lon="7.3245">
        <ele>608.05401611328</ele>
        <time>2020-05-21T11:44:39Z</time>
      </trkpt>
      <trkpt lat="48.40648" lon="7.32457">
        <ele>609.05401611328</ele>
        <time>2020-05-21T11:44:46Z</time>
      </trkpt>
      <trkpt lat="48.40654" lon="7.32466">
        <ele>611.05401611328</ele>
        <time>2020-05-21T11:44:51Z</time>
      </trkpt>
      <trkpt lat="48.40662" lon="7.32465">
        <ele>611.05401611328</ele>
        <time>2020-05-21T11:44:58Z</time>
      </trkpt>
      <trkpt lat="48.40669" lon="7.32463">
        <ele>610.05401611328</ele>
        <time>2020-05-21T11:45:29Z</time>
      </trkpt>
      <trkpt lat="48.40677" lon="7.3246">
        <ele>610.05401611328</ele>
        <time>2020-05-21T11:45:35Z</time>
      </trkpt>
      <trkpt lat="48.40685" lon="7.3246">
        <ele>612.05401611328</ele>
        <time>2020-05-21T11:45:40Z</time>
      </trkpt>
      <trkpt lat="48.40694" lon="7.32461">
        <ele>614.05401611328</ele>
        <time>2020-05-21T11:45:45Z</time>
      </trkpt>
      <trkpt lat="48.40702" lon="7.32463">
        <ele>615.05401611328</ele>
        <time>2020-05-21T11:45:50Z</time>
      </trkpt>
      <trkpt lat="48.40709" lon="7.32459">
        <ele>616.05401611328</ele>
        <time>2020-05-21T11:45:55Z</time>
      </trkpt>
      <trkpt lat="48.40717" lon="7.32457">
        <ele>616.05401611328</ele>
        <time>2020-05-21T11:46:00Z</time>
      </trkpt>
      <trkpt lat="48.40723" lon="7.32462">
        <ele>621.05401611328</ele>
        <time>2020-05-21T11:46:06Z</time>
      </trkpt>
      <trkpt lat="48.40732" lon="7.32458">
        <ele>622.05401611328</ele>
        <time>2020-05-21T11:46:11Z</time>
      </trkpt>
      <trkpt lat="48.40741" lon="7.32454">
        <ele>619.05499267578</ele>
        <time>2020-05-21T11:46:16Z</time>
      </trkpt>
      <trkpt lat="48.40747" lon="7.32449">
        <ele>615.05499267578</ele>
        <time>2020-05-21T11:46:23Z</time>
      </trkpt>
      <trkpt lat="48.40754" lon="7.32448">
        <ele>615.05499267578</ele>
        <time>2020-05-21T11:46:28Z</time>
      </trkpt>
      <trkpt lat="48.40759" lon="7.32442">
        <ele>614.05499267578</ele>
        <time>2020-05-21T11:46:35Z</time>
      </trkpt>
      <trkpt lat="48.40765" lon="7.32438">
        <ele>613.05499267578</ele>
        <time>2020-05-21T11:46:46Z</time>
      </trkpt>
      <trkpt lat="48.40772" lon="7.32436">
        <ele>614.05499267578</ele>
        <time>2020-05-21T11:46:55Z</time>
      </trkpt>
      <trkpt lat="48.40779" lon="7.3243">
        <ele>613.05499267578</ele>
        <time>2020-05-21T11:47:01Z</time>
      </trkpt>
      <trkpt lat="48.40787" lon="7.32424">
        <ele>612.05499267578</ele>
        <time>2020-05-21T11:47:06Z</time>
      </trkpt>
      <trkpt lat="48.40795" lon="7.32423">
        <ele>616.05499267578</ele>
        <time>2020-05-21T11:47:11Z</time>
      </trkpt>
      <trkpt lat="48.40802" lon="7.32422">
        <ele>617.05499267578</ele>
        <time>2020-05-21T11:47:16Z</time>
      </trkpt>
      <trkpt lat="48.40809" lon="7.32419">
        <ele>614.05499267578</ele>
        <time>2020-05-21T11:47:21Z</time>
      </trkpt>
      <trkpt lat="48.40817" lon="7.32419">
        <ele>613.05499267578</ele>
        <time>2020-05-21T11:47:30Z</time>
      </trkpt>
      <trkpt lat="48.40825" lon="7.3242">
        <ele>611.05499267578</ele>
        <time>2020-05-21T11:47:35Z</time>
      </trkpt>
      <trkpt lat="48.40834" lon="7.32414">
        <ele>611.05499267578</ele>
        <time>2020-05-21T11:47:40Z</time>
      </trkpt>
      <trkpt lat="48.40841" lon="7.32411">
        <ele>611.05499267578</ele>
        <time>2020-05-21T11:47:45Z</time>
      </trkpt>
      <trkpt lat="48.40848" lon="7.32405">
        <ele>611.05499267578</ele>
        <time>2020-05-21T11:47:50Z</time>
      </trkpt>
      <trkpt lat="48.40854" lon="7.32402">
        <ele>614.05499267578</ele>
        <time>2020-05-21T11:48:00Z</time>
      </trkpt>
      <trkpt lat="48.40859" lon="7.32393">
        <ele>615.05499267578</ele>
        <time>2020-05-21T11:48:05Z</time>
      </trkpt>
      <trkpt lat="48.40863" lon="7.32382">
        <ele>613.05499267578</ele>
        <time>2020-05-21T11:48:10Z</time>
      </trkpt>
      <trkpt lat="48.40868" lon="7.3237">
        <ele>615.05499267578</ele>
        <time>2020-05-21T11:48:15Z</time>
      </trkpt>
      <trkpt lat="48.40862" lon="7.3237">
        <ele>617.05499267578</ele>
        <time>2020-05-21T11:48:23Z</time>
      </trkpt>
      <trkpt lat="48.40869" lon="7.32371">
        <ele>619.05499267578</ele>
        <time>2020-05-21T11:48:31Z</time>
      </trkpt>
      <trkpt lat="48.40873" lon="7.32367">
        <ele>621.05499267578</ele>
        <time>2020-05-21T11:48:49Z</time>
      </trkpt>
      <trkpt lat="48.40878" lon="7.32358">
        <ele>616.05499267578</ele>
        <time>2020-05-21T11:49:29Z</time>
      </trkpt>
      <trkpt lat="48.40883" lon="7.3235">
        <ele>618.05499267578</ele>
        <time>2020-05-21T11:49:34Z</time>
      </trkpt>
      <trkpt lat="48.40889" lon="7.32343">
        <ele>619.05499267578</ele>
        <time>2020-05-21T11:49:39Z</time>
      </trkpt>
      <trkpt lat="48.40893" lon="7.32335">
        <ele>616.05499267578</ele>
        <time>2020-05-21T11:49:49Z</time>
      </trkpt>
      <trkpt lat="48.409" lon="7.3233">
        <ele>619.05499267578</ele>
        <time>2020-05-21T11:49:55Z</time>
      </trkpt>
      <trkpt lat="48.40906" lon="7.32331">
        <ele>624.05499267578</ele>
        <time>2020-05-21T11:50:04Z</time>
      </trkpt>
      <trkpt lat="48.40911" lon="7.32324">
        <ele>625.05499267578</ele>
        <time>2020-05-21T11:50:10Z</time>
      </trkpt>
      <trkpt lat="48.40914" lon="7.32315">
        <ele>626.05499267578</ele>
        <time>2020-05-21T11:50:15Z</time>
      </trkpt>
      <trkpt lat="48.40921" lon="7.32306">
        <ele>626.05499267578</ele>
        <time>2020-05-21T11:50:20Z</time>
      </trkpt>
      <trkpt lat="48.40926" lon="7.32299">
        <ele>628.05499267578</ele>
        <time>2020-05-21T11:50:32Z</time>
      </trkpt>
      <trkpt lat="48.40933" lon="7.32293">
        <ele>629.05499267578</ele>
        <time>2020-05-21T11:50:40Z</time>
      </trkpt>
      <trkpt lat="48.40939" lon="7.32288">
        <ele>629.05499267578</ele>
        <time>2020-05-21T11:50:45Z</time>
      </trkpt>
      <trkpt lat="48.40945" lon="7.32283">
        <ele>630.05499267578</ele>
        <time>2020-05-21T11:50:50Z</time>
      </trkpt>
      <trkpt lat="48.40951" lon="7.32276">
        <ele>631.05499267578</ele>
        <time>2020-05-21T11:50:58Z</time>
      </trkpt>
      <trkpt lat="48.40957" lon="7.32273">
        <ele>632.05499267578</ele>
        <time>2020-05-21T11:51:10Z</time>
      </trkpt>
      <trkpt lat="48.40961" lon="7.32264">
        <ele>632.05499267578</ele>
        <time>2020-05-21T11:51:15Z</time>
      </trkpt>
      <trkpt lat="48.40969" lon="7.3226">
        <ele>635.05499267578</ele>
        <time>2020-05-21T11:51:30Z</time>
      </trkpt>
      <trkpt lat="48.40978" lon="7.32249">
        <ele>638.05499267578</ele>
        <time>2020-05-21T11:51:35Z</time>
      </trkpt>
      <trkpt lat="48.40985" lon="7.32242">
        <ele>640.05499267578</ele>
        <time>2020-05-21T11:51:40Z</time>
      </trkpt>
      <trkpt lat="48.4099" lon="7.32233">
        <ele>642.05499267578</ele>
        <time>2020-05-21T11:51:45Z</time>
      </trkpt>
      <trkpt lat="48.40995" lon="7.32226">
        <ele>642.05499267578</ele>
        <time>2020-05-21T11:51:50Z</time>
      </trkpt>
      <trkpt lat="48.41003" lon="7.32217">
        <ele>643.05499267578</ele>
        <time>2020-05-21T11:51:55Z</time>
      </trkpt>
      <trkpt lat="48.41014" lon="7.3221">
        <ele>643.05499267578</ele>
        <time>2020-05-21T11:52:00Z</time>
      </trkpt>
      <trkpt lat="48.41017" lon="7.322">
        <ele>644.05499267578</ele>
        <time>2020-05-21T11:52:05Z</time>
      </trkpt>
      <trkpt lat="48.41022" lon="7.32193">
        <ele>649.05499267578</ele>
        <time>2020-05-21T11:52:11Z</time>
      </trkpt>
      <trkpt lat="48.41023" lon="7.32181">
        <ele>650.05499267578</ele>
        <time>2020-05-21T11:52:18Z</time>
      </trkpt>
      <trkpt lat="48.41024" lon="7.3217">
        <ele>647.05499267578</ele>
        <time>2020-05-21T11:52:23Z</time>
      </trkpt>
      <trkpt lat="48.41027" lon="7.32161">
        <ele>648.05499267578</ele>
        <time>2020-05-21T11:52:29Z</time>
      </trkpt>
      <trkpt lat="48.41029" lon="7.32151">
        <ele>647.05499267578</ele>
        <time>2020-05-21T11:52:42Z</time>
      </trkpt>
      <trkpt lat="48.41036" lon="7.32142">
        <ele>644.05499267578</ele>
        <time>2020-05-21T11:52:52Z</time>
      </trkpt>
      <trkpt lat="48.41041" lon="7.32136">
        <ele>646.05499267578</ele>
        <time>2020-05-21T11:52:57Z</time>
      </trkpt>
      <trkpt lat="48.41048" lon="7.32131">
        <ele>644.05499267578</ele>
        <time>2020-05-21T11:53:03Z</time>
      </trkpt>
      <trkpt lat="48.41055" lon="7.32128">
        <ele>646.05499267578</ele>
        <time>2020-05-21T11:53:08Z</time>
      </trkpt>
      <trkpt lat="48.41063" lon="7.32124">
        <ele>648.05499267578</ele>
        <time>2020-05-21T11:53:14Z</time>
      </trkpt>
      <trkpt lat="48.4107" lon="7.32121">
        <ele>646.05499267578</ele>
        <time>2020-05-21T11:53:19Z</time>
      </trkpt>
      <trkpt lat="48.41078" lon="7.32119">
        <ele>649.05499267578</ele>
        <time>2020-05-21T11:53:26Z</time>
      </trkpt>
      <trkpt lat="48.41084" lon="7.32114">
        <ele>648.05499267578</ele>
        <time>2020-05-21T11:53:32Z</time>
      </trkpt>
      <trkpt lat="48.4109" lon="7.32112">
        <ele>650.05499267578</ele>
        <time>2020-05-21T11:53:38Z</time>
      </trkpt>
      <trkpt lat="48.41098" lon="7.3211">
        <ele>652.05499267578</ele>
        <time>2020-05-21T11:53:43Z</time>
      </trkpt>
      <trkpt lat="48.41104" lon="7.32111">
        <ele>656.05499267578</ele>
        <time>2020-05-21T11:53:49Z</time>
      </trkpt>
      <trkpt lat="48.41111" lon="7.32108">
        <ele>657.05499267578</ele>
        <time>2020-05-21T11:53:58Z</time>
      </trkpt>
      <trkpt lat="48.41118" lon="7.32107">
        <ele>657.05499267578</ele>
        <time>2020-05-21T11:54:03Z</time>
      </trkpt>
      <trkpt lat="48.41125" lon="7.321">
        <ele>658.05499267578</ele>
        <time>2020-05-21T11:54:08Z</time>
      </trkpt>
      <trkpt lat="48.41132" lon="7.32097">
        <ele>663.05499267578</ele>
        <time>2020-05-21T11:54:15Z</time>
      </trkpt>
      <trkpt lat="48.41138" lon="7.321">
        <ele>660.05499267578</ele>
        <time>2020-05-21T11:54:21Z</time>
      </trkpt>
      <trkpt lat="48.41146" lon="7.321">
        <ele>661.05499267578</ele>
        <time>2020-05-21T11:54:27Z</time>
      </trkpt>
      <trkpt lat="48.41154" lon="7.32098">
        <ele>662.05499267578</ele>
        <time>2020-05-21T11:54:32Z</time>
      </trkpt>
      <trkpt lat="48.41161" lon="7.32096">
        <ele>665.05499267578</ele>
        <time>2020-05-21T11:54:39Z</time>
      </trkpt>
      <trkpt lat="48.41169" lon="7.32078">
        <ele>662.05499267578</ele>
        <time>2020-05-21T11:54:44Z</time>
      </trkpt>
      <trkpt lat="48.41176" lon="7.32067">
        <ele>662.05499267578</ele>
        <time>2020-05-21T11:54:49Z</time>
      </trkpt>
      <trkpt lat="48.41183" lon="7.32069">
        <ele>660.05499267578</ele>
        <time>2020-05-21T11:54:55Z</time>
      </trkpt>
      <trkpt lat="48.41184" lon="7.32081">
        <ele>658.05499267578</ele>
        <time>2020-05-21T11:55:03Z</time>
      </trkpt>
      <trkpt lat="48.41183" lon="7.3209">
        <ele>658.05499267578</ele>
        <time>2020-05-21T11:55:11Z</time>
      </trkpt>
      <trkpt lat="48.41183" lon="7.32102">
        <ele>658.05499267578</ele>
        <time>2020-05-21T11:55:19Z</time>
      </trkpt>
      <trkpt lat="48.41182" lon="7.32111">
        <ele>662.05499267578</ele>
        <time>2020-05-21T11:55:25Z</time>
      </trkpt>
      <trkpt lat="48.41181" lon="7.32123">
        <ele>660.05499267578</ele>
        <time>2020-05-21T11:55:32Z</time>
      </trkpt>
      <trkpt lat="48.41182" lon="7.32135">
        <ele>658.05499267578</ele>
        <time>2020-05-21T11:55:39Z</time>
      </trkpt>
      <trkpt lat="48.41185" lon="7.32145">
        <ele>661.05499267578</ele>
        <time>2020-05-21T11:55:44Z</time>
      </trkpt>
      <trkpt lat="48.41185" lon="7.32156">
        <ele>663.05499267578</ele>
        <time>2020-05-21T11:55:50Z</time>
      </trkpt>
      <trkpt lat="48.41187" lon="7.32166">
        <ele>664.05499267578</ele>
        <time>2020-05-21T11:55:56Z</time>
      </trkpt>
      <trkpt lat="48.41187" lon="7.32176">
        <ele>662.05499267578</ele>
        <time>2020-05-21T11:56:02Z</time>
      </trkpt>
      <trkpt lat="48.41188" lon="7.32187">
        <ele>661.05499267578</ele>
        <time>2020-05-21T11:56:08Z</time>
      </trkpt>
      <trkpt lat="48.4119" lon="7.32199">
        <ele>661.05499267578</ele>
        <time>2020-05-21T11:56:14Z</time>
      </trkpt>
      <trkpt lat="48.41194" lon="7.32206">
        <ele>664.05499267578</ele>
        <time>2020-05-21T11:56:19Z</time>
      </trkpt>
      <trkpt lat="48.41199" lon="7.32215">
        <ele>666.05499267578</ele>
        <time>2020-05-21T11:56:24Z</time>
      </trkpt>
      <trkpt lat="48.41204" lon="7.3222">
        <ele>666.05499267578</ele>
        <time>2020-05-21T11:56:29Z</time>
      </trkpt>
      <trkpt lat="48.41211" lon="7.32227">
        <ele>665.05499267578</ele>
        <time>2020-05-21T11:56:34Z</time>
      </trkpt>
      <trkpt lat="48.41217" lon="7.32233">
        <ele>667.05499267578</ele>
        <time>2020-05-21T11:56:39Z</time>
      </trkpt>
      <trkpt lat="48.41224" lon="7.32232">
        <ele>669.05499267578</ele>
        <time>2020-05-21T11:56:44Z</time>
      </trkpt>
      <trkpt lat="48.41231" lon="7.32237">
        <ele>667.05499267578</ele>
        <time>2020-05-21T11:56:49Z</time>
      </trkpt>
      <trkpt lat="48.41237" lon="7.32246">
        <ele>666.05499267578</ele>
        <time>2020-05-21T11:56:57Z</time>
      </trkpt>
      <trkpt lat="48.41241" lon="7.32255">
        <ele>667.05499267578</ele>
        <time>2020-05-21T11:57:10Z</time>
      </trkpt>
      <trkpt lat="48.41248" lon="7.3226">
        <ele>668.05499267578</ele>
        <time>2020-05-21T11:57:16Z</time>
      </trkpt>
      <trkpt lat="48.41254" lon="7.32265">
        <ele>669.05499267578</ele>
        <time>2020-05-21T11:57:21Z</time>
      </trkpt>
      <trkpt lat="48.41259" lon="7.32272">
        <ele>670.05499267578</ele>
        <time>2020-05-21T11:57:30Z</time>
      </trkpt>
      <trkpt lat="48.41256" lon="7.3228">
        <ele>669.05499267578</ele>
        <time>2020-05-21T11:57:39Z</time>
      </trkpt>
      <trkpt lat="48.41249" lon="7.32285">
        <ele>668.05499267578</ele>
        <time>2020-05-21T11:57:46Z</time>
      </trkpt>
      <trkpt lat="48.41243" lon="7.3229">
        <ele>668.05499267578</ele>
        <time>2020-05-21T11:57:52Z</time>
      </trkpt>
      <trkpt lat="48.41241" lon="7.32299">
        <ele>669.05499267578</ele>
        <time>2020-05-21T11:57:58Z</time>
      </trkpt>
      <trkpt lat="48.41231" lon="7.32303">
        <ele>671.05499267578</ele>
        <time>2020-05-21T11:58:03Z</time>
      </trkpt>
      <trkpt lat="48.41224" lon="7.32306">
        <ele>667.05499267578</ele>
        <time>2020-05-21T11:58:08Z</time>
      </trkpt>
      <trkpt lat="48.41216" lon="7.32308">
        <ele>667.05499267578</ele>
        <time>2020-05-21T11:58:13Z</time>
      </trkpt>
      <trkpt lat="48.4121" lon="7.32308">
        <ele>665.05499267578</ele>
        <time>2020-05-21T11:58:18Z</time>
      </trkpt>
      <trkpt lat="48.41202" lon="7.32305">
        <ele>666.05499267578</ele>
        <time>2020-05-21T11:58:24Z</time>
      </trkpt>
      <trkpt lat="48.41195" lon="7.32305">
        <ele>659.05499267578</ele>
        <time>2020-05-21T11:58:29Z</time>
      </trkpt>
      <trkpt lat="48.41189" lon="7.32307">
        <ele>657.05499267578</ele>
        <time>2020-05-21T11:58:34Z</time>
      </trkpt>
      <trkpt lat="48.41183" lon="7.32316">
        <ele>658.05499267578</ele>
        <time>2020-05-21T11:58:39Z</time>
      </trkpt>
      <trkpt lat="48.41176" lon="7.32322">
        <ele>655.05499267578</ele>
        <time>2020-05-21T11:58:44Z</time>
      </trkpt>
      <trkpt lat="48.4117" lon="7.32328">
        <ele>652.05499267578</ele>
        <time>2020-05-21T11:58:49Z</time>
      </trkpt>
      <trkpt lat="48.41163" lon="7.32334">
        <ele>649.05499267578</ele>
        <time>2020-05-21T11:58:54Z</time>
      </trkpt>
      <trkpt lat="48.41158" lon="7.3234">
        <ele>649.05499267578</ele>
        <time>2020-05-21T11:59:00Z</time>
      </trkpt>
      <trkpt lat="48.41152" lon="7.32349">
        <ele>652.05499267578</ele>
        <time>2020-05-21T11:59:07Z</time>
      </trkpt>
      <trkpt lat="48.41147" lon="7.32357">
        <ele>653.05499267578</ele>
        <time>2020-05-21T11:59:14Z</time>
      </trkpt>
      <trkpt lat="48.41142" lon="7.32365">
        <ele>653.05499267578</ele>
        <time>2020-05-21T11:59:21Z</time>
      </trkpt>
      <trkpt lat="48.41134" lon="7.32371">
        <ele>652.05499267578</ele>
        <time>2020-05-21T11:59:27Z</time>
      </trkpt>
      <trkpt lat="48.41127" lon="7.32379">
        <ele>652.05499267578</ele>
        <time>2020-05-21T11:59:32Z</time>
      </trkpt>
      <trkpt lat="48.41121" lon="7.32386">
        <ele>653.05499267578</ele>
        <time>2020-05-21T11:59:37Z</time>
      </trkpt>
      <trkpt lat="48.41114" lon="7.3239">
        <ele>652.05499267578</ele>
        <time>2020-05-21T11:59:43Z</time>
      </trkpt>
      <trkpt lat="48.41106" lon="7.32393">
        <ele>651.05499267578</ele>
        <time>2020-05-21T11:59:49Z</time>
      </trkpt>
      <trkpt lat="48.41099" lon="7.32397">
        <ele>646.05499267578</ele>
        <time>2020-05-21T11:59:57Z</time>
      </trkpt>
      <trkpt lat="48.41093" lon="7.32401">
        <ele>644.05499267578</ele>
        <time>2020-05-21T12:00:04Z</time>
      </trkpt>
      <trkpt lat="48.41087" lon="7.32406">
        <ele>647.05499267578</ele>
        <time>2020-05-21T12:00:09Z</time>
      </trkpt>
      <trkpt lat="48.41082" lon="7.32417">
        <ele>646.05499267578</ele>
        <time>2020-05-21T12:00:14Z</time>
      </trkpt>
      <trkpt lat="48.41077" lon="7.32426">
        <ele>645.05499267578</ele>
        <time>2020-05-21T12:00:19Z</time>
      </trkpt>
      <trkpt lat="48.41072" lon="7.32432">
        <ele>645.05499267578</ele>
        <time>2020-05-21T12:00:24Z</time>
      </trkpt>
      <trkpt lat="48.41067" lon="7.32439">
        <ele>644.05499267578</ele>
        <time>2020-05-21T12:00:30Z</time>
      </trkpt>
      <trkpt lat="48.41065" lon="7.3245">
        <ele>642.05499267578</ele>
        <time>2020-05-21T12:00:35Z</time>
      </trkpt>
      <trkpt lat="48.41059" lon="7.32455">
        <ele>642.05499267578</ele>
        <time>2020-05-21T12:00:40Z</time>
      </trkpt>
      <trkpt lat="48.41053" lon="7.32463">
        <ele>644.05499267578</ele>
        <time>2020-05-21T12:00:45Z</time>
      </trkpt>
      <trkpt lat="48.41052" lon="7.32473">
        <ele>643.05499267578</ele>
        <time>2020-05-21T12:00:50Z</time>
      </trkpt>
      <trkpt lat="48.41053" lon="7.32485">
        <ele>642.05499267578</ele>
        <time>2020-05-21T12:00:56Z</time>
      </trkpt>
      <trkpt lat="48.4106" lon="7.32496">
        <ele>642.05499267578</ele>
        <time>2020-05-21T12:01:01Z</time>
      </trkpt>
      <trkpt lat="48.41067" lon="7.325">
        <ele>645.05499267578</ele>
        <time>2020-05-21T12:01:06Z</time>
      </trkpt>
      <trkpt lat="48.41073" lon="7.32504">
        <ele>646.05499267578</ele>
        <time>2020-05-21T12:01:12Z</time>
      </trkpt>
      <trkpt lat="48.4108" lon="7.32507">
        <ele>646.05499267578</ele>
        <time>2020-05-21T12:01:17Z</time>
      </trkpt>
      <trkpt lat="48.41086" lon="7.32514">
        <ele>647.05499267578</ele>
        <time>2020-05-21T12:01:22Z</time>
      </trkpt>
      <trkpt lat="48.41094" lon="7.32522">
        <ele>645.05499267578</ele>
        <time>2020-05-21T12:01:27Z</time>
      </trkpt>
      <trkpt lat="48.411" lon="7.32525">
        <ele>646.05499267578</ele>
        <time>2020-05-21T12:01:33Z</time>
      </trkpt>
      <trkpt lat="48.41106" lon="7.32536">
        <ele>649.05499267578</ele>
        <time>2020-05-21T12:01:38Z</time>
      </trkpt>
      <trkpt lat="48.4111" lon="7.32546">
        <ele>651.05499267578</ele>
        <time>2020-05-21T12:01:43Z</time>
      </trkpt>
      <trkpt lat="48.41117" lon="7.32551">
        <ele>653.05499267578</ele>
        <time>2020-05-21T12:01:48Z</time>
      </trkpt>
      <trkpt lat="48.41111" lon="7.32555">
        <ele>647.05499267578</ele>
        <time>2020-05-21T12:02:03Z</time>
      </trkpt>
      <trkpt lat="48.41104" lon="7.32558">
        <ele>648.05499267578</ele>
        <time>2020-05-21T12:02:09Z</time>
      </trkpt>
      <trkpt lat="48.41098" lon="7.32557">
        <ele>646.05499267578</ele>
        <time>2020-05-21T12:02:15Z</time>
      </trkpt>
      <trkpt lat="48.41091" lon="7.32557">
        <ele>644.05499267578</ele>
        <time>2020-05-21T12:02:20Z</time>
      </trkpt>
      <trkpt lat="48.41086" lon="7.32567">
        <ele>648.05499267578</ele>
        <time>2020-05-21T12:02:26Z</time>
      </trkpt>
      <trkpt lat="48.4108" lon="7.32577">
        <ele>647.05499267578</ele>
        <time>2020-05-21T12:02:31Z</time>
      </trkpt>
      <trkpt lat="48.41077" lon="7.32586">
        <ele>646.05499267578</ele>
        <time>2020-05-21T12:02:36Z</time>
      </trkpt>
      <trkpt lat="48.41075" lon="7.32596">
        <ele>645.05499267578</ele>
        <time>2020-05-21T12:02:41Z</time>
      </trkpt>
      <trkpt lat="48.41071" lon="7.32606">
        <ele>643.05499267578</ele>
        <time>2020-05-21T12:02:47Z</time>
      </trkpt>
      <trkpt lat="48.41065" lon="7.32612">
        <ele>643.05499267578</ele>
        <time>2020-05-21T12:02:52Z</time>
      </trkpt>
      <trkpt lat="48.41056" lon="7.32616">
        <ele>644.05499267578</ele>
        <time>2020-05-21T12:02:57Z</time>
      </trkpt>
      <trkpt lat="48.4105" lon="7.32622">
        <ele>640.05499267578</ele>
        <time>2020-05-21T12:03:07Z</time>
      </trkpt>
      <trkpt lat="48.41043" lon="7.32628">
        <ele>637.05499267578</ele>
        <time>2020-05-21T12:03:16Z</time>
      </trkpt>
      <trkpt lat="48.41037" lon="7.32634">
        <ele>635.05499267578</ele>
        <time>2020-05-21T12:03:21Z</time>
      </trkpt>
      <trkpt lat="48.4103" lon="7.3264">
        <ele>635.05499267578</ele>
        <time>2020-05-21T12:03:27Z</time>
      </trkpt>
      <trkpt lat="48.41023" lon="7.32642">
        <ele>634.05499267578</ele>
        <time>2020-05-21T12:03:32Z</time>
      </trkpt>
      <trkpt lat="48.41016" lon="7.32641">
        <ele>634.05499267578</ele>
        <time>2020-05-21T12:03:37Z</time>
      </trkpt>
      <trkpt lat="48.4101" lon="7.32645">
        <ele>631.05499267578</ele>
        <time>2020-05-21T12:03:43Z</time>
      </trkpt>
      <trkpt lat="48.41002" lon="7.32648">
        <ele>631.05499267578</ele>
        <time>2020-05-21T12:03:48Z</time>
      </trkpt>
      <trkpt lat="48.40994" lon="7.32654">
        <ele>629.05499267578</ele>
        <time>2020-05-21T12:03:53Z</time>
      </trkpt>
      <trkpt lat="48.40986" lon="7.32653">
        <ele>630.05499267578</ele>
        <time>2020-05-21T12:04:00Z</time>
      </trkpt>
      <trkpt lat="48.40979" lon="7.32653">
        <ele>626.05499267578</ele>
        <time>2020-05-21T12:04:06Z</time>
      </trkpt>
      <trkpt lat="48.40972" lon="7.32651">
        <ele>629.05499267578</ele>
        <time>2020-05-21T12:04:11Z</time>
      </trkpt>
      <trkpt lat="48.40966" lon="7.32646">
        <ele>625.05499267578</ele>
        <time>2020-05-21T12:04:16Z</time>
      </trkpt>
      <trkpt lat="48.40959" lon="7.32643">
        <ele>626.05499267578</ele>
        <time>2020-05-21T12:04:22Z</time>
      </trkpt>
      <trkpt lat="48.40952" lon="7.32642">
        <ele>627.05499267578</ele>
        <time>2020-05-21T12:04:27Z</time>
      </trkpt>
      <trkpt lat="48.40945" lon="7.32638">
        <ele>625.05499267578</ele>
        <time>2020-05-21T12:04:33Z</time>
      </trkpt>
      <trkpt lat="48.40938" lon="7.32636">
        <ele>626.05499267578</ele>
        <time>2020-05-21T12:04:40Z</time>
      </trkpt>
      <trkpt lat="48.40931" lon="7.32635">
        <ele>626.05499267578</ele>
        <time>2020-05-21T12:04:45Z</time>
      </trkpt>
      <trkpt lat="48.40925" lon="7.3263">
        <ele>625.05499267578</ele>
        <time>2020-05-21T12:04:50Z</time>
      </trkpt>
      <trkpt lat="48.40919" lon="7.32623">
        <ele>624.05499267578</ele>
        <time>2020-05-21T12:04:56Z</time>
      </trkpt>
      <trkpt lat="48.40913" lon="7.32616">
        <ele>622.05499267578</ele>
        <time>2020-05-21T12:05:01Z</time>
      </trkpt>
      <trkpt lat="48.40906" lon="7.3261">
        <ele>620.05499267578</ele>
        <time>2020-05-21T12:05:07Z</time>
      </trkpt>
      <trkpt lat="48.40899" lon="7.32606">
        <ele>617.05499267578</ele>
        <time>2020-05-21T12:05:13Z</time>
      </trkpt>
      <trkpt lat="48.40893" lon="7.32602">
        <ele>614.05499267578</ele>
        <time>2020-05-21T12:05:19Z</time>
      </trkpt>
      <trkpt lat="48.40887" lon="7.32598">
        <ele>613.05499267578</ele>
        <time>2020-05-21T12:05:25Z</time>
      </trkpt>
      <trkpt lat="48.40879" lon="7.32592">
        <ele>612.05499267578</ele>
        <time>2020-05-21T12:05:30Z</time>
      </trkpt>
      <trkpt lat="48.40872" lon="7.32592">
        <ele>610.05499267578</ele>
        <time>2020-05-21T12:05:35Z</time>
      </trkpt>
      <trkpt lat="48.40865" lon="7.32592">
        <ele>607.05499267578</ele>
        <time>2020-05-21T12:05:40Z</time>
      </trkpt>
      <trkpt lat="48.40858" lon="7.3259">
        <ele>609.05499267578</ele>
        <time>2020-05-21T12:05:47Z</time>
      </trkpt>
      <trkpt lat="48.40852" lon="7.32595">
        <ele>609.05499267578</ele>
        <time>2020-05-21T12:05:53Z</time>
      </trkpt>
      <trkpt lat="48.40846" lon="7.326">
        <ele>615.05499267578</ele>
        <time>2020-05-21T12:06:24Z</time>
      </trkpt>
      <trkpt lat="48.40839" lon="7.32602">
        <ele>613.05499267578</ele>
        <time>2020-05-21T12:06:29Z</time>
      </trkpt>
      <trkpt lat="48.40832" lon="7.32603">
        <ele>612.05499267578</ele>
        <time>2020-05-21T12:06:34Z</time>
      </trkpt>
      <trkpt lat="48.40823" lon="7.32607">
        <ele>612.05499267578</ele>
        <time>2020-05-21T12:06:39Z</time>
      </trkpt>
      <trkpt lat="48.40815" lon="7.32612">
        <ele>612.05499267578</ele>
        <time>2020-05-21T12:06:44Z</time>
      </trkpt>
      <trkpt lat="48.40806" lon="7.32612">
        <ele>610.05499267578</ele>
        <time>2020-05-21T12:06:49Z</time>
      </trkpt>
      <trkpt lat="48.408" lon="7.32606">
        <ele>609.05499267578</ele>
        <time>2020-05-21T12:06:55Z</time>
      </trkpt>
      <trkpt lat="48.40794" lon="7.32606">
        <ele>610.05499267578</ele>
        <time>2020-05-21T12:07:00Z</time>
      </trkpt>
      <trkpt lat="48.40786" lon="7.32605">
        <ele>608.05499267578</ele>
        <time>2020-05-21T12:07:07Z</time>
      </trkpt>
      <trkpt lat="48.40779" lon="7.32602">
        <ele>608.05499267578</ele>
        <time>2020-05-21T12:07:12Z</time>
      </trkpt>
      <trkpt lat="48.40772" lon="7.32599">
        <ele>609.05499267578</ele>
        <time>2020-05-21T12:07:18Z</time>
      </trkpt>
      <trkpt lat="48.40766" lon="7.32595">
        <ele>610.05499267578</ele>
        <time>2020-05-21T12:07:24Z</time>
      </trkpt>
      <trkpt lat="48.4076" lon="7.32597">
        <ele>610.05401611328</ele>
        <time>2020-05-21T12:07:29Z</time>
      </trkpt>
      <trkpt lat="48.40751" lon="7.32601">
        <ele>608.05401611328</ele>
        <time>2020-05-21T12:07:34Z</time>
      </trkpt>
      <trkpt lat="48.40744" lon="7.32603">
        <ele>610.05401611328</ele>
        <time>2020-05-21T12:07:40Z</time>
      </trkpt>
      <trkpt lat="48.40737" lon="7.32608">
        <ele>607.05401611328</ele>
        <time>2020-05-21T12:07:46Z</time>
      </trkpt>
      <trkpt lat="48.40729" lon="7.32615">
        <ele>607.05401611328</ele>
        <time>2020-05-21T12:07:51Z</time>
      </trkpt>
      <trkpt lat="48.40722" lon="7.3262">
        <ele>606.05401611328</ele>
        <time>2020-05-21T12:08:33Z</time>
      </trkpt>
      <trkpt lat="48.40717" lon="7.32628">
        <ele>606.05401611328</ele>
        <time>2020-05-21T12:08:38Z</time>
      </trkpt>
      <trkpt lat="48.40712" lon="7.32635">
        <ele>608.05401611328</ele>
        <time>2020-05-21T12:08:44Z</time>
      </trkpt>
      <trkpt lat="48.40708" lon="7.32645">
        <ele>609.05401611328</ele>
        <time>2020-05-21T12:08:50Z</time>
      </trkpt>
      <trkpt lat="48.40702" lon="7.32656">
        <ele>609.05401611328</ele>
        <time>2020-05-21T12:08:55Z</time>
      </trkpt>
      <trkpt lat="48.407" lon="7.32668">
        <ele>604.05401611328</ele>
        <time>2020-05-21T12:09:01Z</time>
      </trkpt>
      <trkpt lat="48.40697" lon="7.32678">
        <ele>604.05401611328</ele>
        <time>2020-05-21T12:09:07Z</time>
      </trkpt>
      <trkpt lat="48.40694" lon="7.32689">
        <ele>604.05401611328</ele>
        <time>2020-05-21T12:09:13Z</time>
      </trkpt>
      <trkpt lat="48.40691" lon="7.32699">
        <ele>604.05401611328</ele>
        <time>2020-05-21T12:09:18Z</time>
      </trkpt>
      <trkpt lat="48.40688" lon="7.3271">
        <ele>606.05401611328</ele>
        <time>2020-05-21T12:09:23Z</time>
      </trkpt>
      <trkpt lat="48.40684" lon="7.32721">
        <ele>606.05401611328</ele>
        <time>2020-05-21T12:09:28Z</time>
      </trkpt>
      <trkpt lat="48.40683" lon="7.32731">
        <ele>607.05401611328</ele>
        <time>2020-05-21T12:09:33Z</time>
      </trkpt>
      <trkpt lat="48.4068" lon="7.32742">
        <ele>605.05401611328</ele>
        <time>2020-05-21T12:09:38Z</time>
      </trkpt>
      <trkpt lat="48.40674" lon="7.32751">
        <ele>608.05401611328</ele>
        <time>2020-05-21T12:09:43Z</time>
      </trkpt>
      <trkpt lat="48.4068" lon="7.32761">
        <ele>605.05401611328</ele>
        <time>2020-05-21T12:09:49Z</time>
      </trkpt>
      <trkpt lat="48.40682" lon="7.3277">
        <ele>604.05401611328</ele>
        <time>2020-05-21T12:09:54Z</time>
      </trkpt>
      <trkpt lat="48.40682" lon="7.32781">
        <ele>606.05401611328</ele>
        <time>2020-05-21T12:10:00Z</time>
      </trkpt>
      <trkpt lat="48.40679" lon="7.32793">
        <ele>606.05401611328</ele>
        <time>2020-05-21T12:10:05Z</time>
      </trkpt>
      <trkpt lat="48.40675" lon="7.32802">
        <ele>604.05401611328</ele>
        <time>2020-05-21T12:10:10Z</time>
      </trkpt>
      <trkpt lat="48.40677" lon="7.32813">
        <ele>601.05401611328</ele>
        <time>2020-05-21T12:10:16Z</time>
      </trkpt>
      <trkpt lat="48.40682" lon="7.32823">
        <ele>600.05401611328</ele>
        <time>2020-05-21T12:10:21Z</time>
      </trkpt>
      <trkpt lat="48.40682" lon="7.32835">
        <ele>601.05401611328</ele>
        <time>2020-05-21T12:10:26Z</time>
      </trkpt>
      <trkpt lat="48.40684" lon="7.32846">
        <ele>604.05401611328</ele>
        <time>2020-05-21T12:10:31Z</time>
      </trkpt>
      <trkpt lat="48.40682" lon="7.32856">
        <ele>606.05401611328</ele>
        <time>2020-05-21T12:10:37Z</time>
      </trkpt>
      <trkpt lat="48.40678" lon="7.32865">
        <ele>605.05401611328</ele>
        <time>2020-05-21T12:10:43Z</time>
      </trkpt>
      <trkpt lat="48.40671" lon="7.32868">
        <ele>602.05401611328</ele>
        <time>2020-05-21T12:10:49Z</time>
      </trkpt>
      <trkpt lat="48.40663" lon="7.32872">
        <ele>603.05401611328</ele>
        <time>2020-05-21T12:10:54Z</time>
      </trkpt>
      <trkpt lat="48.40656" lon="7.32875">
        <ele>601.05401611328</ele>
        <time>2020-05-21T12:10:59Z</time>
      </trkpt>
      <trkpt lat="48.40649" lon="7.32878">
        <ele>601.05401611328</ele>
        <time>2020-05-21T12:11:04Z</time>
      </trkpt>
      <trkpt lat="48.40643" lon="7.32882">
        <ele>601.05401611328</ele>
        <time>2020-05-21T12:11:10Z</time>
      </trkpt>
      <trkpt lat="48.40636" lon="7.32887">
        <ele>599.05401611328</ele>
        <time>2020-05-21T12:11:16Z</time>
      </trkpt>
      <trkpt lat="48.40632" lon="7.32895">
        <ele>596.05401611328</ele>
        <time>2020-05-21T12:11:21Z</time>
      </trkpt>
      <trkpt lat="48.40627" lon="7.32902">
        <ele>595.05401611328</ele>
        <time>2020-05-21T12:11:27Z</time>
      </trkpt>
      <trkpt lat="48.40621" lon="7.32909">
        <ele>596.05401611328</ele>
        <time>2020-05-21T12:11:32Z</time>
      </trkpt>
      <trkpt lat="48.40617" lon="7.32917">
        <ele>594.05401611328</ele>
        <time>2020-05-21T12:11:43Z</time>
      </trkpt>
      <trkpt lat="48.4061" lon="7.32918">
        <ele>588.05401611328</ele>
        <time>2020-05-21T12:11:50Z</time>
      </trkpt>
      <trkpt lat="48.40603" lon="7.32925">
        <ele>585.05401611328</ele>
        <time>2020-05-21T12:11:55Z</time>
      </trkpt>
      <trkpt lat="48.40596" lon="7.32929">
        <ele>585.05401611328</ele>
        <time>2020-05-21T12:12:00Z</time>
      </trkpt>
      <trkpt lat="48.40591" lon="7.32937">
        <ele>584.05401611328</ele>
        <time>2020-05-21T12:12:06Z</time>
      </trkpt>
      <trkpt lat="48.40586" lon="7.32942">
        <ele>582.05401611328</ele>
        <time>2020-05-21T12:12:12Z</time>
      </trkpt>
      <trkpt lat="48.40579" lon="7.32946">
        <ele>581.05401611328</ele>
        <time>2020-05-21T12:12:19Z</time>
      </trkpt>
      <trkpt lat="48.40573" lon="7.32954">
        <ele>581.05401611328</ele>
        <time>2020-05-21T12:12:24Z</time>
      </trkpt>
      <trkpt lat="48.40568" lon="7.32961">
        <ele>582.05401611328</ele>
        <time>2020-05-21T12:12:30Z</time>
      </trkpt>
      <trkpt lat="48.40563" lon="7.32969">
        <ele>582.05401611328</ele>
        <time>2020-05-21T12:12:36Z</time>
      </trkpt>
      <trkpt lat="48.40556" lon="7.32975">
        <ele>581.05401611328</ele>
        <time>2020-05-21T12:12:41Z</time>
      </trkpt>
      <trkpt lat="48.40551" lon="7.32981">
        <ele>581.05401611328</ele>
        <time>2020-05-21T12:12:48Z</time>
      </trkpt>
      <trkpt lat="48.40544" lon="7.32982">
        <ele>587.05401611328</ele>
        <time>2020-05-21T12:12:54Z</time>
      </trkpt>
      <trkpt lat="48.40537" lon="7.3299">
        <ele>584.05401611328</ele>
        <time>2020-05-21T12:12:59Z</time>
      </trkpt>
      <trkpt lat="48.40532" lon="7.32997">
        <ele>584.05401611328</ele>
        <time>2020-05-21T12:13:10Z</time>
      </trkpt>
      <trkpt lat="48.40526" lon="7.33">
        <ele>585.05401611328</ele>
        <time>2020-05-21T12:13:28Z</time>
      </trkpt>
      <trkpt lat="48.40521" lon="7.33007">
        <ele>585.05401611328</ele>
        <time>2020-05-21T12:13:33Z</time>
      </trkpt>
      <trkpt lat="48.40513" lon="7.33014">
        <ele>585.05401611328</ele>
        <time>2020-05-21T12:13:38Z</time>
      </trkpt>
      <trkpt lat="48.40507" lon="7.33023">
        <ele>587.05401611328</ele>
        <time>2020-05-21T12:13:43Z</time>
      </trkpt>
      <trkpt lat="48.40501" lon="7.33031">
        <ele>589.05401611328</ele>
        <time>2020-05-21T12:13:48Z</time>
      </trkpt>
      <trkpt lat="48.40496" lon="7.33038">
        <ele>588.05401611328</ele>
        <time>2020-05-21T12:13:53Z</time>
      </trkpt>
      <trkpt lat="48.40491" lon="7.33045">
        <ele>588.05401611328</ele>
        <time>2020-05-21T12:13:58Z</time>
      </trkpt>
      <trkpt lat="48.40485" lon="7.33053">
        <ele>589.05401611328</ele>
        <time>2020-05-21T12:14:03Z</time>
      </trkpt>
      <trkpt lat="48.40479" lon="7.33058">
        <ele>586.05401611328</ele>
        <time>2020-05-21T12:14:08Z</time>
      </trkpt>
      <trkpt lat="48.40475" lon="7.33066">
        <ele>586.05401611328</ele>
        <time>2020-05-21T12:14:13Z</time>
      </trkpt>
      <trkpt lat="48.40469" lon="7.33075">
        <ele>588.05401611328</ele>
        <time>2020-05-21T12:14:18Z</time>
      </trkpt>
      <trkpt lat="48.40463" lon="7.33083">
        <ele>587.05401611328</ele>
        <time>2020-05-21T12:14:23Z</time>
      </trkpt>
      <trkpt lat="48.40458" lon="7.33089">
        <ele>585.05401611328</ele>
        <time>2020-05-21T12:14:28Z</time>
      </trkpt>
      <trkpt lat="48.40453" lon="7.33097">
        <ele>584.05401611328</ele>
        <time>2020-05-21T12:14:33Z</time>
      </trkpt>
      <trkpt lat="48.40448" lon="7.33104">
        <ele>583.05401611328</ele>
        <time>2020-05-21T12:14:38Z</time>
      </trkpt>
      <trkpt lat="48.40442" lon="7.33111">
        <ele>583.05401611328</ele>
        <time>2020-05-21T12:14:43Z</time>
      </trkpt>
    </trkseg>
  </trk>
</gpx>